<?xml version='1.0' encoding='UTF-8'?><gpx version="1.1" creator="JPX - https://github.com/jenetics/jpx" xmlns="http://www.topografix.com/GPX/1/1"><trk><trkseg><trkpt lat="43.0509756" lon="12.330454"><ele>297.0</ele><time>2026-04-06T07:07:39.007Z</time></trkpt><trkpt lat="43.0510405" lon="12.3304898"><ele>297.0</ele><time>2026-04-06T07:08:36.679Z</time></trkpt><trkpt lat="43.050977" lon="12.3304725"><ele>297.0</ele><time>2026-04-06T07:08:47.679Z</time></trkpt><trkpt lat="43.0509346" lon="12.3304058"><ele>297.0</ele><time>2026-04-06T07:09:11.667Z</time></trkpt><trkpt lat="43.0510325" lon="12.3304427"><ele>297.0</ele><time>2026-04-06T07:09:39.666Z</time></trkpt><trkpt lat="43.0511748" lon="12.3304575"><ele>297.0</ele><time>2026-04-06T07:11:14.693Z</time></trkpt><trkpt lat="43.0510467" lon="12.3304674"><ele>297.0</ele><time>2026-04-06T07:11:20.692Z</time></trkpt><trkpt lat="43.0509915" lon="12.3304056"><ele>297.0</ele><time>2026-04-06T07:11:24.679Z</time></trkpt><trkpt lat="43.0510855" lon="12.330514"><ele>297.0</ele><time>2026-04-06T07:12:19.666Z</time></trkpt><trkpt lat="43.0510253" lon="12.3304521"><ele>297.0</ele><time>2026-04-06T07:12:47.666Z</time></trkpt><trkpt lat="43.0509669" lon="12.3304096"><ele>297.0</ele><time>2026-04-06T07:12:53.706Z</time></trkpt><trkpt lat="43.0510556" lon="12.3304263"><ele>297.0</ele><time>2026-04-06T07:13:04.611Z</time></trkpt><trkpt lat="43.0511213" lon="12.3304301"><ele>297.0</ele><time>2026-04-06T07:13:28.693Z</time></trkpt><trkpt lat="43.0510588" lon="12.3304541"><ele>297.0</ele><time>2026-04-06T07:14:20.682Z</time></trkpt><trkpt lat="43.0509767" lon="12.3304345"><ele>297.0</ele><time>2026-04-06T07:14:22.679Z</time></trkpt><trkpt lat="43.0510463" lon="12.3304737"><ele>297.0</ele><time>2026-04-06T07:14:39.681Z</time></trkpt><trkpt lat="43.0510881" lon="12.330557"><ele>297.0</ele><time>2026-04-06T07:14:50.693Z</time></trkpt><trkpt lat="43.0511206" lon="12.3304783"><ele>297.0</ele><time>2026-04-06T07:15:41.554Z</time></trkpt><trkpt lat="43.0510621" lon="12.3304461"><ele>297.0</ele><time>2026-04-06T07:15:48.691Z</time></trkpt><trkpt lat="43.050997" lon="12.3304397"><ele>297.0</ele><time>2026-04-06T07:15:50.678Z</time></trkpt><trkpt lat="43.0510624" lon="12.3304742"><ele>297.0</ele><time>2026-04-06T07:16:15.678Z</time></trkpt><trkpt lat="43.0511249" lon="12.3304847"><ele>297.0</ele><time>2026-04-06T07:16:21.678Z</time></trkpt><trkpt lat="43.0511946" lon="12.3304224"><ele>297.0</ele><time>2026-04-06T07:16:52.668Z</time></trkpt><trkpt lat="43.0512466" lon="12.3303586"><ele>297.0</ele><time>2026-04-06T07:16:54.676Z</time></trkpt><trkpt lat="43.0513067" lon="12.3302935"><ele>297.0</ele><time>2026-04-06T07:16:56.677Z</time></trkpt><trkpt lat="43.0513683" lon="12.3302367"><ele>297.0</ele><time>2026-04-06T07:16:58.664Z</time></trkpt><trkpt lat="43.0514224" lon="12.3301812"><ele>297.0</ele><time>2026-04-06T07:17:01.67Z</time></trkpt><trkpt lat="43.0514932" lon="12.3301944"><ele>297.0</ele><time>2026-04-06T07:17:05.668Z</time></trkpt><trkpt lat="43.0514972" lon="12.3300681"><ele>297.0</ele><time>2026-04-06T07:17:08.664Z</time></trkpt><trkpt lat="43.0514703" lon="12.3299768"><ele>297.0</ele><time>2026-04-06T07:17:10.667Z</time></trkpt><trkpt lat="43.0514589" lon="12.3298842"><ele>297.0</ele><time>2026-04-06T07:17:12.668Z</time></trkpt><trkpt lat="43.0514537" lon="12.3297752"><ele>297.0</ele><time>2026-04-06T07:17:14.663Z</time></trkpt><trkpt lat="43.051447" lon="12.3296612"><ele>296.6</ele><time>2026-04-06T07:17:16.664Z</time></trkpt><trkpt lat="43.051448" lon="12.3295439"><ele>296.2</ele><time>2026-04-06T07:17:18.665Z</time></trkpt><trkpt lat="43.0514309" lon="12.329431"><ele>295.8</ele><time>2026-04-06T07:17:20.679Z</time></trkpt><trkpt lat="43.0514195" lon="12.3292639"><ele>295.4</ele><time>2026-04-06T07:17:23.669Z</time></trkpt><trkpt lat="43.0514162" lon="12.329146"><ele>295.0</ele><time>2026-04-06T07:17:25.675Z</time></trkpt><trkpt lat="43.0514153" lon="12.3290362"><ele>295.0</ele><time>2026-04-06T07:17:27.664Z</time></trkpt><trkpt lat="43.0514222" lon="12.3289264"><ele>295.0</ele><time>2026-04-06T07:17:29.67Z</time></trkpt><trkpt lat="43.05144" lon="12.3288248"><ele>295.0</ele><time>2026-04-06T07:17:31.668Z</time></trkpt><trkpt lat="43.0514801" lon="12.3287363"><ele>295.0</ele><time>2026-04-06T07:17:33.686Z</time></trkpt><trkpt lat="43.05158" lon="12.3286947"><ele>295.0</ele><time>2026-04-06T07:17:35.659Z</time></trkpt><trkpt lat="43.0516613" lon="12.3287235"><ele>295.0</ele><time>2026-04-06T07:17:37.655Z</time></trkpt><trkpt lat="43.0517384" lon="12.3287747"><ele>295.4</ele><time>2026-04-06T07:17:39.664Z</time></trkpt><trkpt lat="43.0518424" lon="12.3287887"><ele>295.8</ele><time>2026-04-06T07:17:41.669Z</time></trkpt><trkpt lat="43.0519358" lon="12.3288259"><ele>296.2</ele><time>2026-04-06T07:17:43.665Z</time></trkpt><trkpt lat="43.052009" lon="12.328869"><ele>296.6</ele><time>2026-04-06T07:17:45.66Z</time></trkpt><trkpt lat="43.0520918" lon="12.3289351"><ele>297.0</ele><time>2026-04-06T07:17:47.681Z</time></trkpt><trkpt lat="43.0521857" lon="12.3289641"><ele>297.0</ele><time>2026-04-06T07:17:49.681Z</time></trkpt><trkpt lat="43.0522777" lon="12.3289955"><ele>297.0</ele><time>2026-04-06T07:17:51.674Z</time></trkpt><trkpt lat="43.0523519" lon="12.3290498"><ele>297.0</ele><time>2026-04-06T07:17:53.68Z</time></trkpt><trkpt lat="43.0524417" lon="12.3290592"><ele>297.0</ele><time>2026-04-06T07:17:55.677Z</time></trkpt><trkpt lat="43.0525216" lon="12.3289927"><ele>297.0</ele><time>2026-04-06T07:17:57.671Z</time></trkpt><trkpt lat="43.0525534" lon="12.3288949"><ele>297.0</ele><time>2026-04-06T07:17:59.673Z</time></trkpt><trkpt lat="43.0525656" lon="12.3287845"><ele>296.7142857142857</ele><time>2026-04-06T07:18:01.677Z</time></trkpt><trkpt lat="43.0525593" lon="12.3286777"><ele>296.42857142857144</ele><time>2026-04-06T07:18:03.682Z</time></trkpt><trkpt lat="43.0525252" lon="12.3285925"><ele>296.14285714285717</ele><time>2026-04-06T07:18:05.678Z</time></trkpt><trkpt lat="43.0524843" lon="12.3285033"><ele>295.8571428571429</ele><time>2026-04-06T07:18:09.673Z</time></trkpt><trkpt lat="43.0524923" lon="12.3285922"><ele>295.57142857142856</ele><time>2026-04-06T07:21:04.68Z</time></trkpt><trkpt lat="43.0525249" lon="12.3286727"><ele>295.28571428571433</ele><time>2026-04-06T07:21:08.685Z</time></trkpt><trkpt lat="43.0525919" lon="12.3286388"><ele>295.0</ele><time>2026-04-06T07:21:12.678Z</time></trkpt><trkpt lat="43.052609" lon="12.3285018"><ele>295.00000000000006</ele><time>2026-04-06T07:21:14.675Z</time></trkpt><trkpt lat="43.0526248" lon="12.3283379"><ele>295.0</ele><time>2026-04-06T07:21:16.679Z</time></trkpt><trkpt lat="43.0526309" lon="12.3282511"><ele>295.0</ele><time>2026-04-06T07:21:17.687Z</time></trkpt><trkpt lat="43.0526485" lon="12.3281617"><ele>295.0</ele><time>2026-04-06T07:21:18.661Z</time></trkpt><trkpt lat="43.0526656" lon="12.3280754"><ele>295.0</ele><time>2026-04-06T07:21:19.682Z</time></trkpt><trkpt lat="43.0526848" lon="12.3279899"><ele>295.00000000000006</ele><time>2026-04-06T07:21:20.685Z</time></trkpt><trkpt lat="43.0526991" lon="12.3279045"><ele>295.0</ele><time>2026-04-06T07:21:21.675Z</time></trkpt><trkpt lat="43.0527195" lon="12.3278173"><ele>295.0</ele><time>2026-04-06T07:21:22.679Z</time></trkpt><trkpt lat="43.0527395" lon="12.3277293"><ele>295.0</ele><time>2026-04-06T07:21:23.775Z</time></trkpt><trkpt lat="43.0527789" lon="12.3275597"><ele>295.0</ele><time>2026-04-06T07:21:25.679Z</time></trkpt><trkpt lat="43.052812" lon="12.327392"><ele>295.0</ele><time>2026-04-06T07:21:27.681Z</time></trkpt><trkpt lat="43.0528302" lon="12.327307"><ele>295.0</ele><time>2026-04-06T07:21:28.682Z</time></trkpt><trkpt lat="43.0528503" lon="12.3272215"><ele>294.6</ele><time>2026-04-06T07:21:29.68Z</time></trkpt><trkpt lat="43.052882" lon="12.3270636"><ele>294.2</ele><time>2026-04-06T07:21:31.682Z</time></trkpt><trkpt lat="43.0529166" lon="12.3269"><ele>293.8</ele><time>2026-04-06T07:21:33.676Z</time></trkpt><trkpt lat="43.0529511" lon="12.3267463"><ele>293.4</ele><time>2026-04-06T07:21:35.765Z</time></trkpt><trkpt lat="43.0529707" lon="12.3266619"><ele>293.0</ele><time>2026-04-06T07:21:36.677Z</time></trkpt><trkpt lat="43.0530084" lon="12.326495"><ele>293.0</ele><time>2026-04-06T07:21:38.665Z</time></trkpt><trkpt lat="43.0530296" lon="12.3264077"><ele>293.0</ele><time>2026-04-06T07:21:39.678Z</time></trkpt><trkpt lat="43.0530504" lon="12.3263247"><ele>293.0</ele><time>2026-04-06T07:21:40.681Z</time></trkpt><trkpt lat="43.0530879" lon="12.3261538"><ele>293.0</ele><time>2026-04-06T07:21:42.676Z</time></trkpt><trkpt lat="43.053115" lon="12.3260717"><ele>293.0</ele><time>2026-04-06T07:21:43.68Z</time></trkpt><trkpt lat="43.0531467" lon="12.3259904"><ele>293.0</ele><time>2026-04-06T07:21:44.677Z</time></trkpt><trkpt lat="43.0531882" lon="12.3259035"><ele>292.6666666666667</ele><time>2026-04-06T07:21:45.677Z</time></trkpt><trkpt lat="43.0532203" lon="12.3258151"><ele>292.33333333333337</ele><time>2026-04-06T07:21:46.674Z</time></trkpt><trkpt lat="43.0532617" lon="12.3257324"><ele>292.0</ele><time>2026-04-06T07:21:47.681Z</time></trkpt><trkpt lat="43.0533068" lon="12.3256327"><ele>291.6666666666667</ele><time>2026-04-06T07:21:48.685Z</time></trkpt><trkpt lat="43.0533543" lon="12.3255349"><ele>291.3333333333333</ele><time>2026-04-06T07:21:49.679Z</time></trkpt><trkpt lat="43.053391" lon="12.3254406"><ele>291.0</ele><time>2026-04-06T07:21:50.678Z</time></trkpt><trkpt lat="43.0534296" lon="12.3253407"><ele>290.0</ele><time>2026-04-06T07:21:51.678Z</time></trkpt><trkpt lat="43.0534761" lon="12.3252382"><ele>289.0</ele><time>2026-04-06T07:21:52.677Z</time></trkpt><trkpt lat="43.0535171" lon="12.3251365"><ele>288.0</ele><time>2026-04-06T07:21:53.685Z</time></trkpt><trkpt lat="43.0535586" lon="12.3250167"><ele>287.0</ele><time>2026-04-06T07:21:54.677Z</time></trkpt><trkpt lat="43.0535836" lon="12.3249094"><ele>286.0</ele><time>2026-04-06T07:21:55.676Z</time></trkpt><trkpt lat="43.0536012" lon="12.3247944"><ele>285.0</ele><time>2026-04-06T07:21:56.678Z</time></trkpt><trkpt lat="43.0536132" lon="12.3246765"><ele>283.6</ele><time>2026-04-06T07:21:57.676Z</time></trkpt><trkpt lat="43.0536179" lon="12.324549"><ele>282.2</ele><time>2026-04-06T07:21:58.682Z</time></trkpt><trkpt lat="43.0536145" lon="12.3244253"><ele>280.8</ele><time>2026-04-06T07:21:59.681Z</time></trkpt><trkpt lat="43.0536007" lon="12.3243026"><ele>279.4</ele><time>2026-04-06T07:22:00.68Z</time></trkpt><trkpt lat="43.0535684" lon="12.3241683"><ele>278.0</ele><time>2026-04-06T07:22:01.677Z</time></trkpt><trkpt lat="43.0535317" lon="12.3240508"><ele>278.0</ele><time>2026-04-06T07:22:02.684Z</time></trkpt><trkpt lat="43.0534876" lon="12.3239345"><ele>278.0</ele><time>2026-04-06T07:22:03.679Z</time></trkpt><trkpt lat="43.0534356" lon="12.3238196"><ele>278.0</ele><time>2026-04-06T07:22:04.678Z</time></trkpt><trkpt lat="43.0533761" lon="12.323718"><ele>278.0</ele><time>2026-04-06T07:22:05.684Z</time></trkpt><trkpt lat="43.0533059" lon="12.3236287"><ele>278.0</ele><time>2026-04-06T07:22:06.678Z</time></trkpt><trkpt lat="43.0532272" lon="12.3235542"><ele>277.2</ele><time>2026-04-06T07:22:07.677Z</time></trkpt><trkpt lat="43.0531479" lon="12.3234808"><ele>276.4</ele><time>2026-04-06T07:22:08.673Z</time></trkpt><trkpt lat="43.0530662" lon="12.3234141"><ele>275.59999999999997</ele><time>2026-04-06T07:22:09.687Z</time></trkpt><trkpt lat="43.0529905" lon="12.3233296"><ele>274.8</ele><time>2026-04-06T07:22:10.68Z</time></trkpt><trkpt lat="43.0529365" lon="12.3232162"><ele>274.0</ele><time>2026-04-06T07:22:11.679Z</time></trkpt><trkpt lat="43.0529111" lon="12.3230875"><ele>272.8</ele><time>2026-04-06T07:22:12.686Z</time></trkpt><trkpt lat="43.0529143" lon="12.3229521"><ele>271.59999999999997</ele><time>2026-04-06T07:22:13.676Z</time></trkpt><trkpt lat="43.0529583" lon="12.3228343"><ele>270.4</ele><time>2026-04-06T07:22:14.678Z</time></trkpt><trkpt lat="43.0530371" lon="12.3227493"><ele>269.2</ele><time>2026-04-06T07:22:15.677Z</time></trkpt><trkpt lat="43.0531172" lon="12.3226663"><ele>268.0</ele><time>2026-04-06T07:22:16.677Z</time></trkpt><trkpt lat="43.0531985" lon="12.3225789"><ele>268.0</ele><time>2026-04-06T07:22:17.678Z</time></trkpt><trkpt lat="43.0532756" lon="12.3224832"><ele>268.0</ele><time>2026-04-06T07:22:18.68Z</time></trkpt><trkpt lat="43.0533498" lon="12.3223836"><ele>268.0</ele><time>2026-04-06T07:22:19.682Z</time></trkpt><trkpt lat="43.0534185" lon="12.3222742"><ele>268.0</ele><time>2026-04-06T07:22:20.675Z</time></trkpt><trkpt lat="43.0534872" lon="12.3221664"><ele>268.0</ele><time>2026-04-06T07:22:21.676Z</time></trkpt><trkpt lat="43.0535603" lon="12.3220593"><ele>266.8</ele><time>2026-04-06T07:22:22.675Z</time></trkpt><trkpt lat="43.0536382" lon="12.3219458"><ele>265.6</ele><time>2026-04-06T07:22:23.664Z</time></trkpt><trkpt lat="43.0537112" lon="12.321836"><ele>264.4</ele><time>2026-04-06T07:22:24.677Z</time></trkpt><trkpt lat="43.0537826" lon="12.3217254"><ele>263.2</ele><time>2026-04-06T07:22:25.677Z</time></trkpt><trkpt lat="43.0538563" lon="12.321616"><ele>262.0</ele><time>2026-04-06T07:22:26.794Z</time></trkpt><trkpt lat="43.0540247" lon="12.3214323"><ele>261.2</ele><time>2026-04-06T07:22:28.682Z</time></trkpt><trkpt lat="43.0541299" lon="12.321381"><ele>260.4</ele><time>2026-04-06T07:22:29.673Z</time></trkpt><trkpt lat="43.0542403" lon="12.3213637"><ele>259.6</ele><time>2026-04-06T07:22:30.677Z</time></trkpt><trkpt lat="43.0543473" lon="12.3213582"><ele>258.8</ele><time>2026-04-06T07:22:31.681Z</time></trkpt><trkpt lat="43.0544531" lon="12.3213417"><ele>258.0</ele><time>2026-04-06T07:22:32.671Z</time></trkpt><trkpt lat="43.0545596" lon="12.3213124"><ele>258.0</ele><time>2026-04-06T07:22:33.695Z</time></trkpt><trkpt lat="43.0546587" lon="12.3212503"><ele>258.0</ele><time>2026-04-06T07:22:34.67Z</time></trkpt><trkpt lat="43.0547492" lon="12.3211686"><ele>258.0</ele><time>2026-04-06T07:22:35.676Z</time></trkpt><trkpt lat="43.0548228" lon="12.3210635"><ele>258.0</ele><time>2026-04-06T07:22:36.678Z</time></trkpt><trkpt lat="43.0548895" lon="12.3209504"><ele>258.0</ele><time>2026-04-06T07:22:37.68Z</time></trkpt><trkpt lat="43.0549442" lon="12.3208289"><ele>257.75</ele><time>2026-04-06T07:22:38.674Z</time></trkpt><trkpt lat="43.0550039" lon="12.3206872"><ele>257.5</ele><time>2026-04-06T07:22:39.664Z</time></trkpt><trkpt lat="43.0550564" lon="12.3205498"><ele>257.25</ele><time>2026-04-06T07:22:40.68Z</time></trkpt><trkpt lat="43.0551129" lon="12.3204219"><ele>257.0</ele><time>2026-04-06T07:22:41.68Z</time></trkpt><trkpt lat="43.0551651" lon="12.3202895"><ele>255.8</ele><time>2026-04-06T07:22:42.681Z</time></trkpt><trkpt lat="43.0552196" lon="12.3201584"><ele>254.6</ele><time>2026-04-06T07:22:43.682Z</time></trkpt><trkpt lat="43.0552701" lon="12.3200296"><ele>253.40000000000003</ele><time>2026-04-06T07:22:44.776Z</time></trkpt><trkpt lat="43.0553301" lon="12.3199036"><ele>252.20000000000002</ele><time>2026-04-06T07:22:45.681Z</time></trkpt><trkpt lat="43.0553848" lon="12.3197805"><ele>251.0</ele><time>2026-04-06T07:22:46.682Z</time></trkpt><trkpt lat="43.0554367" lon="12.3196527"><ele>250.4</ele><time>2026-04-06T07:22:47.676Z</time></trkpt><trkpt lat="43.0554928" lon="12.3195259"><ele>249.8</ele><time>2026-04-06T07:22:48.675Z</time></trkpt><trkpt lat="43.0555485" lon="12.3193982"><ele>249.20000000000002</ele><time>2026-04-06T07:22:49.664Z</time></trkpt><trkpt lat="43.0555895" lon="12.3192726"><ele>248.60000000000002</ele><time>2026-04-06T07:22:50.688Z</time></trkpt><trkpt lat="43.0556469" lon="12.3191435"><ele>248.0</ele><time>2026-04-06T07:22:51.67Z</time></trkpt><trkpt lat="43.0556936" lon="12.3190197"><ele>247.2</ele><time>2026-04-06T07:22:52.677Z</time></trkpt><trkpt lat="43.0557446" lon="12.3188958"><ele>246.4</ele><time>2026-04-06T07:22:53.685Z</time></trkpt><trkpt lat="43.0557997" lon="12.3187812"><ele>245.59999999999997</ele><time>2026-04-06T07:22:54.676Z</time></trkpt><trkpt lat="43.0558507" lon="12.318662"><ele>244.79999999999998</ele><time>2026-04-06T07:22:55.678Z</time></trkpt><trkpt lat="43.0559014" lon="12.3185409"><ele>244.0</ele><time>2026-04-06T07:22:56.685Z</time></trkpt><trkpt lat="43.0559504" lon="12.318414"><ele>244.0</ele><time>2026-04-06T07:22:57.681Z</time></trkpt><trkpt lat="43.0560005" lon="12.3182984"><ele>243.99999999999997</ele><time>2026-04-06T07:22:58.675Z</time></trkpt><trkpt lat="43.0560515" lon="12.3181793"><ele>243.99999999999997</ele><time>2026-04-06T07:22:59.674Z</time></trkpt><trkpt lat="43.0561043" lon="12.3180561"><ele>244.0</ele><time>2026-04-06T07:23:00.678Z</time></trkpt><trkpt lat="43.0561607" lon="12.3179389"><ele>244.0</ele><time>2026-04-06T07:23:01.802Z</time></trkpt><trkpt lat="43.0562682" lon="12.3177036"><ele>243.2</ele><time>2026-04-06T07:23:03.676Z</time></trkpt><trkpt lat="43.0563288" lon="12.3175949"><ele>242.39999999999998</ele><time>2026-04-06T07:23:04.679Z</time></trkpt><trkpt lat="43.056398" lon="12.3174998"><ele>241.6</ele><time>2026-04-06T07:23:05.68Z</time></trkpt><trkpt lat="43.0564771" lon="12.3174181"><ele>240.8</ele><time>2026-04-06T07:23:06.676Z</time></trkpt><trkpt lat="43.0565654" lon="12.3173436"><ele>240.0</ele><time>2026-04-06T07:23:07.785Z</time></trkpt><trkpt lat="43.0567368" lon="12.3172132"><ele>238.8</ele><time>2026-04-06T07:23:09.676Z</time></trkpt><trkpt lat="43.0568268" lon="12.3171457"><ele>237.6</ele><time>2026-04-06T07:23:10.679Z</time></trkpt><trkpt lat="43.0569122" lon="12.317082"><ele>236.39999999999998</ele><time>2026-04-06T07:23:11.676Z</time></trkpt><trkpt lat="43.056998" lon="12.3170138"><ele>235.2</ele><time>2026-04-06T07:23:12.671Z</time></trkpt><trkpt lat="43.0570856" lon="12.3169494"><ele>234.0</ele><time>2026-04-06T07:23:13.777Z</time></trkpt><trkpt lat="43.0572543" lon="12.3168195"><ele>234.0</ele><time>2026-04-06T07:23:15.666Z</time></trkpt><trkpt lat="43.0573318" lon="12.3167636"><ele>234.0</ele><time>2026-04-06T07:23:16.678Z</time></trkpt><trkpt lat="43.0574105" lon="12.3167045"><ele>234.0</ele><time>2026-04-06T07:23:17.676Z</time></trkpt><trkpt lat="43.0574937" lon="12.3166422"><ele>234.0</ele><time>2026-04-06T07:23:18.672Z</time></trkpt><trkpt lat="43.0575653" lon="12.3165816"><ele>234.0</ele><time>2026-04-06T07:23:19.679Z</time></trkpt><trkpt lat="43.0576379" lon="12.3165177"><ele>234.0</ele><time>2026-04-06T07:23:20.669Z</time></trkpt><trkpt lat="43.0577072" lon="12.3164522"><ele>233.57142857142858</ele><time>2026-04-06T07:23:21.677Z</time></trkpt><trkpt lat="43.057773" lon="12.3163862"><ele>233.14285714285717</ele><time>2026-04-06T07:23:22.665Z</time></trkpt><trkpt lat="43.0578308" lon="12.3163197"><ele>232.71428571428572</ele><time>2026-04-06T07:23:23.679Z</time></trkpt><trkpt lat="43.0578841" lon="12.3162529"><ele>232.28571428571428</ele><time>2026-04-06T07:23:24.676Z</time></trkpt><trkpt lat="43.0579394" lon="12.3161869"><ele>231.85714285714286</ele><time>2026-04-06T07:23:25.695Z</time></trkpt><trkpt lat="43.0579952" lon="12.3161279"><ele>231.42857142857144</ele><time>2026-04-06T07:23:26.677Z</time></trkpt><trkpt lat="43.0580508" lon="12.3160642"><ele>231.0</ele><time>2026-04-06T07:23:27.676Z</time></trkpt><trkpt lat="43.0581059" lon="12.3159977"><ele>231.0</ele><time>2026-04-06T07:23:28.658Z</time></trkpt><trkpt lat="43.0581594" lon="12.3159336"><ele>231.0</ele><time>2026-04-06T07:23:29.676Z</time></trkpt><trkpt lat="43.0582095" lon="12.3158718"><ele>231.0</ele><time>2026-04-06T07:23:30.677Z</time></trkpt><trkpt lat="43.0582641" lon="12.315809"><ele>231.0</ele><time>2026-04-06T07:23:31.677Z</time></trkpt><trkpt lat="43.0583167" lon="12.3157492"><ele>231.0</ele><time>2026-04-06T07:23:32.663Z</time></trkpt><trkpt lat="43.0583712" lon="12.3156949"><ele>231.0</ele><time>2026-04-06T07:23:33.66Z</time></trkpt><trkpt lat="43.0584253" lon="12.315644"><ele>231.0</ele><time>2026-04-06T07:23:34.659Z</time></trkpt><trkpt lat="43.058481" lon="12.3155965"><ele>231.0</ele><time>2026-04-06T07:23:35.665Z</time></trkpt><trkpt lat="43.0585961" lon="12.3155225"><ele>231.0</ele><time>2026-04-06T07:23:37.667Z</time></trkpt><trkpt lat="43.0587045" lon="12.315463"><ele>231.0</ele><time>2026-04-06T07:23:39.666Z</time></trkpt><trkpt lat="43.0588108" lon="12.3154055"><ele>231.0</ele><time>2026-04-06T07:23:41.665Z</time></trkpt><trkpt lat="43.0589133" lon="12.3153438"><ele>231.0</ele><time>2026-04-06T07:23:43.661Z</time></trkpt><trkpt lat="43.0590079" lon="12.3152871"><ele>231.00000000000003</ele><time>2026-04-06T07:23:45.665Z</time></trkpt><trkpt lat="43.0590957" lon="12.315214"><ele>231.00000000000003</ele><time>2026-04-06T07:23:47.667Z</time></trkpt><trkpt lat="43.0591832" lon="12.3151276"><ele>231.0</ele><time>2026-04-06T07:23:49.665Z</time></trkpt><trkpt lat="43.0592583" lon="12.3150382"><ele>231.0</ele><time>2026-04-06T07:23:51.661Z</time></trkpt><trkpt lat="43.0593313" lon="12.3149546"><ele>232.20000000000002</ele><time>2026-04-06T07:23:53.663Z</time></trkpt><trkpt lat="43.0594011" lon="12.3148692"><ele>233.40000000000003</ele><time>2026-04-06T07:23:55.667Z</time></trkpt><trkpt lat="43.0594823" lon="12.3147953"><ele>234.6</ele><time>2026-04-06T07:23:57.663Z</time></trkpt><trkpt lat="43.0595626" lon="12.3147161"><ele>235.8</ele><time>2026-04-06T07:23:59.66Z</time></trkpt><trkpt lat="43.0596593" lon="12.3146307"><ele>237.0</ele><time>2026-04-06T07:24:01.666Z</time></trkpt><trkpt lat="43.0597365" lon="12.3145567"><ele>237.0</ele><time>2026-04-06T07:24:03.666Z</time></trkpt><trkpt lat="43.0598308" lon="12.3144878"><ele>237.0</ele><time>2026-04-06T07:24:05.664Z</time></trkpt><trkpt lat="43.0599385" lon="12.3144392"><ele>237.0</ele><time>2026-04-06T07:24:07.664Z</time></trkpt><trkpt lat="43.0600398" lon="12.314403"><ele>237.0</ele><time>2026-04-06T07:24:09.665Z</time></trkpt><trkpt lat="43.0601469" lon="12.3143819"><ele>237.0</ele><time>2026-04-06T07:24:11.663Z</time></trkpt><trkpt lat="43.0602605" lon="12.3143655"><ele>236.6</ele><time>2026-04-06T07:24:13.657Z</time></trkpt><trkpt lat="43.0603678" lon="12.3143693"><ele>236.2</ele><time>2026-04-06T07:24:15.661Z</time></trkpt><trkpt lat="43.0604798" lon="12.3143632"><ele>235.8</ele><time>2026-04-06T07:24:17.668Z</time></trkpt><trkpt lat="43.0605945" lon="12.3143433"><ele>235.4</ele><time>2026-04-06T07:24:19.671Z</time></trkpt><trkpt lat="43.0606968" lon="12.3143095"><ele>235.0</ele><time>2026-04-06T07:24:21.665Z</time></trkpt><trkpt lat="43.0608002" lon="12.3142765"><ele>235.0</ele><time>2026-04-06T07:24:23.663Z</time></trkpt><trkpt lat="43.0609061" lon="12.3142238"><ele>235.0</ele><time>2026-04-06T07:24:25.663Z</time></trkpt><trkpt lat="43.0610132" lon="12.3141773"><ele>235.0</ele><time>2026-04-06T07:24:27.776Z</time></trkpt><trkpt lat="43.0611219" lon="12.3141223"><ele>235.0</ele><time>2026-04-06T07:24:29.67Z</time></trkpt><trkpt lat="43.0612294" lon="12.3140665"><ele>235.0</ele><time>2026-04-06T07:24:31.685Z</time></trkpt><trkpt lat="43.0613315" lon="12.3140069"><ele>235.0</ele><time>2026-04-06T07:24:33.665Z</time></trkpt><trkpt lat="43.0614338" lon="12.3139431"><ele>235.0</ele><time>2026-04-06T07:24:35.669Z</time></trkpt><trkpt lat="43.0615344" lon="12.3138921"><ele>235.0</ele><time>2026-04-06T07:24:37.666Z</time></trkpt><trkpt lat="43.0616355" lon="12.3138242"><ele>235.0</ele><time>2026-04-06T07:24:39.752Z</time></trkpt><trkpt lat="43.0617321" lon="12.313751"><ele>235.6</ele><time>2026-04-06T07:24:41.682Z</time></trkpt><trkpt lat="43.0618234" lon="12.3136849"><ele>236.2</ele><time>2026-04-06T07:24:43.68Z</time></trkpt><trkpt lat="43.0619195" lon="12.3136168"><ele>236.8</ele><time>2026-04-06T07:24:45.677Z</time></trkpt><trkpt lat="43.062021" lon="12.3135451"><ele>237.4</ele><time>2026-04-06T07:24:47.689Z</time></trkpt><trkpt lat="43.0621211" lon="12.3134845"><ele>238.0</ele><time>2026-04-06T07:24:49.678Z</time></trkpt><trkpt lat="43.062223" lon="12.3134148"><ele>238.0</ele><time>2026-04-06T07:24:51.765Z</time></trkpt><trkpt lat="43.0623166" lon="12.3133379"><ele>238.0</ele><time>2026-04-06T07:24:53.68Z</time></trkpt><trkpt lat="43.06242" lon="12.3132663"><ele>238.0</ele><time>2026-04-06T07:24:55.679Z</time></trkpt><trkpt lat="43.0625208" lon="12.3132026"><ele>238.0</ele><time>2026-04-06T07:24:57.677Z</time></trkpt><trkpt lat="43.0626148" lon="12.3131357"><ele>238.0</ele><time>2026-04-06T07:24:59.689Z</time></trkpt><trkpt lat="43.0627101" lon="12.3130612"><ele>237.2</ele><time>2026-04-06T07:25:01.68Z</time></trkpt><trkpt lat="43.0628019" lon="12.3129936"><ele>236.4</ele><time>2026-04-06T07:25:03.663Z</time></trkpt><trkpt lat="43.062894" lon="12.3129213"><ele>235.59999999999997</ele><time>2026-04-06T07:25:05.677Z</time></trkpt><trkpt lat="43.0629863" lon="12.3128531"><ele>234.79999999999998</ele><time>2026-04-06T07:25:07.687Z</time></trkpt><trkpt lat="43.0630815" lon="12.3127808"><ele>234.0</ele><time>2026-04-06T07:25:09.681Z</time></trkpt><trkpt lat="43.0631755" lon="12.3127041"><ele>234.0</ele><time>2026-04-06T07:25:11.679Z</time></trkpt><trkpt lat="43.0632633" lon="12.3126407"><ele>233.99999999999997</ele><time>2026-04-06T07:25:13.681Z</time></trkpt><trkpt lat="43.0633582" lon="12.3125891"><ele>233.99999999999997</ele><time>2026-04-06T07:25:15.678Z</time></trkpt><trkpt lat="43.0634492" lon="12.3125301"><ele>234.0</ele><time>2026-04-06T07:25:17.679Z</time></trkpt><trkpt lat="43.063537" lon="12.3124628"><ele>234.0</ele><time>2026-04-06T07:25:19.683Z</time></trkpt><trkpt lat="43.0636339" lon="12.3124118"><ele>234.79999999999998</ele><time>2026-04-06T07:25:21.688Z</time></trkpt><trkpt lat="43.0637361" lon="12.3123382"><ele>235.59999999999997</ele><time>2026-04-06T07:25:23.685Z</time></trkpt><trkpt lat="43.063854" lon="12.3122718"><ele>236.4</ele><time>2026-04-06T07:25:25.685Z</time></trkpt><trkpt lat="43.0639358" lon="12.3122052"><ele>237.2</ele><time>2026-04-06T07:25:27.685Z</time></trkpt><trkpt lat="43.064028" lon="12.3121593"><ele>238.0</ele><time>2026-04-06T07:25:29.688Z</time></trkpt><trkpt lat="43.064121" lon="12.3120997"><ele>238.60000000000002</ele><time>2026-04-06T07:25:31.686Z</time></trkpt><trkpt lat="43.0642053" lon="12.3120489"><ele>239.20000000000002</ele><time>2026-04-06T07:25:33.681Z</time></trkpt><trkpt lat="43.0643108" lon="12.3119901"><ele>239.8</ele><time>2026-04-06T07:25:35.679Z</time></trkpt><trkpt lat="43.0644039" lon="12.31196"><ele>240.4</ele><time>2026-04-06T07:25:37.678Z</time></trkpt><trkpt lat="43.0644974" lon="12.3119165"><ele>241.0</ele><time>2026-04-06T07:25:39.659Z</time></trkpt><trkpt lat="43.0645776" lon="12.3118789"><ele>240.99999999999997</ele><time>2026-04-06T07:25:41.683Z</time></trkpt><trkpt lat="43.0646654" lon="12.3118412"><ele>241.0</ele><time>2026-04-06T07:25:43.68Z</time></trkpt><trkpt lat="43.0647457" lon="12.3117963"><ele>241.0</ele><time>2026-04-06T07:25:45.681Z</time></trkpt><trkpt lat="43.0648289" lon="12.3117583"><ele>241.0</ele><time>2026-04-06T07:25:47.68Z</time></trkpt><trkpt lat="43.0649081" lon="12.3117083"><ele>240.99999999999997</ele><time>2026-04-06T07:25:49.677Z</time></trkpt><trkpt lat="43.0649862" lon="12.3116551"><ele>241.0</ele><time>2026-04-06T07:25:51.682Z</time></trkpt><trkpt lat="43.0650553" lon="12.3116156"><ele>241.0</ele><time>2026-04-06T07:25:53.685Z</time></trkpt><trkpt lat="43.065131" lon="12.3116191"><ele>241.00000000000003</ele><time>2026-04-06T07:25:56.677Z</time></trkpt><trkpt lat="43.0651917" lon="12.31169"><ele>241.00000000000003</ele><time>2026-04-06T07:25:58.67Z</time></trkpt><trkpt lat="43.0652654" lon="12.3117654"><ele>241.0</ele><time>2026-04-06T07:26:00.658Z</time></trkpt><trkpt lat="43.0653613" lon="12.3118513"><ele>241.0</ele><time>2026-04-06T07:26:02.664Z</time></trkpt><trkpt lat="43.0654484" lon="12.3119151"><ele>241.0</ele><time>2026-04-06T07:26:04.668Z</time></trkpt><trkpt lat="43.0655741" lon="12.3119536"><ele>241.00000000000003</ele><time>2026-04-06T07:26:06.657Z</time></trkpt><trkpt lat="43.0656639" lon="12.3120516"><ele>241.00000000000003</ele><time>2026-04-06T07:26:09.672Z</time></trkpt><trkpt lat="43.0657545" lon="12.3121047"><ele>241.0</ele><time>2026-04-06T07:26:11.665Z</time></trkpt><trkpt lat="43.065832" lon="12.3121537"><ele>241.0</ele><time>2026-04-06T07:26:13.789Z</time></trkpt><trkpt lat="43.0659091" lon="12.3121921"><ele>240.99999999999997</ele><time>2026-04-06T07:26:15.681Z</time></trkpt><trkpt lat="43.0659951" lon="12.312237"><ele>241.0</ele><time>2026-04-06T07:26:17.666Z</time></trkpt><trkpt lat="43.0660714" lon="12.3122884"><ele>241.0</ele><time>2026-04-06T07:26:19.667Z</time></trkpt><trkpt lat="43.0661455" lon="12.3123292"><ele>241.0</ele><time>2026-04-06T07:26:21.676Z</time></trkpt><trkpt lat="43.0662214" lon="12.3123692"><ele>240.99999999999997</ele><time>2026-04-06T07:26:24.767Z</time></trkpt><trkpt lat="43.066302" lon="12.3123959"><ele>241.0</ele><time>2026-04-06T07:26:27.677Z</time></trkpt><trkpt lat="43.0663694" lon="12.3124174"><ele>241.0</ele><time>2026-04-06T07:26:30.663Z</time></trkpt><trkpt lat="43.0664247" lon="12.3124597"><ele>241.00000000000003</ele><time>2026-04-06T07:26:32.669Z</time></trkpt><trkpt lat="43.0664769" lon="12.3125473"><ele>241.00000000000003</ele><time>2026-04-06T07:26:34.661Z</time></trkpt><trkpt lat="43.0665393" lon="12.3126579"><ele>241.0</ele><time>2026-04-06T07:26:36.783Z</time></trkpt><trkpt lat="43.0666085" lon="12.312768"><ele>241.0</ele><time>2026-04-06T07:26:38.661Z</time></trkpt><trkpt lat="43.0666875" lon="12.3128848"><ele>241.0</ele><time>2026-04-06T07:26:40.673Z</time></trkpt><trkpt lat="43.0667698" lon="12.3130092"><ele>241.0</ele><time>2026-04-06T07:26:42.679Z</time></trkpt><trkpt lat="43.0668483" lon="12.3131336"><ele>241.0</ele><time>2026-04-06T07:26:44.677Z</time></trkpt><trkpt lat="43.0669238" lon="12.3132546"><ele>241.0</ele><time>2026-04-06T07:26:46.678Z</time></trkpt><trkpt lat="43.0669709" lon="12.3133951"><ele>240.25</ele><time>2026-04-06T07:26:48.684Z</time></trkpt><trkpt lat="43.0670198" lon="12.3135373"><ele>239.5</ele><time>2026-04-06T07:26:50.663Z</time></trkpt><trkpt lat="43.0670995" lon="12.3136676"><ele>238.75</ele><time>2026-04-06T07:26:52.681Z</time></trkpt><trkpt lat="43.0671836" lon="12.3137808"><ele>238.0</ele><time>2026-04-06T07:26:54.68Z</time></trkpt><trkpt lat="43.0672563" lon="12.3138892"><ele>237.83333333333331</ele><time>2026-04-06T07:26:56.678Z</time></trkpt><trkpt lat="43.067319" lon="12.3139811"><ele>237.66666666666666</ele><time>2026-04-06T07:26:58.679Z</time></trkpt><trkpt lat="43.0673663" lon="12.3140581"><ele>237.5</ele><time>2026-04-06T07:27:00.681Z</time></trkpt><trkpt lat="43.0674229" lon="12.3141477"><ele>237.33333333333331</ele><time>2026-04-06T07:27:03.679Z</time></trkpt><trkpt lat="43.0674667" lon="12.3142202"><ele>237.16666666666666</ele><time>2026-04-06T07:27:07.677Z</time></trkpt><trkpt lat="43.0675161" lon="12.314301"><ele>237.0</ele><time>2026-04-06T07:27:12.682Z</time></trkpt><trkpt lat="43.0675631" lon="12.3143937"><ele>236.8</ele><time>2026-04-06T07:27:15.677Z</time></trkpt><trkpt lat="43.067609" lon="12.3144831"><ele>236.6</ele><time>2026-04-06T07:27:17.684Z</time></trkpt><trkpt lat="43.0676737" lon="12.3145838"><ele>236.40000000000003</ele><time>2026-04-06T07:27:19.68Z</time></trkpt><trkpt lat="43.0677374" lon="12.3146905"><ele>236.20000000000002</ele><time>2026-04-06T07:27:21.675Z</time></trkpt><trkpt lat="43.0678101" lon="12.3147968"><ele>236.0</ele><time>2026-04-06T07:27:23.679Z</time></trkpt><trkpt lat="43.0678804" lon="12.3149085"><ele>236.0</ele><time>2026-04-06T07:27:25.679Z</time></trkpt><trkpt lat="43.0679528" lon="12.3150196"><ele>236.00000000000003</ele><time>2026-04-06T07:27:27.68Z</time></trkpt><trkpt lat="43.0680248" lon="12.3151288"><ele>236.00000000000003</ele><time>2026-04-06T07:27:29.68Z</time></trkpt><trkpt lat="43.0680925" lon="12.3152372"><ele>236.0</ele><time>2026-04-06T07:27:31.677Z</time></trkpt><trkpt lat="43.0681593" lon="12.3153411"><ele>236.0</ele><time>2026-04-06T07:27:33.68Z</time></trkpt><trkpt lat="43.0682316" lon="12.3154225"><ele>236.0</ele><time>2026-04-06T07:27:35.678Z</time></trkpt><trkpt lat="43.0683006" lon="12.315493"><ele>236.00000000000003</ele><time>2026-04-06T07:27:37.688Z</time></trkpt><trkpt lat="43.0683859" lon="12.3155647"><ele>236.00000000000003</ele><time>2026-04-06T07:27:39.683Z</time></trkpt><trkpt lat="43.0684653" lon="12.3156455"><ele>236.0</ele><time>2026-04-06T07:27:41.677Z</time></trkpt><trkpt lat="43.0685451" lon="12.3157239"><ele>236.0</ele><time>2026-04-06T07:27:43.775Z</time></trkpt><trkpt lat="43.0686277" lon="12.3158142"><ele>236.0</ele><time>2026-04-06T07:27:45.677Z</time></trkpt><trkpt lat="43.0687099" lon="12.315894"><ele>236.00000000000003</ele><time>2026-04-06T07:27:47.686Z</time></trkpt><trkpt lat="43.0687867" lon="12.3159789"><ele>236.00000000000003</ele><time>2026-04-06T07:27:49.682Z</time></trkpt><trkpt lat="43.0688695" lon="12.3160605"><ele>236.0</ele><time>2026-04-06T07:27:51.677Z</time></trkpt><trkpt lat="43.0689412" lon="12.3161346"><ele>236.0</ele><time>2026-04-06T07:27:53.681Z</time></trkpt><trkpt lat="43.0690226" lon="12.3162198"><ele>236.0</ele><time>2026-04-06T07:27:55.696Z</time></trkpt><trkpt lat="43.0690986" lon="12.3163079"><ele>236.00000000000003</ele><time>2026-04-06T07:27:57.68Z</time></trkpt><trkpt lat="43.0691804" lon="12.316383"><ele>236.00000000000003</ele><time>2026-04-06T07:27:59.682Z</time></trkpt><trkpt lat="43.0692737" lon="12.3164568"><ele>236.0</ele><time>2026-04-06T07:28:01.699Z</time></trkpt><trkpt lat="43.0693637" lon="12.3165157"><ele>236.0</ele><time>2026-04-06T07:28:03.679Z</time></trkpt><trkpt lat="43.0694543" lon="12.3165686"><ele>237.20000000000002</ele><time>2026-04-06T07:28:05.678Z</time></trkpt><trkpt lat="43.0695509" lon="12.3166247"><ele>238.40000000000003</ele><time>2026-04-06T07:28:07.678Z</time></trkpt><trkpt lat="43.0696461" lon="12.3166846"><ele>239.6</ele><time>2026-04-06T07:28:09.675Z</time></trkpt><trkpt lat="43.0697359" lon="12.3167477"><ele>240.8</ele><time>2026-04-06T07:28:11.688Z</time></trkpt><trkpt lat="43.069833" lon="12.3168078"><ele>242.0</ele><time>2026-04-06T07:28:13.675Z</time></trkpt><trkpt lat="43.0699283" lon="12.3168585"><ele>242.0</ele><time>2026-04-06T07:28:15.684Z</time></trkpt><trkpt lat="43.070013" lon="12.3169061"><ele>242.0</ele><time>2026-04-06T07:28:17.692Z</time></trkpt><trkpt lat="43.0701149" lon="12.3169513"><ele>242.0</ele><time>2026-04-06T07:28:19.68Z</time></trkpt><trkpt lat="43.070215" lon="12.3169832"><ele>242.0</ele><time>2026-04-06T07:28:21.687Z</time></trkpt><trkpt lat="43.0703157" lon="12.3170147"><ele>242.0</ele><time>2026-04-06T07:28:23.758Z</time></trkpt><trkpt lat="43.0704137" lon="12.317041"><ele>242.00000000000003</ele><time>2026-04-06T07:28:25.68Z</time></trkpt><trkpt lat="43.0705091" lon="12.3170676"><ele>242.0</ele><time>2026-04-06T07:28:27.678Z</time></trkpt><trkpt lat="43.0706" lon="12.3170917"><ele>242.0</ele><time>2026-04-06T07:28:29.679Z</time></trkpt><trkpt lat="43.0706719" lon="12.3171129"><ele>242.0</ele><time>2026-04-06T07:28:31.678Z</time></trkpt><trkpt lat="43.0707299" lon="12.3171528"><ele>242.00000000000003</ele><time>2026-04-06T07:28:33.678Z</time></trkpt><trkpt lat="43.070795" lon="12.3171914"><ele>242.0</ele><time>2026-04-06T07:28:35.677Z</time></trkpt><trkpt lat="43.0708526" lon="12.3172569"><ele>241.6</ele><time>2026-04-06T07:28:37.678Z</time></trkpt><trkpt lat="43.070944" lon="12.3172939"><ele>241.2</ele><time>2026-04-06T07:28:39.678Z</time></trkpt><trkpt lat="43.0710431" lon="12.3173235"><ele>240.8</ele><time>2026-04-06T07:28:41.679Z</time></trkpt><trkpt lat="43.0711291" lon="12.3173759"><ele>240.4</ele><time>2026-04-06T07:28:43.678Z</time></trkpt><trkpt lat="43.0711823" lon="12.3174606"><ele>240.0</ele><time>2026-04-06T07:28:45.674Z</time></trkpt><trkpt lat="43.0712593" lon="12.317532"><ele>240.0</ele><time>2026-04-06T07:28:47.666Z</time></trkpt><trkpt lat="43.0713545" lon="12.3175941"><ele>240.0</ele><time>2026-04-06T07:28:49.679Z</time></trkpt><trkpt lat="43.071451" lon="12.3176018"><ele>240.0</ele><time>2026-04-06T07:28:51.682Z</time></trkpt><trkpt lat="43.07154" lon="12.3174796"><ele>240.0</ele><time>2026-04-06T07:28:53.682Z</time></trkpt><trkpt lat="43.0715592" lon="12.3173934"><ele>240.0</ele><time>2026-04-06T07:28:54.681Z</time></trkpt><trkpt lat="43.0715705" lon="12.3172329"><ele>240.0</ele><time>2026-04-06T07:28:56.678Z</time></trkpt><trkpt lat="43.0715831" lon="12.3170701"><ele>240.0</ele><time>2026-04-06T07:28:58.659Z</time></trkpt><trkpt lat="43.0716246" lon="12.316918"><ele>240.0</ele><time>2026-04-06T07:29:00.678Z</time></trkpt><trkpt lat="43.0716866" lon="12.3167897"><ele>240.0</ele><time>2026-04-06T07:29:02.678Z</time></trkpt><trkpt lat="43.0717711" lon="12.3166993"><ele>240.0</ele><time>2026-04-06T07:29:04.664Z</time></trkpt><trkpt lat="43.0718268" lon="12.3166546"><ele>240.0</ele><time>2026-04-06T07:29:05.676Z</time></trkpt><trkpt lat="43.0719437" lon="12.3165861"><ele>240.0</ele><time>2026-04-06T07:29:07.78Z</time></trkpt><trkpt lat="43.0720631" lon="12.3165516"><ele>240.0</ele><time>2026-04-06T07:29:09.68Z</time></trkpt><trkpt lat="43.0721276" lon="12.3165531"><ele>240.0</ele><time>2026-04-06T07:29:10.683Z</time></trkpt><trkpt lat="43.0722455" lon="12.3165443"><ele>240.0</ele><time>2026-04-06T07:29:12.679Z</time></trkpt><trkpt lat="43.0723612" lon="12.3165364"><ele>240.0</ele><time>2026-04-06T07:29:14.677Z</time></trkpt><trkpt lat="43.0724796" lon="12.3165306"><ele>240.0</ele><time>2026-04-06T07:29:16.668Z</time></trkpt><trkpt lat="43.0725893" lon="12.3165183"><ele>240.0</ele><time>2026-04-06T07:29:18.672Z</time></trkpt><trkpt lat="43.0727056" lon="12.3165148"><ele>240.0</ele><time>2026-04-06T07:29:20.659Z</time></trkpt><trkpt lat="43.0728154" lon="12.3165242"><ele>240.0</ele><time>2026-04-06T07:29:22.682Z</time></trkpt><trkpt lat="43.0729394" lon="12.3165174"><ele>240.0</ele><time>2026-04-06T07:29:24.676Z</time></trkpt><trkpt lat="43.0730604" lon="12.3165131"><ele>240.0</ele><time>2026-04-06T07:29:26.676Z</time></trkpt><trkpt lat="43.0731785" lon="12.3165196"><ele>240.0</ele><time>2026-04-06T07:29:28.677Z</time></trkpt><trkpt lat="43.0732458" lon="12.3165104"><ele>240.0</ele><time>2026-04-06T07:29:29.675Z</time></trkpt><trkpt lat="43.0733658" lon="12.3164888"><ele>240.0</ele><time>2026-04-06T07:29:31.665Z</time></trkpt><trkpt lat="43.0734328" lon="12.3164814"><ele>240.0</ele><time>2026-04-06T07:29:32.665Z</time></trkpt><trkpt lat="43.0735535" lon="12.3164895"><ele>240.0</ele><time>2026-04-06T07:29:34.66Z</time></trkpt><trkpt lat="43.0736712" lon="12.3164848"><ele>240.2</ele><time>2026-04-06T07:29:36.763Z</time></trkpt><trkpt lat="43.0737415" lon="12.3164785"><ele>240.4</ele><time>2026-04-06T07:29:37.663Z</time></trkpt><trkpt lat="43.0738597" lon="12.3164547"><ele>240.60000000000002</ele><time>2026-04-06T07:29:39.662Z</time></trkpt><trkpt lat="43.0739735" lon="12.3164464"><ele>240.8</ele><time>2026-04-06T07:29:41.663Z</time></trkpt><trkpt lat="43.0740895" lon="12.3164479"><ele>241.0</ele><time>2026-04-06T07:29:43.662Z</time></trkpt><trkpt lat="43.0742153" lon="12.3164429"><ele>240.4</ele><time>2026-04-06T07:29:45.662Z</time></trkpt><trkpt lat="43.0742788" lon="12.316438"><ele>239.8</ele><time>2026-04-06T07:29:46.661Z</time></trkpt><trkpt lat="43.0743481" lon="12.3164168"><ele>239.20000000000002</ele><time>2026-04-06T07:29:47.668Z</time></trkpt><trkpt lat="43.0744635" lon="12.3164151"><ele>238.60000000000002</ele><time>2026-04-06T07:29:49.666Z</time></trkpt><trkpt lat="43.0745776" lon="12.3164079"><ele>238.0</ele><time>2026-04-06T07:29:51.658Z</time></trkpt><trkpt lat="43.0746911" lon="12.3163862"><ele>238.0</ele><time>2026-04-06T07:29:53.692Z</time></trkpt><trkpt lat="43.0748084" lon="12.3163771"><ele>238.0</ele><time>2026-04-06T07:29:55.662Z</time></trkpt><trkpt lat="43.0749191" lon="12.3163766"><ele>238.0</ele><time>2026-04-06T07:29:57.666Z</time></trkpt><trkpt lat="43.075035" lon="12.3163735"><ele>238.0</ele><time>2026-04-06T07:29:59.665Z</time></trkpt><trkpt lat="43.0751484" lon="12.3163711"><ele>238.0</ele><time>2026-04-06T07:30:01.664Z</time></trkpt><trkpt lat="43.0752615" lon="12.316363"><ele>238.0</ele><time>2026-04-06T07:30:03.671Z</time></trkpt><trkpt lat="43.0753824" lon="12.3163275"><ele>238.0</ele><time>2026-04-06T07:30:05.671Z</time></trkpt><trkpt lat="43.075496" lon="12.3163021"><ele>238.0</ele><time>2026-04-06T07:30:07.68Z</time></trkpt><trkpt lat="43.0756077" lon="12.3162865"><ele>238.0</ele><time>2026-04-06T07:30:09.662Z</time></trkpt><trkpt lat="43.0757164" lon="12.3162635"><ele>238.0</ele><time>2026-04-06T07:30:11.679Z</time></trkpt><trkpt lat="43.0758173" lon="12.3162434"><ele>238.0</ele><time>2026-04-06T07:30:13.69Z</time></trkpt><trkpt lat="43.0759344" lon="12.3162042"><ele>238.0</ele><time>2026-04-06T07:30:15.699Z</time></trkpt><trkpt lat="43.076034" lon="12.3161569"><ele>238.0</ele><time>2026-04-06T07:30:17.691Z</time></trkpt><trkpt lat="43.0761357" lon="12.3161178"><ele>238.0</ele><time>2026-04-06T07:30:19.679Z</time></trkpt><trkpt lat="43.0762473" lon="12.3160918"><ele>238.0</ele><time>2026-04-06T07:30:21.682Z</time></trkpt><trkpt lat="43.0763569" lon="12.3160443"><ele>238.0</ele><time>2026-04-06T07:30:23.687Z</time></trkpt><trkpt lat="43.0764652" lon="12.3159945"><ele>238.0</ele><time>2026-04-06T07:30:25.677Z</time></trkpt><trkpt lat="43.0765727" lon="12.3159754"><ele>237.8</ele><time>2026-04-06T07:30:27.679Z</time></trkpt><trkpt lat="43.0766828" lon="12.3159282"><ele>237.60000000000002</ele><time>2026-04-06T07:30:29.698Z</time></trkpt><trkpt lat="43.0767461" lon="12.3159019"><ele>237.39999999999998</ele><time>2026-04-06T07:30:30.678Z</time></trkpt><trkpt lat="43.0768612" lon="12.3158652"><ele>237.2</ele><time>2026-04-06T07:30:32.682Z</time></trkpt><trkpt lat="43.0769239" lon="12.3158376"><ele>237.0</ele><time>2026-04-06T07:30:33.688Z</time></trkpt><trkpt lat="43.0770222" lon="12.3158234"><ele>237.0</ele><time>2026-04-06T07:30:35.691Z</time></trkpt><trkpt lat="43.077115" lon="12.3157808"><ele>237.0</ele><time>2026-04-06T07:30:37.688Z</time></trkpt><trkpt lat="43.0772096" lon="12.3157384"><ele>237.0</ele><time>2026-04-06T07:30:39.681Z</time></trkpt><trkpt lat="43.0773102" lon="12.3157139"><ele>237.0</ele><time>2026-04-06T07:30:41.683Z</time></trkpt><trkpt lat="43.0774215" lon="12.3156701"><ele>237.0</ele><time>2026-04-06T07:30:43.682Z</time></trkpt><trkpt lat="43.0775319" lon="12.31563"><ele>236.8</ele><time>2026-04-06T07:30:45.68Z</time></trkpt><trkpt lat="43.0776439" lon="12.3155917"><ele>236.6</ele><time>2026-04-06T07:30:47.677Z</time></trkpt><trkpt lat="43.0777395" lon="12.3155657"><ele>236.40000000000003</ele><time>2026-04-06T07:30:49.686Z</time></trkpt><trkpt lat="43.077842" lon="12.3155285"><ele>236.20000000000002</ele><time>2026-04-06T07:30:51.68Z</time></trkpt><trkpt lat="43.0779422" lon="12.315498"><ele>236.0</ele><time>2026-04-06T07:30:53.683Z</time></trkpt><trkpt lat="43.0780376" lon="12.3154556"><ele>235.60000000000002</ele><time>2026-04-06T07:30:55.676Z</time></trkpt><trkpt lat="43.0781246" lon="12.3154317"><ele>235.20000000000002</ele><time>2026-04-06T07:30:57.678Z</time></trkpt><trkpt lat="43.0782055" lon="12.315401"><ele>234.79999999999998</ele><time>2026-04-06T07:30:59.678Z</time></trkpt><trkpt lat="43.07829" lon="12.3153702"><ele>234.39999999999998</ele><time>2026-04-06T07:31:01.682Z</time></trkpt><trkpt lat="43.0783826" lon="12.3153073"><ele>234.0</ele><time>2026-04-06T07:31:03.683Z</time></trkpt><trkpt lat="43.0784671" lon="12.3152413"><ele>233.79999999999998</ele><time>2026-04-06T07:31:05.681Z</time></trkpt><trkpt lat="43.0785527" lon="12.3151636"><ele>233.59999999999997</ele><time>2026-04-06T07:31:07.681Z</time></trkpt><trkpt lat="43.0786427" lon="12.3150549"><ele>233.4</ele><time>2026-04-06T07:31:09.678Z</time></trkpt><trkpt lat="43.0787068" lon="12.3149585"><ele>233.2</ele><time>2026-04-06T07:31:11.679Z</time></trkpt><trkpt lat="43.078786" lon="12.3148485"><ele>233.0</ele><time>2026-04-06T07:31:13.681Z</time></trkpt><trkpt lat="43.0788565" lon="12.3147515"><ele>232.8</ele><time>2026-04-06T07:31:15.678Z</time></trkpt><trkpt lat="43.0789406" lon="12.3146479"><ele>232.60000000000002</ele><time>2026-04-06T07:31:17.68Z</time></trkpt><trkpt lat="43.0790158" lon="12.314546"><ele>232.39999999999998</ele><time>2026-04-06T07:31:19.679Z</time></trkpt><trkpt lat="43.07909" lon="12.3144485"><ele>232.2</ele><time>2026-04-06T07:31:21.674Z</time></trkpt><trkpt lat="43.0791796" lon="12.3143694"><ele>232.0</ele><time>2026-04-06T07:31:23.678Z</time></trkpt><trkpt lat="43.0792507" lon="12.314289"><ele>232.0</ele><time>2026-04-06T07:31:25.688Z</time></trkpt><trkpt lat="43.0793209" lon="12.3142011"><ele>232.0</ele><time>2026-04-06T07:31:27.683Z</time></trkpt><trkpt lat="43.0793997" lon="12.3140849"><ele>232.0</ele><time>2026-04-06T07:31:29.68Z</time></trkpt><trkpt lat="43.0794836" lon="12.3139884"><ele>232.0</ele><time>2026-04-06T07:31:31.685Z</time></trkpt><trkpt lat="43.0795646" lon="12.313873"><ele>232.0</ele><time>2026-04-06T07:31:33.685Z</time></trkpt><trkpt lat="43.0796503" lon="12.3137772"><ele>232.0</ele><time>2026-04-06T07:31:35.685Z</time></trkpt><trkpt lat="43.0797263" lon="12.3136983"><ele>232.0</ele><time>2026-04-06T07:31:37.661Z</time></trkpt><trkpt lat="43.0798162" lon="12.3136246"><ele>232.0</ele><time>2026-04-06T07:31:39.677Z</time></trkpt><trkpt lat="43.0799066" lon="12.313567"><ele>232.0</ele><time>2026-04-06T07:31:41.662Z</time></trkpt><trkpt lat="43.0800024" lon="12.313497"><ele>232.0</ele><time>2026-04-06T07:31:43.661Z</time></trkpt><trkpt lat="43.0800844" lon="12.3134518"><ele>231.99999999999997</ele><time>2026-04-06T07:31:46.681Z</time></trkpt><trkpt lat="43.0801483" lon="12.3134097"><ele>232.0</ele><time>2026-04-06T07:31:48.786Z</time></trkpt><trkpt lat="43.0802219" lon="12.3133604"><ele>232.0</ele><time>2026-04-06T07:31:50.685Z</time></trkpt><trkpt lat="43.0802938" lon="12.3133129"><ele>232.0</ele><time>2026-04-06T07:31:52.677Z</time></trkpt><trkpt lat="43.0803835" lon="12.3132879"><ele>231.99999999999997</ele><time>2026-04-06T07:31:54.679Z</time></trkpt><trkpt lat="43.0804688" lon="12.3132763"><ele>232.0</ele><time>2026-04-06T07:31:56.677Z</time></trkpt><trkpt lat="43.0805648" lon="12.3132748"><ele>231.99999999999997</ele><time>2026-04-06T07:31:58.684Z</time></trkpt><trkpt lat="43.0806555" lon="12.3132843"><ele>232.0</ele><time>2026-04-06T07:32:00.676Z</time></trkpt><trkpt lat="43.0807666" lon="12.3132993"><ele>232.0</ele><time>2026-04-06T07:32:03.672Z</time></trkpt><trkpt lat="43.0808669" lon="12.3133107"><ele>232.0</ele><time>2026-04-06T07:32:05.682Z</time></trkpt><trkpt lat="43.0809344" lon="12.3132782"><ele>231.99999999999997</ele><time>2026-04-06T07:32:06.672Z</time></trkpt><trkpt lat="43.0809966" lon="12.3132512"><ele>232.0</ele><time>2026-04-06T07:32:07.674Z</time></trkpt><trkpt lat="43.081117" lon="12.3132237"><ele>232.8</ele><time>2026-04-06T07:32:09.672Z</time></trkpt><trkpt lat="43.0812152" lon="12.3132057"><ele>233.6</ele><time>2026-04-06T07:32:11.777Z</time></trkpt><trkpt lat="43.0813019" lon="12.3132096"><ele>234.40000000000003</ele><time>2026-04-06T07:32:13.682Z</time></trkpt><trkpt lat="43.0813787" lon="12.3131947"><ele>235.20000000000002</ele><time>2026-04-06T07:32:15.677Z</time></trkpt><trkpt lat="43.0814712" lon="12.3131844"><ele>236.0</ele><time>2026-04-06T07:32:17.67Z</time></trkpt><trkpt lat="43.0815762" lon="12.3131968"><ele>236.4</ele><time>2026-04-06T07:32:19.693Z</time></trkpt><trkpt lat="43.0816704" lon="12.3132093"><ele>236.8</ele><time>2026-04-06T07:32:21.679Z</time></trkpt><trkpt lat="43.0817606" lon="12.3132075"><ele>237.20000000000002</ele><time>2026-04-06T07:32:23.788Z</time></trkpt><trkpt lat="43.0818551" lon="12.3131911"><ele>237.60000000000002</ele><time>2026-04-06T07:32:25.686Z</time></trkpt><trkpt lat="43.0819493" lon="12.3131849"><ele>238.0</ele><time>2026-04-06T07:32:27.677Z</time></trkpt><trkpt lat="43.0820515" lon="12.3131611"><ele>238.0</ele><time>2026-04-06T07:32:29.69Z</time></trkpt><trkpt lat="43.0821572" lon="12.313161"><ele>238.0</ele><time>2026-04-06T07:32:31.677Z</time></trkpt><trkpt lat="43.0822701" lon="12.3131593"><ele>238.0</ele><time>2026-04-06T07:32:33.692Z</time></trkpt><trkpt lat="43.0823904" lon="12.3131607"><ele>238.0</ele><time>2026-04-06T07:32:35.681Z</time></trkpt><trkpt lat="43.0824981" lon="12.313159"><ele>238.0</ele><time>2026-04-06T07:32:37.681Z</time></trkpt><trkpt lat="43.0825988" lon="12.3131509"><ele>238.4</ele><time>2026-04-06T07:32:39.684Z</time></trkpt><trkpt lat="43.0826981" lon="12.3131411"><ele>238.8</ele><time>2026-04-06T07:32:41.685Z</time></trkpt><trkpt lat="43.0827919" lon="12.3131513"><ele>239.2</ele><time>2026-04-06T07:32:43.667Z</time></trkpt><trkpt lat="43.0828623" lon="12.3131457"><ele>239.6</ele><time>2026-04-06T07:32:45.681Z</time></trkpt><trkpt lat="43.0829931" lon="12.3131151"><ele>240.0</ele><time>2026-04-06T07:32:48.683Z</time></trkpt><trkpt lat="43.083108" lon="12.3131155"><ele>240.0</ele><time>2026-04-06T07:32:50.678Z</time></trkpt><trkpt lat="43.0832097" lon="12.313134"><ele>240.0</ele><time>2026-04-06T07:32:52.68Z</time></trkpt><trkpt lat="43.0833168" lon="12.3131438"><ele>240.0</ele><time>2026-04-06T07:32:54.679Z</time></trkpt><trkpt lat="43.083431" lon="12.3131644"><ele>240.0</ele><time>2026-04-06T07:32:56.682Z</time></trkpt><trkpt lat="43.0835368" lon="12.3132099"><ele>240.0</ele><time>2026-04-06T07:32:58.689Z</time></trkpt><trkpt lat="43.083633" lon="12.3132321"><ele>240.2</ele><time>2026-04-06T07:33:00.681Z</time></trkpt><trkpt lat="43.0837419" lon="12.3132389"><ele>240.4</ele><time>2026-04-06T07:33:02.683Z</time></trkpt><trkpt lat="43.0838457" lon="12.3132655"><ele>240.60000000000002</ele><time>2026-04-06T07:33:04.696Z</time></trkpt><trkpt lat="43.0839426" lon="12.3132927"><ele>240.8</ele><time>2026-04-06T07:33:06.682Z</time></trkpt><trkpt lat="43.0840373" lon="12.3133304"><ele>241.0</ele><time>2026-04-06T07:33:08.684Z</time></trkpt><trkpt lat="43.0841428" lon="12.3133503"><ele>240.60000000000002</ele><time>2026-04-06T07:33:10.68Z</time></trkpt><trkpt lat="43.084263" lon="12.3133631"><ele>240.20000000000002</ele><time>2026-04-06T07:33:12.68Z</time></trkpt><trkpt lat="43.084354" lon="12.3133885"><ele>239.79999999999998</ele><time>2026-04-06T07:33:14.778Z</time></trkpt><trkpt lat="43.0844418" lon="12.3134142"><ele>239.39999999999998</ele><time>2026-04-06T07:33:16.681Z</time></trkpt><trkpt lat="43.0845388" lon="12.3134248"><ele>239.0</ele><time>2026-04-06T07:33:18.67Z</time></trkpt><trkpt lat="43.0846416" lon="12.3134446"><ele>239.0</ele><time>2026-04-06T07:33:20.679Z</time></trkpt><trkpt lat="43.0847357" lon="12.3134692"><ele>238.99999999999997</ele><time>2026-04-06T07:33:22.684Z</time></trkpt><trkpt lat="43.084837" lon="12.3134943"><ele>238.99999999999997</ele><time>2026-04-06T07:33:24.679Z</time></trkpt><trkpt lat="43.084925" lon="12.3135099"><ele>239.0</ele><time>2026-04-06T07:33:26.676Z</time></trkpt><trkpt lat="43.0849977" lon="12.3135363"><ele>239.0</ele><time>2026-04-06T07:33:28.682Z</time></trkpt><trkpt lat="43.0850906" lon="12.3135608"><ele>238.79999999999998</ele><time>2026-04-06T07:33:30.681Z</time></trkpt><trkpt lat="43.085179" lon="12.3135967"><ele>238.59999999999997</ele><time>2026-04-06T07:33:32.677Z</time></trkpt><trkpt lat="43.0852647" lon="12.3136315"><ele>238.4</ele><time>2026-04-06T07:33:34.683Z</time></trkpt><trkpt lat="43.0853542" lon="12.313651"><ele>238.2</ele><time>2026-04-06T07:33:36.676Z</time></trkpt><trkpt lat="43.0854557" lon="12.3136783"><ele>238.0</ele><time>2026-04-06T07:33:38.68Z</time></trkpt><trkpt lat="43.085553" lon="12.3137078"><ele>238.0</ele><time>2026-04-06T07:33:40.68Z</time></trkpt><trkpt lat="43.0856388" lon="12.3137372"><ele>238.0</ele><time>2026-04-06T07:33:42.765Z</time></trkpt><trkpt lat="43.0857062" lon="12.3137628"><ele>238.0</ele><time>2026-04-06T07:33:44.678Z</time></trkpt><trkpt lat="43.0857784" lon="12.3138026"><ele>238.0</ele><time>2026-04-06T07:33:46.677Z</time></trkpt><trkpt lat="43.0858853" lon="12.3138252"><ele>238.0</ele><time>2026-04-06T07:33:48.678Z</time></trkpt><trkpt lat="43.0859997" lon="12.3138225"><ele>239.0</ele><time>2026-04-06T07:33:50.677Z</time></trkpt><trkpt lat="43.0860635" lon="12.3138223"><ele>240.0</ele><time>2026-04-06T07:33:51.664Z</time></trkpt><trkpt lat="43.0861272" lon="12.3138232"><ele>241.0</ele><time>2026-04-06T07:33:52.679Z</time></trkpt><trkpt lat="43.0862423" lon="12.3138336"><ele>242.0</ele><time>2026-04-06T07:33:54.677Z</time></trkpt><trkpt lat="43.0863503" lon="12.313849"><ele>243.0</ele><time>2026-04-06T07:33:56.682Z</time></trkpt><trkpt lat="43.0864547" lon="12.3138704"><ele>243.0</ele><time>2026-04-06T07:33:58.677Z</time></trkpt><trkpt lat="43.086554" lon="12.313897"><ele>243.0</ele><time>2026-04-06T07:34:00.677Z</time></trkpt><trkpt lat="43.0866537" lon="12.3139177"><ele>243.0</ele><time>2026-04-06T07:34:02.663Z</time></trkpt><trkpt lat="43.0867496" lon="12.3139399"><ele>243.0</ele><time>2026-04-06T07:34:04.68Z</time></trkpt><trkpt lat="43.0868445" lon="12.3139623"><ele>243.0</ele><time>2026-04-06T07:34:06.679Z</time></trkpt><trkpt lat="43.086938" lon="12.313984"><ele>243.2</ele><time>2026-04-06T07:34:08.679Z</time></trkpt><trkpt lat="43.0870295" lon="12.3140057"><ele>243.4</ele><time>2026-04-06T07:34:10.679Z</time></trkpt><trkpt lat="43.0871165" lon="12.3140309"><ele>243.59999999999997</ele><time>2026-04-06T07:34:12.679Z</time></trkpt><trkpt lat="43.0872075" lon="12.31406"><ele>243.79999999999998</ele><time>2026-04-06T07:34:14.679Z</time></trkpt><trkpt lat="43.0872968" lon="12.3140903"><ele>244.0</ele><time>2026-04-06T07:34:16.686Z</time></trkpt><trkpt lat="43.0873766" lon="12.3141227"><ele>244.33333333333331</ele><time>2026-04-06T07:34:18.671Z</time></trkpt><trkpt lat="43.0874462" lon="12.3141655"><ele>244.66666666666666</ele><time>2026-04-06T07:34:20.678Z</time></trkpt><trkpt lat="43.0875074" lon="12.3142133"><ele>245.0</ele><time>2026-04-06T07:34:22.777Z</time></trkpt><trkpt lat="43.0875976" lon="12.3142221"><ele>245.33333333333331</ele><time>2026-04-06T07:34:25.678Z</time></trkpt><trkpt lat="43.0876663" lon="12.3141381"><ele>245.66666666666666</ele><time>2026-04-06T07:34:28.677Z</time></trkpt><trkpt lat="43.0876994" lon="12.3140481"><ele>246.0</ele><time>2026-04-06T07:34:30.668Z</time></trkpt><trkpt lat="43.0877523" lon="12.3139657"><ele>245.8</ele><time>2026-04-06T07:34:32.676Z</time></trkpt><trkpt lat="43.0878069" lon="12.3138495"><ele>245.60000000000002</ele><time>2026-04-06T07:34:34.674Z</time></trkpt><trkpt lat="43.0878531" lon="12.3137104"><ele>245.4</ele><time>2026-04-06T07:34:36.665Z</time></trkpt><trkpt lat="43.0879204" lon="12.3135902"><ele>245.2</ele><time>2026-04-06T07:34:38.665Z</time></trkpt><trkpt lat="43.0879552" lon="12.313513"><ele>245.0</ele><time>2026-04-06T07:34:40.66Z</time></trkpt><trkpt lat="43.0879815" lon="12.3134072"><ele>245.0</ele><time>2026-04-06T07:34:43.661Z</time></trkpt><trkpt lat="43.0880218" lon="12.3132798"><ele>245.0</ele><time>2026-04-06T07:34:46.659Z</time></trkpt><trkpt lat="43.0880546" lon="12.3131474"><ele>245.0</ele><time>2026-04-06T07:34:48.669Z</time></trkpt><trkpt lat="43.0880958" lon="12.313037"><ele>245.0</ele><time>2026-04-06T07:34:50.66Z</time></trkpt><trkpt lat="43.0881362" lon="12.3129293"><ele>245.0</ele><time>2026-04-06T07:34:52.666Z</time></trkpt><trkpt lat="43.0882033" lon="12.3128424"><ele>245.50000000000003</ele><time>2026-04-06T07:34:54.663Z</time></trkpt><trkpt lat="43.0882561" lon="12.3127552"><ele>246.0</ele><time>2026-04-06T07:34:56.662Z</time></trkpt><trkpt lat="43.0882925" lon="12.3126593"><ele>246.5</ele><time>2026-04-06T07:34:58.665Z</time></trkpt><trkpt lat="43.0883308" lon="12.3125712"><ele>247.0</ele><time>2026-04-06T07:35:00.667Z</time></trkpt><trkpt lat="43.0883531" lon="12.3124805"><ele>247.50000000000003</ele><time>2026-04-06T07:35:02.667Z</time></trkpt><trkpt lat="43.0883514" lon="12.3123885"><ele>248.0</ele><time>2026-04-06T07:35:04.679Z</time></trkpt><trkpt lat="43.0883499" lon="12.3122818"><ele>247.83333333333334</ele><time>2026-04-06T07:35:06.682Z</time></trkpt><trkpt lat="43.0883558" lon="12.312182"><ele>247.66666666666669</ele><time>2026-04-06T07:35:08.678Z</time></trkpt><trkpt lat="43.0883601" lon="12.312069"><ele>247.5</ele><time>2026-04-06T07:35:10.678Z</time></trkpt><trkpt lat="43.0883678" lon="12.3119408"><ele>247.33333333333331</ele><time>2026-04-06T07:35:12.677Z</time></trkpt><trkpt lat="43.0883855" lon="12.3118126"><ele>247.16666666666666</ele><time>2026-04-06T07:35:14.688Z</time></trkpt><trkpt lat="43.0884116" lon="12.3116943"><ele>247.0</ele><time>2026-04-06T07:35:16.678Z</time></trkpt><trkpt lat="43.088438" lon="12.3115958"><ele>247.0</ele><time>2026-04-06T07:35:18.658Z</time></trkpt><trkpt lat="43.0884576" lon="12.3115042"><ele>247.0</ele><time>2026-04-06T07:35:20.679Z</time></trkpt><trkpt lat="43.0884812" lon="12.3114105"><ele>247.0</ele><time>2026-04-06T07:35:22.66Z</time></trkpt><trkpt lat="43.0885119" lon="12.3113215"><ele>247.0</ele><time>2026-04-06T07:35:24.66Z</time></trkpt><trkpt lat="43.0885447" lon="12.3112326"><ele>247.0</ele><time>2026-04-06T07:35:26.678Z</time></trkpt><trkpt lat="43.0885924" lon="12.311125"><ele>247.0</ele><time>2026-04-06T07:35:29.677Z</time></trkpt><trkpt lat="43.0886207" lon="12.3110378"><ele>247.0</ele><time>2026-04-06T07:35:31.675Z</time></trkpt><trkpt lat="43.0886488" lon="12.3109452"><ele>246.99999999999997</ele><time>2026-04-06T07:35:33.68Z</time></trkpt><trkpt lat="43.0886778" lon="12.310853"><ele>247.0</ele><time>2026-04-06T07:35:35.678Z</time></trkpt><trkpt lat="43.0887099" lon="12.3107585"><ele>247.0</ele><time>2026-04-06T07:35:37.684Z</time></trkpt><trkpt lat="43.088746" lon="12.3106605"><ele>247.0</ele><time>2026-04-06T07:35:39.662Z</time></trkpt><trkpt lat="43.0887848" lon="12.3105602"><ele>246.99999999999997</ele><time>2026-04-06T07:35:41.675Z</time></trkpt><trkpt lat="43.0888223" lon="12.3104614"><ele>247.0</ele><time>2026-04-06T07:35:43.663Z</time></trkpt><trkpt lat="43.0888638" lon="12.3103686"><ele>247.28571428571428</ele><time>2026-04-06T07:35:45.666Z</time></trkpt><trkpt lat="43.0889025" lon="12.3102764"><ele>247.57142857142856</ele><time>2026-04-06T07:35:47.666Z</time></trkpt><trkpt lat="43.0889316" lon="12.3101927"><ele>247.85714285714283</ele><time>2026-04-06T07:35:49.658Z</time></trkpt><trkpt lat="43.0889649" lon="12.3101116"><ele>248.14285714285714</ele><time>2026-04-06T07:35:52.678Z</time></trkpt><trkpt lat="43.0890376" lon="12.3101406"><ele>248.4285714285714</ele><time>2026-04-06T07:35:55.682Z</time></trkpt><trkpt lat="43.0890912" lon="12.3101897"><ele>248.7142857142857</ele><time>2026-04-06T07:35:57.662Z</time></trkpt><trkpt lat="43.0891483" lon="12.3102782"><ele>249.0</ele><time>2026-04-06T07:35:59.662Z</time></trkpt><trkpt lat="43.0892189" lon="12.3103404"><ele>249.66666666666666</ele><time>2026-04-06T07:36:01.663Z</time></trkpt><trkpt lat="43.0893021" lon="12.3103609"><ele>250.33333333333331</ele><time>2026-04-06T07:36:03.661Z</time></trkpt><trkpt lat="43.0893913" lon="12.3103599"><ele>251.0</ele><time>2026-04-06T07:36:05.663Z</time></trkpt><trkpt lat="43.0894793" lon="12.3103631"><ele>251.66666666666666</ele><time>2026-04-06T07:36:07.664Z</time></trkpt><trkpt lat="43.0895653" lon="12.3103655"><ele>252.33333333333331</ele><time>2026-04-06T07:36:09.669Z</time></trkpt><trkpt lat="43.0896535" lon="12.3103695"><ele>253.0</ele><time>2026-04-06T07:36:11.671Z</time></trkpt><trkpt lat="43.0897403" lon="12.3103767"><ele>252.99999999999997</ele><time>2026-04-06T07:36:13.662Z</time></trkpt><trkpt lat="43.0898266" lon="12.3103827"><ele>253.0</ele><time>2026-04-06T07:36:15.668Z</time></trkpt><trkpt lat="43.0899128" lon="12.3103811"><ele>253.0</ele><time>2026-04-06T07:36:17.66Z</time></trkpt><trkpt lat="43.0899981" lon="12.3103805"><ele>253.0</ele><time>2026-04-06T07:36:19.66Z</time></trkpt><trkpt lat="43.0900767" lon="12.3103906"><ele>252.99999999999997</ele><time>2026-04-06T07:36:21.66Z</time></trkpt><trkpt lat="43.0901512" lon="12.3104127"><ele>253.0</ele><time>2026-04-06T07:36:23.662Z</time></trkpt><trkpt lat="43.0902259" lon="12.3104301"><ele>253.5714285714286</ele><time>2026-04-06T07:36:25.662Z</time></trkpt><trkpt lat="43.0903018" lon="12.3104328"><ele>254.14285714285717</ele><time>2026-04-06T07:36:27.663Z</time></trkpt><trkpt lat="43.0903769" lon="12.3104293"><ele>254.71428571428572</ele><time>2026-04-06T07:36:29.663Z</time></trkpt><trkpt lat="43.0904459" lon="12.3104477"><ele>255.2857142857143</ele><time>2026-04-06T07:36:31.671Z</time></trkpt><trkpt lat="43.0905164" lon="12.3104772"><ele>255.8571428571429</ele><time>2026-04-06T07:36:33.662Z</time></trkpt><trkpt lat="43.0905825" lon="12.3105111"><ele>256.42857142857144</ele><time>2026-04-06T07:36:35.664Z</time></trkpt><trkpt lat="43.0906493" lon="12.3105468"><ele>257.0</ele><time>2026-04-06T07:36:37.659Z</time></trkpt><trkpt lat="43.0907172" lon="12.3105799"><ele>258.1428571428571</ele><time>2026-04-06T07:36:39.665Z</time></trkpt><trkpt lat="43.0907877" lon="12.3106099"><ele>259.2857142857143</ele><time>2026-04-06T07:36:41.666Z</time></trkpt><trkpt lat="43.0908485" lon="12.3106475"><ele>260.42857142857144</ele><time>2026-04-06T07:36:43.778Z</time></trkpt><trkpt lat="43.0909133" lon="12.310685"><ele>261.57142857142856</ele><time>2026-04-06T07:36:45.672Z</time></trkpt><trkpt lat="43.0909725" lon="12.3107238"><ele>262.7142857142857</ele><time>2026-04-06T07:36:47.67Z</time></trkpt><trkpt lat="43.0910576" lon="12.3107865"><ele>263.85714285714283</ele><time>2026-04-06T07:36:50.68Z</time></trkpt><trkpt lat="43.0911279" lon="12.3108221"><ele>265.0</ele><time>2026-04-06T07:36:52.685Z</time></trkpt><trkpt lat="43.0911937" lon="12.3108575"><ele>264.99999999999994</ele><time>2026-04-06T07:36:54.691Z</time></trkpt><trkpt lat="43.0912645" lon="12.3108937"><ele>265.0</ele><time>2026-04-06T07:36:56.684Z</time></trkpt><trkpt lat="43.0913307" lon="12.3109327"><ele>265.0</ele><time>2026-04-06T07:36:58.681Z</time></trkpt><trkpt lat="43.0913942" lon="12.31097"><ele>265.0</ele><time>2026-04-06T07:37:00.682Z</time></trkpt><trkpt lat="43.0914605" lon="12.3110039"><ele>265.0</ele><time>2026-04-06T07:37:02.687Z</time></trkpt><trkpt lat="43.0915256" lon="12.3110339"><ele>264.99999999999994</ele><time>2026-04-06T07:37:04.68Z</time></trkpt><trkpt lat="43.0916055" lon="12.3110628"><ele>265.0</ele><time>2026-04-06T07:37:07.682Z</time></trkpt><trkpt lat="43.0916861" lon="12.3110716"><ele>265.66666666666663</ele><time>2026-04-06T07:37:09.659Z</time></trkpt><trkpt lat="43.0917669" lon="12.3110853"><ele>266.3333333333333</ele><time>2026-04-06T07:37:11.659Z</time></trkpt><trkpt lat="43.0918432" lon="12.3111"><ele>267.0</ele><time>2026-04-06T07:37:13.672Z</time></trkpt><trkpt lat="43.0919191" lon="12.3111062"><ele>267.6666666666667</ele><time>2026-04-06T07:37:15.664Z</time></trkpt><trkpt lat="43.0920121" lon="12.3111303"><ele>268.33333333333337</ele><time>2026-04-06T07:37:18.671Z</time></trkpt><trkpt lat="43.0920975" lon="12.3111682"><ele>269.0</ele><time>2026-04-06T07:37:20.661Z</time></trkpt><trkpt lat="43.092188" lon="12.3111754"><ele>269.0</ele><time>2026-04-06T07:37:22.661Z</time></trkpt><trkpt lat="43.0922593" lon="12.3112083"><ele>269.0</ele><time>2026-04-06T07:37:24.672Z</time></trkpt><trkpt lat="43.0923434" lon="12.31123"><ele>269.0</ele><time>2026-04-06T07:37:26.657Z</time></trkpt><trkpt lat="43.0924254" lon="12.3112454"><ele>269.0</ele><time>2026-04-06T07:37:28.661Z</time></trkpt><trkpt lat="43.0925058" lon="12.3112739"><ele>269.0</ele><time>2026-04-06T07:37:30.659Z</time></trkpt><trkpt lat="43.0925832" lon="12.3113103"><ele>269.0</ele><time>2026-04-06T07:37:32.829Z</time></trkpt><trkpt lat="43.0926502" lon="12.311356"><ele>269.0</ele><time>2026-04-06T07:37:34.659Z</time></trkpt><trkpt lat="43.0927219" lon="12.311385"><ele>269.0</ele><time>2026-04-06T07:37:36.663Z</time></trkpt><trkpt lat="43.0928065" lon="12.3113954"><ele>269.0</ele><time>2026-04-06T07:37:38.785Z</time></trkpt><trkpt lat="43.0928923" lon="12.3114112"><ele>269.0</ele><time>2026-04-06T07:37:40.664Z</time></trkpt><trkpt lat="43.0929711" lon="12.3114423"><ele>269.0</ele><time>2026-04-06T07:37:42.662Z</time></trkpt><trkpt lat="43.093051" lon="12.3114803"><ele>269.0</ele><time>2026-04-06T07:37:44.687Z</time></trkpt><trkpt lat="43.0931217" lon="12.311529"><ele>268.8</ele><time>2026-04-06T07:37:46.662Z</time></trkpt><trkpt lat="43.0932145" lon="12.3115997"><ele>268.59999999999997</ele><time>2026-04-06T07:37:48.672Z</time></trkpt><trkpt lat="43.0932915" lon="12.3116816"><ele>268.4</ele><time>2026-04-06T07:37:50.679Z</time></trkpt><trkpt lat="43.0933782" lon="12.3117658"><ele>268.2</ele><time>2026-04-06T07:37:52.66Z</time></trkpt><trkpt lat="43.0934635" lon="12.3118422"><ele>268.0</ele><time>2026-04-06T07:37:54.679Z</time></trkpt><trkpt lat="43.0935704" lon="12.3119234"><ele>268.0</ele><time>2026-04-06T07:37:56.678Z</time></trkpt><trkpt lat="43.0936675" lon="12.312005"><ele>268.0</ele><time>2026-04-06T07:37:58.675Z</time></trkpt><trkpt lat="43.0937676" lon="12.3121114"><ele>268.0</ele><time>2026-04-06T07:38:00.685Z</time></trkpt><trkpt lat="43.0938134" lon="12.3121815"><ele>268.0</ele><time>2026-04-06T07:38:01.664Z</time></trkpt><trkpt lat="43.093862" lon="12.3122482"><ele>268.0</ele><time>2026-04-06T07:38:02.676Z</time></trkpt><trkpt lat="43.0939161" lon="12.3123073"><ele>268.0</ele><time>2026-04-06T07:38:03.679Z</time></trkpt><trkpt lat="43.0939695" lon="12.3123606"><ele>267.6</ele><time>2026-04-06T07:38:04.66Z</time></trkpt><trkpt lat="43.094036" lon="12.3123737"><ele>267.20000000000005</ele><time>2026-04-06T07:38:05.676Z</time></trkpt><trkpt lat="43.0941525" lon="12.3123093"><ele>266.8</ele><time>2026-04-06T07:38:07.676Z</time></trkpt><trkpt lat="43.0942819" lon="12.3121769"><ele>266.40000000000003</ele><time>2026-04-06T07:38:10.682Z</time></trkpt><trkpt lat="43.0943513" lon="12.3121003"><ele>266.0</ele><time>2026-04-06T07:38:12.762Z</time></trkpt><trkpt lat="43.0944355" lon="12.3120166"><ele>266.0</ele><time>2026-04-06T07:38:14.678Z</time></trkpt><trkpt lat="43.0945145" lon="12.3119478"><ele>266.0</ele><time>2026-04-06T07:38:16.672Z</time></trkpt><trkpt lat="43.0945993" lon="12.3118892"><ele>266.0</ele><time>2026-04-06T07:38:18.671Z</time></trkpt><trkpt lat="43.0946647" lon="12.3118085"><ele>266.0</ele><time>2026-04-06T07:38:20.682Z</time></trkpt><trkpt lat="43.094728" lon="12.3117312"><ele>266.0</ele><time>2026-04-06T07:38:22.663Z</time></trkpt><trkpt lat="43.0948013" lon="12.3116505"><ele>266.0</ele><time>2026-04-06T07:38:24.654Z</time></trkpt><trkpt lat="43.0948697" lon="12.3115918"><ele>266.0</ele><time>2026-04-06T07:38:26.665Z</time></trkpt><trkpt lat="43.0949377" lon="12.3115294"><ele>266.0</ele><time>2026-04-06T07:38:28.662Z</time></trkpt><trkpt lat="43.0950035" lon="12.3114669"><ele>266.0</ele><time>2026-04-06T07:38:30.678Z</time></trkpt><trkpt lat="43.0950755" lon="12.3114252"><ele>266.0</ele><time>2026-04-06T07:38:32.681Z</time></trkpt><trkpt lat="43.0951607" lon="12.3114058"><ele>266.0</ele><time>2026-04-06T07:38:34.672Z</time></trkpt><trkpt lat="43.0952678" lon="12.311396"><ele>265.83333333333337</ele><time>2026-04-06T07:38:36.681Z</time></trkpt><trkpt lat="43.0953919" lon="12.3113833"><ele>265.6666666666667</ele><time>2026-04-06T07:38:38.676Z</time></trkpt><trkpt lat="43.0954587" lon="12.3113759"><ele>265.5</ele><time>2026-04-06T07:38:39.68Z</time></trkpt><trkpt lat="43.095523" lon="12.3113665"><ele>265.3333333333333</ele><time>2026-04-06T07:38:40.678Z</time></trkpt><trkpt lat="43.0955888" lon="12.3113583"><ele>265.16666666666663</ele><time>2026-04-06T07:38:41.682Z</time></trkpt><trkpt lat="43.0956523" lon="12.3113499"><ele>265.0</ele><time>2026-04-06T07:38:42.679Z</time></trkpt><trkpt lat="43.0957562" lon="12.3113509"><ele>265.0</ele><time>2026-04-06T07:38:44.68Z</time></trkpt><trkpt lat="43.0958385" lon="12.3113278"><ele>265.0</ele><time>2026-04-06T07:38:46.676Z</time></trkpt><trkpt lat="43.0959039" lon="12.3112307"><ele>265.0</ele><time>2026-04-06T07:38:48.68Z</time></trkpt><trkpt lat="43.0959398" lon="12.3111069"><ele>265.0</ele><time>2026-04-06T07:38:50.681Z</time></trkpt><trkpt lat="43.0959708" lon="12.3109835"><ele>265.0</ele><time>2026-04-06T07:38:52.686Z</time></trkpt><trkpt lat="43.0960233" lon="12.3108657"><ele>265.0</ele><time>2026-04-06T07:38:54.679Z</time></trkpt><trkpt lat="43.0960621" lon="12.3107537"><ele>265.0</ele><time>2026-04-06T07:38:56.679Z</time></trkpt><trkpt lat="43.0960939" lon="12.310617"><ele>265.0</ele><time>2026-04-06T07:38:58.681Z</time></trkpt><trkpt lat="43.0961352" lon="12.3104843"><ele>265.0</ele><time>2026-04-06T07:39:00.681Z</time></trkpt><trkpt lat="43.0961736" lon="12.3103454"><ele>265.0</ele><time>2026-04-06T07:39:02.665Z</time></trkpt><trkpt lat="43.0962203" lon="12.3102037"><ele>265.1428571428571</ele><time>2026-04-06T07:39:04.682Z</time></trkpt><trkpt lat="43.0962767" lon="12.3100599"><ele>265.2857142857143</ele><time>2026-04-06T07:39:06.678Z</time></trkpt><trkpt lat="43.0963014" lon="12.3099756"><ele>265.42857142857144</ele><time>2026-04-06T07:39:07.685Z</time></trkpt><trkpt lat="43.0963141" lon="12.3098881"><ele>265.57142857142856</ele><time>2026-04-06T07:39:08.675Z</time></trkpt><trkpt lat="43.0963264" lon="12.3098017"><ele>265.7142857142857</ele><time>2026-04-06T07:39:09.675Z</time></trkpt><trkpt lat="43.0963328" lon="12.3097121"><ele>265.85714285714283</ele><time>2026-04-06T07:39:10.673Z</time></trkpt><trkpt lat="43.0963385" lon="12.3096186"><ele>266.0</ele><time>2026-04-06T07:39:11.681Z</time></trkpt><trkpt lat="43.0963551" lon="12.3095252"><ele>266.1666666666667</ele><time>2026-04-06T07:39:12.678Z</time></trkpt><trkpt lat="43.0963656" lon="12.3094222"><ele>266.33333333333337</ele><time>2026-04-06T07:39:13.679Z</time></trkpt><trkpt lat="43.0963802" lon="12.3093193"><ele>266.5</ele><time>2026-04-06T07:39:14.678Z</time></trkpt><trkpt lat="43.0963999" lon="12.3092106"><ele>266.6666666666667</ele><time>2026-04-06T07:39:15.678Z</time></trkpt><trkpt lat="43.096429" lon="12.3091036"><ele>266.8333333333333</ele><time>2026-04-06T07:39:16.679Z</time></trkpt><trkpt lat="43.0964493" lon="12.3089932"><ele>267.0</ele><time>2026-04-06T07:39:17.683Z</time></trkpt><trkpt lat="43.0964786" lon="12.3088862"><ele>267.0</ele><time>2026-04-06T07:39:18.677Z</time></trkpt><trkpt lat="43.0965069" lon="12.3087788"><ele>267.0</ele><time>2026-04-06T07:39:19.782Z</time></trkpt><trkpt lat="43.0965278" lon="12.3086719"><ele>267.0</ele><time>2026-04-06T07:39:20.682Z</time></trkpt><trkpt lat="43.0965495" lon="12.308575"><ele>267.0</ele><time>2026-04-06T07:39:21.681Z</time></trkpt><trkpt lat="43.0965706" lon="12.3084862"><ele>267.0</ele><time>2026-04-06T07:39:22.683Z</time></trkpt><trkpt lat="43.0966284" lon="12.3083627"><ele>267.0</ele><time>2026-04-06T07:39:24.679Z</time></trkpt><trkpt lat="43.0967283" lon="12.3083125"><ele>264.0</ele><time>2026-04-06T07:39:26.68Z</time></trkpt><trkpt lat="43.0967831" lon="12.308218"><ele>261.0</ele><time>2026-04-06T07:39:28.667Z</time></trkpt><trkpt lat="43.0967899" lon="12.3080924"><ele>258.0</ele><time>2026-04-06T07:39:30.786Z</time></trkpt><trkpt lat="43.0967945" lon="12.3079654"><ele>255.0</ele><time>2026-04-06T07:39:32.682Z</time></trkpt><trkpt lat="43.0968105" lon="12.3078295"><ele>252.0</ele><time>2026-04-06T07:39:34.658Z</time></trkpt><trkpt lat="43.0968314" lon="12.3076891"><ele>252.0</ele><time>2026-04-06T07:39:36.667Z</time></trkpt><trkpt lat="43.0968542" lon="12.3075535"><ele>252.0</ele><time>2026-04-06T07:39:38.675Z</time></trkpt><trkpt lat="43.0968687" lon="12.3074065"><ele>252.0</ele><time>2026-04-06T07:39:40.673Z</time></trkpt><trkpt lat="43.0968812" lon="12.3072659"><ele>252.0</ele><time>2026-04-06T07:39:42.68Z</time></trkpt><trkpt lat="43.0969027" lon="12.3070613"><ele>252.2</ele><time>2026-04-06T07:39:45.672Z</time></trkpt><trkpt lat="43.0969145" lon="12.3069217"><ele>252.39999999999998</ele><time>2026-04-06T07:39:47.671Z</time></trkpt><trkpt lat="43.0969271" lon="12.3067906"><ele>252.60000000000002</ele><time>2026-04-06T07:39:49.684Z</time></trkpt><trkpt lat="43.0969462" lon="12.3066584"><ele>252.8</ele><time>2026-04-06T07:39:51.677Z</time></trkpt><trkpt lat="43.0969615" lon="12.3065247"><ele>253.0</ele><time>2026-04-06T07:39:53.679Z</time></trkpt><trkpt lat="43.0969806" lon="12.3063893"><ele>253.0</ele><time>2026-04-06T07:39:55.681Z</time></trkpt><trkpt lat="43.0969985" lon="12.306244"><ele>253.0</ele><time>2026-04-06T07:39:57.679Z</time></trkpt><trkpt lat="43.0970184" lon="12.3060959"><ele>253.0</ele><time>2026-04-06T07:39:59.685Z</time></trkpt><trkpt lat="43.0970404" lon="12.3059538"><ele>253.0</ele><time>2026-04-06T07:40:01.688Z</time></trkpt><trkpt lat="43.0970549" lon="12.3058038"><ele>253.0</ele><time>2026-04-06T07:40:03.684Z</time></trkpt><trkpt lat="43.0970518" lon="12.3056643"><ele>253.8</ele><time>2026-04-06T07:40:05.781Z</time></trkpt><trkpt lat="43.0970335" lon="12.3055399"><ele>254.60000000000002</ele><time>2026-04-06T07:40:07.68Z</time></trkpt><trkpt lat="43.0970275" lon="12.3054027"><ele>255.39999999999998</ele><time>2026-04-06T07:40:09.677Z</time></trkpt><trkpt lat="43.0970216" lon="12.3052681"><ele>256.2</ele><time>2026-04-06T07:40:11.677Z</time></trkpt><trkpt lat="43.0970057" lon="12.3051232"><ele>257.0</ele><time>2026-04-06T07:40:13.682Z</time></trkpt><trkpt lat="43.0969955" lon="12.3049901"><ele>257.0</ele><time>2026-04-06T07:40:15.682Z</time></trkpt><trkpt lat="43.0969866" lon="12.3048488"><ele>257.0</ele><time>2026-04-06T07:40:17.665Z</time></trkpt><trkpt lat="43.0969944" lon="12.30471"><ele>257.0</ele><time>2026-04-06T07:40:19.678Z</time></trkpt><trkpt lat="43.0970335" lon="12.3045504"><ele>257.0</ele><time>2026-04-06T07:40:21.669Z</time></trkpt><trkpt lat="43.0970487" lon="12.3044651"><ele>257.0</ele><time>2026-04-06T07:40:22.68Z</time></trkpt><trkpt lat="43.0970442" lon="12.3043729"><ele>256.1666666666667</ele><time>2026-04-06T07:40:23.681Z</time></trkpt><trkpt lat="43.0970251" lon="12.3042904"><ele>255.33333333333334</ele><time>2026-04-06T07:40:24.682Z</time></trkpt><trkpt lat="43.0969944" lon="12.3042104"><ele>254.5</ele><time>2026-04-06T07:40:25.68Z</time></trkpt><trkpt lat="43.096964" lon="12.3041288"><ele>253.66666666666669</ele><time>2026-04-06T07:40:26.67Z</time></trkpt><trkpt lat="43.0969359" lon="12.3040465"><ele>252.83333333333334</ele><time>2026-04-06T07:40:27.677Z</time></trkpt><trkpt lat="43.0968968" lon="12.3039702"><ele>252.0</ele><time>2026-04-06T07:40:28.663Z</time></trkpt><trkpt lat="43.096824" lon="12.303823"><ele>253.6</ele><time>2026-04-06T07:40:30.666Z</time></trkpt><trkpt lat="43.0967515" lon="12.3036986"><ele>255.2</ele><time>2026-04-06T07:40:32.669Z</time></trkpt><trkpt lat="43.0966478" lon="12.3036255"><ele>256.8</ele><time>2026-04-06T07:40:34.668Z</time></trkpt><trkpt lat="43.096547" lon="12.3035737"><ele>258.4</ele><time>2026-04-06T07:40:36.662Z</time></trkpt><trkpt lat="43.0964778" lon="12.3034944"><ele>260.0</ele><time>2026-04-06T07:40:38.665Z</time></trkpt><trkpt lat="43.0964377" lon="12.3033799"><ele>260.0</ele><time>2026-04-06T07:40:40.661Z</time></trkpt><trkpt lat="43.0963952" lon="12.3032708"><ele>260.0</ele><time>2026-04-06T07:40:42.658Z</time></trkpt><trkpt lat="43.0963612" lon="12.3031648"><ele>260.0</ele><time>2026-04-06T07:40:44.664Z</time></trkpt><trkpt lat="43.0963434" lon="12.3030319"><ele>260.0</ele><time>2026-04-06T07:40:46.663Z</time></trkpt><trkpt lat="43.0962962" lon="12.3029188"><ele>260.0</ele><time>2026-04-06T07:40:48.663Z</time></trkpt><trkpt lat="43.096222" lon="12.3028173"><ele>256.0</ele><time>2026-04-06T07:40:50.672Z</time></trkpt><trkpt lat="43.0961273" lon="12.3027299"><ele>252.0</ele><time>2026-04-06T07:40:52.675Z</time></trkpt><trkpt lat="43.0960353" lon="12.3026477"><ele>248.0</ele><time>2026-04-06T07:40:54.665Z</time></trkpt><trkpt lat="43.0959386" lon="12.3025643"><ele>244.0</ele><time>2026-04-06T07:40:56.669Z</time></trkpt><trkpt lat="43.095841" lon="12.3024805"><ele>243.6</ele><time>2026-04-06T07:40:58.681Z</time></trkpt><trkpt lat="43.0957286" lon="12.3024008"><ele>243.2</ele><time>2026-04-06T07:41:00.68Z</time></trkpt><trkpt lat="43.0956737" lon="12.3023583"><ele>242.79999999999998</ele><time>2026-04-06T07:41:01.684Z</time></trkpt><trkpt lat="43.0955719" lon="12.3022714"><ele>242.39999999999998</ele><time>2026-04-06T07:41:03.677Z</time></trkpt><trkpt lat="43.0955188" lon="12.3022189"><ele>242.0</ele><time>2026-04-06T07:41:04.679Z</time></trkpt><trkpt lat="43.0954275" lon="12.3021004"><ele>242.0</ele><time>2026-04-06T07:41:06.691Z</time></trkpt><trkpt lat="43.0953441" lon="12.3019609"><ele>242.0</ele><time>2026-04-06T07:41:08.678Z</time></trkpt><trkpt lat="43.0953073" lon="12.3018856"><ele>242.0</ele><time>2026-04-06T07:41:09.678Z</time></trkpt><trkpt lat="43.0952705" lon="12.3018113"><ele>242.0</ele><time>2026-04-06T07:41:10.694Z</time></trkpt><trkpt lat="43.0952214" lon="12.3016481"><ele>242.0</ele><time>2026-04-06T07:41:12.678Z</time></trkpt><trkpt lat="43.0952" lon="12.3015658"><ele>242.0</ele><time>2026-04-06T07:41:13.678Z</time></trkpt><trkpt lat="43.0951485" lon="12.3014116"><ele>242.0</ele><time>2026-04-06T07:41:15.679Z</time></trkpt><trkpt lat="43.0951238" lon="12.3013309"><ele>242.0</ele><time>2026-04-06T07:41:16.681Z</time></trkpt><trkpt lat="43.0950725" lon="12.3011911"><ele>242.0</ele><time>2026-04-06T07:41:18.674Z</time></trkpt><trkpt lat="43.0950368" lon="12.3010454"><ele>242.0</ele><time>2026-04-06T07:41:20.672Z</time></trkpt><trkpt lat="43.0950039" lon="12.3009058"><ele>242.0</ele><time>2026-04-06T07:41:22.68Z</time></trkpt><trkpt lat="43.0949664" lon="12.3007735"><ele>242.0</ele><time>2026-04-06T07:41:24.682Z</time></trkpt><trkpt lat="43.0949414" lon="12.3006326"><ele>242.0</ele><time>2026-04-06T07:41:26.754Z</time></trkpt><trkpt lat="43.0949308" lon="12.3004903"><ele>242.0</ele><time>2026-04-06T07:41:28.681Z</time></trkpt><trkpt lat="43.0949051" lon="12.3003516"><ele>242.0</ele><time>2026-04-06T07:41:30.678Z</time></trkpt><trkpt lat="43.0948921" lon="12.3002086"><ele>246.5</ele><time>2026-04-06T07:41:32.676Z</time></trkpt><trkpt lat="43.0948821" lon="12.3000572"><ele>251.0</ele><time>2026-04-06T07:41:34.694Z</time></trkpt><trkpt lat="43.0948655" lon="12.2999089"><ele>255.5</ele><time>2026-04-06T07:41:36.677Z</time></trkpt><trkpt lat="43.0948507" lon="12.299748"><ele>260.0</ele><time>2026-04-06T07:41:38.672Z</time></trkpt><trkpt lat="43.0948209" lon="12.2995794"><ele>261.0</ele><time>2026-04-06T07:41:40.66Z</time></trkpt><trkpt lat="43.094808" lon="12.2994171"><ele>262.0</ele><time>2026-04-06T07:41:42.666Z</time></trkpt><trkpt lat="43.0947822" lon="12.2992636"><ele>263.0</ele><time>2026-04-06T07:41:44.661Z</time></trkpt><trkpt lat="43.0947669" lon="12.2991133"><ele>264.0</ele><time>2026-04-06T07:41:46.667Z</time></trkpt><trkpt lat="43.0947408" lon="12.2989653"><ele>263.0</ele><time>2026-04-06T07:41:48.661Z</time></trkpt><trkpt lat="43.0947117" lon="12.2988254"><ele>262.0</ele><time>2026-04-06T07:41:50.663Z</time></trkpt><trkpt lat="43.0946944" lon="12.2986742"><ele>261.0</ele><time>2026-04-06T07:41:52.677Z</time></trkpt><trkpt lat="43.0946649" lon="12.298533"><ele>260.0</ele><time>2026-04-06T07:41:54.661Z</time></trkpt><trkpt lat="43.0946267" lon="12.2983909"><ele>259.0</ele><time>2026-04-06T07:41:56.676Z</time></trkpt><trkpt lat="43.0945907" lon="12.2982635"><ele>257.0</ele><time>2026-04-06T07:41:58.664Z</time></trkpt><trkpt lat="43.0945369" lon="12.2980669"><ele>255.0</ele><time>2026-04-06T07:42:01.656Z</time></trkpt><trkpt lat="43.0945" lon="12.2979278"><ele>253.0</ele><time>2026-04-06T07:42:03.667Z</time></trkpt><trkpt lat="43.094478" lon="12.2977761"><ele>251.0</ele><time>2026-04-06T07:42:05.68Z</time></trkpt><trkpt lat="43.0944604" lon="12.2976286"><ele>251.0</ele><time>2026-04-06T07:42:07.659Z</time></trkpt><trkpt lat="43.0944431" lon="12.297464"><ele>251.0</ele><time>2026-04-06T07:42:09.659Z</time></trkpt><trkpt lat="43.0944233" lon="12.2973068"><ele>251.0</ele><time>2026-04-06T07:42:11.66Z</time></trkpt><trkpt lat="43.0943966" lon="12.2971445"><ele>251.0</ele><time>2026-04-06T07:42:13.672Z</time></trkpt><trkpt lat="43.094379" lon="12.2969855"><ele>250.20000000000002</ele><time>2026-04-06T07:42:15.678Z</time></trkpt><trkpt lat="43.0943634" lon="12.2968228"><ele>249.40000000000003</ele><time>2026-04-06T07:42:17.677Z</time></trkpt><trkpt lat="43.094345" lon="12.2966578"><ele>248.6</ele><time>2026-04-06T07:42:19.68Z</time></trkpt><trkpt lat="43.0943276" lon="12.2965637"><ele>247.8</ele><time>2026-04-06T07:42:20.657Z</time></trkpt><trkpt lat="43.0943217" lon="12.2964669"><ele>247.0</ele><time>2026-04-06T07:42:21.677Z</time></trkpt><trkpt lat="43.0943067" lon="12.2963685"><ele>245.66666666666666</ele><time>2026-04-06T07:42:22.664Z</time></trkpt><trkpt lat="43.0942937" lon="12.2962734"><ele>244.33333333333331</ele><time>2026-04-06T07:42:23.664Z</time></trkpt><trkpt lat="43.0942662" lon="12.2961671"><ele>243.0</ele><time>2026-04-06T07:42:24.664Z</time></trkpt><trkpt lat="43.0942503" lon="12.2960628"><ele>241.66666666666669</ele><time>2026-04-06T07:42:25.663Z</time></trkpt><trkpt lat="43.0942223" lon="12.2959543"><ele>240.33333333333334</ele><time>2026-04-06T07:42:26.663Z</time></trkpt><trkpt lat="43.0942043" lon="12.2958475"><ele>239.0</ele><time>2026-04-06T07:42:27.66Z</time></trkpt><trkpt lat="43.0941824" lon="12.2957354"><ele>239.2</ele><time>2026-04-06T07:42:28.762Z</time></trkpt><trkpt lat="43.0941403" lon="12.2955174"><ele>239.39999999999998</ele><time>2026-04-06T07:42:30.66Z</time></trkpt><trkpt lat="43.0941258" lon="12.2954031"><ele>239.6</ele><time>2026-04-06T07:42:31.663Z</time></trkpt><trkpt lat="43.0941095" lon="12.2952921"><ele>239.8</ele><time>2026-04-06T07:42:32.657Z</time></trkpt><trkpt lat="43.0940881" lon="12.2951798"><ele>240.0</ele><time>2026-04-06T07:42:33.66Z</time></trkpt><trkpt lat="43.0940712" lon="12.2950648"><ele>240.0</ele><time>2026-04-06T07:42:34.661Z</time></trkpt><trkpt lat="43.0940534" lon="12.294949"><ele>240.0</ele><time>2026-04-06T07:42:35.659Z</time></trkpt><trkpt lat="43.0940365" lon="12.2948366"><ele>240.0</ele><time>2026-04-06T07:42:36.661Z</time></trkpt><trkpt lat="43.0940229" lon="12.2947324"><ele>240.0</ele><time>2026-04-06T07:42:37.663Z</time></trkpt><trkpt lat="43.0940085" lon="12.2946331"><ele>240.0</ele><time>2026-04-06T07:42:38.659Z</time></trkpt><trkpt lat="43.0939993" lon="12.2945452"><ele>240.0</ele><time>2026-04-06T07:42:39.658Z</time></trkpt><trkpt lat="43.093969" lon="12.2944074"><ele>239.28571428571428</ele><time>2026-04-06T07:42:41.668Z</time></trkpt><trkpt lat="43.0939861" lon="12.2943194"><ele>238.57142857142856</ele><time>2026-04-06T07:42:43.658Z</time></trkpt><trkpt lat="43.0940385" lon="12.2942677"><ele>237.85714285714283</ele><time>2026-04-06T07:42:45.661Z</time></trkpt><trkpt lat="43.0941102" lon="12.294315"><ele>237.14285714285714</ele><time>2026-04-06T07:42:48.663Z</time></trkpt><trkpt lat="43.0941803" lon="12.2943506"><ele>236.4285714285714</ele><time>2026-04-06T07:42:54.688Z</time></trkpt><trkpt lat="43.0941992" lon="12.2942536"><ele>235.7142857142857</ele><time>2026-04-06T07:42:56.667Z</time></trkpt><trkpt lat="43.0942594" lon="12.294162"><ele>235.0</ele><time>2026-04-06T07:42:58.682Z</time></trkpt><trkpt lat="43.0943763" lon="12.2941108"><ele>234.28571428571428</ele><time>2026-04-06T07:43:00.663Z</time></trkpt><trkpt lat="43.094438" lon="12.2940887"><ele>233.57142857142856</ele><time>2026-04-06T07:43:01.672Z</time></trkpt><trkpt lat="43.0945074" lon="12.2940576"><ele>232.85714285714283</ele><time>2026-04-06T07:43:02.679Z</time></trkpt><trkpt lat="43.0945752" lon="12.2940256"><ele>232.1428571428571</ele><time>2026-04-06T07:43:03.672Z</time></trkpt><trkpt lat="43.0946402" lon="12.2939915"><ele>231.42857142857142</ele><time>2026-04-06T07:43:04.68Z</time></trkpt><trkpt lat="43.0947058" lon="12.2939676"><ele>230.71428571428567</ele><time>2026-04-06T07:43:05.672Z</time></trkpt><trkpt lat="43.0947681" lon="12.2939366"><ele>229.99999999999997</ele><time>2026-04-06T07:43:06.692Z</time></trkpt><trkpt lat="43.0948322" lon="12.2939109"><ele>230.0</ele><time>2026-04-06T07:43:07.681Z</time></trkpt><trkpt lat="43.0948933" lon="12.2938824"><ele>230.0</ele><time>2026-04-06T07:43:08.682Z</time></trkpt><trkpt lat="43.0949541" lon="12.2938582"><ele>230.0</ele><time>2026-04-06T07:43:09.677Z</time></trkpt><trkpt lat="43.0950737" lon="12.2938326"><ele>230.0</ele><time>2026-04-06T07:43:11.679Z</time></trkpt><trkpt lat="43.0951946" lon="12.293805"><ele>230.0</ele><time>2026-04-06T07:43:13.696Z</time></trkpt><trkpt lat="43.0953067" lon="12.2937855"><ele>229.25</ele><time>2026-04-06T07:43:15.677Z</time></trkpt><trkpt lat="43.0954271" lon="12.29377"><ele>228.5</ele><time>2026-04-06T07:43:17.676Z</time></trkpt><trkpt lat="43.0955442" lon="12.2937721"><ele>227.75</ele><time>2026-04-06T07:43:19.683Z</time></trkpt><trkpt lat="43.0956553" lon="12.2937845"><ele>227.0</ele><time>2026-04-06T07:43:21.676Z</time></trkpt><trkpt lat="43.095769" lon="12.2938001"><ele>226.6</ele><time>2026-04-06T07:43:23.685Z</time></trkpt><trkpt lat="43.0958636" lon="12.2938172"><ele>226.2</ele><time>2026-04-06T07:43:25.678Z</time></trkpt><trkpt lat="43.0959586" lon="12.2938297"><ele>225.8</ele><time>2026-04-06T07:43:27.679Z</time></trkpt><trkpt lat="43.0960451" lon="12.2938483"><ele>225.4</ele><time>2026-04-06T07:43:29.69Z</time></trkpt><trkpt lat="43.0961384" lon="12.2938513"><ele>225.0</ele><time>2026-04-06T07:43:31.674Z</time></trkpt><trkpt lat="43.0962375" lon="12.2938498"><ele>225.0</ele><time>2026-04-06T07:43:33.681Z</time></trkpt><trkpt lat="43.0963288" lon="12.2938568"><ele>225.0</ele><time>2026-04-06T07:43:35.671Z</time></trkpt><trkpt lat="43.0964271" lon="12.2938665"><ele>225.0</ele><time>2026-04-06T07:43:37.675Z</time></trkpt><trkpt lat="43.0965528" lon="12.2938353"><ele>225.0</ele><time>2026-04-06T07:43:39.682Z</time></trkpt><trkpt lat="43.096672" lon="12.2938169"><ele>225.0</ele><time>2026-04-06T07:43:41.678Z</time></trkpt><trkpt lat="43.0967906" lon="12.2937905"><ele>225.0</ele><time>2026-04-06T07:43:43.676Z</time></trkpt><trkpt lat="43.0969118" lon="12.2937593"><ele>225.0</ele><time>2026-04-06T07:43:45.679Z</time></trkpt><trkpt lat="43.0970067" lon="12.2937706"><ele>225.0</ele><time>2026-04-06T07:43:47.679Z</time></trkpt><trkpt lat="43.0971008" lon="12.2937896"><ele>225.0</ele><time>2026-04-06T07:43:49.678Z</time></trkpt><trkpt lat="43.097192" lon="12.2938043"><ele>225.0</ele><time>2026-04-06T07:43:51.676Z</time></trkpt><trkpt lat="43.0972754" lon="12.2938281"><ele>225.0</ele><time>2026-04-06T07:43:53.678Z</time></trkpt><trkpt lat="43.0973437" lon="12.2938531"><ele>225.0</ele><time>2026-04-06T07:43:55.677Z</time></trkpt><trkpt lat="43.0974242" lon="12.2938543"><ele>225.0</ele><time>2026-04-06T07:43:57.684Z</time></trkpt><trkpt lat="43.0975091" lon="12.293839"><ele>225.0</ele><time>2026-04-06T07:43:59.68Z</time></trkpt><trkpt lat="43.0975748" lon="12.293821"><ele>225.0</ele><time>2026-04-06T07:44:01.66Z</time></trkpt><trkpt lat="43.0976575" lon="12.2937876"><ele>225.0</ele><time>2026-04-06T07:44:05.669Z</time></trkpt><trkpt lat="43.097758" lon="12.293766"><ele>225.16666666666666</ele><time>2026-04-06T07:44:08.687Z</time></trkpt><trkpt lat="43.097836" lon="12.2937457"><ele>225.33333333333331</ele><time>2026-04-06T07:44:10.679Z</time></trkpt><trkpt lat="43.0979078" lon="12.2937151"><ele>225.5</ele><time>2026-04-06T07:44:12.677Z</time></trkpt><trkpt lat="43.0979893" lon="12.2936335"><ele>225.66666666666666</ele><time>2026-04-06T07:44:14.677Z</time></trkpt><trkpt lat="43.0980493" lon="12.2935318"><ele>225.83333333333331</ele><time>2026-04-06T07:44:16.68Z</time></trkpt><trkpt lat="43.0980771" lon="12.2934089"><ele>226.0</ele><time>2026-04-06T07:44:18.679Z</time></trkpt><trkpt lat="43.0980945" lon="12.2932809"><ele>225.99999999999997</ele><time>2026-04-06T07:44:20.677Z</time></trkpt><trkpt lat="43.0981146" lon="12.2931551"><ele>226.0</ele><time>2026-04-06T07:44:22.673Z</time></trkpt><trkpt lat="43.0981377" lon="12.2930233"><ele>226.0</ele><time>2026-04-06T07:44:24.678Z</time></trkpt><trkpt lat="43.0981563" lon="12.2928694"><ele>226.0</ele><time>2026-04-06T07:44:26.678Z</time></trkpt><trkpt lat="43.0981729" lon="12.2927773"><ele>225.99999999999997</ele><time>2026-04-06T07:44:27.683Z</time></trkpt><trkpt lat="43.0981827" lon="12.2926866"><ele>226.0</ele><time>2026-04-06T07:44:28.678Z</time></trkpt><trkpt lat="43.0982011" lon="12.2925954"><ele>226.14285714285717</ele><time>2026-04-06T07:44:29.677Z</time></trkpt><trkpt lat="43.0982131" lon="12.2925055"><ele>226.28571428571428</ele><time>2026-04-06T07:44:30.676Z</time></trkpt><trkpt lat="43.0982255" lon="12.2924124"><ele>226.42857142857144</ele><time>2026-04-06T07:44:31.68Z</time></trkpt><trkpt lat="43.0982352" lon="12.2923187"><ele>226.57142857142858</ele><time>2026-04-06T07:44:32.678Z</time></trkpt><trkpt lat="43.0982472" lon="12.2922284"><ele>226.71428571428572</ele><time>2026-04-06T07:44:33.676Z</time></trkpt><trkpt lat="43.0982608" lon="12.2921363"><ele>226.85714285714286</ele><time>2026-04-06T07:44:34.684Z</time></trkpt><trkpt lat="43.0982706" lon="12.2920411"><ele>227.0</ele><time>2026-04-06T07:44:35.679Z</time></trkpt><trkpt lat="43.0982806" lon="12.2919492"><ele>227.2857142857143</ele><time>2026-04-06T07:44:36.664Z</time></trkpt><trkpt lat="43.0982874" lon="12.2918523"><ele>227.5714285714286</ele><time>2026-04-06T07:44:37.685Z</time></trkpt><trkpt lat="43.0982821" lon="12.2917623"><ele>227.85714285714286</ele><time>2026-04-06T07:44:38.68Z</time></trkpt><trkpt lat="43.0982752" lon="12.2916694"><ele>228.14285714285717</ele><time>2026-04-06T07:44:39.687Z</time></trkpt><trkpt lat="43.0982602" lon="12.2915787"><ele>228.42857142857144</ele><time>2026-04-06T07:44:40.677Z</time></trkpt><trkpt lat="43.0982446" lon="12.2914913"><ele>228.71428571428572</ele><time>2026-04-06T07:44:41.678Z</time></trkpt><trkpt lat="43.0982408" lon="12.2914005"><ele>229.0</ele><time>2026-04-06T07:44:42.673Z</time></trkpt><trkpt lat="43.0982317" lon="12.2913148"><ele>227.25</ele><time>2026-04-06T07:44:43.684Z</time></trkpt><trkpt lat="43.0982095" lon="12.2911471"><ele>225.5</ele><time>2026-04-06T07:44:45.679Z</time></trkpt><trkpt lat="43.0981788" lon="12.2909824"><ele>223.75</ele><time>2026-04-06T07:44:47.677Z</time></trkpt><trkpt lat="43.0981464" lon="12.2908267"><ele>222.0</ele><time>2026-04-06T07:44:49.676Z</time></trkpt><trkpt lat="43.0981162" lon="12.2906675"><ele>222.2</ele><time>2026-04-06T07:44:51.669Z</time></trkpt><trkpt lat="43.0980751" lon="12.2905025"><ele>222.39999999999998</ele><time>2026-04-06T07:44:53.668Z</time></trkpt><trkpt lat="43.0980379" lon="12.2903517"><ele>222.60000000000002</ele><time>2026-04-06T07:44:55.679Z</time></trkpt><trkpt lat="43.098009" lon="12.2901908"><ele>222.8</ele><time>2026-04-06T07:44:57.675Z</time></trkpt><trkpt lat="43.097997" lon="12.2901053"><ele>223.0</ele><time>2026-04-06T07:44:58.66Z</time></trkpt><trkpt lat="43.0979671" lon="12.2899544"><ele>223.0</ele><time>2026-04-06T07:45:00.678Z</time></trkpt><trkpt lat="43.0979356" lon="12.2898001"><ele>223.0</ele><time>2026-04-06T07:45:02.676Z</time></trkpt><trkpt lat="43.0979086" lon="12.2896397"><ele>223.0</ele><time>2026-04-06T07:45:04.679Z</time></trkpt><trkpt lat="43.0978704" lon="12.2894797"><ele>223.0</ele><time>2026-04-06T07:45:06.673Z</time></trkpt><trkpt lat="43.0978436" lon="12.2893228"><ele>223.2</ele><time>2026-04-06T07:45:08.676Z</time></trkpt><trkpt lat="43.0978049" lon="12.2891685"><ele>223.4</ele><time>2026-04-06T07:45:10.664Z</time></trkpt><trkpt lat="43.0977764" lon="12.2890039"><ele>223.59999999999997</ele><time>2026-04-06T07:45:12.67Z</time></trkpt><trkpt lat="43.09776" lon="12.2889203"><ele>223.79999999999998</ele><time>2026-04-06T07:45:13.681Z</time></trkpt><trkpt lat="43.0977189" lon="12.2887721"><ele>224.0</ele><time>2026-04-06T07:45:15.685Z</time></trkpt><trkpt lat="43.0976793" lon="12.2886211"><ele>223.75</ele><time>2026-04-06T07:45:17.683Z</time></trkpt><trkpt lat="43.0976425" lon="12.2884665"><ele>223.5</ele><time>2026-04-06T07:45:19.679Z</time></trkpt><trkpt lat="43.0976151" lon="12.2883049"><ele>223.25</ele><time>2026-04-06T07:45:21.675Z</time></trkpt><trkpt lat="43.0975941" lon="12.2881449"><ele>223.0</ele><time>2026-04-06T07:45:23.678Z</time></trkpt><trkpt lat="43.0975679" lon="12.2879854"><ele>223.0</ele><time>2026-04-06T07:45:25.678Z</time></trkpt><trkpt lat="43.0975441" lon="12.2878352"><ele>223.0</ele><time>2026-04-06T07:45:27.676Z</time></trkpt><trkpt lat="43.0975161" lon="12.2876767"><ele>223.0</ele><time>2026-04-06T07:45:29.681Z</time></trkpt><trkpt lat="43.0974766" lon="12.2875181"><ele>223.0</ele><time>2026-04-06T07:45:31.681Z</time></trkpt><trkpt lat="43.0974627" lon="12.28736"><ele>223.0</ele><time>2026-04-06T07:45:33.677Z</time></trkpt><trkpt lat="43.0974829" lon="12.2872137"><ele>223.0</ele><time>2026-04-06T07:45:35.678Z</time></trkpt><trkpt lat="43.0974874" lon="12.2870738"><ele>223.0</ele><time>2026-04-06T07:45:37.678Z</time></trkpt><trkpt lat="43.097422" lon="12.2869515"><ele>223.0</ele><time>2026-04-06T07:45:39.669Z</time></trkpt><trkpt lat="43.0973601" lon="12.2868292"><ele>223.0</ele><time>2026-04-06T07:45:41.683Z</time></trkpt><trkpt lat="43.0973031" lon="12.2867045"><ele>223.25</ele><time>2026-04-06T07:45:43.674Z</time></trkpt><trkpt lat="43.0972239" lon="12.2864744"><ele>223.5</ele><time>2026-04-06T07:45:46.665Z</time></trkpt><trkpt lat="43.0971966" lon="12.2863941"><ele>223.75</ele><time>2026-04-06T07:45:47.663Z</time></trkpt><trkpt lat="43.0971707" lon="12.2862328"><ele>224.0</ele><time>2026-04-06T07:45:49.677Z</time></trkpt><trkpt lat="43.0971408" lon="12.2860716"><ele>223.2</ele><time>2026-04-06T07:45:51.672Z</time></trkpt><trkpt lat="43.0971127" lon="12.2859926"><ele>222.39999999999998</ele><time>2026-04-06T07:45:52.657Z</time></trkpt><trkpt lat="43.097098" lon="12.2859079"><ele>221.6</ele><time>2026-04-06T07:45:53.662Z</time></trkpt><trkpt lat="43.0970632" lon="12.2857526"><ele>220.8</ele><time>2026-04-06T07:45:55.739Z</time></trkpt><trkpt lat="43.0970219" lon="12.2855985"><ele>220.0</ele><time>2026-04-06T07:45:57.659Z</time></trkpt><trkpt lat="43.0969923" lon="12.2854408"><ele>219.8</ele><time>2026-04-06T07:45:59.659Z</time></trkpt><trkpt lat="43.0969696" lon="12.2852843"><ele>219.6</ele><time>2026-04-06T07:46:01.663Z</time></trkpt><trkpt lat="43.0969682" lon="12.2851969"><ele>219.39999999999998</ele><time>2026-04-06T07:46:02.773Z</time></trkpt><trkpt lat="43.0969482" lon="12.2850505"><ele>219.2</ele><time>2026-04-06T07:46:04.669Z</time></trkpt><trkpt lat="43.0969117" lon="12.2849007"><ele>219.0</ele><time>2026-04-06T07:46:06.67Z</time></trkpt><trkpt lat="43.0968655" lon="12.2847469"><ele>219.39999999999998</ele><time>2026-04-06T07:46:08.676Z</time></trkpt><trkpt lat="43.0968608" lon="12.2845999"><ele>219.79999999999998</ele><time>2026-04-06T07:46:10.671Z</time></trkpt><trkpt lat="43.0968503" lon="12.2844438"><ele>220.20000000000002</ele><time>2026-04-06T07:46:12.68Z</time></trkpt><trkpt lat="43.0968405" lon="12.2842953"><ele>220.60000000000002</ele><time>2026-04-06T07:46:14.679Z</time></trkpt><trkpt lat="43.0967961" lon="12.28415"><ele>221.0</ele><time>2026-04-06T07:46:16.675Z</time></trkpt><trkpt lat="43.0967392" lon="12.2840125"><ele>220.83333333333334</ele><time>2026-04-06T07:46:18.676Z</time></trkpt><trkpt lat="43.0967086" lon="12.2838945"><ele>220.66666666666669</ele><time>2026-04-06T07:46:20.673Z</time></trkpt><trkpt lat="43.0966842" lon="12.2837849"><ele>220.5</ele><time>2026-04-06T07:46:22.682Z</time></trkpt><trkpt lat="43.0966732" lon="12.2836805"><ele>220.33333333333331</ele><time>2026-04-06T07:46:24.677Z</time></trkpt><trkpt lat="43.0966486" lon="12.2835665"><ele>220.16666666666666</ele><time>2026-04-06T07:46:27.684Z</time></trkpt><trkpt lat="43.0966258" lon="12.2834855"><ele>220.0</ele><time>2026-04-06T07:46:29.665Z</time></trkpt><trkpt lat="43.0966036" lon="12.2833735"><ele>219.8</ele><time>2026-04-06T07:46:31.687Z</time></trkpt><trkpt lat="43.0965776" lon="12.2832456"><ele>219.6</ele><time>2026-04-06T07:46:33.68Z</time></trkpt><trkpt lat="43.0965492" lon="12.2831211"><ele>219.39999999999998</ele><time>2026-04-06T07:46:35.676Z</time></trkpt><trkpt lat="43.0965258" lon="12.2829679"><ele>219.2</ele><time>2026-04-06T07:46:37.68Z</time></trkpt><trkpt lat="43.0964969" lon="12.2828197"><ele>219.0</ele><time>2026-04-06T07:46:39.678Z</time></trkpt><trkpt lat="43.0964733" lon="12.2827353"><ele>218.75</ele><time>2026-04-06T07:46:40.68Z</time></trkpt><trkpt lat="43.0964543" lon="12.2825737"><ele>218.5</ele><time>2026-04-06T07:46:42.677Z</time></trkpt><trkpt lat="43.0964256" lon="12.2824216"><ele>218.25</ele><time>2026-04-06T07:46:44.675Z</time></trkpt><trkpt lat="43.0964074" lon="12.2822615"><ele>218.0</ele><time>2026-04-06T07:46:46.682Z</time></trkpt><trkpt lat="43.0963846" lon="12.2821087"><ele>218.5</ele><time>2026-04-06T07:46:48.681Z</time></trkpt><trkpt lat="43.096354" lon="12.2819511"><ele>219.0</ele><time>2026-04-06T07:46:50.682Z</time></trkpt><trkpt lat="43.0963226" lon="12.281789"><ele>219.5</ele><time>2026-04-06T07:46:52.668Z</time></trkpt><trkpt lat="43.0962909" lon="12.2816263"><ele>220.0</ele><time>2026-04-06T07:46:54.68Z</time></trkpt><trkpt lat="43.09626" lon="12.2814685"><ele>220.0</ele><time>2026-04-06T07:46:56.693Z</time></trkpt><trkpt lat="43.0962247" lon="12.2813152"><ele>220.0</ele><time>2026-04-06T07:46:58.681Z</time></trkpt><trkpt lat="43.0961867" lon="12.2811597"><ele>220.0</ele><time>2026-04-06T07:47:00.674Z</time></trkpt><trkpt lat="43.0961637" lon="12.281076"><ele>220.0</ele><time>2026-04-06T07:47:01.677Z</time></trkpt><trkpt lat="43.0961279" lon="12.280924"><ele>220.0</ele><time>2026-04-06T07:47:03.678Z</time></trkpt><trkpt lat="43.0960914" lon="12.2807607"><ele>220.0</ele><time>2026-04-06T07:47:05.68Z</time></trkpt><trkpt lat="43.0960586" lon="12.2806105"><ele>220.0</ele><time>2026-04-06T07:47:07.673Z</time></trkpt><trkpt lat="43.0960265" lon="12.2804562"><ele>220.0</ele><time>2026-04-06T07:47:09.684Z</time></trkpt><trkpt lat="43.095996" lon="12.2802975"><ele>220.0</ele><time>2026-04-06T07:47:11.677Z</time></trkpt><trkpt lat="43.0959701" lon="12.280146"><ele>220.0</ele><time>2026-04-06T07:47:13.683Z</time></trkpt><trkpt lat="43.0959469" lon="12.280065"><ele>220.0</ele><time>2026-04-06T07:47:14.676Z</time></trkpt><trkpt lat="43.0959183" lon="12.279908"><ele>220.0</ele><time>2026-04-06T07:47:16.676Z</time></trkpt><trkpt lat="43.095895" lon="12.2797563"><ele>220.0</ele><time>2026-04-06T07:47:18.672Z</time></trkpt><trkpt lat="43.0958612" lon="12.2796067"><ele>220.0</ele><time>2026-04-06T07:47:20.679Z</time></trkpt><trkpt lat="43.0958399" lon="12.2794518"><ele>220.0</ele><time>2026-04-06T07:47:22.677Z</time></trkpt><trkpt lat="43.0958219" lon="12.2793008"><ele>220.0</ele><time>2026-04-06T07:47:24.675Z</time></trkpt><trkpt lat="43.0957769" lon="12.2791497"><ele>220.0</ele><time>2026-04-06T07:47:26.674Z</time></trkpt><trkpt lat="43.0957364" lon="12.2790056"><ele>220.0</ele><time>2026-04-06T07:47:28.679Z</time></trkpt><trkpt lat="43.0957013" lon="12.2788543"><ele>219.25</ele><time>2026-04-06T07:47:30.675Z</time></trkpt><trkpt lat="43.0956701" lon="12.2786974"><ele>218.5</ele><time>2026-04-06T07:47:32.657Z</time></trkpt><trkpt lat="43.0956386" lon="12.2785433"><ele>217.75</ele><time>2026-04-06T07:47:34.661Z</time></trkpt><trkpt lat="43.0956114" lon="12.2783969"><ele>217.0</ele><time>2026-04-06T07:47:36.686Z</time></trkpt><trkpt lat="43.0955892" lon="12.278247"><ele>217.5</ele><time>2026-04-06T07:47:38.677Z</time></trkpt><trkpt lat="43.0955391" lon="12.2780038"><ele>218.0</ele><time>2026-04-06T07:47:41.659Z</time></trkpt><trkpt lat="43.0955144" lon="12.2778542"><ele>218.5</ele><time>2026-04-06T07:47:43.658Z</time></trkpt><trkpt lat="43.0954769" lon="12.2777052"><ele>219.0</ele><time>2026-04-06T07:47:45.779Z</time></trkpt><trkpt lat="43.09545" lon="12.2775526"><ele>219.0</ele><time>2026-04-06T07:47:47.661Z</time></trkpt><trkpt lat="43.0954161" lon="12.2773938"><ele>219.0</ele><time>2026-04-06T07:47:49.664Z</time></trkpt><trkpt lat="43.0953827" lon="12.2772471"><ele>219.0</ele><time>2026-04-06T07:47:51.657Z</time></trkpt><trkpt lat="43.0953536" lon="12.2770961"><ele>219.0</ele><time>2026-04-06T07:47:53.664Z</time></trkpt><trkpt lat="43.0953131" lon="12.276946"><ele>219.0</ele><time>2026-04-06T07:47:55.661Z</time></trkpt><trkpt lat="43.0952794" lon="12.276791"><ele>219.0</ele><time>2026-04-06T07:47:57.667Z</time></trkpt><trkpt lat="43.0952457" lon="12.2766439"><ele>219.0</ele><time>2026-04-06T07:47:59.658Z</time></trkpt><trkpt lat="43.0952222" lon="12.2764959"><ele>219.0</ele><time>2026-04-06T07:48:01.661Z</time></trkpt><trkpt lat="43.0951807" lon="12.2763438"><ele>218.75</ele><time>2026-04-06T07:48:03.658Z</time></trkpt><trkpt lat="43.0951503" lon="12.2761945"><ele>218.5</ele><time>2026-04-06T07:48:05.658Z</time></trkpt><trkpt lat="43.0951226" lon="12.2760408"><ele>218.25</ele><time>2026-04-06T07:48:07.661Z</time></trkpt><trkpt lat="43.0951045" lon="12.2758954"><ele>218.0</ele><time>2026-04-06T07:48:09.66Z</time></trkpt><trkpt lat="43.0950661" lon="12.275745"><ele>218.0</ele><time>2026-04-06T07:48:11.662Z</time></trkpt><trkpt lat="43.0950378" lon="12.2756001"><ele>218.0</ele><time>2026-04-06T07:48:13.671Z</time></trkpt><trkpt lat="43.0950078" lon="12.2754559"><ele>218.0</ele><time>2026-04-06T07:48:15.662Z</time></trkpt><trkpt lat="43.0949723" lon="12.2753141"><ele>218.0</ele><time>2026-04-06T07:48:17.669Z</time></trkpt><trkpt lat="43.0949482" lon="12.2751717"><ele>218.0</ele><time>2026-04-06T07:48:19.67Z</time></trkpt><trkpt lat="43.0949228" lon="12.2750273"><ele>218.0</ele><time>2026-04-06T07:48:21.678Z</time></trkpt><trkpt lat="43.0948901" lon="12.2748856"><ele>218.0</ele><time>2026-04-06T07:48:23.671Z</time></trkpt><trkpt lat="43.0948539" lon="12.2747397"><ele>218.0</ele><time>2026-04-06T07:48:25.678Z</time></trkpt><trkpt lat="43.0948243" lon="12.2745925"><ele>218.0</ele><time>2026-04-06T07:48:27.667Z</time></trkpt><trkpt lat="43.094796" lon="12.2744536"><ele>218.0</ele><time>2026-04-06T07:48:29.67Z</time></trkpt><trkpt lat="43.0947651" lon="12.2743125"><ele>218.0</ele><time>2026-04-06T07:48:31.684Z</time></trkpt><trkpt lat="43.0947356" lon="12.2741728"><ele>218.0</ele><time>2026-04-06T07:48:33.688Z</time></trkpt><trkpt lat="43.0947237" lon="12.2740368"><ele>218.0</ele><time>2026-04-06T07:48:35.659Z</time></trkpt><trkpt lat="43.094687" lon="12.2739264"><ele>218.0</ele><time>2026-04-06T07:48:37.759Z</time></trkpt><trkpt lat="43.0946605" lon="12.273815"><ele>218.0</ele><time>2026-04-06T07:48:39.68Z</time></trkpt><trkpt lat="43.0946344" lon="12.2737"><ele>218.0</ele><time>2026-04-06T07:48:41.681Z</time></trkpt><trkpt lat="43.0946183" lon="12.2735616"><ele>218.0</ele><time>2026-04-06T07:48:43.674Z</time></trkpt><trkpt lat="43.0945924" lon="12.2734171"><ele>218.0</ele><time>2026-04-06T07:48:45.679Z</time></trkpt><trkpt lat="43.094571" lon="12.2732819"><ele>218.0</ele><time>2026-04-06T07:48:47.665Z</time></trkpt><trkpt lat="43.0945455" lon="12.2731424"><ele>218.0</ele><time>2026-04-06T07:48:49.688Z</time></trkpt><trkpt lat="43.0945133" lon="12.2729949"><ele>218.2</ele><time>2026-04-06T07:48:51.682Z</time></trkpt><trkpt lat="43.0944863" lon="12.2728525"><ele>218.4</ele><time>2026-04-06T07:48:53.681Z</time></trkpt><trkpt lat="43.09446" lon="12.2727119"><ele>218.59999999999997</ele><time>2026-04-06T07:48:55.677Z</time></trkpt><trkpt lat="43.0944308" lon="12.2725712"><ele>218.79999999999998</ele><time>2026-04-06T07:48:57.681Z</time></trkpt><trkpt lat="43.0944049" lon="12.2724262"><ele>219.0</ele><time>2026-04-06T07:48:59.678Z</time></trkpt><trkpt lat="43.0943896" lon="12.2722824"><ele>219.2</ele><time>2026-04-06T07:49:01.679Z</time></trkpt><trkpt lat="43.0943569" lon="12.2721465"><ele>219.39999999999998</ele><time>2026-04-06T07:49:03.68Z</time></trkpt><trkpt lat="43.0943337" lon="12.2720049"><ele>219.6</ele><time>2026-04-06T07:49:05.681Z</time></trkpt><trkpt lat="43.0943039" lon="12.2718632"><ele>219.8</ele><time>2026-04-06T07:49:07.678Z</time></trkpt><trkpt lat="43.094288" lon="12.2717228"><ele>220.0</ele><time>2026-04-06T07:49:09.682Z</time></trkpt><trkpt lat="43.094264" lon="12.2715742"><ele>220.0</ele><time>2026-04-06T07:49:11.676Z</time></trkpt><trkpt lat="43.0942457" lon="12.271432"><ele>220.0</ele><time>2026-04-06T07:49:13.677Z</time></trkpt><trkpt lat="43.0941949" lon="12.271273"><ele>220.0</ele><time>2026-04-06T07:49:15.675Z</time></trkpt><trkpt lat="43.0941606" lon="12.2711282"><ele>220.0</ele><time>2026-04-06T07:49:17.674Z</time></trkpt><trkpt lat="43.0941217" lon="12.2709839"><ele>220.0</ele><time>2026-04-06T07:49:19.683Z</time></trkpt><trkpt lat="43.0940819" lon="12.2708447"><ele>220.0</ele><time>2026-04-06T07:49:21.684Z</time></trkpt><trkpt lat="43.0940637" lon="12.2707152"><ele>220.0</ele><time>2026-04-06T07:49:23.678Z</time></trkpt><trkpt lat="43.094045" lon="12.2705656"><ele>220.0</ele><time>2026-04-06T07:49:25.68Z</time></trkpt><trkpt lat="43.094019" lon="12.270425"><ele>220.0</ele><time>2026-04-06T07:49:27.676Z</time></trkpt><trkpt lat="43.093981" lon="12.2702755"><ele>220.0</ele><time>2026-04-06T07:49:29.677Z</time></trkpt><trkpt lat="43.093941" lon="12.2701238"><ele>220.0</ele><time>2026-04-06T07:49:31.676Z</time></trkpt><trkpt lat="43.0939082" lon="12.2699735"><ele>220.0</ele><time>2026-04-06T07:49:33.678Z</time></trkpt><trkpt lat="43.0938826" lon="12.2698166"><ele>220.0</ele><time>2026-04-06T07:49:35.667Z</time></trkpt><trkpt lat="43.0938473" lon="12.2696729"><ele>220.25</ele><time>2026-04-06T07:49:37.678Z</time></trkpt><trkpt lat="43.0938149" lon="12.269539"><ele>220.5</ele><time>2026-04-06T07:49:39.677Z</time></trkpt><trkpt lat="43.0937623" lon="12.2693448"><ele>220.75</ele><time>2026-04-06T07:49:42.672Z</time></trkpt><trkpt lat="43.0937325" lon="12.2692225"><ele>221.0</ele><time>2026-04-06T07:49:44.682Z</time></trkpt><trkpt lat="43.0937002" lon="12.2690853"><ele>221.4</ele><time>2026-04-06T07:49:46.674Z</time></trkpt><trkpt lat="43.0936727" lon="12.2689379"><ele>221.8</ele><time>2026-04-06T07:49:48.673Z</time></trkpt><trkpt lat="43.0936646" lon="12.2687941"><ele>222.20000000000002</ele><time>2026-04-06T07:49:50.678Z</time></trkpt><trkpt lat="43.0936369" lon="12.26864"><ele>222.60000000000002</ele><time>2026-04-06T07:49:52.674Z</time></trkpt><trkpt lat="43.093603" lon="12.2684919"><ele>223.0</ele><time>2026-04-06T07:49:54.677Z</time></trkpt><trkpt lat="43.0935675" lon="12.2683444"><ele>223.0</ele><time>2026-04-06T07:49:56.677Z</time></trkpt><trkpt lat="43.0935369" lon="12.2681973"><ele>223.0</ele><time>2026-04-06T07:49:58.669Z</time></trkpt><trkpt lat="43.0935033" lon="12.2680434"><ele>223.0</ele><time>2026-04-06T07:50:00.683Z</time></trkpt><trkpt lat="43.0934681" lon="12.2678854"><ele>223.0</ele><time>2026-04-06T07:50:02.676Z</time></trkpt><trkpt lat="43.093436" lon="12.2677343"><ele>222.8</ele><time>2026-04-06T07:50:04.676Z</time></trkpt><trkpt lat="43.0934129" lon="12.2675919"><ele>222.60000000000002</ele><time>2026-04-06T07:50:06.676Z</time></trkpt><trkpt lat="43.0933842" lon="12.2674386"><ele>222.39999999999998</ele><time>2026-04-06T07:50:08.679Z</time></trkpt><trkpt lat="43.0933542" lon="12.2672924"><ele>222.2</ele><time>2026-04-06T07:50:10.677Z</time></trkpt><trkpt lat="43.0933222" lon="12.2671454"><ele>222.0</ele><time>2026-04-06T07:50:12.675Z</time></trkpt><trkpt lat="43.0932918" lon="12.2669986"><ele>222.0</ele><time>2026-04-06T07:50:14.685Z</time></trkpt><trkpt lat="43.0932658" lon="12.266855"><ele>222.0</ele><time>2026-04-06T07:50:16.682Z</time></trkpt><trkpt lat="43.0932358" lon="12.2667035"><ele>222.0</ele><time>2026-04-06T07:50:18.664Z</time></trkpt><trkpt lat="43.0932009" lon="12.2665532"><ele>222.0</ele><time>2026-04-06T07:50:20.671Z</time></trkpt><trkpt lat="43.0931683" lon="12.2664091"><ele>222.0</ele><time>2026-04-06T07:50:22.664Z</time></trkpt><trkpt lat="43.0931366" lon="12.266253"><ele>222.75</ele><time>2026-04-06T07:50:24.661Z</time></trkpt><trkpt lat="43.0931125" lon="12.266104"><ele>223.5</ele><time>2026-04-06T07:50:26.674Z</time></trkpt><trkpt lat="43.0930789" lon="12.265954"><ele>224.25</ele><time>2026-04-06T07:50:28.681Z</time></trkpt><trkpt lat="43.0930397" lon="12.2657951"><ele>225.0</ele><time>2026-04-06T07:50:30.676Z</time></trkpt><trkpt lat="43.0930091" lon="12.2656419"><ele>224.6</ele><time>2026-04-06T07:50:32.662Z</time></trkpt><trkpt lat="43.0929854" lon="12.2654941"><ele>224.2</ele><time>2026-04-06T07:50:34.667Z</time></trkpt><trkpt lat="43.0929542" lon="12.2653545"><ele>223.8</ele><time>2026-04-06T07:50:36.675Z</time></trkpt><trkpt lat="43.0929264" lon="12.2652068"><ele>223.4</ele><time>2026-04-06T07:50:38.664Z</time></trkpt><trkpt lat="43.0928933" lon="12.265067"><ele>223.0</ele><time>2026-04-06T07:50:40.679Z</time></trkpt><trkpt lat="43.0928663" lon="12.2649168"><ele>223.0</ele><time>2026-04-06T07:50:42.679Z</time></trkpt><trkpt lat="43.0928424" lon="12.2647665"><ele>223.0</ele><time>2026-04-06T07:50:44.676Z</time></trkpt><trkpt lat="43.0928144" lon="12.2646111"><ele>223.0</ele><time>2026-04-06T07:50:46.68Z</time></trkpt><trkpt lat="43.0927806" lon="12.2644626"><ele>223.0</ele><time>2026-04-06T07:50:48.686Z</time></trkpt><trkpt lat="43.09274" lon="12.2642455"><ele>223.0</ele><time>2026-04-06T07:50:51.661Z</time></trkpt><trkpt lat="43.0927131" lon="12.2641019"><ele>223.0</ele><time>2026-04-06T07:50:53.662Z</time></trkpt><trkpt lat="43.0926848" lon="12.2639546"><ele>223.0</ele><time>2026-04-06T07:50:55.662Z</time></trkpt><trkpt lat="43.0926537" lon="12.2638184"><ele>223.0</ele><time>2026-04-06T07:50:57.657Z</time></trkpt><trkpt lat="43.0926252" lon="12.2636731"><ele>223.0</ele><time>2026-04-06T07:50:59.676Z</time></trkpt><trkpt lat="43.0925879" lon="12.2635307"><ele>223.0</ele><time>2026-04-06T07:51:01.676Z</time></trkpt><trkpt lat="43.0925587" lon="12.263385"><ele>223.0</ele><time>2026-04-06T07:51:03.679Z</time></trkpt><trkpt lat="43.0925247" lon="12.2632351"><ele>223.0</ele><time>2026-04-06T07:51:05.658Z</time></trkpt><trkpt lat="43.0924973" lon="12.2630839"><ele>223.0</ele><time>2026-04-06T07:51:07.689Z</time></trkpt><trkpt lat="43.0924682" lon="12.2629392"><ele>223.0</ele><time>2026-04-06T07:51:09.664Z</time></trkpt><trkpt lat="43.0924403" lon="12.2627933"><ele>222.8</ele><time>2026-04-06T07:51:11.678Z</time></trkpt><trkpt lat="43.0924127" lon="12.2626466"><ele>222.60000000000002</ele><time>2026-04-06T07:51:13.682Z</time></trkpt><trkpt lat="43.0923948" lon="12.2624991"><ele>222.39999999999998</ele><time>2026-04-06T07:51:15.679Z</time></trkpt><trkpt lat="43.0923709" lon="12.2623569"><ele>222.2</ele><time>2026-04-06T07:51:17.676Z</time></trkpt><trkpt lat="43.0923386" lon="12.262216"><ele>222.0</ele><time>2026-04-06T07:51:19.672Z</time></trkpt><trkpt lat="43.0923133" lon="12.2620766"><ele>221.8</ele><time>2026-04-06T07:51:21.657Z</time></trkpt><trkpt lat="43.092284" lon="12.2619424"><ele>221.6</ele><time>2026-04-06T07:51:23.661Z</time></trkpt><trkpt lat="43.092262" lon="12.2617943"><ele>221.40000000000003</ele><time>2026-04-06T07:51:25.666Z</time></trkpt><trkpt lat="43.0922301" lon="12.2616568"><ele>221.20000000000002</ele><time>2026-04-06T07:51:27.66Z</time></trkpt><trkpt lat="43.0921945" lon="12.261511"><ele>221.0</ele><time>2026-04-06T07:51:29.668Z</time></trkpt><trkpt lat="43.0921622" lon="12.2613654"><ele>221.0</ele><time>2026-04-06T07:51:31.66Z</time></trkpt><trkpt lat="43.0921268" lon="12.2612238"><ele>221.00000000000003</ele><time>2026-04-06T07:51:33.66Z</time></trkpt><trkpt lat="43.092098" lon="12.2610768"><ele>221.00000000000003</ele><time>2026-04-06T07:51:35.66Z</time></trkpt><trkpt lat="43.0920721" lon="12.2609301"><ele>221.0</ele><time>2026-04-06T07:51:37.657Z</time></trkpt><trkpt lat="43.0920406" lon="12.2607852"><ele>221.0</ele><time>2026-04-06T07:51:39.668Z</time></trkpt><trkpt lat="43.0920049" lon="12.2606347"><ele>221.4</ele><time>2026-04-06T07:51:41.671Z</time></trkpt><trkpt lat="43.0919772" lon="12.2604892"><ele>221.8</ele><time>2026-04-06T07:51:43.666Z</time></trkpt><trkpt lat="43.091952" lon="12.2603453"><ele>222.20000000000002</ele><time>2026-04-06T07:51:45.683Z</time></trkpt><trkpt lat="43.0919382" lon="12.2602009"><ele>222.60000000000002</ele><time>2026-04-06T07:51:47.764Z</time></trkpt><trkpt lat="43.0919148" lon="12.2600602"><ele>223.0</ele><time>2026-04-06T07:51:49.677Z</time></trkpt><trkpt lat="43.0918838" lon="12.2599148"><ele>223.25</ele><time>2026-04-06T07:51:51.679Z</time></trkpt><trkpt lat="43.0918362" lon="12.2597717"><ele>223.5</ele><time>2026-04-06T07:51:53.673Z</time></trkpt><trkpt lat="43.0918082" lon="12.25961"><ele>223.75</ele><time>2026-04-06T07:51:55.677Z</time></trkpt><trkpt lat="43.0917766" lon="12.2594734"><ele>224.0</ele><time>2026-04-06T07:51:57.682Z</time></trkpt><trkpt lat="43.0917488" lon="12.2593254"><ele>224.0</ele><time>2026-04-06T07:51:59.676Z</time></trkpt><trkpt lat="43.0917202" lon="12.2591756"><ele>224.0</ele><time>2026-04-06T07:52:01.68Z</time></trkpt><trkpt lat="43.091693" lon="12.2590327"><ele>224.0</ele><time>2026-04-06T07:52:03.673Z</time></trkpt><trkpt lat="43.0916618" lon="12.2588822"><ele>224.0</ele><time>2026-04-06T07:52:05.679Z</time></trkpt><trkpt lat="43.0916241" lon="12.2587302"><ele>223.6</ele><time>2026-04-06T07:52:07.678Z</time></trkpt><trkpt lat="43.0916004" lon="12.2585895"><ele>223.2</ele><time>2026-04-06T07:52:09.678Z</time></trkpt><trkpt lat="43.0915713" lon="12.2584499"><ele>222.79999999999998</ele><time>2026-04-06T07:52:11.676Z</time></trkpt><trkpt lat="43.0915381" lon="12.2583116"><ele>222.39999999999998</ele><time>2026-04-06T07:52:13.679Z</time></trkpt><trkpt lat="43.0915117" lon="12.2581687"><ele>222.0</ele><time>2026-04-06T07:52:15.671Z</time></trkpt><trkpt lat="43.0914836" lon="12.2580224"><ele>223.0</ele><time>2026-04-06T07:52:17.684Z</time></trkpt><trkpt lat="43.0914496" lon="12.2578811"><ele>224.0</ele><time>2026-04-06T07:52:19.677Z</time></trkpt><trkpt lat="43.0914215" lon="12.2577423"><ele>225.0</ele><time>2026-04-06T07:52:21.683Z</time></trkpt><trkpt lat="43.0913956" lon="12.2576073"><ele>226.0</ele><time>2026-04-06T07:52:23.68Z</time></trkpt><trkpt lat="43.0913786" lon="12.2574672"><ele>227.0</ele><time>2026-04-06T07:52:25.675Z</time></trkpt><trkpt lat="43.0913468" lon="12.2573294"><ele>226.25</ele><time>2026-04-06T07:52:27.678Z</time></trkpt><trkpt lat="43.0913302" lon="12.2571876"><ele>225.5</ele><time>2026-04-06T07:52:29.666Z</time></trkpt><trkpt lat="43.0913042" lon="12.2570459"><ele>224.75</ele><time>2026-04-06T07:52:31.665Z</time></trkpt><trkpt lat="43.0912545" lon="12.25684"><ele>224.0</ele><time>2026-04-06T07:52:34.68Z</time></trkpt><trkpt lat="43.0912273" lon="12.2567026"><ele>224.0</ele><time>2026-04-06T07:52:36.655Z</time></trkpt><trkpt lat="43.091186" lon="12.2565568"><ele>224.0</ele><time>2026-04-06T07:52:38.675Z</time></trkpt><trkpt lat="43.0911432" lon="12.2564166"><ele>224.0</ele><time>2026-04-06T07:52:40.681Z</time></trkpt><trkpt lat="43.0910985" lon="12.2562663"><ele>224.0</ele><time>2026-04-06T07:52:42.676Z</time></trkpt><trkpt lat="43.0910498" lon="12.2560529"><ele>223.79999999999998</ele><time>2026-04-06T07:52:45.663Z</time></trkpt><trkpt lat="43.091015" lon="12.2559096"><ele>223.59999999999997</ele><time>2026-04-06T07:52:47.658Z</time></trkpt><trkpt lat="43.0909812" lon="12.2557716"><ele>223.4</ele><time>2026-04-06T07:52:49.669Z</time></trkpt><trkpt lat="43.0909571" lon="12.2556351"><ele>223.2</ele><time>2026-04-06T07:52:51.673Z</time></trkpt><trkpt lat="43.0909302" lon="12.2554942"><ele>223.0</ele><time>2026-04-06T07:52:53.657Z</time></trkpt><trkpt lat="43.0908993" lon="12.2553536"><ele>223.0</ele><time>2026-04-06T07:52:55.657Z</time></trkpt><trkpt lat="43.0908748" lon="12.2552146"><ele>223.0</ele><time>2026-04-06T07:52:57.678Z</time></trkpt><trkpt lat="43.0908448" lon="12.2550754"><ele>223.0</ele><time>2026-04-06T07:52:59.675Z</time></trkpt><trkpt lat="43.0908119" lon="12.2549363"><ele>223.0</ele><time>2026-04-06T07:53:01.663Z</time></trkpt><trkpt lat="43.0907857" lon="12.2548015"><ele>223.0</ele><time>2026-04-06T07:53:03.658Z</time></trkpt><trkpt lat="43.0907504" lon="12.254659"><ele>223.0</ele><time>2026-04-06T07:53:05.674Z</time></trkpt><trkpt lat="43.0907199" lon="12.2545199"><ele>223.0</ele><time>2026-04-06T07:53:07.658Z</time></trkpt><trkpt lat="43.0906929" lon="12.2543813"><ele>223.0</ele><time>2026-04-06T07:53:09.659Z</time></trkpt><trkpt lat="43.0906643" lon="12.2542456"><ele>223.0</ele><time>2026-04-06T07:53:11.663Z</time></trkpt><trkpt lat="43.0906312" lon="12.2541054"><ele>223.0</ele><time>2026-04-06T07:53:13.658Z</time></trkpt><trkpt lat="43.0905924" lon="12.2539685"><ele>223.2</ele><time>2026-04-06T07:53:15.662Z</time></trkpt><trkpt lat="43.0905628" lon="12.2538327"><ele>223.4</ele><time>2026-04-06T07:53:17.657Z</time></trkpt><trkpt lat="43.0905383" lon="12.2537004"><ele>223.59999999999997</ele><time>2026-04-06T07:53:19.66Z</time></trkpt><trkpt lat="43.0905164" lon="12.2535624"><ele>223.79999999999998</ele><time>2026-04-06T07:53:21.662Z</time></trkpt><trkpt lat="43.0904921" lon="12.2534201"><ele>224.0</ele><time>2026-04-06T07:53:23.775Z</time></trkpt><trkpt lat="43.090463" lon="12.2532853"><ele>224.0</ele><time>2026-04-06T07:53:25.666Z</time></trkpt><trkpt lat="43.0904386" lon="12.2531466"><ele>223.99999999999997</ele><time>2026-04-06T07:53:27.67Z</time></trkpt><trkpt lat="43.0904045" lon="12.2530031"><ele>223.99999999999997</ele><time>2026-04-06T07:53:29.668Z</time></trkpt><trkpt lat="43.090376" lon="12.2528584"><ele>224.0</ele><time>2026-04-06T07:53:31.665Z</time></trkpt><trkpt lat="43.0903361" lon="12.2527096"><ele>224.0</ele><time>2026-04-06T07:53:33.665Z</time></trkpt><trkpt lat="43.0903012" lon="12.2525633"><ele>224.0</ele><time>2026-04-06T07:53:35.683Z</time></trkpt><trkpt lat="43.0902769" lon="12.2524253"><ele>223.99999999999997</ele><time>2026-04-06T07:53:37.676Z</time></trkpt><trkpt lat="43.0902479" lon="12.2522866"><ele>223.99999999999997</ele><time>2026-04-06T07:53:39.684Z</time></trkpt><trkpt lat="43.0902189" lon="12.2521498"><ele>224.0</ele><time>2026-04-06T07:53:41.677Z</time></trkpt><trkpt lat="43.0901875" lon="12.2520089"><ele>224.0</ele><time>2026-04-06T07:53:43.676Z</time></trkpt><trkpt lat="43.0901498" lon="12.2518739"><ele>224.0</ele><time>2026-04-06T07:53:45.683Z</time></trkpt><trkpt lat="43.0901184" lon="12.2517371"><ele>223.99999999999997</ele><time>2026-04-06T07:53:47.675Z</time></trkpt><trkpt lat="43.0900916" lon="12.2515922"><ele>223.99999999999997</ele><time>2026-04-06T07:53:49.685Z</time></trkpt><trkpt lat="43.090059" lon="12.2514459"><ele>224.0</ele><time>2026-04-06T07:53:51.672Z</time></trkpt><trkpt lat="43.0900349" lon="12.2513044"><ele>224.0</ele><time>2026-04-06T07:53:53.675Z</time></trkpt><trkpt lat="43.0900088" lon="12.2511671"><ele>224.0</ele><time>2026-04-06T07:53:55.676Z</time></trkpt><trkpt lat="43.0899764" lon="12.2510332"><ele>223.99999999999997</ele><time>2026-04-06T07:53:57.777Z</time></trkpt><trkpt lat="43.0899556" lon="12.2508863"><ele>223.99999999999997</ele><time>2026-04-06T07:53:59.677Z</time></trkpt><trkpt lat="43.0899391" lon="12.2507499"><ele>224.0</ele><time>2026-04-06T07:54:01.674Z</time></trkpt><trkpt lat="43.0899075" lon="12.2506185"><ele>224.0</ele><time>2026-04-06T07:54:03.672Z</time></trkpt><trkpt lat="43.0898715" lon="12.2504775"><ele>224.0</ele><time>2026-04-06T07:54:05.682Z</time></trkpt><trkpt lat="43.0898487" lon="12.2503363"><ele>223.99999999999997</ele><time>2026-04-06T07:54:07.68Z</time></trkpt><trkpt lat="43.0898198" lon="12.2501946"><ele>223.99999999999997</ele><time>2026-04-06T07:54:09.678Z</time></trkpt><trkpt lat="43.0897918" lon="12.2500543"><ele>224.0</ele><time>2026-04-06T07:54:11.676Z</time></trkpt><trkpt lat="43.0897689" lon="12.2499103"><ele>224.0</ele><time>2026-04-06T07:54:13.676Z</time></trkpt><trkpt lat="43.0897403" lon="12.249773"><ele>224.2</ele><time>2026-04-06T07:54:15.677Z</time></trkpt><trkpt lat="43.0897101" lon="12.2496307"><ele>224.39999999999998</ele><time>2026-04-06T07:54:17.677Z</time></trkpt><trkpt lat="43.089684" lon="12.2494884"><ele>224.6</ele><time>2026-04-06T07:54:19.676Z</time></trkpt><trkpt lat="43.0896614" lon="12.2493528"><ele>224.8</ele><time>2026-04-06T07:54:21.681Z</time></trkpt><trkpt lat="43.0896252" lon="12.2492149"><ele>225.0</ele><time>2026-04-06T07:54:23.677Z</time></trkpt><trkpt lat="43.089596" lon="12.2490751"><ele>225.2</ele><time>2026-04-06T07:54:25.676Z</time></trkpt><trkpt lat="43.0895648" lon="12.2489324"><ele>225.4</ele><time>2026-04-06T07:54:27.679Z</time></trkpt><trkpt lat="43.0895329" lon="12.2487882"><ele>225.60000000000002</ele><time>2026-04-06T07:54:29.679Z</time></trkpt><trkpt lat="43.089504" lon="12.2486512"><ele>225.8</ele><time>2026-04-06T07:54:31.676Z</time></trkpt><trkpt lat="43.089457" lon="12.2485122"><ele>226.0</ele><time>2026-04-06T07:54:33.666Z</time></trkpt><trkpt lat="43.089435" lon="12.2483715"><ele>226.0</ele><time>2026-04-06T07:54:35.679Z</time></trkpt><trkpt lat="43.0894054" lon="12.2482454"><ele>226.00000000000003</ele><time>2026-04-06T07:54:37.68Z</time></trkpt><trkpt lat="43.0893725" lon="12.2481107"><ele>226.00000000000003</ele><time>2026-04-06T07:54:39.677Z</time></trkpt><trkpt lat="43.0893434" lon="12.2479734"><ele>226.0</ele><time>2026-04-06T07:54:41.677Z</time></trkpt><trkpt lat="43.0893207" lon="12.2478372"><ele>226.0</ele><time>2026-04-06T07:54:43.683Z</time></trkpt><trkpt lat="43.0892938" lon="12.247689"><ele>226.0</ele><time>2026-04-06T07:54:45.679Z</time></trkpt><trkpt lat="43.089259" lon="12.2475475"><ele>226.00000000000003</ele><time>2026-04-06T07:54:47.676Z</time></trkpt><trkpt lat="43.0892269" lon="12.2474027"><ele>226.00000000000003</ele><time>2026-04-06T07:54:49.679Z</time></trkpt><trkpt lat="43.089193" lon="12.2472583"><ele>226.0</ele><time>2026-04-06T07:54:51.678Z</time></trkpt><trkpt lat="43.0891731" lon="12.2471176"><ele>226.0</ele><time>2026-04-06T07:54:53.672Z</time></trkpt><trkpt lat="43.0891485" lon="12.2469806"><ele>226.0</ele><time>2026-04-06T07:54:55.677Z</time></trkpt><trkpt lat="43.0891148" lon="12.2468494"><ele>226.00000000000003</ele><time>2026-04-06T07:54:57.682Z</time></trkpt><trkpt lat="43.0891088" lon="12.2466994"><ele>226.00000000000003</ele><time>2026-04-06T07:54:59.672Z</time></trkpt><trkpt lat="43.0890714" lon="12.2465559"><ele>226.0</ele><time>2026-04-06T07:55:01.673Z</time></trkpt><trkpt lat="43.0890368" lon="12.2464165"><ele>226.0</ele><time>2026-04-06T07:55:03.677Z</time></trkpt><trkpt lat="43.0890128" lon="12.2462782"><ele>226.20000000000002</ele><time>2026-04-06T07:55:05.686Z</time></trkpt><trkpt lat="43.0889877" lon="12.246134"><ele>226.40000000000003</ele><time>2026-04-06T07:55:07.673Z</time></trkpt><trkpt lat="43.0889635" lon="12.2459837"><ele>226.6</ele><time>2026-04-06T07:55:09.687Z</time></trkpt><trkpt lat="43.0889319" lon="12.2458444"><ele>226.8</ele><time>2026-04-06T07:55:11.676Z</time></trkpt><trkpt lat="43.0888977" lon="12.2457007"><ele>227.0</ele><time>2026-04-06T07:55:13.675Z</time></trkpt><trkpt lat="43.0888688" lon="12.2455517"><ele>227.25</ele><time>2026-04-06T07:55:15.677Z</time></trkpt><trkpt lat="43.0888392" lon="12.2454144"><ele>227.5</ele><time>2026-04-06T07:55:17.682Z</time></trkpt><trkpt lat="43.0888134" lon="12.2452783"><ele>227.75</ele><time>2026-04-06T07:55:19.686Z</time></trkpt><trkpt lat="43.0887797" lon="12.2450665"><ele>228.0</ele><time>2026-04-06T07:55:22.679Z</time></trkpt><trkpt lat="43.0887565" lon="12.2449314"><ele>228.4</ele><time>2026-04-06T07:55:24.669Z</time></trkpt><trkpt lat="43.088725" lon="12.2447934"><ele>228.8</ele><time>2026-04-06T07:55:26.683Z</time></trkpt><trkpt lat="43.0886992" lon="12.2446442"><ele>229.2</ele><time>2026-04-06T07:55:28.676Z</time></trkpt><trkpt lat="43.0886758" lon="12.2444996"><ele>229.6</ele><time>2026-04-06T07:55:30.678Z</time></trkpt><trkpt lat="43.0886498" lon="12.2443535"><ele>230.0</ele><time>2026-04-06T07:55:32.669Z</time></trkpt><trkpt lat="43.0886192" lon="12.2442124"><ele>230.0</ele><time>2026-04-06T07:55:34.663Z</time></trkpt><trkpt lat="43.0885879" lon="12.2440701"><ele>230.0</ele><time>2026-04-06T07:55:36.66Z</time></trkpt><trkpt lat="43.0885515" lon="12.2439315"><ele>230.0</ele><time>2026-04-06T07:55:38.66Z</time></trkpt><trkpt lat="43.0885254" lon="12.2437935"><ele>230.0</ele><time>2026-04-06T07:55:40.667Z</time></trkpt><trkpt lat="43.0884946" lon="12.2436564"><ele>230.0</ele><time>2026-04-06T07:55:42.681Z</time></trkpt><trkpt lat="43.0884681" lon="12.2435223"><ele>230.0</ele><time>2026-04-06T07:55:44.68Z</time></trkpt><trkpt lat="43.0884463" lon="12.2433842"><ele>230.0</ele><time>2026-04-06T07:55:46.681Z</time></trkpt><trkpt lat="43.0884216" lon="12.243245"><ele>230.0</ele><time>2026-04-06T07:55:48.663Z</time></trkpt><trkpt lat="43.088403" lon="12.2431026"><ele>230.0</ele><time>2026-04-06T07:55:50.664Z</time></trkpt><trkpt lat="43.0883708" lon="12.2429638"><ele>230.0</ele><time>2026-04-06T07:55:52.664Z</time></trkpt><trkpt lat="43.0883432" lon="12.2428259"><ele>230.0</ele><time>2026-04-06T07:55:54.672Z</time></trkpt><trkpt lat="43.0883063" lon="12.2426841"><ele>230.0</ele><time>2026-04-06T07:55:56.673Z</time></trkpt><trkpt lat="43.0882792" lon="12.2425383"><ele>230.0</ele><time>2026-04-06T07:55:58.679Z</time></trkpt><trkpt lat="43.0882487" lon="12.2423908"><ele>230.0</ele><time>2026-04-06T07:56:00.681Z</time></trkpt><trkpt lat="43.0882232" lon="12.2422411"><ele>230.0</ele><time>2026-04-06T07:56:02.683Z</time></trkpt><trkpt lat="43.0881886" lon="12.2421033"><ele>230.2</ele><time>2026-04-06T07:56:04.664Z</time></trkpt><trkpt lat="43.0881649" lon="12.2419542"><ele>230.4</ele><time>2026-04-06T07:56:06.658Z</time></trkpt><trkpt lat="43.0881394" lon="12.2418119"><ele>230.60000000000002</ele><time>2026-04-06T07:56:08.665Z</time></trkpt><trkpt lat="43.0881014" lon="12.2416737"><ele>230.8</ele><time>2026-04-06T07:56:10.659Z</time></trkpt><trkpt lat="43.0880747" lon="12.2415365"><ele>231.0</ele><time>2026-04-06T07:56:12.657Z</time></trkpt><trkpt lat="43.0880427" lon="12.2413981"><ele>231.20000000000002</ele><time>2026-04-06T07:56:14.657Z</time></trkpt><trkpt lat="43.0880117" lon="12.241254"><ele>231.40000000000003</ele><time>2026-04-06T07:56:16.665Z</time></trkpt><trkpt lat="43.0879789" lon="12.2411123"><ele>231.6</ele><time>2026-04-06T07:56:18.657Z</time></trkpt><trkpt lat="43.0879427" lon="12.240975"><ele>231.8</ele><time>2026-04-06T07:56:20.657Z</time></trkpt><trkpt lat="43.0879038" lon="12.2408288"><ele>232.0</ele><time>2026-04-06T07:56:22.665Z</time></trkpt><trkpt lat="43.0878615" lon="12.2406851"><ele>231.8</ele><time>2026-04-06T07:56:24.679Z</time></trkpt><trkpt lat="43.0878269" lon="12.2405393"><ele>231.6</ele><time>2026-04-06T07:56:26.679Z</time></trkpt><trkpt lat="43.0877922" lon="12.2403957"><ele>231.40000000000003</ele><time>2026-04-06T07:56:28.666Z</time></trkpt><trkpt lat="43.0877661" lon="12.2402557"><ele>231.20000000000002</ele><time>2026-04-06T07:56:30.684Z</time></trkpt><trkpt lat="43.0877339" lon="12.240114"><ele>231.0</ele><time>2026-04-06T07:56:32.678Z</time></trkpt><trkpt lat="43.0876941" lon="12.2399696"><ele>231.0</ele><time>2026-04-06T07:56:34.676Z</time></trkpt><trkpt lat="43.0876757" lon="12.2398313"><ele>231.00000000000003</ele><time>2026-04-06T07:56:36.687Z</time></trkpt><trkpt lat="43.0876639" lon="12.2396812"><ele>231.00000000000003</ele><time>2026-04-06T07:56:38.669Z</time></trkpt><trkpt lat="43.0876831" lon="12.239532"><ele>231.0</ele><time>2026-04-06T07:56:40.677Z</time></trkpt><trkpt lat="43.0877201" lon="12.2393904"><ele>231.0</ele><time>2026-04-06T07:56:42.671Z</time></trkpt><trkpt lat="43.0877831" lon="12.2392637"><ele>230.8</ele><time>2026-04-06T07:56:44.676Z</time></trkpt><trkpt lat="43.087871" lon="12.2391679"><ele>230.60000000000002</ele><time>2026-04-06T07:56:46.683Z</time></trkpt><trkpt lat="43.0879695" lon="12.2390997"><ele>230.4</ele><time>2026-04-06T07:56:48.674Z</time></trkpt><trkpt lat="43.088081" lon="12.2390541"><ele>230.2</ele><time>2026-04-06T07:56:50.675Z</time></trkpt><trkpt lat="43.0881852" lon="12.2390158"><ele>230.0</ele><time>2026-04-06T07:56:52.677Z</time></trkpt><trkpt lat="43.088283" lon="12.2389854"><ele>230.33333333333334</ele><time>2026-04-06T07:56:54.678Z</time></trkpt><trkpt lat="43.0883821" lon="12.2389452"><ele>230.66666666666669</ele><time>2026-04-06T07:56:56.677Z</time></trkpt><trkpt lat="43.0884815" lon="12.2389098"><ele>231.0</ele><time>2026-04-06T07:56:58.672Z</time></trkpt><trkpt lat="43.0885722" lon="12.2388795"><ele>231.33333333333331</ele><time>2026-04-06T07:57:00.681Z</time></trkpt><trkpt lat="43.0886384" lon="12.2388619"><ele>231.66666666666666</ele><time>2026-04-06T07:57:02.672Z</time></trkpt><trkpt lat="43.0887008" lon="12.2388364"><ele>232.0</ele><time>2026-04-06T07:57:05.681Z</time></trkpt><trkpt lat="43.0887853" lon="12.2388175"><ele>232.0</ele><time>2026-04-06T07:57:08.674Z</time></trkpt><trkpt lat="43.0888676" lon="12.2387904"><ele>232.0</ele><time>2026-04-06T07:57:10.676Z</time></trkpt><trkpt lat="43.0889587" lon="12.2387538"><ele>232.0</ele><time>2026-04-06T07:57:12.679Z</time></trkpt><trkpt lat="43.0890546" lon="12.2386925"><ele>232.0</ele><time>2026-04-06T07:57:14.683Z</time></trkpt><trkpt lat="43.0891508" lon="12.2385995"><ele>232.0</ele><time>2026-04-06T07:57:16.677Z</time></trkpt><trkpt lat="43.089248" lon="12.2384971"><ele>232.39999999999998</ele><time>2026-04-06T07:57:18.67Z</time></trkpt><trkpt lat="43.0893373" lon="12.2383988"><ele>232.79999999999998</ele><time>2026-04-06T07:57:20.677Z</time></trkpt><trkpt lat="43.089392" lon="12.2383508"><ele>233.2</ele><time>2026-04-06T07:57:21.672Z</time></trkpt><trkpt lat="43.0894972" lon="12.2382452"><ele>233.6</ele><time>2026-04-06T07:57:23.681Z</time></trkpt><trkpt lat="43.0895874" lon="12.2381478"><ele>234.0</ele><time>2026-04-06T07:57:25.673Z</time></trkpt><trkpt lat="43.0896843" lon="12.2380397"><ele>234.2</ele><time>2026-04-06T07:57:27.67Z</time></trkpt><trkpt lat="43.0897754" lon="12.2379401"><ele>234.39999999999998</ele><time>2026-04-06T07:57:29.682Z</time></trkpt><trkpt lat="43.0898555" lon="12.2378368"><ele>234.6</ele><time>2026-04-06T07:57:31.677Z</time></trkpt><trkpt lat="43.089946" lon="12.2377421"><ele>234.8</ele><time>2026-04-06T07:57:33.676Z</time></trkpt><trkpt lat="43.0900281" lon="12.2376508"><ele>235.0</ele><time>2026-04-06T07:57:35.669Z</time></trkpt><trkpt lat="43.0901082" lon="12.2375489"><ele>235.2</ele><time>2026-04-06T07:57:37.673Z</time></trkpt><trkpt lat="43.0901909" lon="12.2374631"><ele>235.4</ele><time>2026-04-06T07:57:39.659Z</time></trkpt><trkpt lat="43.0902773" lon="12.2373742"><ele>235.60000000000002</ele><time>2026-04-06T07:57:41.675Z</time></trkpt><trkpt lat="43.0903587" lon="12.2372805"><ele>235.8</ele><time>2026-04-06T07:57:43.674Z</time></trkpt><trkpt lat="43.09044" lon="12.2372123"><ele>236.0</ele><time>2026-04-06T07:57:45.765Z</time></trkpt><trkpt lat="43.0905176" lon="12.2371106"><ele>236.20000000000002</ele><time>2026-04-06T07:57:47.68Z</time></trkpt><trkpt lat="43.0905958" lon="12.2370256"><ele>236.40000000000003</ele><time>2026-04-06T07:57:49.678Z</time></trkpt><trkpt lat="43.0906879" lon="12.2369496"><ele>236.6</ele><time>2026-04-06T07:57:51.676Z</time></trkpt><trkpt lat="43.0907793" lon="12.2368763"><ele>236.8</ele><time>2026-04-06T07:57:53.673Z</time></trkpt><trkpt lat="43.0908709" lon="12.2368332"><ele>237.0</ele><time>2026-04-06T07:57:55.679Z</time></trkpt><trkpt lat="43.0909808" lon="12.2368078"><ele>237.2</ele><time>2026-04-06T07:57:57.677Z</time></trkpt><trkpt lat="43.0910822" lon="12.2368184"><ele>237.39999999999998</ele><time>2026-04-06T07:57:59.677Z</time></trkpt><trkpt lat="43.0911802" lon="12.2368366"><ele>237.60000000000002</ele><time>2026-04-06T07:58:01.669Z</time></trkpt><trkpt lat="43.0912894" lon="12.2368371"><ele>237.8</ele><time>2026-04-06T07:58:03.677Z</time></trkpt><trkpt lat="43.0914034" lon="12.2368533"><ele>238.0</ele><time>2026-04-06T07:58:05.677Z</time></trkpt><trkpt lat="43.0915094" lon="12.2368823"><ele>237.8</ele><time>2026-04-06T07:58:07.67Z</time></trkpt><trkpt lat="43.0916116" lon="12.2369417"><ele>237.60000000000002</ele><time>2026-04-06T07:58:09.688Z</time></trkpt><trkpt lat="43.091678" lon="12.2370578"><ele>237.39999999999998</ele><time>2026-04-06T07:58:11.679Z</time></trkpt><trkpt lat="43.0917039" lon="12.2372026"><ele>237.2</ele><time>2026-04-06T07:58:13.676Z</time></trkpt><trkpt lat="43.091723" lon="12.2373496"><ele>237.0</ele><time>2026-04-06T07:58:15.68Z</time></trkpt><trkpt lat="43.0917402" lon="12.2375015"><ele>236.6</ele><time>2026-04-06T07:58:17.679Z</time></trkpt><trkpt lat="43.0917592" lon="12.2376521"><ele>236.2</ele><time>2026-04-06T07:58:19.663Z</time></trkpt><trkpt lat="43.091785" lon="12.2377913"><ele>235.8</ele><time>2026-04-06T07:58:21.685Z</time></trkpt><trkpt lat="43.0918469" lon="12.2379115"><ele>235.4</ele><time>2026-04-06T07:58:23.654Z</time></trkpt><trkpt lat="43.0919329" lon="12.2380153"><ele>235.0</ele><time>2026-04-06T07:58:25.673Z</time></trkpt><trkpt lat="43.0920357" lon="12.2380804"><ele>234.25</ele><time>2026-04-06T07:58:27.679Z</time></trkpt><trkpt lat="43.0921393" lon="12.238145"><ele>233.5</ele><time>2026-04-06T07:58:29.673Z</time></trkpt><trkpt lat="43.0922505" lon="12.2381936"><ele>232.75</ele><time>2026-04-06T07:58:31.672Z</time></trkpt><trkpt lat="43.0923547" lon="12.2382359"><ele>232.0</ele><time>2026-04-06T07:58:33.667Z</time></trkpt><trkpt lat="43.0924605" lon="12.2382989"><ele>232.0</ele><time>2026-04-06T07:58:35.66Z</time></trkpt><trkpt lat="43.092564" lon="12.2383456"><ele>232.0</ele><time>2026-04-06T07:58:37.66Z</time></trkpt><trkpt lat="43.0926747" lon="12.2384013"><ele>232.0</ele><time>2026-04-06T07:58:39.661Z</time></trkpt><trkpt lat="43.0927884" lon="12.2384524"><ele>232.0</ele><time>2026-04-06T07:58:41.655Z</time></trkpt><trkpt lat="43.0928974" lon="12.2385038"><ele>232.0</ele><time>2026-04-06T07:58:43.656Z</time></trkpt><trkpt lat="43.0930145" lon="12.2385582"><ele>232.0</ele><time>2026-04-06T07:58:45.662Z</time></trkpt><trkpt lat="43.0931237" lon="12.2386027"><ele>232.0</ele><time>2026-04-06T07:58:47.659Z</time></trkpt><trkpt lat="43.0932322" lon="12.2386564"><ele>232.0</ele><time>2026-04-06T07:58:49.752Z</time></trkpt><trkpt lat="43.0933337" lon="12.238706"><ele>232.16666666666666</ele><time>2026-04-06T07:58:51.659Z</time></trkpt><trkpt lat="43.093426" lon="12.2387536"><ele>232.33333333333331</ele><time>2026-04-06T07:58:53.659Z</time></trkpt><trkpt lat="43.0935094" lon="12.2387935"><ele>232.5</ele><time>2026-04-06T07:58:55.662Z</time></trkpt><trkpt lat="43.0935861" lon="12.2388374"><ele>232.66666666666669</ele><time>2026-04-06T07:58:57.661Z</time></trkpt><trkpt lat="43.0936627" lon="12.2388498"><ele>232.83333333333334</ele><time>2026-04-06T07:58:59.659Z</time></trkpt><trkpt lat="43.0937328" lon="12.2388781"><ele>233.0</ele><time>2026-04-06T07:59:01.66Z</time></trkpt><trkpt lat="43.093797" lon="12.2388885"><ele>233.00000000000003</ele><time>2026-04-06T07:59:03.661Z</time></trkpt><trkpt lat="43.0938683" lon="12.2388521"><ele>233.0</ele><time>2026-04-06T07:59:05.656Z</time></trkpt><trkpt lat="43.0939271" lon="12.2387714"><ele>233.0</ele><time>2026-04-06T07:59:07.664Z</time></trkpt><trkpt lat="43.0939702" lon="12.2386654"><ele>233.0</ele><time>2026-04-06T07:59:09.663Z</time></trkpt><trkpt lat="43.0940158" lon="12.2385515"><ele>233.00000000000003</ele><time>2026-04-06T07:59:11.671Z</time></trkpt><trkpt lat="43.0940621" lon="12.2384426"><ele>233.0</ele><time>2026-04-06T07:59:13.669Z</time></trkpt><trkpt lat="43.0941071" lon="12.2383349"><ele>233.0</ele><time>2026-04-06T07:59:15.678Z</time></trkpt><trkpt lat="43.0941593" lon="12.2382217"><ele>233.0</ele><time>2026-04-06T07:59:17.663Z</time></trkpt><trkpt lat="43.0942076" lon="12.2381071"><ele>233.0</ele><time>2026-04-06T07:59:19.686Z</time></trkpt><trkpt lat="43.0942579" lon="12.2379904"><ele>233.0</ele><time>2026-04-06T07:59:21.683Z</time></trkpt><trkpt lat="43.0943017" lon="12.2378758"><ele>233.0</ele><time>2026-04-06T07:59:23.674Z</time></trkpt><trkpt lat="43.0943467" lon="12.2377517"><ele>233.0</ele><time>2026-04-06T07:59:25.679Z</time></trkpt><trkpt lat="43.0943968" lon="12.2376482"><ele>233.0</ele><time>2026-04-06T07:59:27.676Z</time></trkpt><trkpt lat="43.0944485" lon="12.2375399"><ele>233.0</ele><time>2026-04-06T07:59:29.677Z</time></trkpt><trkpt lat="43.0944965" lon="12.2374244"><ele>233.0</ele><time>2026-04-06T07:59:31.676Z</time></trkpt><trkpt lat="43.094556" lon="12.2373155"><ele>233.0</ele><time>2026-04-06T07:59:33.678Z</time></trkpt><trkpt lat="43.0946057" lon="12.2372036"><ele>233.0</ele><time>2026-04-06T07:59:35.667Z</time></trkpt><trkpt lat="43.094655" lon="12.237094"><ele>233.0</ele><time>2026-04-06T07:59:37.673Z</time></trkpt><trkpt lat="43.0947046" lon="12.2369764"><ele>233.0</ele><time>2026-04-06T07:59:39.675Z</time></trkpt><trkpt lat="43.0947556" lon="12.236872"><ele>233.0</ele><time>2026-04-06T07:59:41.674Z</time></trkpt><trkpt lat="43.0948049" lon="12.2367594"><ele>233.0</ele><time>2026-04-06T07:59:43.679Z</time></trkpt><trkpt lat="43.0948506" lon="12.2366494"><ele>233.0</ele><time>2026-04-06T07:59:45.663Z</time></trkpt><trkpt lat="43.0948924" lon="12.2365306"><ele>233.0</ele><time>2026-04-06T07:59:47.675Z</time></trkpt><trkpt lat="43.0949445" lon="12.2364149"><ele>233.0</ele><time>2026-04-06T07:59:49.675Z</time></trkpt><trkpt lat="43.0949933" lon="12.2363021"><ele>233.0</ele><time>2026-04-06T07:59:51.676Z</time></trkpt><trkpt lat="43.0950509" lon="12.2361869"><ele>233.0</ele><time>2026-04-06T07:59:53.676Z</time></trkpt><trkpt lat="43.0951041" lon="12.2360775"><ele>233.8</ele><time>2026-04-06T07:59:55.684Z</time></trkpt><trkpt lat="43.0951533" lon="12.2359799"><ele>234.60000000000002</ele><time>2026-04-06T07:59:57.679Z</time></trkpt><trkpt lat="43.0951982" lon="12.2358772"><ele>235.39999999999998</ele><time>2026-04-06T07:59:59.671Z</time></trkpt><trkpt lat="43.095246" lon="12.2357741"><ele>236.2</ele><time>2026-04-06T08:00:01.68Z</time></trkpt><trkpt lat="43.095292" lon="12.2356584"><ele>237.0</ele><time>2026-04-06T08:00:03.679Z</time></trkpt><trkpt lat="43.0953391" lon="12.2355528"><ele>237.33333333333334</ele><time>2026-04-06T08:00:05.679Z</time></trkpt><trkpt lat="43.0953874" lon="12.2354526"><ele>237.66666666666669</ele><time>2026-04-06T08:00:07.671Z</time></trkpt><trkpt lat="43.0954264" lon="12.2353596"><ele>238.0</ele><time>2026-04-06T08:00:09.679Z</time></trkpt><trkpt lat="43.0954636" lon="12.2352625"><ele>238.33333333333334</ele><time>2026-04-06T08:00:11.679Z</time></trkpt><trkpt lat="43.0954965" lon="12.235168"><ele>238.66666666666669</ele><time>2026-04-06T08:00:13.676Z</time></trkpt><trkpt lat="43.0955381" lon="12.2350712"><ele>239.0</ele><time>2026-04-06T08:00:15.681Z</time></trkpt><trkpt lat="43.0955857" lon="12.2349794"><ele>239.00000000000003</ele><time>2026-04-06T08:00:17.679Z</time></trkpt><trkpt lat="43.0956365" lon="12.2348921"><ele>239.0</ele><time>2026-04-06T08:00:19.675Z</time></trkpt><trkpt lat="43.0956769" lon="12.2348019"><ele>239.00000000000003</ele><time>2026-04-06T08:00:21.673Z</time></trkpt><trkpt lat="43.0957106" lon="12.2347165"><ele>239.00000000000003</ele><time>2026-04-06T08:00:23.685Z</time></trkpt><trkpt lat="43.0957447" lon="12.2346329"><ele>239.0</ele><time>2026-04-06T08:00:25.686Z</time></trkpt><trkpt lat="43.0957777" lon="12.234545"><ele>239.00000000000003</ele><time>2026-04-06T08:00:27.666Z</time></trkpt><trkpt lat="43.0958118" lon="12.2344627"><ele>239.00000000000003</ele><time>2026-04-06T08:00:29.679Z</time></trkpt><trkpt lat="43.0958502" lon="12.2343841"><ele>239.83333333333334</ele><time>2026-04-06T08:00:31.661Z</time></trkpt><trkpt lat="43.0958882" lon="12.2343088"><ele>240.66666666666669</ele><time>2026-04-06T08:00:33.676Z</time></trkpt><trkpt lat="43.0959212" lon="12.2342319"><ele>241.5</ele><time>2026-04-06T08:00:35.673Z</time></trkpt><trkpt lat="43.095961" lon="12.234115"><ele>242.33333333333331</ele><time>2026-04-06T08:00:38.665Z</time></trkpt><trkpt lat="43.0960045" lon="12.2340027"><ele>243.16666666666666</ele><time>2026-04-06T08:00:41.664Z</time></trkpt><trkpt lat="43.096033" lon="12.233924"><ele>244.0</ele><time>2026-04-06T08:00:43.665Z</time></trkpt><trkpt lat="43.0960732" lon="12.2338213"><ele>244.49999999999997</ele><time>2026-04-06T08:00:46.664Z</time></trkpt><trkpt lat="43.0960834" lon="12.2337242"><ele>245.0</ele><time>2026-04-06T08:00:49.654Z</time></trkpt><trkpt lat="43.0961396" lon="12.2336591"><ele>245.5</ele><time>2026-04-06T08:00:52.652Z</time></trkpt><trkpt lat="43.0962004" lon="12.2335682"><ele>246.0</ele><time>2026-04-06T08:00:55.832Z</time></trkpt><trkpt lat="43.0962439" lon="12.2334664"><ele>246.49999999999997</ele><time>2026-04-06T08:00:58.677Z</time></trkpt><trkpt lat="43.096294" lon="12.2333537"><ele>247.0</ele><time>2026-04-06T08:01:01.657Z</time></trkpt><trkpt lat="43.0963287" lon="12.2332728"><ele>247.0</ele><time>2026-04-06T08:01:03.661Z</time></trkpt><trkpt lat="43.0963647" lon="12.2332008"><ele>247.0</ele><time>2026-04-06T08:01:05.655Z</time></trkpt><trkpt lat="43.0964159" lon="12.2330934"><ele>247.0</ele><time>2026-04-06T08:01:08.656Z</time></trkpt><trkpt lat="43.0964721" lon="12.232994"><ele>247.0</ele><time>2026-04-06T08:01:11.66Z</time></trkpt><trkpt lat="43.0965112" lon="12.2329257"><ele>247.0</ele><time>2026-04-06T08:01:13.656Z</time></trkpt><trkpt lat="43.0965453" lon="12.2328491"><ele>247.0</ele><time>2026-04-06T08:01:15.66Z</time></trkpt><trkpt lat="43.0965763" lon="12.2327731"><ele>247.0</ele><time>2026-04-06T08:01:17.656Z</time></trkpt><trkpt lat="43.0966211" lon="12.2326593"><ele>247.57142857142858</ele><time>2026-04-06T08:01:20.659Z</time></trkpt><trkpt lat="43.0966541" lon="12.232585"><ele>248.1428571428571</ele><time>2026-04-06T08:01:22.66Z</time></trkpt><trkpt lat="43.0966888" lon="12.2325091"><ele>248.7142857142857</ele><time>2026-04-06T08:01:24.799Z</time></trkpt><trkpt lat="43.0967196" lon="12.2324275"><ele>249.28571428571428</ele><time>2026-04-06T08:01:26.658Z</time></trkpt><trkpt lat="43.0967538" lon="12.2323498"><ele>249.85714285714283</ele><time>2026-04-06T08:01:28.659Z</time></trkpt><trkpt lat="43.0967927" lon="12.2322694"><ele>250.4285714285714</ele><time>2026-04-06T08:01:30.655Z</time></trkpt><trkpt lat="43.0968282" lon="12.2321909"><ele>250.99999999999997</ele><time>2026-04-06T08:01:32.659Z</time></trkpt><trkpt lat="43.0968638" lon="12.2321109"><ele>251.57142857142856</ele><time>2026-04-06T08:01:34.657Z</time></trkpt><trkpt lat="43.096902" lon="12.2320259"><ele>252.14285714285714</ele><time>2026-04-06T08:01:36.661Z</time></trkpt><trkpt lat="43.0969372" lon="12.2319395"><ele>252.71428571428572</ele><time>2026-04-06T08:01:38.658Z</time></trkpt><trkpt lat="43.0969689" lon="12.2318553"><ele>253.28571428571428</ele><time>2026-04-06T08:01:40.66Z</time></trkpt><trkpt lat="43.0970037" lon="12.231777"><ele>253.8571428571429</ele><time>2026-04-06T08:01:42.657Z</time></trkpt><trkpt lat="43.0970389" lon="12.2316997"><ele>254.42857142857144</ele><time>2026-04-06T08:01:44.659Z</time></trkpt><trkpt lat="43.0970729" lon="12.2316246"><ele>255.0</ele><time>2026-04-06T08:01:46.769Z</time></trkpt><trkpt lat="43.0971073" lon="12.2315446"><ele>255.57142857142858</ele><time>2026-04-06T08:01:48.66Z</time></trkpt><trkpt lat="43.0971455" lon="12.2314641"><ele>256.14285714285717</ele><time>2026-04-06T08:01:50.657Z</time></trkpt><trkpt lat="43.0971785" lon="12.2313813"><ele>256.7142857142857</ele><time>2026-04-06T08:01:52.741Z</time></trkpt><trkpt lat="43.0972162" lon="12.2313028"><ele>257.2857142857143</ele><time>2026-04-06T08:01:54.668Z</time></trkpt><trkpt lat="43.0972508" lon="12.2312238"><ele>257.8571428571429</ele><time>2026-04-06T08:01:56.656Z</time></trkpt><trkpt lat="43.0972776" lon="12.2311389"><ele>258.42857142857144</ele><time>2026-04-06T08:01:58.656Z</time></trkpt><trkpt lat="43.0973102" lon="12.2310563"><ele>259.0</ele><time>2026-04-06T08:02:00.677Z</time></trkpt><trkpt lat="43.0973442" lon="12.2309773"><ele>259.0</ele><time>2026-04-06T08:02:02.659Z</time></trkpt><trkpt lat="43.0973784" lon="12.2309002"><ele>259.0</ele><time>2026-04-06T08:02:04.762Z</time></trkpt><trkpt lat="43.0974071" lon="12.230821"><ele>259.0</ele><time>2026-04-06T08:02:06.671Z</time></trkpt><trkpt lat="43.0974528" lon="12.2307114"><ele>259.0</ele><time>2026-04-06T08:02:09.653Z</time></trkpt><trkpt lat="43.0974913" lon="12.2306105"><ele>259.0</ele><time>2026-04-06T08:02:12.676Z</time></trkpt><trkpt lat="43.097538" lon="12.2305145"><ele>259.0</ele><time>2026-04-06T08:02:15.677Z</time></trkpt><trkpt lat="43.0975863" lon="12.2304181"><ele>260.16666666666663</ele><time>2026-04-06T08:02:18.659Z</time></trkpt><trkpt lat="43.097629" lon="12.2303196"><ele>261.3333333333333</ele><time>2026-04-06T08:02:21.676Z</time></trkpt><trkpt lat="43.0976756" lon="12.230233"><ele>262.5</ele><time>2026-04-06T08:02:24.671Z</time></trkpt><trkpt lat="43.0977197" lon="12.230137"><ele>263.6666666666667</ele><time>2026-04-06T08:02:27.787Z</time></trkpt><trkpt lat="43.0977606" lon="12.2300364"><ele>264.83333333333337</ele><time>2026-04-06T08:02:30.671Z</time></trkpt><trkpt lat="43.0978023" lon="12.2299362"><ele>266.0</ele><time>2026-04-06T08:02:33.677Z</time></trkpt><trkpt lat="43.0978447" lon="12.2298382"><ele>267.0</ele><time>2026-04-06T08:02:36.662Z</time></trkpt><trkpt lat="43.0978863" lon="12.2297439"><ele>268.0</ele><time>2026-04-06T08:02:39.669Z</time></trkpt><trkpt lat="43.0979318" lon="12.2296439"><ele>269.0</ele><time>2026-04-06T08:02:42.665Z</time></trkpt><trkpt lat="43.0979731" lon="12.2295498"><ele>270.0</ele><time>2026-04-06T08:02:45.665Z</time></trkpt><trkpt lat="43.0980147" lon="12.2294517"><ele>271.0</ele><time>2026-04-06T08:02:48.675Z</time></trkpt><trkpt lat="43.0980566" lon="12.2293534"><ele>272.0</ele><time>2026-04-06T08:02:51.675Z</time></trkpt><trkpt lat="43.0981032" lon="12.2292558"><ele>272.0</ele><time>2026-04-06T08:02:54.663Z</time></trkpt><trkpt lat="43.0981461" lon="12.2291533"><ele>272.0</ele><time>2026-04-06T08:02:57.681Z</time></trkpt><trkpt lat="43.0981911" lon="12.2290563"><ele>272.0</ele><time>2026-04-06T08:03:00.687Z</time></trkpt><trkpt lat="43.0982403" lon="12.2289561"><ele>272.0</ele><time>2026-04-06T08:03:03.693Z</time></trkpt><trkpt lat="43.0982816" lon="12.228857"><ele>272.0</ele><time>2026-04-06T08:03:06.663Z</time></trkpt><trkpt lat="43.0983223" lon="12.2287612"><ele>272.0</ele><time>2026-04-06T08:03:09.679Z</time></trkpt><trkpt lat="43.0983653" lon="12.2286631"><ele>272.5</ele><time>2026-04-06T08:03:12.675Z</time></trkpt><trkpt lat="43.0984116" lon="12.2285615"><ele>273.0</ele><time>2026-04-06T08:03:15.678Z</time></trkpt><trkpt lat="43.0984545" lon="12.2284597"><ele>273.5</ele><time>2026-04-06T08:03:18.67Z</time></trkpt><trkpt lat="43.0984927" lon="12.228355"><ele>274.0</ele><time>2026-04-06T08:03:21.677Z</time></trkpt><trkpt lat="43.0985349" lon="12.2282571"><ele>274.5</ele><time>2026-04-06T08:03:24.66Z</time></trkpt><trkpt lat="43.0985794" lon="12.2281553"><ele>275.0</ele><time>2026-04-06T08:03:27.672Z</time></trkpt><trkpt lat="43.0986261" lon="12.2280573"><ele>276.5</ele><time>2026-04-06T08:03:30.677Z</time></trkpt><trkpt lat="43.0986688" lon="12.2279624"><ele>278.0</ele><time>2026-04-06T08:03:33.675Z</time></trkpt><trkpt lat="43.0987154" lon="12.2278721"><ele>279.5</ele><time>2026-04-06T08:03:36.677Z</time></trkpt><trkpt lat="43.0987616" lon="12.2277823"><ele>281.0</ele><time>2026-04-06T08:03:39.673Z</time></trkpt><trkpt lat="43.098808" lon="12.227682"><ele>282.5</ele><time>2026-04-06T08:03:42.672Z</time></trkpt><trkpt lat="43.0988421" lon="12.2275747"><ele>284.0</ele><time>2026-04-06T08:03:45.676Z</time></trkpt><trkpt lat="43.098829" lon="12.2274634"><ele>284.0</ele><time>2026-04-06T08:03:48.679Z</time></trkpt><trkpt lat="43.0987664" lon="12.2273833"><ele>284.0</ele><time>2026-04-06T08:03:51.797Z</time></trkpt><trkpt lat="43.0986928" lon="12.2273251"><ele>284.0</ele><time>2026-04-06T08:03:54.663Z</time></trkpt><trkpt lat="43.0986191" lon="12.227262"><ele>284.0</ele><time>2026-04-06T08:03:57.668Z</time></trkpt><trkpt lat="43.0985519" lon="12.2272034"><ele>284.0</ele><time>2026-04-06T08:04:00.684Z</time></trkpt><trkpt lat="43.0984846" lon="12.2271459"><ele>284.0</ele><time>2026-04-06T08:04:03.683Z</time></trkpt><trkpt lat="43.0984211" lon="12.2270831"><ele>284.5</ele><time>2026-04-06T08:04:06.677Z</time></trkpt><trkpt lat="43.0983507" lon="12.2270267"><ele>285.0</ele><time>2026-04-06T08:04:09.676Z</time></trkpt><trkpt lat="43.0982803" lon="12.2269682"><ele>285.5</ele><time>2026-04-06T08:04:12.672Z</time></trkpt><trkpt lat="43.0982122" lon="12.2269056"><ele>286.0</ele><time>2026-04-06T08:04:15.681Z</time></trkpt><trkpt lat="43.0981422" lon="12.2268452"><ele>286.5</ele><time>2026-04-06T08:04:18.678Z</time></trkpt><trkpt lat="43.0980754" lon="12.2267847"><ele>287.0</ele><time>2026-04-06T08:04:21.68Z</time></trkpt><trkpt lat="43.0980021" lon="12.2267311"><ele>287.0</ele><time>2026-04-06T08:04:24.675Z</time></trkpt><trkpt lat="43.0979265" lon="12.2266801"><ele>287.0</ele><time>2026-04-06T08:04:27.678Z</time></trkpt><trkpt lat="43.0978529" lon="12.2266228"><ele>287.0</ele><time>2026-04-06T08:04:30.679Z</time></trkpt><trkpt lat="43.0977744" lon="12.2265651"><ele>287.0</ele><time>2026-04-06T08:04:33.677Z</time></trkpt><trkpt lat="43.0977074" lon="12.22649"><ele>287.0</ele><time>2026-04-06T08:04:36.681Z</time></trkpt><trkpt lat="43.0976778" lon="12.2263746"><ele>287.0</ele><time>2026-04-06T08:04:39.678Z</time></trkpt><trkpt lat="43.0976981" lon="12.2262588"><ele>287.1666666666667</ele><time>2026-04-06T08:04:42.677Z</time></trkpt><trkpt lat="43.0977385" lon="12.2261499"><ele>287.33333333333337</ele><time>2026-04-06T08:04:45.676Z</time></trkpt><trkpt lat="43.0977914" lon="12.2260489"><ele>287.5</ele><time>2026-04-06T08:04:48.676Z</time></trkpt><trkpt lat="43.0978407" lon="12.2259504"><ele>287.6666666666667</ele><time>2026-04-06T08:04:51.677Z</time></trkpt><trkpt lat="43.097885" lon="12.2258524"><ele>287.8333333333333</ele><time>2026-04-06T08:04:54.668Z</time></trkpt><trkpt lat="43.0979155" lon="12.2257456"><ele>288.0</ele><time>2026-04-06T08:04:57.67Z</time></trkpt><trkpt lat="43.0979481" lon="12.2256472"><ele>289.3333333333333</ele><time>2026-04-06T08:05:00.675Z</time></trkpt><trkpt lat="43.0979875" lon="12.2255608"><ele>290.6666666666667</ele><time>2026-04-06T08:05:03.678Z</time></trkpt><trkpt lat="43.0980239" lon="12.225472"><ele>292.0</ele><time>2026-04-06T08:05:06.665Z</time></trkpt><trkpt lat="43.0980673" lon="12.2253764"><ele>293.33333333333337</ele><time>2026-04-06T08:05:09.68Z</time></trkpt><trkpt lat="43.0981087" lon="12.2252815"><ele>294.6666666666667</ele><time>2026-04-06T08:05:12.674Z</time></trkpt><trkpt lat="43.0981472" lon="12.2251888"><ele>296.0</ele><time>2026-04-06T08:05:15.678Z</time></trkpt><trkpt lat="43.0981907" lon="12.2251047"><ele>296.0</ele><time>2026-04-06T08:05:18.653Z</time></trkpt><trkpt lat="43.098228" lon="12.2250224"><ele>296.0</ele><time>2026-04-06T08:05:21.671Z</time></trkpt><trkpt lat="43.0982606" lon="12.2249384"><ele>296.0</ele><time>2026-04-06T08:05:24.682Z</time></trkpt><trkpt lat="43.0982938" lon="12.2248566"><ele>296.0</ele><time>2026-04-06T08:05:27.665Z</time></trkpt><trkpt lat="43.098313" lon="12.2247705"><ele>296.0</ele><time>2026-04-06T08:05:30.677Z</time></trkpt><trkpt lat="43.0983401" lon="12.2246859"><ele>296.0</ele><time>2026-04-06T08:05:33.677Z</time></trkpt><trkpt lat="43.0983675" lon="12.2245819"><ele>296.0</ele><time>2026-04-06T08:05:37.658Z</time></trkpt><trkpt lat="43.0983542" lon="12.2244821"><ele>299.1666666666667</ele><time>2026-04-06T08:05:41.769Z</time></trkpt><trkpt lat="43.098333" lon="12.2243808"><ele>302.33333333333337</ele><time>2026-04-06T08:05:45.672Z</time></trkpt><trkpt lat="43.0983027" lon="12.2243002"><ele>305.5</ele><time>2026-04-06T08:05:48.676Z</time></trkpt><trkpt lat="43.098285" lon="12.224206"><ele>308.6666666666667</ele><time>2026-04-06T08:05:51.677Z</time></trkpt><trkpt lat="43.0982905" lon="12.2240807"><ele>311.8333333333333</ele><time>2026-04-06T08:05:55.678Z</time></trkpt><trkpt lat="43.0982918" lon="12.2239771"><ele>315.0</ele><time>2026-04-06T08:05:59.681Z</time></trkpt><trkpt lat="43.098283" lon="12.2238634"><ele>315.1666666666667</ele><time>2026-04-06T08:06:03.66Z</time></trkpt><trkpt lat="43.0982638" lon="12.2237627"><ele>315.3333333333333</ele><time>2026-04-06T08:06:07.655Z</time></trkpt><trkpt lat="43.0982337" lon="12.2236293"><ele>315.5</ele><time>2026-04-06T08:06:12.652Z</time></trkpt><trkpt lat="43.0982617" lon="12.2235339"><ele>315.66666666666663</ele><time>2026-04-06T08:06:16.655Z</time></trkpt><trkpt lat="43.0983012" lon="12.2234556"><ele>315.8333333333333</ele><time>2026-04-06T08:06:20.654Z</time></trkpt><trkpt lat="43.0983328" lon="12.2233589"><ele>316.0</ele><time>2026-04-06T08:06:24.661Z</time></trkpt><trkpt lat="43.0983245" lon="12.2232198"><ele>319.00000000000006</ele><time>2026-04-06T08:06:29.657Z</time></trkpt><trkpt lat="43.0983316" lon="12.2231111"><ele>322.0</ele><time>2026-04-06T08:06:33.661Z</time></trkpt><trkpt lat="43.0983196" lon="12.2230203"><ele>325.0</ele><time>2026-04-06T08:06:36.668Z</time></trkpt><trkpt lat="43.0983162" lon="12.2229084"><ele>328.0</ele><time>2026-04-06T08:06:40.66Z</time></trkpt><trkpt lat="43.0983215" lon="12.2228216"><ele>331.0</ele><time>2026-04-06T08:06:43.661Z</time></trkpt><trkpt lat="43.0983264" lon="12.2227351"><ele>334.00000000000006</ele><time>2026-04-06T08:06:46.657Z</time></trkpt><trkpt lat="43.0983374" lon="12.2226272"><ele>337.0</ele><time>2026-04-06T08:06:50.658Z</time></trkpt><trkpt lat="43.0983534" lon="12.2225158"><ele>337.00000000000006</ele><time>2026-04-06T08:06:54.671Z</time></trkpt><trkpt lat="43.0983781" lon="12.2224304"><ele>337.0</ele><time>2026-04-06T08:06:57.658Z</time></trkpt><trkpt lat="43.0984013" lon="12.2223419"><ele>337.0</ele><time>2026-04-06T08:07:00.692Z</time></trkpt><trkpt lat="43.098411" lon="12.2222524"><ele>337.0</ele><time>2026-04-06T08:07:03.679Z</time></trkpt><trkpt lat="43.0983854" lon="12.2221669"><ele>337.0</ele><time>2026-04-06T08:07:06.668Z</time></trkpt><trkpt lat="43.098315" lon="12.2221037"><ele>337.00000000000006</ele><time>2026-04-06T08:07:10.68Z</time></trkpt><trkpt lat="43.0982425" lon="12.2220595"><ele>337.0</ele><time>2026-04-06T08:07:14.679Z</time></trkpt><trkpt lat="43.0981856" lon="12.2220186"><ele>338.7142857142857</ele><time>2026-04-06T08:07:17.68Z</time></trkpt><trkpt lat="43.0981153" lon="12.2219637"><ele>340.42857142857144</ele><time>2026-04-06T08:07:20.681Z</time></trkpt><trkpt lat="43.0980692" lon="12.2218959"><ele>342.1428571428571</ele><time>2026-04-06T08:07:23.677Z</time></trkpt><trkpt lat="43.098023" lon="12.2218234"><ele>343.8571428571429</ele><time>2026-04-06T08:07:26.679Z</time></trkpt><trkpt lat="43.0980051" lon="12.2217307"><ele>345.57142857142856</ele><time>2026-04-06T08:07:29.683Z</time></trkpt><trkpt lat="43.0980286" lon="12.2216291"><ele>347.2857142857143</ele><time>2026-04-06T08:07:33.676Z</time></trkpt><trkpt lat="43.0981043" lon="12.2216187"><ele>349.0</ele><time>2026-04-06T08:07:37.688Z</time></trkpt><trkpt lat="43.0981696" lon="12.2216374"><ele>348.99999999999994</ele><time>2026-04-06T08:07:40.675Z</time></trkpt><trkpt lat="43.0982328" lon="12.2216508"><ele>349.0</ele><time>2026-04-06T08:07:43.677Z</time></trkpt><trkpt lat="43.0983009" lon="12.2216325"><ele>349.0</ele><time>2026-04-06T08:07:46.68Z</time></trkpt><trkpt lat="43.0983649" lon="12.2216144"><ele>349.0</ele><time>2026-04-06T08:07:49.678Z</time></trkpt><trkpt lat="43.0984379" lon="12.2215954"><ele>349.0</ele><time>2026-04-06T08:07:53.66Z</time></trkpt><trkpt lat="43.0985098" lon="12.2215761"><ele>348.99999999999994</ele><time>2026-04-06T08:07:58.674Z</time></trkpt><trkpt lat="43.0985772" lon="12.2215708"><ele>349.0</ele><time>2026-04-06T08:08:01.678Z</time></trkpt><trkpt lat="43.0986458" lon="12.2215427"><ele>348.85714285714283</ele><time>2026-04-06T08:08:04.678Z</time></trkpt><trkpt lat="43.0987197" lon="12.2215091"><ele>348.7142857142857</ele><time>2026-04-06T08:08:08.674Z</time></trkpt><trkpt lat="43.0987706" lon="12.221452"><ele>348.57142857142856</ele><time>2026-04-06T08:08:11.758Z</time></trkpt><trkpt lat="43.0987874" lon="12.2213658"><ele>348.42857142857144</ele><time>2026-04-06T08:08:14.68Z</time></trkpt><trkpt lat="43.0987423" lon="12.2212903"><ele>348.2857142857143</ele><time>2026-04-06T08:08:18.666Z</time></trkpt><trkpt lat="43.0986661" lon="12.2212793"><ele>348.1428571428571</ele><time>2026-04-06T08:08:23.676Z</time></trkpt><trkpt lat="43.0985958" lon="12.22125"><ele>348.0</ele><time>2026-04-06T08:08:27.676Z</time></trkpt><trkpt lat="43.0985317" lon="12.2212375"><ele>350.0</ele><time>2026-04-06T08:08:30.676Z</time></trkpt><trkpt lat="43.0984777" lon="12.2211816"><ele>352.0</ele><time>2026-04-06T08:08:34.68Z</time></trkpt><trkpt lat="43.0984315" lon="12.2211089"><ele>354.0</ele><time>2026-04-06T08:08:37.665Z</time></trkpt><trkpt lat="43.0983939" lon="12.2210281"><ele>356.0</ele><time>2026-04-06T08:08:40.663Z</time></trkpt><trkpt lat="43.0983568" lon="12.220952"><ele>358.0</ele><time>2026-04-06T08:08:43.679Z</time></trkpt><trkpt lat="43.098329" lon="12.2208694"><ele>360.0</ele><time>2026-04-06T08:08:46.673Z</time></trkpt><trkpt lat="43.0983636" lon="12.2207824"><ele>362.0</ele><time>2026-04-06T08:08:50.672Z</time></trkpt><trkpt lat="43.0984249" lon="12.2208097"><ele>362.0</ele><time>2026-04-06T08:08:53.673Z</time></trkpt><trkpt lat="43.0984835" lon="12.2208574"><ele>362.0</ele><time>2026-04-06T08:08:56.654Z</time></trkpt><trkpt lat="43.0985408" lon="12.2208974"><ele>362.0</ele><time>2026-04-06T08:08:59.778Z</time></trkpt><trkpt lat="43.098616" lon="12.2209121"><ele>362.0</ele><time>2026-04-06T08:09:03.657Z</time></trkpt><trkpt lat="43.0986862" lon="12.2208918"><ele>362.0</ele><time>2026-04-06T08:09:06.678Z</time></trkpt><trkpt lat="43.0987519" lon="12.2208716"><ele>362.0</ele><time>2026-04-06T08:09:09.677Z</time></trkpt><trkpt lat="43.0988301" lon="12.2208347"><ele>362.0</ele><time>2026-04-06T08:09:13.678Z</time></trkpt><trkpt lat="43.0989103" lon="12.2207917"><ele>362.0</ele><time>2026-04-06T08:09:16.678Z</time></trkpt><trkpt lat="43.0989734" lon="12.2207711"><ele>362.0</ele><time>2026-04-06T08:09:19.675Z</time></trkpt><trkpt lat="43.0990486" lon="12.2207328"><ele>362.0</ele><time>2026-04-06T08:09:22.672Z</time></trkpt><trkpt lat="43.0991099" lon="12.2206834"><ele>362.0</ele><time>2026-04-06T08:09:25.673Z</time></trkpt><trkpt lat="43.0991735" lon="12.2206671"><ele>362.0</ele><time>2026-04-06T08:09:28.674Z</time></trkpt><trkpt lat="43.0992361" lon="12.2206997"><ele>362.0</ele><time>2026-04-06T08:09:31.673Z</time></trkpt><trkpt lat="43.0992974" lon="12.2207526"><ele>362.0</ele><time>2026-04-06T08:09:34.669Z</time></trkpt><trkpt lat="43.0993353" lon="12.2208329"><ele>362.7142857142857</ele><time>2026-04-06T08:09:37.669Z</time></trkpt><trkpt lat="43.0993646" lon="12.2209146"><ele>363.42857142857144</ele><time>2026-04-06T08:09:40.674Z</time></trkpt><trkpt lat="43.0993737" lon="12.2210093"><ele>364.1428571428571</ele><time>2026-04-06T08:09:43.662Z</time></trkpt><trkpt lat="43.099377" lon="12.2211109"><ele>364.8571428571429</ele><time>2026-04-06T08:09:46.654Z</time></trkpt><trkpt lat="43.0993709" lon="12.2212188"><ele>365.5714285714286</ele><time>2026-04-06T08:09:49.659Z</time></trkpt><trkpt lat="43.0993754" lon="12.2213255"><ele>366.2857142857143</ele><time>2026-04-06T08:09:52.777Z</time></trkpt><trkpt lat="43.0993874" lon="12.2214248"><ele>367.0</ele><time>2026-04-06T08:09:55.673Z</time></trkpt><trkpt lat="43.0994129" lon="12.2215056"><ele>367.0</ele><time>2026-04-06T08:09:58.653Z</time></trkpt><trkpt lat="43.0994207" lon="12.2216151"><ele>367.0</ele><time>2026-04-06T08:10:02.679Z</time></trkpt><trkpt lat="43.0994314" lon="12.2217022"><ele>367.0</ele><time>2026-04-06T08:10:05.665Z</time></trkpt><trkpt lat="43.0994529" lon="12.2217871"><ele>367.0</ele><time>2026-04-06T08:10:08.662Z</time></trkpt><trkpt lat="43.099464" lon="12.2218736"><ele>367.0</ele><time>2026-04-06T08:10:11.676Z</time></trkpt><trkpt lat="43.0994811" lon="12.2219672"><ele>367.0</ele><time>2026-04-06T08:10:14.676Z</time></trkpt><trkpt lat="43.0994922" lon="12.2220538"><ele>367.0</ele><time>2026-04-06T08:10:17.673Z</time></trkpt><trkpt lat="43.0995243" lon="12.2221311"><ele>367.0</ele><time>2026-04-06T08:10:20.661Z</time></trkpt><trkpt lat="43.0995732" lon="12.2221881"><ele>367.0</ele><time>2026-04-06T08:10:23.676Z</time></trkpt><trkpt lat="43.0996384" lon="12.2222119"><ele>367.0</ele><time>2026-04-06T08:10:26.681Z</time></trkpt><trkpt lat="43.0997033" lon="12.2222318"><ele>367.0</ele><time>2026-04-06T08:10:29.678Z</time></trkpt><trkpt lat="43.0997816" lon="12.2222364"><ele>367.0</ele><time>2026-04-06T08:10:33.662Z</time></trkpt><trkpt lat="43.0998618" lon="12.222227"><ele>367.0</ele><time>2026-04-06T08:10:37.671Z</time></trkpt><trkpt lat="43.0999425" lon="12.2222289"><ele>367.0</ele><time>2026-04-06T08:10:41.659Z</time></trkpt><trkpt lat="43.100022" lon="12.2222158"><ele>370.4285714285714</ele><time>2026-04-06T08:10:45.677Z</time></trkpt><trkpt lat="43.1000879" lon="12.2221983"><ele>373.8571428571429</ele><time>2026-04-06T08:10:48.765Z</time></trkpt><trkpt lat="43.10014" lon="12.2221483"><ele>377.2857142857143</ele><time>2026-04-06T08:10:51.675Z</time></trkpt><trkpt lat="43.1001816" lon="12.222051"><ele>380.71428571428567</ele><time>2026-04-06T08:10:55.674Z</time></trkpt><trkpt lat="43.1001436" lon="12.2219534"><ele>384.1428571428571</ele><time>2026-04-06T08:10:59.677Z</time></trkpt><trkpt lat="43.1000821" lon="12.2219145"><ele>387.57142857142856</ele><time>2026-04-06T08:11:02.662Z</time></trkpt><trkpt lat="43.1000198" lon="12.221845"><ele>391.0</ele><time>2026-04-06T08:11:06.672Z</time></trkpt><trkpt lat="43.0999899" lon="12.2217585"><ele>390.99999999999994</ele><time>2026-04-06T08:11:09.669Z</time></trkpt><trkpt lat="43.0999797" lon="12.221646"><ele>391.0</ele><time>2026-04-06T08:11:13.654Z</time></trkpt><trkpt lat="43.100012" lon="12.2215496"><ele>391.0</ele><time>2026-04-06T08:11:17.664Z</time></trkpt><trkpt lat="43.100023" lon="12.2214411"><ele>391.0</ele><time>2026-04-06T08:11:21.66Z</time></trkpt><trkpt lat="43.1000131" lon="12.2213532"><ele>391.0</ele><time>2026-04-06T08:11:24.662Z</time></trkpt><trkpt lat="43.0999993" lon="12.2212605"><ele>390.99999999999994</ele><time>2026-04-06T08:11:27.658Z</time></trkpt><trkpt lat="43.0999803" lon="12.2211751"><ele>391.0</ele><time>2026-04-06T08:11:30.654Z</time></trkpt><trkpt lat="43.0999646" lon="12.2210902"><ele>392.57142857142856</ele><time>2026-04-06T08:11:33.656Z</time></trkpt><trkpt lat="43.0999583" lon="12.2210041"><ele>394.1428571428571</ele><time>2026-04-06T08:11:36.651Z</time></trkpt><trkpt lat="43.0999575" lon="12.2209137"><ele>395.71428571428567</ele><time>2026-04-06T08:11:39.652Z</time></trkpt><trkpt lat="43.0999963" lon="12.2208318"><ele>397.2857142857143</ele><time>2026-04-06T08:11:43.662Z</time></trkpt><trkpt lat="43.1000354" lon="12.2209027"><ele>398.8571428571429</ele><time>2026-04-06T08:11:47.675Z</time></trkpt><trkpt lat="43.1000586" lon="12.2209859"><ele>400.4285714285714</ele><time>2026-04-06T08:11:50.674Z</time></trkpt><trkpt lat="43.1000872" lon="12.2210887"><ele>402.0</ele><time>2026-04-06T08:11:54.672Z</time></trkpt><trkpt lat="43.1001171" lon="12.2211748"><ele>402.0</ele><time>2026-04-06T08:11:58.67Z</time></trkpt><trkpt lat="43.1001879" lon="12.2211921"><ele>402.0</ele><time>2026-04-06T08:12:02.76Z</time></trkpt><trkpt lat="43.1002492" lon="12.2211715"><ele>402.0</ele><time>2026-04-06T08:12:05.675Z</time></trkpt><trkpt lat="43.100308" lon="12.2211367"><ele>402.0</ele><time>2026-04-06T08:12:09.663Z</time></trkpt><trkpt lat="43.1003713" lon="12.2211148"><ele>402.0</ele><time>2026-04-06T08:12:13.678Z</time></trkpt><trkpt lat="43.1004341" lon="12.2211011"><ele>402.0</ele><time>2026-04-06T08:12:16.681Z</time></trkpt><trkpt lat="43.1004945" lon="12.2210679"><ele>402.0</ele><time>2026-04-06T08:12:19.673Z</time></trkpt><trkpt lat="43.1005616" lon="12.2210492"><ele>402.0</ele><time>2026-04-06T08:12:23.675Z</time></trkpt><trkpt lat="43.1006344" lon="12.2210399"><ele>402.0</ele><time>2026-04-06T08:12:27.678Z</time></trkpt><trkpt lat="43.1007032" lon="12.2210224"><ele>402.0</ele><time>2026-04-06T08:12:31.673Z</time></trkpt><trkpt lat="43.1007723" lon="12.220997"><ele>402.0</ele><time>2026-04-06T08:12:35.655Z</time></trkpt><trkpt lat="43.1008457" lon="12.2209646"><ele>402.0</ele><time>2026-04-06T08:12:39.657Z</time></trkpt><trkpt lat="43.1009209" lon="12.2209501"><ele>402.0</ele><time>2026-04-06T08:12:43.659Z</time></trkpt><trkpt lat="43.1009846" lon="12.2209318"><ele>402.0</ele><time>2026-04-06T08:12:46.654Z</time></trkpt><trkpt lat="43.1010638" lon="12.2209003"><ele>405.0</ele><time>2026-04-06T08:12:50.772Z</time></trkpt><trkpt lat="43.1011331" lon="12.2208684"><ele>408.0</ele><time>2026-04-06T08:12:54.653Z</time></trkpt><trkpt lat="43.1012002" lon="12.2208768"><ele>411.0</ele><time>2026-04-06T08:12:58.661Z</time></trkpt><trkpt lat="43.1012631" lon="12.220897"><ele>414.0</ele><time>2026-04-06T08:13:02.678Z</time></trkpt><trkpt lat="43.1013355" lon="12.2208655"><ele>417.0</ele><time>2026-04-06T08:13:06.665Z</time></trkpt><trkpt lat="43.1014046" lon="12.2208315"><ele>420.0</ele><time>2026-04-06T08:13:10.68Z</time></trkpt><trkpt lat="43.1014746" lon="12.2207931"><ele>423.0</ele><time>2026-04-06T08:13:14.679Z</time></trkpt><trkpt lat="43.1015476" lon="12.2207384"><ele>423.5</ele><time>2026-04-06T08:13:18.749Z</time></trkpt><trkpt lat="43.1016121" lon="12.2206667"><ele>424.0</ele><time>2026-04-06T08:13:22.661Z</time></trkpt><trkpt lat="43.1016407" lon="12.2205686"><ele>424.5</ele><time>2026-04-06T08:13:26.654Z</time></trkpt><trkpt lat="43.1016621" lon="12.2204699"><ele>425.0</ele><time>2026-04-06T08:13:31.661Z</time></trkpt><trkpt lat="43.1016784" lon="12.2203856"><ele>425.5</ele><time>2026-04-06T08:13:34.676Z</time></trkpt><trkpt lat="43.1017004" lon="12.2202854"><ele>426.0</ele><time>2026-04-06T08:13:38.658Z</time></trkpt><trkpt lat="43.1017167" lon="12.2201843"><ele>429.3333333333333</ele><time>2026-04-06T08:13:42.655Z</time></trkpt><trkpt lat="43.1017311" lon="12.220084"><ele>432.66666666666663</ele><time>2026-04-06T08:13:46.654Z</time></trkpt><trkpt lat="43.1017517" lon="12.2199846"><ele>436.0</ele><time>2026-04-06T08:13:50.678Z</time></trkpt><trkpt lat="43.1017622" lon="12.2198826"><ele>439.3333333333333</ele><time>2026-04-06T08:13:54.659Z</time></trkpt><trkpt lat="43.1018189" lon="12.2198028"><ele>442.66666666666663</ele><time>2026-04-06T08:13:59.654Z</time></trkpt><trkpt lat="43.1018928" lon="12.2197667"><ele>446.0</ele><time>2026-04-06T08:14:03.662Z</time></trkpt><trkpt lat="43.1019606" lon="12.2197513"><ele>446.85714285714283</ele><time>2026-04-06T08:14:06.656Z</time></trkpt><trkpt lat="43.1020465" lon="12.2197488"><ele>447.71428571428567</ele><time>2026-04-06T08:14:09.654Z</time></trkpt><trkpt lat="43.1021183" lon="12.2197439"><ele>448.57142857142856</ele><time>2026-04-06T08:14:12.662Z</time></trkpt><trkpt lat="43.1021996" lon="12.2197359"><ele>449.42857142857144</ele><time>2026-04-06T08:14:16.66Z</time></trkpt><trkpt lat="43.1022677" lon="12.2197252"><ele>450.2857142857143</ele><time>2026-04-06T08:14:19.75Z</time></trkpt><trkpt lat="43.1023356" lon="12.2197151"><ele>451.14285714285717</ele><time>2026-04-06T08:14:22.654Z</time></trkpt><trkpt lat="43.1023985" lon="12.2197001"><ele>452.0</ele><time>2026-04-06T08:14:25.666Z</time></trkpt><trkpt lat="43.1024667" lon="12.2196691"><ele>451.99999999999994</ele><time>2026-04-06T08:14:28.663Z</time></trkpt><trkpt lat="43.1025413" lon="12.2196172"><ele>452.0</ele><time>2026-04-06T08:14:32.669Z</time></trkpt><trkpt lat="43.1025863" lon="12.2195288"><ele>452.0</ele><time>2026-04-06T08:14:36.678Z</time></trkpt><trkpt lat="43.1026082" lon="12.219418"><ele>452.0</ele><time>2026-04-06T08:14:40.668Z</time></trkpt><trkpt lat="43.102646" lon="12.2193218"><ele>451.99999999999994</ele><time>2026-04-06T08:14:44.654Z</time></trkpt><trkpt lat="43.1026627" lon="12.2192342"><ele>452.0</ele><time>2026-04-06T08:14:47.68Z</time></trkpt><trkpt lat="43.1026819" lon="12.2191515"><ele>452.0</ele><time>2026-04-06T08:14:50.665Z</time></trkpt><trkpt lat="43.1027174" lon="12.2190519"><ele>452.0</ele><time>2026-04-06T08:14:54.683Z</time></trkpt><trkpt lat="43.1027768" lon="12.2189793"><ele>452.0</ele><time>2026-04-06T08:14:59.679Z</time></trkpt><trkpt lat="43.1028393" lon="12.2189615"><ele>452.0</ele><time>2026-04-06T08:15:02.676Z</time></trkpt><trkpt lat="43.1029109" lon="12.2189524"><ele>452.0</ele><time>2026-04-06T08:15:05.679Z</time></trkpt><trkpt lat="43.1029758" lon="12.2189422"><ele>452.0</ele><time>2026-04-06T08:15:08.665Z</time></trkpt><trkpt lat="43.1030566" lon="12.2189479"><ele>452.0</ele><time>2026-04-06T08:15:12.666Z</time></trkpt><trkpt lat="43.1031361" lon="12.2189344"><ele>454.42857142857144</ele><time>2026-04-06T08:15:16.663Z</time></trkpt><trkpt lat="43.1032015" lon="12.2189324"><ele>456.85714285714283</ele><time>2026-04-06T08:15:19.671Z</time></trkpt><trkpt lat="43.1032651" lon="12.2189362"><ele>459.2857142857143</ele><time>2026-04-06T08:15:22.748Z</time></trkpt><trkpt lat="43.1033308" lon="12.2189321"><ele>461.7142857142857</ele><time>2026-04-06T08:15:25.678Z</time></trkpt><trkpt lat="43.1034092" lon="12.2189413"><ele>464.1428571428571</ele><time>2026-04-06T08:15:29.674Z</time></trkpt><trkpt lat="43.1034883" lon="12.2189253"><ele>466.57142857142856</ele><time>2026-04-06T08:15:33.67Z</time></trkpt><trkpt lat="43.1035647" lon="12.2188787"><ele>469.0</ele><time>2026-04-06T08:15:37.669Z</time></trkpt><trkpt lat="43.1036042" lon="12.2188024"><ele>469.00000000000006</ele><time>2026-04-06T08:15:40.683Z</time></trkpt><trkpt lat="43.1036308" lon="12.2187"><ele>469.0</ele><time>2026-04-06T08:15:44.67Z</time></trkpt><trkpt lat="43.1036888" lon="12.2186155"><ele>469.0</ele><time>2026-04-06T08:15:48.669Z</time></trkpt><trkpt lat="43.1037256" lon="12.2185357"><ele>469.0</ele><time>2026-04-06T08:15:52.68Z</time></trkpt><trkpt lat="43.1037568" lon="12.2184556"><ele>469.00000000000006</ele><time>2026-04-06T08:15:55.683Z</time></trkpt><trkpt lat="43.1037998" lon="12.2183622"><ele>469.0</ele><time>2026-04-06T08:15:59.681Z</time></trkpt><trkpt lat="43.1038661" lon="12.2183109"><ele>469.0</ele><time>2026-04-06T08:16:03.667Z</time></trkpt><trkpt lat="43.10393" lon="12.2182845"><ele>469.0</ele><time>2026-04-06T08:16:08.662Z</time></trkpt><trkpt lat="43.1040047" lon="12.2182299"><ele>469.0</ele><time>2026-04-06T08:16:12.676Z</time></trkpt><trkpt lat="43.1040565" lon="12.218172"><ele>469.0</ele><time>2026-04-06T08:16:15.661Z</time></trkpt><trkpt lat="43.1041121" lon="12.2181161"><ele>469.0</ele><time>2026-04-06T08:16:18.66Z</time></trkpt><trkpt lat="43.1041681" lon="12.2180586"><ele>469.0</ele><time>2026-04-06T08:16:21.655Z</time></trkpt><trkpt lat="43.1042246" lon="12.2180013"><ele>469.0</ele><time>2026-04-06T08:16:24.658Z</time></trkpt><trkpt lat="43.1042799" lon="12.2179465"><ele>468.8571428571429</ele><time>2026-04-06T08:16:27.656Z</time></trkpt><trkpt lat="43.1043482" lon="12.2178888"><ele>468.7142857142857</ele><time>2026-04-06T08:16:31.655Z</time></trkpt><trkpt lat="43.1044173" lon="12.2178418"><ele>468.57142857142856</ele><time>2026-04-06T08:16:35.655Z</time></trkpt><trkpt lat="43.1044687" lon="12.2177815"><ele>468.42857142857144</ele><time>2026-04-06T08:16:38.657Z</time></trkpt><trkpt lat="43.1045252" lon="12.2177309"><ele>468.28571428571433</ele><time>2026-04-06T08:16:41.656Z</time></trkpt><trkpt lat="43.1046041" lon="12.2176964"><ele>468.14285714285717</ele><time>2026-04-06T08:16:44.657Z</time></trkpt><trkpt lat="43.1046721" lon="12.2176695"><ele>468.0</ele><time>2026-04-06T08:16:47.749Z</time></trkpt><trkpt lat="43.1047442" lon="12.2176384"><ele>468.0</ele><time>2026-04-06T08:16:51.673Z</time></trkpt><trkpt lat="43.1048064" lon="12.2176164"><ele>468.00000000000006</ele><time>2026-04-06T08:16:54.679Z</time></trkpt><trkpt lat="43.1048693" lon="12.2175892"><ele>468.0</ele><time>2026-04-06T08:16:57.677Z</time></trkpt><trkpt lat="43.1049314" lon="12.2175578"><ele>468.0</ele><time>2026-04-06T08:17:00.681Z</time></trkpt><trkpt lat="43.1049937" lon="12.2175356"><ele>468.00000000000006</ele><time>2026-04-06T08:17:03.661Z</time></trkpt><trkpt lat="43.1050742" lon="12.2175229"><ele>468.0</ele><time>2026-04-06T08:17:07.677Z</time></trkpt><trkpt lat="43.105156" lon="12.2174866"><ele>468.0</ele><time>2026-04-06T08:17:10.67Z</time></trkpt><trkpt lat="43.1052294" lon="12.2174425"><ele>468.5</ele><time>2026-04-06T08:17:13.669Z</time></trkpt><trkpt lat="43.1052939" lon="12.2174211"><ele>469.0</ele><time>2026-04-06T08:17:16.656Z</time></trkpt><trkpt lat="43.1053631" lon="12.2173903"><ele>469.5</ele><time>2026-04-06T08:17:19.674Z</time></trkpt><trkpt lat="43.1054366" lon="12.2173605"><ele>470.0</ele><time>2026-04-06T08:17:22.76Z</time></trkpt><trkpt lat="43.1055089" lon="12.2173175"><ele>470.5</ele><time>2026-04-06T08:17:25.663Z</time></trkpt><trkpt lat="43.1055869" lon="12.2172862"><ele>471.0</ele><time>2026-04-06T08:17:28.664Z</time></trkpt><trkpt lat="43.1056622" lon="12.2172605"><ele>470.6666666666667</ele><time>2026-04-06T08:17:31.678Z</time></trkpt><trkpt lat="43.1057416" lon="12.2172305"><ele>470.33333333333337</ele><time>2026-04-06T08:17:35.669Z</time></trkpt><trkpt lat="43.1058197" lon="12.2172094"><ele>470.0</ele><time>2026-04-06T08:17:39.677Z</time></trkpt><trkpt lat="43.105896" lon="12.2172395"><ele>469.6666666666667</ele><time>2026-04-06T08:17:42.676Z</time></trkpt><trkpt lat="43.1059683" lon="12.2172635"><ele>469.33333333333337</ele><time>2026-04-06T08:17:45.669Z</time></trkpt><trkpt lat="43.1060449" lon="12.2172927"><ele>469.0</ele><time>2026-04-06T08:17:48.655Z</time></trkpt><trkpt lat="43.1061194" lon="12.2173285"><ele>470.1666666666667</ele><time>2026-04-06T08:17:51.678Z</time></trkpt><trkpt lat="43.1061855" lon="12.2173761"><ele>471.33333333333337</ele><time>2026-04-06T08:17:55.681Z</time></trkpt><trkpt lat="43.1062583" lon="12.2173934"><ele>472.5</ele><time>2026-04-06T08:17:58.653Z</time></trkpt><trkpt lat="43.1063379" lon="12.2174177"><ele>473.66666666666663</ele><time>2026-04-06T08:18:01.659Z</time></trkpt><trkpt lat="43.1064326" lon="12.2174547"><ele>474.8333333333333</ele><time>2026-04-06T08:18:04.652Z</time></trkpt><trkpt lat="43.106513" lon="12.2174864"><ele>476.0</ele><time>2026-04-06T08:18:06.681Z</time></trkpt><trkpt lat="43.1065991" lon="12.2174977"><ele>475.99999999999994</ele><time>2026-04-06T08:18:08.662Z</time></trkpt><trkpt lat="43.1066759" lon="12.2174938"><ele>476.0</ele><time>2026-04-06T08:18:10.681Z</time></trkpt><trkpt lat="43.1067498" lon="12.2175019"><ele>476.0</ele><time>2026-04-06T08:18:12.67Z</time></trkpt><trkpt lat="43.1068451" lon="12.2175124"><ele>476.0</ele><time>2026-04-06T08:18:14.673Z</time></trkpt><trkpt lat="43.1069268" lon="12.21752"><ele>475.99999999999994</ele><time>2026-04-06T08:18:16.674Z</time></trkpt><trkpt lat="43.1069964" lon="12.2175421"><ele>476.0</ele><time>2026-04-06T08:18:18.663Z</time></trkpt><trkpt lat="43.1070903" lon="12.2175774"><ele>475.99999999999994</ele><time>2026-04-06T08:18:20.668Z</time></trkpt><trkpt lat="43.1071943" lon="12.2176187"><ele>476.0</ele><time>2026-04-06T08:18:22.673Z</time></trkpt><trkpt lat="43.1073064" lon="12.2176957"><ele>476.0</ele><time>2026-04-06T08:18:24.676Z</time></trkpt><trkpt lat="43.1073574" lon="12.2177542"><ele>476.0</ele><time>2026-04-06T08:18:25.686Z</time></trkpt><trkpt lat="43.1074082" lon="12.2178142"><ele>475.99999999999994</ele><time>2026-04-06T08:18:26.671Z</time></trkpt><trkpt lat="43.1074621" lon="12.217872"><ele>476.0</ele><time>2026-04-06T08:18:27.67Z</time></trkpt><trkpt lat="43.1075155" lon="12.2179289"><ele>475.0</ele><time>2026-04-06T08:18:28.664Z</time></trkpt><trkpt lat="43.1075731" lon="12.2179882"><ele>474.0</ele><time>2026-04-06T08:18:29.671Z</time></trkpt><trkpt lat="43.1076238" lon="12.218046"><ele>473.0</ele><time>2026-04-06T08:18:30.669Z</time></trkpt><trkpt lat="43.1076724" lon="12.2181143"><ele>472.0</ele><time>2026-04-06T08:18:31.68Z</time></trkpt><trkpt lat="43.1077164" lon="12.2181815"><ele>471.0</ele><time>2026-04-06T08:18:32.657Z</time></trkpt><trkpt lat="43.1077602" lon="12.2182507"><ele>470.0</ele><time>2026-04-06T08:18:33.664Z</time></trkpt><trkpt lat="43.1077895" lon="12.2183353"><ele>469.0</ele><time>2026-04-06T08:18:34.68Z</time></trkpt><trkpt lat="43.1077951" lon="12.2184232"><ele>469.0</ele><time>2026-04-06T08:18:35.668Z</time></trkpt><trkpt lat="43.1077849" lon="12.2185135"><ele>469.0</ele><time>2026-04-06T08:18:36.775Z</time></trkpt><trkpt lat="43.1077746" lon="12.2186058"><ele>469.0</ele><time>2026-04-06T08:18:37.677Z</time></trkpt><trkpt lat="43.1077579" lon="12.2186904"><ele>469.0</ele><time>2026-04-06T08:18:38.662Z</time></trkpt><trkpt lat="43.1077406" lon="12.2187761"><ele>469.0</ele><time>2026-04-06T08:18:39.677Z</time></trkpt><trkpt lat="43.107745" lon="12.2188782"><ele>469.0</ele><time>2026-04-06T08:18:41.674Z</time></trkpt><trkpt lat="43.1078054" lon="12.2188186"><ele>469.0</ele><time>2026-04-06T08:18:44.67Z</time></trkpt><trkpt lat="43.1078583" lon="12.2186914"><ele>469.00000000000006</ele><time>2026-04-06T08:18:46.678Z</time></trkpt><trkpt lat="43.1078903" lon="12.2186123"><ele>469.0</ele><time>2026-04-06T08:18:47.677Z</time></trkpt><trkpt lat="43.107912" lon="12.2185146"><ele>469.0</ele><time>2026-04-06T08:18:48.749Z</time></trkpt><trkpt lat="43.1079334" lon="12.2184205"><ele>469.0</ele><time>2026-04-06T08:18:49.681Z</time></trkpt><trkpt lat="43.1079522" lon="12.2183372"><ele>469.00000000000006</ele><time>2026-04-06T08:18:50.67Z</time></trkpt><trkpt lat="43.1079647" lon="12.2182496"><ele>469.0</ele><time>2026-04-06T08:18:51.679Z</time></trkpt><trkpt lat="43.1079904" lon="12.2181005"><ele>467.4</ele><time>2026-04-06T08:18:53.66Z</time></trkpt><trkpt lat="43.1080009" lon="12.2179695"><ele>465.79999999999995</ele><time>2026-04-06T08:18:55.678Z</time></trkpt><trkpt lat="43.10799" lon="12.2178511"><ele>464.20000000000005</ele><time>2026-04-06T08:18:57.685Z</time></trkpt><trkpt lat="43.1079857" lon="12.2177269"><ele>462.6</ele><time>2026-04-06T08:18:59.662Z</time></trkpt><trkpt lat="43.107957" lon="12.2175864"><ele>461.0</ele><time>2026-04-06T08:19:01.672Z</time></trkpt><trkpt lat="43.1079093" lon="12.2174262"><ele>461.0</ele><time>2026-04-06T08:19:03.665Z</time></trkpt><trkpt lat="43.107866" lon="12.2173582"><ele>461.00000000000006</ele><time>2026-04-06T08:19:04.675Z</time></trkpt><trkpt lat="43.1078195" lon="12.2172962"><ele>461.0</ele><time>2026-04-06T08:19:05.669Z</time></trkpt><trkpt lat="43.107765" lon="12.2172291"><ele>461.0</ele><time>2026-04-06T08:19:06.676Z</time></trkpt><trkpt lat="43.1077084" lon="12.2171655"><ele>461.00000000000006</ele><time>2026-04-06T08:19:07.679Z</time></trkpt><trkpt lat="43.1076587" lon="12.2171005"><ele>461.0</ele><time>2026-04-06T08:19:08.665Z</time></trkpt><trkpt lat="43.1076067" lon="12.217035"><ele>461.0</ele><time>2026-04-06T08:19:09.673Z</time></trkpt><trkpt lat="43.1075609" lon="12.2169674"><ele>461.0</ele><time>2026-04-06T08:19:10.692Z</time></trkpt><trkpt lat="43.1075125" lon="12.2169028"><ele>461.00000000000006</ele><time>2026-04-06T08:19:11.673Z</time></trkpt><trkpt lat="43.107468" lon="12.2168337"><ele>461.0</ele><time>2026-04-06T08:19:12.671Z</time></trkpt><trkpt lat="43.1074179" lon="12.2167639"><ele>461.0</ele><time>2026-04-06T08:19:13.678Z</time></trkpt><trkpt lat="43.1073638" lon="12.2167062"><ele>461.00000000000006</ele><time>2026-04-06T08:19:14.674Z</time></trkpt><trkpt lat="43.1073099" lon="12.216641"><ele>461.0</ele><time>2026-04-06T08:19:15.675Z</time></trkpt><trkpt lat="43.107245" lon="12.216581"><ele>461.0</ele><time>2026-04-06T08:19:16.662Z</time></trkpt><trkpt lat="43.1071821" lon="12.2165222"><ele>458.99999999999994</ele><time>2026-04-06T08:19:17.665Z</time></trkpt><trkpt lat="43.1071234" lon="12.2164649"><ele>457.0</ele><time>2026-04-06T08:19:18.66Z</time></trkpt><trkpt lat="43.1070587" lon="12.2164125"><ele>455.0</ele><time>2026-04-06T08:19:19.674Z</time></trkpt><trkpt lat="43.1069996" lon="12.2163415"><ele>453.0</ele><time>2026-04-06T08:19:20.675Z</time></trkpt><trkpt lat="43.1069492" lon="12.2162606"><ele>450.99999999999994</ele><time>2026-04-06T08:19:21.672Z</time></trkpt><trkpt lat="43.1069047" lon="12.2161716"><ele>449.0</ele><time>2026-04-06T08:19:22.672Z</time></trkpt><trkpt lat="43.1068714" lon="12.2160749"><ele>449.0</ele><time>2026-04-06T08:19:23.675Z</time></trkpt><trkpt lat="43.1068439" lon="12.2159753"><ele>448.99999999999994</ele><time>2026-04-06T08:19:24.673Z</time></trkpt><trkpt lat="43.1068244" lon="12.2158734"><ele>449.0</ele><time>2026-04-06T08:19:25.67Z</time></trkpt><trkpt lat="43.1068179" lon="12.2157758"><ele>449.0</ele><time>2026-04-06T08:19:26.674Z</time></trkpt><trkpt lat="43.1068094" lon="12.2156783"><ele>448.99999999999994</ele><time>2026-04-06T08:19:27.676Z</time></trkpt><trkpt lat="43.1067933" lon="12.2155809"><ele>449.0</ele><time>2026-04-06T08:19:28.674Z</time></trkpt><trkpt lat="43.1067688" lon="12.2154973"><ele>449.0</ele><time>2026-04-06T08:19:29.672Z</time></trkpt><trkpt lat="43.1067306" lon="12.2154151"><ele>447.57142857142856</ele><time>2026-04-06T08:19:30.668Z</time></trkpt><trkpt lat="43.1066841" lon="12.2153323"><ele>446.1428571428571</ele><time>2026-04-06T08:19:31.677Z</time></trkpt><trkpt lat="43.1066399" lon="12.2152596"><ele>444.71428571428567</ele><time>2026-04-06T08:19:32.676Z</time></trkpt><trkpt lat="43.1065834" lon="12.215177"><ele>443.2857142857143</ele><time>2026-04-06T08:19:33.663Z</time></trkpt><trkpt lat="43.1065345" lon="12.2150926"><ele>441.85714285714283</ele><time>2026-04-06T08:19:34.672Z</time></trkpt><trkpt lat="43.1064928" lon="12.2150117"><ele>440.42857142857144</ele><time>2026-04-06T08:19:35.677Z</time></trkpt><trkpt lat="43.1064549" lon="12.2149388"><ele>439.0</ele><time>2026-04-06T08:19:36.675Z</time></trkpt><trkpt lat="43.1063922" lon="12.2148368"><ele>439.00000000000006</ele><time>2026-04-06T08:19:38.654Z</time></trkpt><trkpt lat="43.106381" lon="12.2147395"><ele>439.0</ele><time>2026-04-06T08:19:41.66Z</time></trkpt><trkpt lat="43.1064484" lon="12.2147426"><ele>439.0</ele><time>2026-04-06T08:19:43.657Z</time></trkpt><trkpt lat="43.1065471" lon="12.2148242"><ele>439.0</ele><time>2026-04-06T08:19:45.66Z</time></trkpt><trkpt lat="43.1066053" lon="12.2148674"><ele>439.00000000000006</ele><time>2026-04-06T08:19:46.656Z</time></trkpt><trkpt lat="43.10667" lon="12.2149044"><ele>439.0</ele><time>2026-04-06T08:19:47.658Z</time></trkpt><trkpt lat="43.1067371" lon="12.2149368"><ele>438.00000000000006</ele><time>2026-04-06T08:19:48.655Z</time></trkpt><trkpt lat="43.1068001" lon="12.2149399"><ele>437.0</ele><time>2026-04-06T08:19:49.657Z</time></trkpt><trkpt lat="43.1068747" lon="12.2149408"><ele>436.0</ele><time>2026-04-06T08:19:50.658Z</time></trkpt><trkpt lat="43.1069509" lon="12.2149316"><ele>435.0</ele><time>2026-04-06T08:19:51.65Z</time></trkpt><trkpt lat="43.1070442" lon="12.2149224"><ele>434.00000000000006</ele><time>2026-04-06T08:19:52.65Z</time></trkpt><trkpt lat="43.1071253" lon="12.2149259"><ele>433.0</ele><time>2026-04-06T08:19:53.658Z</time></trkpt><trkpt lat="43.1071945" lon="12.2149523"><ele>433.00000000000006</ele><time>2026-04-06T08:19:54.653Z</time></trkpt><trkpt lat="43.1072627" lon="12.2149951"><ele>433.0</ele><time>2026-04-06T08:19:55.652Z</time></trkpt><trkpt lat="43.1073321" lon="12.2150299"><ele>433.0</ele><time>2026-04-06T08:19:56.655Z</time></trkpt><trkpt lat="43.107421" lon="12.2150874"><ele>433.0</ele><time>2026-04-06T08:19:58.651Z</time></trkpt><trkpt lat="43.107473" lon="12.2150178"><ele>433.00000000000006</ele><time>2026-04-06T08:20:01.653Z</time></trkpt><trkpt lat="43.1074245" lon="12.2149235"><ele>433.0</ele><time>2026-04-06T08:20:03.654Z</time></trkpt><trkpt lat="43.1073372" lon="12.2148321"><ele>430.83333333333337</ele><time>2026-04-06T08:20:05.652Z</time></trkpt><trkpt lat="43.1072876" lon="12.2147685"><ele>428.6666666666667</ele><time>2026-04-06T08:20:06.656Z</time></trkpt><trkpt lat="43.1072452" lon="12.2147024"><ele>426.5</ele><time>2026-04-06T08:20:07.655Z</time></trkpt><trkpt lat="43.1072098" lon="12.2146105"><ele>424.33333333333337</ele><time>2026-04-06T08:20:08.653Z</time></trkpt><trkpt lat="43.1071788" lon="12.2145045"><ele>422.1666666666667</ele><time>2026-04-06T08:20:09.653Z</time></trkpt><trkpt lat="43.1071478" lon="12.2143897"><ele>420.0</ele><time>2026-04-06T08:20:10.662Z</time></trkpt><trkpt lat="43.1071274" lon="12.2142646"><ele>420.0</ele><time>2026-04-06T08:20:11.672Z</time></trkpt><trkpt lat="43.1071099" lon="12.2141485"><ele>420.0</ele><time>2026-04-06T08:20:12.676Z</time></trkpt><trkpt lat="43.1071026" lon="12.2140294"><ele>420.0</ele><time>2026-04-06T08:20:13.665Z</time></trkpt><trkpt lat="43.1070982" lon="12.2139122"><ele>420.0</ele><time>2026-04-06T08:20:14.656Z</time></trkpt><trkpt lat="43.1070792" lon="12.213804"><ele>420.0</ele><time>2026-04-06T08:20:15.749Z</time></trkpt><trkpt lat="43.1070558" lon="12.2136926"><ele>420.0</ele><time>2026-04-06T08:20:16.664Z</time></trkpt><trkpt lat="43.1070442" lon="12.2135818"><ele>417.6666666666667</ele><time>2026-04-06T08:20:17.673Z</time></trkpt><trkpt lat="43.1070417" lon="12.2134588"><ele>415.33333333333337</ele><time>2026-04-06T08:20:18.662Z</time></trkpt><trkpt lat="43.1070521" lon="12.2133335"><ele>413.0</ele><time>2026-04-06T08:20:19.67Z</time></trkpt><trkpt lat="43.1070631" lon="12.2132125"><ele>410.6666666666667</ele><time>2026-04-06T08:20:20.659Z</time></trkpt><trkpt lat="43.1070755" lon="12.2131014"><ele>408.33333333333337</ele><time>2026-04-06T08:20:21.675Z</time></trkpt><trkpt lat="43.1070982" lon="12.2129878"><ele>406.0</ele><time>2026-04-06T08:20:22.656Z</time></trkpt><trkpt lat="43.1071268" lon="12.2128683"><ele>403.20000000000005</ele><time>2026-04-06T08:20:23.664Z</time></trkpt><trkpt lat="43.107167" lon="12.2127625"><ele>400.40000000000003</ele><time>2026-04-06T08:20:24.658Z</time></trkpt><trkpt lat="43.1072324" lon="12.2126863"><ele>397.6</ele><time>2026-04-06T08:20:25.651Z</time></trkpt><trkpt lat="43.1072969" lon="12.2126095"><ele>394.8</ele><time>2026-04-06T08:20:26.656Z</time></trkpt><trkpt lat="43.1073823" lon="12.2125036"><ele>392.0</ele><time>2026-04-06T08:20:28.655Z</time></trkpt><trkpt lat="43.1074415" lon="12.2124327"><ele>391.99999999999994</ele><time>2026-04-06T08:20:30.667Z</time></trkpt><trkpt lat="43.1074939" lon="12.2123697"><ele>392.0</ele><time>2026-04-06T08:20:32.654Z</time></trkpt><trkpt lat="43.1075394" lon="12.212307"><ele>392.0</ele><time>2026-04-06T08:20:34.683Z</time></trkpt><trkpt lat="43.1075939" lon="12.2122421"><ele>392.0</ele><time>2026-04-06T08:20:36.654Z</time></trkpt><trkpt lat="43.1076584" lon="12.2121897"><ele>391.99999999999994</ele><time>2026-04-06T08:20:38.663Z</time></trkpt><trkpt lat="43.1077425" lon="12.2121384"><ele>392.0</ele><time>2026-04-06T08:20:40.653Z</time></trkpt><trkpt lat="43.1078503" lon="12.2120493"><ele>390.8333333333333</ele><time>2026-04-06T08:20:42.654Z</time></trkpt><trkpt lat="43.1079084" lon="12.2120117"><ele>389.66666666666663</ele><time>2026-04-06T08:20:43.665Z</time></trkpt><trkpt lat="43.1079614" lon="12.2119632"><ele>388.5</ele><time>2026-04-06T08:20:44.652Z</time></trkpt><trkpt lat="43.1080153" lon="12.2119118"><ele>387.33333333333337</ele><time>2026-04-06T08:20:45.677Z</time></trkpt><trkpt lat="43.1081042" lon="12.2118112"><ele>386.1666666666667</ele><time>2026-04-06T08:20:47.652Z</time></trkpt><trkpt lat="43.108196" lon="12.2117151"><ele>385.0</ele><time>2026-04-06T08:20:49.66Z</time></trkpt><trkpt lat="43.1083147" lon="12.2116409"><ele>383.83333333333337</ele><time>2026-04-06T08:20:51.651Z</time></trkpt><trkpt lat="43.1083909" lon="12.2116154"><ele>382.6666666666667</ele><time>2026-04-06T08:20:52.661Z</time></trkpt><trkpt lat="43.10847" lon="12.2115988"><ele>381.5</ele><time>2026-04-06T08:20:53.662Z</time></trkpt><trkpt lat="43.1085513" lon="12.2115938"><ele>380.33333333333337</ele><time>2026-04-06T08:20:54.651Z</time></trkpt><trkpt lat="43.1086279" lon="12.2115897"><ele>379.1666666666667</ele><time>2026-04-06T08:20:55.657Z</time></trkpt><trkpt lat="43.108699" lon="12.2115865"><ele>378.0</ele><time>2026-04-06T08:20:56.657Z</time></trkpt><trkpt lat="43.1087666" lon="12.2115874"><ele>378.0</ele><time>2026-04-06T08:20:57.661Z</time></trkpt><trkpt lat="43.1088306" lon="12.211602"><ele>378.0</ele><time>2026-04-06T08:20:58.658Z</time></trkpt><trkpt lat="43.1088932" lon="12.2116215"><ele>378.0</ele><time>2026-04-06T08:20:59.662Z</time></trkpt><trkpt lat="43.1089941" lon="12.2116866"><ele>378.0</ele><time>2026-04-06T08:21:01.648Z</time></trkpt><trkpt lat="43.1090897" lon="12.2117585"><ele>378.0</ele><time>2026-04-06T08:21:03.653Z</time></trkpt><trkpt lat="43.109173" lon="12.2118393"><ele>375.79999999999995</ele><time>2026-04-06T08:21:05.657Z</time></trkpt><trkpt lat="43.1092484" lon="12.2119138"><ele>373.6</ele><time>2026-04-06T08:21:07.653Z</time></trkpt><trkpt lat="43.1093327" lon="12.2119486"><ele>371.4</ele><time>2026-04-06T08:21:09.651Z</time></trkpt><trkpt lat="43.1094021" lon="12.2119418"><ele>369.20000000000005</ele><time>2026-04-06T08:21:11.655Z</time></trkpt><trkpt lat="43.1094808" lon="12.2118839"><ele>367.0</ele><time>2026-04-06T08:21:13.657Z</time></trkpt><trkpt lat="43.1095782" lon="12.2117621"><ele>367.0</ele><time>2026-04-06T08:21:15.653Z</time></trkpt><trkpt lat="43.109677" lon="12.2116441"><ele>367.0</ele><time>2026-04-06T08:21:17.656Z</time></trkpt><trkpt lat="43.1097277" lon="12.2115833"><ele>367.0</ele><time>2026-04-06T08:21:18.659Z</time></trkpt><trkpt lat="43.1098093" lon="12.2114742"><ele>367.0</ele><time>2026-04-06T08:21:20.655Z</time></trkpt><trkpt lat="43.1098868" lon="12.2113695"><ele>367.0</ele><time>2026-04-06T08:21:22.652Z</time></trkpt><trkpt lat="43.1099346" lon="12.2112337"><ele>363.4285714285714</ele><time>2026-04-06T08:21:24.658Z</time></trkpt><trkpt lat="43.1099516" lon="12.2111354"><ele>359.8571428571429</ele><time>2026-04-06T08:21:25.661Z</time></trkpt><trkpt lat="43.1099555" lon="12.2110396"><ele>356.2857142857143</ele><time>2026-04-06T08:21:26.653Z</time></trkpt><trkpt lat="43.1099683" lon="12.2109484"><ele>352.71428571428567</ele><time>2026-04-06T08:21:27.665Z</time></trkpt><trkpt lat="43.1099892" lon="12.2108571"><ele>349.1428571428571</ele><time>2026-04-06T08:21:28.652Z</time></trkpt><trkpt lat="43.1100309" lon="12.2107588"><ele>345.57142857142856</ele><time>2026-04-06T08:21:29.661Z</time></trkpt><trkpt lat="43.110077" lon="12.2106618"><ele>342.0</ele><time>2026-04-06T08:21:30.655Z</time></trkpt><trkpt lat="43.1101167" lon="12.2105642"><ele>340.1666666666667</ele><time>2026-04-06T08:21:31.668Z</time></trkpt><trkpt lat="43.1101609" lon="12.210474"><ele>338.3333333333333</ele><time>2026-04-06T08:21:32.653Z</time></trkpt><trkpt lat="43.1102155" lon="12.210394"><ele>336.5</ele><time>2026-04-06T08:21:33.663Z</time></trkpt><trkpt lat="43.1103014" lon="12.2102781"><ele>334.66666666666663</ele><time>2026-04-06T08:21:35.667Z</time></trkpt><trkpt lat="43.1103582" lon="12.210238"><ele>332.8333333333333</ele><time>2026-04-06T08:21:36.656Z</time></trkpt><trkpt lat="43.1104176" lon="12.2102069"><ele>331.0</ele><time>2026-04-06T08:21:37.662Z</time></trkpt><trkpt lat="43.1105123" lon="12.2101331"><ele>331.0</ele><time>2026-04-06T08:21:39.662Z</time></trkpt><trkpt lat="43.1106072" lon="12.2100569"><ele>331.0</ele><time>2026-04-06T08:21:41.668Z</time></trkpt><trkpt lat="43.1106899" lon="12.2099647"><ele>331.0</ele><time>2026-04-06T08:21:43.755Z</time></trkpt><trkpt lat="43.1107577" lon="12.2098831"><ele>331.0</ele><time>2026-04-06T08:21:45.677Z</time></trkpt><trkpt lat="43.1108383" lon="12.2097814"><ele>331.0</ele><time>2026-04-06T08:21:47.674Z</time></trkpt><trkpt lat="43.1109168" lon="12.2096783"><ele>328.40000000000003</ele><time>2026-04-06T08:21:49.679Z</time></trkpt><trkpt lat="43.1109917" lon="12.2095644"><ele>325.8</ele><time>2026-04-06T08:21:51.69Z</time></trkpt><trkpt lat="43.1110406" lon="12.2094397"><ele>323.20000000000005</ele><time>2026-04-06T08:21:53.665Z</time></trkpt><trkpt lat="43.1110402" lon="12.2093062"><ele>320.6</ele><time>2026-04-06T08:21:55.654Z</time></trkpt><trkpt lat="43.1110307" lon="12.2091993"><ele>318.0</ele><time>2026-04-06T08:21:57.686Z</time></trkpt><trkpt lat="43.1110791" lon="12.2090819"><ele>315.8333333333333</ele><time>2026-04-06T08:22:00.679Z</time></trkpt><trkpt lat="43.111153" lon="12.2089699"><ele>313.6666666666667</ele><time>2026-04-06T08:22:02.676Z</time></trkpt><trkpt lat="43.1111957" lon="12.2088947"><ele>311.5</ele><time>2026-04-06T08:22:03.66Z</time></trkpt><trkpt lat="43.1112464" lon="12.2088197"><ele>309.33333333333337</ele><time>2026-04-06T08:22:04.681Z</time></trkpt><trkpt lat="43.1112867" lon="12.208739"><ele>307.1666666666667</ele><time>2026-04-06T08:22:05.664Z</time></trkpt><trkpt lat="43.1113242" lon="12.2086576"><ele>305.0</ele><time>2026-04-06T08:22:06.679Z</time></trkpt><trkpt lat="43.1113576" lon="12.2085724"><ele>305.0</ele><time>2026-04-06T08:22:07.671Z</time></trkpt><trkpt lat="43.1113971" lon="12.2084978"><ele>305.0</ele><time>2026-04-06T08:22:08.68Z</time></trkpt><trkpt lat="43.1114722" lon="12.2083668"><ele>305.0</ele><time>2026-04-06T08:22:10.671Z</time></trkpt><trkpt lat="43.1115815" lon="12.2082752"><ele>305.0</ele><time>2026-04-06T08:22:12.681Z</time></trkpt><trkpt lat="43.1116448" lon="12.2082302"><ele>305.0</ele><time>2026-04-06T08:22:13.757Z</time></trkpt><trkpt lat="43.111706" lon="12.2081911"><ele>302.42857142857144</ele><time>2026-04-06T08:22:14.659Z</time></trkpt><trkpt lat="43.1117742" lon="12.2081589"><ele>299.85714285714283</ele><time>2026-04-06T08:22:15.677Z</time></trkpt><trkpt lat="43.1118464" lon="12.208117"><ele>297.2857142857143</ele><time>2026-04-06T08:22:16.68Z</time></trkpt><trkpt lat="43.111912" lon="12.2080746"><ele>294.7142857142857</ele><time>2026-04-06T08:22:17.678Z</time></trkpt><trkpt lat="43.111976" lon="12.2080369"><ele>292.1428571428571</ele><time>2026-04-06T08:22:18.664Z</time></trkpt><trkpt lat="43.1120418" lon="12.2079907"><ele>289.57142857142856</ele><time>2026-04-06T08:22:19.665Z</time></trkpt><trkpt lat="43.112103" lon="12.2079429"><ele>287.0</ele><time>2026-04-06T08:22:20.674Z</time></trkpt><trkpt lat="43.1121637" lon="12.2079028"><ele>287.0</ele><time>2026-04-06T08:22:21.676Z</time></trkpt><trkpt lat="43.112229" lon="12.2078701"><ele>287.0</ele><time>2026-04-06T08:22:22.675Z</time></trkpt><trkpt lat="43.1122896" lon="12.2078447"><ele>287.0</ele><time>2026-04-06T08:22:23.66Z</time></trkpt><trkpt lat="43.1123528" lon="12.2078221"><ele>287.0</ele><time>2026-04-06T08:22:24.679Z</time></trkpt><trkpt lat="43.1124748" lon="12.2077542"><ele>287.0</ele><time>2026-04-06T08:22:26.678Z</time></trkpt><trkpt lat="43.1125382" lon="12.2077189"><ele>287.0</ele><time>2026-04-06T08:22:27.676Z</time></trkpt><trkpt lat="43.1126039" lon="12.2076783"><ele>286.1666666666667</ele><time>2026-04-06T08:22:28.666Z</time></trkpt><trkpt lat="43.1126676" lon="12.2076442"><ele>285.33333333333337</ele><time>2026-04-06T08:22:29.676Z</time></trkpt><trkpt lat="43.1127381" lon="12.2076018"><ele>284.5</ele><time>2026-04-06T08:22:30.668Z</time></trkpt><trkpt lat="43.1128139" lon="12.2075519"><ele>283.6666666666667</ele><time>2026-04-06T08:22:31.674Z</time></trkpt><trkpt lat="43.1128822" lon="12.2075041"><ele>282.8333333333333</ele><time>2026-04-06T08:22:32.67Z</time></trkpt><trkpt lat="43.1129558" lon="12.2074617"><ele>282.0</ele><time>2026-04-06T08:22:33.667Z</time></trkpt><trkpt lat="43.1130286" lon="12.2074252"><ele>282.0</ele><time>2026-04-06T08:22:34.671Z</time></trkpt><trkpt lat="43.1131041" lon="12.2073835"><ele>282.0</ele><time>2026-04-06T08:22:35.676Z</time></trkpt><trkpt lat="43.1131824" lon="12.2073494"><ele>282.0</ele><time>2026-04-06T08:22:36.672Z</time></trkpt><trkpt lat="43.1132615" lon="12.2073146"><ele>282.0</ele><time>2026-04-06T08:22:37.759Z</time></trkpt><trkpt lat="43.1133422" lon="12.2072739"><ele>282.0</ele><time>2026-04-06T08:22:38.664Z</time></trkpt><trkpt lat="43.1134288" lon="12.2072327"><ele>282.0</ele><time>2026-04-06T08:22:39.678Z</time></trkpt><trkpt lat="43.1135185" lon="12.2071957"><ele>279.6666666666667</ele><time>2026-04-06T08:22:40.677Z</time></trkpt><trkpt lat="43.1136031" lon="12.2071598"><ele>277.3333333333333</ele><time>2026-04-06T08:22:41.673Z</time></trkpt><trkpt lat="43.1136819" lon="12.2071175"><ele>275.0</ele><time>2026-04-06T08:22:42.677Z</time></trkpt><trkpt lat="43.1137634" lon="12.2070797"><ele>272.66666666666663</ele><time>2026-04-06T08:22:43.756Z</time></trkpt><trkpt lat="43.1138399" lon="12.2070539"><ele>270.3333333333333</ele><time>2026-04-06T08:22:44.683Z</time></trkpt><trkpt lat="43.1139186" lon="12.2070165"><ele>268.0</ele><time>2026-04-06T08:22:45.672Z</time></trkpt><trkpt lat="43.1139963" lon="12.2069814"><ele>267.0</ele><time>2026-04-06T08:22:46.674Z</time></trkpt><trkpt lat="43.1140722" lon="12.2069503"><ele>266.0</ele><time>2026-04-06T08:22:47.677Z</time></trkpt><trkpt lat="43.1141459" lon="12.2069173"><ele>265.0</ele><time>2026-04-06T08:22:48.667Z</time></trkpt><trkpt lat="43.1142205" lon="12.2068863"><ele>264.0</ele><time>2026-04-06T08:22:49.672Z</time></trkpt><trkpt lat="43.1142903" lon="12.2068639"><ele>263.0</ele><time>2026-04-06T08:22:50.675Z</time></trkpt><trkpt lat="43.1143561" lon="12.206836"><ele>262.0</ele><time>2026-04-06T08:22:51.671Z</time></trkpt><trkpt lat="43.114428" lon="12.2068081"><ele>262.0</ele><time>2026-04-06T08:22:52.678Z</time></trkpt><trkpt lat="43.1145033" lon="12.2067738"><ele>262.0</ele><time>2026-04-06T08:22:53.655Z</time></trkpt><trkpt lat="43.1145791" lon="12.2067398"><ele>262.0</ele><time>2026-04-06T08:22:54.668Z</time></trkpt><trkpt lat="43.1146599" lon="12.2067093"><ele>262.0</ele><time>2026-04-06T08:22:55.763Z</time></trkpt><trkpt lat="43.1147408" lon="12.2066802"><ele>262.0</ele><time>2026-04-06T08:22:56.678Z</time></trkpt><trkpt lat="43.1148245" lon="12.2066403"><ele>262.0</ele><time>2026-04-06T08:22:57.675Z</time></trkpt><trkpt lat="43.1149077" lon="12.2066015"><ele>261.0</ele><time>2026-04-06T08:22:58.667Z</time></trkpt><trkpt lat="43.1149925" lon="12.2065636"><ele>260.0</ele><time>2026-04-06T08:22:59.67Z</time></trkpt><trkpt lat="43.1150808" lon="12.2065253"><ele>259.0</ele><time>2026-04-06T08:23:00.672Z</time></trkpt><trkpt lat="43.1151643" lon="12.2064849"><ele>258.0</ele><time>2026-04-06T08:23:01.678Z</time></trkpt><trkpt lat="43.1152416" lon="12.2064467"><ele>257.0</ele><time>2026-04-06T08:23:02.678Z</time></trkpt><trkpt lat="43.1153225" lon="12.2064159"><ele>256.0</ele><time>2026-04-06T08:23:03.664Z</time></trkpt><trkpt lat="43.1154054" lon="12.2063702"><ele>255.49999999999997</ele><time>2026-04-06T08:23:04.672Z</time></trkpt><trkpt lat="43.1154878" lon="12.2063334"><ele>255.0</ele><time>2026-04-06T08:23:05.676Z</time></trkpt><trkpt lat="43.115566" lon="12.2062913"><ele>254.5</ele><time>2026-04-06T08:23:06.666Z</time></trkpt><trkpt lat="43.1156418" lon="12.2062623"><ele>254.0</ele><time>2026-04-06T08:23:07.682Z</time></trkpt><trkpt lat="43.1157248" lon="12.2062301"><ele>253.49999999999997</ele><time>2026-04-06T08:23:08.665Z</time></trkpt><trkpt lat="43.1157988" lon="12.2062055"><ele>253.0</ele><time>2026-04-06T08:23:09.674Z</time></trkpt><trkpt lat="43.1158719" lon="12.2061805"><ele>252.42857142857144</ele><time>2026-04-06T08:23:10.678Z</time></trkpt><trkpt lat="43.1159435" lon="12.2061521"><ele>251.85714285714286</ele><time>2026-04-06T08:23:11.688Z</time></trkpt><trkpt lat="43.1160091" lon="12.2061102"><ele>251.28571428571428</ele><time>2026-04-06T08:23:12.679Z</time></trkpt><trkpt lat="43.1160748" lon="12.2060559"><ele>250.71428571428572</ele><time>2026-04-06T08:23:13.672Z</time></trkpt><trkpt lat="43.1161328" lon="12.2060022"><ele>250.1428571428571</ele><time>2026-04-06T08:23:14.672Z</time></trkpt><trkpt lat="43.1161866" lon="12.2059455"><ele>249.57142857142856</ele><time>2026-04-06T08:23:15.671Z</time></trkpt><trkpt lat="43.1162457" lon="12.2058799"><ele>249.0</ele><time>2026-04-06T08:23:16.679Z</time></trkpt><trkpt lat="43.1162952" lon="12.20582"><ele>249.0</ele><time>2026-04-06T08:23:17.665Z</time></trkpt><trkpt lat="43.1163494" lon="12.2057617"><ele>248.99999999999997</ele><time>2026-04-06T08:23:18.661Z</time></trkpt><trkpt lat="43.1164017" lon="12.2056966"><ele>249.0</ele><time>2026-04-06T08:23:19.66Z</time></trkpt><trkpt lat="43.1164517" lon="12.2056366"><ele>249.0</ele><time>2026-04-06T08:23:20.662Z</time></trkpt><trkpt lat="43.116506" lon="12.2055772"><ele>248.99999999999997</ele><time>2026-04-06T08:23:21.653Z</time></trkpt><trkpt lat="43.1165554" lon="12.2055222"><ele>249.0</ele><time>2026-04-06T08:23:22.657Z</time></trkpt><trkpt lat="43.116605" lon="12.2054686"><ele>249.0</ele><time>2026-04-06T08:23:23.748Z</time></trkpt><trkpt lat="43.1166968" lon="12.2053569"><ele>249.0</ele><time>2026-04-06T08:23:25.655Z</time></trkpt><trkpt lat="43.1167805" lon="12.2052583"><ele>248.99999999999997</ele><time>2026-04-06T08:23:27.658Z</time></trkpt><trkpt lat="43.1168645" lon="12.2051612"><ele>248.99999999999997</ele><time>2026-04-06T08:23:29.67Z</time></trkpt><trkpt lat="43.1169256" lon="12.2050503"><ele>249.0</ele><time>2026-04-06T08:23:31.661Z</time></trkpt><trkpt lat="43.1169699" lon="12.2049355"><ele>249.0</ele><time>2026-04-06T08:23:33.664Z</time></trkpt><trkpt lat="43.1170064" lon="12.2048197"><ele>248.39999999999998</ele><time>2026-04-06T08:23:35.771Z</time></trkpt><trkpt lat="43.1170536" lon="12.2047222"><ele>247.79999999999998</ele><time>2026-04-06T08:23:37.678Z</time></trkpt><trkpt lat="43.1171536" lon="12.2046643"><ele>247.20000000000002</ele><time>2026-04-06T08:23:39.668Z</time></trkpt><trkpt lat="43.1172477" lon="12.2045835"><ele>246.60000000000002</ele><time>2026-04-06T08:23:41.764Z</time></trkpt><trkpt lat="43.1173303" lon="12.2045034"><ele>246.0</ele><time>2026-04-06T08:23:43.685Z</time></trkpt><trkpt lat="43.1174145" lon="12.2044145"><ele>245.66666666666666</ele><time>2026-04-06T08:23:45.663Z</time></trkpt><trkpt lat="43.1174832" lon="12.2043162"><ele>245.33333333333331</ele><time>2026-04-06T08:23:47.675Z</time></trkpt><trkpt lat="43.1175405" lon="12.2042249"><ele>245.0</ele><time>2026-04-06T08:23:49.653Z</time></trkpt><trkpt lat="43.1175772" lon="12.2041177"><ele>244.66666666666666</ele><time>2026-04-06T08:23:51.653Z</time></trkpt><trkpt lat="43.1176023" lon="12.2040072"><ele>244.33333333333331</ele><time>2026-04-06T08:23:53.661Z</time></trkpt><trkpt lat="43.1176325" lon="12.2038993"><ele>244.0</ele><time>2026-04-06T08:23:55.656Z</time></trkpt><trkpt lat="43.1176666" lon="12.2037938"><ele>244.0</ele><time>2026-04-06T08:23:57.654Z</time></trkpt><trkpt lat="43.1177081" lon="12.2036865"><ele>243.99999999999997</ele><time>2026-04-06T08:23:59.675Z</time></trkpt><trkpt lat="43.11776" lon="12.203588"><ele>243.99999999999997</ele><time>2026-04-06T08:24:01.675Z</time></trkpt><trkpt lat="43.1178296" lon="12.203507"><ele>244.0</ele><time>2026-04-06T08:24:03.679Z</time></trkpt><trkpt lat="43.1179069" lon="12.2034498"><ele>244.0</ele><time>2026-04-06T08:24:05.67Z</time></trkpt><trkpt lat="43.1180035" lon="12.2034072"><ele>244.0</ele><time>2026-04-06T08:24:07.675Z</time></trkpt><trkpt lat="43.1180935" lon="12.203376"><ele>243.99999999999997</ele><time>2026-04-06T08:24:09.674Z</time></trkpt><trkpt lat="43.1181875" lon="12.2033397"><ele>243.99999999999997</ele><time>2026-04-06T08:24:11.667Z</time></trkpt><trkpt lat="43.1182706" lon="12.2033034"><ele>244.0</ele><time>2026-04-06T08:24:13.678Z</time></trkpt><trkpt lat="43.1183447" lon="12.203238"><ele>244.0</ele><time>2026-04-06T08:24:15.662Z</time></trkpt><trkpt lat="43.1183798" lon="12.2031326"><ele>243.66666666666666</ele><time>2026-04-06T08:24:17.672Z</time></trkpt><trkpt lat="43.1183949" lon="12.2030103"><ele>243.33333333333331</ele><time>2026-04-06T08:24:19.679Z</time></trkpt><trkpt lat="43.1183919" lon="12.2028917"><ele>243.0</ele><time>2026-04-06T08:24:21.675Z</time></trkpt><trkpt lat="43.1183819" lon="12.2027807"><ele>242.66666666666669</ele><time>2026-04-06T08:24:23.685Z</time></trkpt><trkpt lat="43.1183757" lon="12.2026646"><ele>242.33333333333334</ele><time>2026-04-06T08:24:25.661Z</time></trkpt><trkpt lat="43.1183783" lon="12.2025466"><ele>242.0</ele><time>2026-04-06T08:24:27.676Z</time></trkpt><trkpt lat="43.1183788" lon="12.2024285"><ele>242.00000000000003</ele><time>2026-04-06T08:24:29.673Z</time></trkpt><trkpt lat="43.118378" lon="12.2023088"><ele>242.0</ele><time>2026-04-06T08:24:31.674Z</time></trkpt><trkpt lat="43.1183728" lon="12.2021884"><ele>242.0</ele><time>2026-04-06T08:24:33.678Z</time></trkpt><trkpt lat="43.1183672" lon="12.2020719"><ele>242.0</ele><time>2026-04-06T08:24:35.673Z</time></trkpt><trkpt lat="43.1183673" lon="12.2019584"><ele>242.00000000000003</ele><time>2026-04-06T08:24:37.673Z</time></trkpt><trkpt lat="43.1183719" lon="12.2018351"><ele>242.0</ele><time>2026-04-06T08:24:39.669Z</time></trkpt><trkpt lat="43.11837" lon="12.2017142"><ele>242.00000000000003</ele><time>2026-04-06T08:24:41.678Z</time></trkpt><trkpt lat="43.1183661" lon="12.2015882"><ele>242.0</ele><time>2026-04-06T08:24:43.676Z</time></trkpt><trkpt lat="43.1183625" lon="12.2014659"><ele>242.0</ele><time>2026-04-06T08:24:45.671Z</time></trkpt><trkpt lat="43.1183585" lon="12.2013445"><ele>242.0</ele><time>2026-04-06T08:24:47.666Z</time></trkpt><trkpt lat="43.1183598" lon="12.2012229"><ele>242.00000000000003</ele><time>2026-04-06T08:24:49.674Z</time></trkpt><trkpt lat="43.1183583" lon="12.2011086"><ele>242.0</ele><time>2026-04-06T08:24:51.673Z</time></trkpt><trkpt lat="43.1183583" lon="12.2009995"><ele>242.14285714285714</ele><time>2026-04-06T08:24:53.675Z</time></trkpt><trkpt lat="43.1183568" lon="12.2009097"><ele>242.28571428571428</ele><time>2026-04-06T08:24:55.668Z</time></trkpt><trkpt lat="43.1183361" lon="12.2008196"><ele>242.42857142857142</ele><time>2026-04-06T08:24:58.661Z</time></trkpt><trkpt lat="43.1183025" lon="12.2007444"><ele>242.57142857142856</ele><time>2026-04-06T08:25:02.669Z</time></trkpt><trkpt lat="43.1182398" lon="12.2006898"><ele>242.71428571428572</ele><time>2026-04-06T08:25:06.682Z</time></trkpt><trkpt lat="43.1181934" lon="12.2006061"><ele>242.85714285714283</ele><time>2026-04-06T08:25:09.677Z</time></trkpt><trkpt lat="43.1181513" lon="12.2004975"><ele>243.0</ele><time>2026-04-06T08:25:12.677Z</time></trkpt><trkpt lat="43.1181299" lon="12.2003788"><ele>243.66666666666666</ele><time>2026-04-06T08:25:15.669Z</time></trkpt><trkpt lat="43.11812" lon="12.2002932"><ele>244.33333333333331</ele><time>2026-04-06T08:25:17.664Z</time></trkpt><trkpt lat="43.1181084" lon="12.2001669"><ele>245.0</ele><time>2026-04-06T08:25:20.654Z</time></trkpt><trkpt lat="43.1180963" lon="12.2000461"><ele>245.66666666666666</ele><time>2026-04-06T08:25:23.678Z</time></trkpt><trkpt lat="43.118083" lon="12.1999216"><ele>246.33333333333331</ele><time>2026-04-06T08:25:26.671Z</time></trkpt><trkpt lat="43.1180762" lon="12.1998053"><ele>247.0</ele><time>2026-04-06T08:25:29.672Z</time></trkpt><trkpt lat="43.1180665" lon="12.1996861"><ele>247.83333333333331</ele><time>2026-04-06T08:25:32.657Z</time></trkpt><trkpt lat="43.1180537" lon="12.1995604"><ele>248.66666666666666</ele><time>2026-04-06T08:25:35.654Z</time></trkpt><trkpt lat="43.118047" lon="12.1994734"><ele>249.5</ele><time>2026-04-06T08:25:37.653Z</time></trkpt><trkpt lat="43.1180355" lon="12.1993465"><ele>250.33333333333331</ele><time>2026-04-06T08:25:40.651Z</time></trkpt><trkpt lat="43.1180244" lon="12.199217"><ele>251.16666666666666</ele><time>2026-04-06T08:25:43.66Z</time></trkpt><trkpt lat="43.1180083" lon="12.1990992"><ele>252.0</ele><time>2026-04-06T08:25:46.657Z</time></trkpt><trkpt lat="43.1179791" lon="12.1989918"><ele>252.85714285714286</ele><time>2026-04-06T08:25:49.654Z</time></trkpt><trkpt lat="43.1179635" lon="12.1989046"><ele>253.71428571428572</ele><time>2026-04-06T08:25:52.655Z</time></trkpt><trkpt lat="43.1179494" lon="12.1988038"><ele>254.57142857142856</ele><time>2026-04-06T08:25:55.652Z</time></trkpt><trkpt lat="43.1179418" lon="12.1987015"><ele>255.42857142857142</ele><time>2026-04-06T08:25:58.653Z</time></trkpt><trkpt lat="43.1179373" lon="12.1986058"><ele>256.2857142857143</ele><time>2026-04-06T08:26:01.654Z</time></trkpt><trkpt lat="43.1179335" lon="12.1985123"><ele>257.1428571428571</ele><time>2026-04-06T08:26:04.655Z</time></trkpt><trkpt lat="43.1179287" lon="12.198424"><ele>258.0</ele><time>2026-04-06T08:26:07.659Z</time></trkpt><trkpt lat="43.1179303" lon="12.1983169"><ele>257.99999999999994</ele><time>2026-04-06T08:26:11.669Z</time></trkpt><trkpt lat="43.1179293" lon="12.1982116"><ele>258.0</ele><time>2026-04-06T08:26:15.672Z</time></trkpt><trkpt lat="43.1179274" lon="12.1981091"><ele>258.0</ele><time>2026-04-06T08:26:19.671Z</time></trkpt><trkpt lat="43.1179226" lon="12.198014"><ele>258.0</ele><time>2026-04-06T08:26:23.659Z</time></trkpt><trkpt lat="43.117914" lon="12.1979173"><ele>258.0</ele><time>2026-04-06T08:26:27.673Z</time></trkpt><trkpt lat="43.117917" lon="12.1978152"><ele>257.99999999999994</ele><time>2026-04-06T08:26:31.652Z</time></trkpt><trkpt lat="43.1179177" lon="12.1977208"><ele>258.0</ele><time>2026-04-06T08:26:35.654Z</time></trkpt><trkpt lat="43.1179157" lon="12.1976255"><ele>259.71428571428567</ele><time>2026-04-06T08:26:39.673Z</time></trkpt><trkpt lat="43.1179103" lon="12.197525"><ele>261.42857142857144</ele><time>2026-04-06T08:26:43.656Z</time></trkpt><trkpt lat="43.1179108" lon="12.1974237"><ele>263.1428571428571</ele><time>2026-04-06T08:26:47.654Z</time></trkpt><trkpt lat="43.1179298" lon="12.197333"><ele>264.85714285714283</ele><time>2026-04-06T08:26:51.659Z</time></trkpt><trkpt lat="43.1179749" lon="12.1972563"><ele>266.57142857142856</ele><time>2026-04-06T08:26:55.656Z</time></trkpt><trkpt lat="43.1180266" lon="12.197175"><ele>268.2857142857143</ele><time>2026-04-06T08:26:59.654Z</time></trkpt><trkpt lat="43.1180736" lon="12.1970924"><ele>270.0</ele><time>2026-04-06T08:27:03.657Z</time></trkpt><trkpt lat="43.1181135" lon="12.196999"><ele>271.8333333333333</ele><time>2026-04-06T08:27:07.654Z</time></trkpt><trkpt lat="43.1181356" lon="12.196902"><ele>273.6666666666667</ele><time>2026-04-06T08:27:11.762Z</time></trkpt><trkpt lat="43.1181432" lon="12.1968048"><ele>275.5</ele><time>2026-04-06T08:27:15.662Z</time></trkpt><trkpt lat="43.1181486" lon="12.1967024"><ele>277.33333333333337</ele><time>2026-04-06T08:27:19.657Z</time></trkpt><trkpt lat="43.1181445" lon="12.1965996"><ele>279.1666666666667</ele><time>2026-04-06T08:27:23.663Z</time></trkpt><trkpt lat="43.1181301" lon="12.1964927"><ele>281.0</ele><time>2026-04-06T08:27:27.674Z</time></trkpt><trkpt lat="43.1180975" lon="12.1963949"><ele>281.5714285714286</ele><time>2026-04-06T08:27:31.657Z</time></trkpt><trkpt lat="43.1180653" lon="12.1963054"><ele>282.14285714285717</ele><time>2026-04-06T08:27:35.674Z</time></trkpt><trkpt lat="43.1180218" lon="12.1962171"><ele>282.7142857142857</ele><time>2026-04-06T08:27:39.665Z</time></trkpt><trkpt lat="43.1179737" lon="12.1961431"><ele>283.28571428571433</ele><time>2026-04-06T08:27:43.679Z</time></trkpt><trkpt lat="43.1179205" lon="12.1960821"><ele>283.8571428571429</ele><time>2026-04-06T08:27:47.675Z</time></trkpt><trkpt lat="43.1178545" lon="12.1960245"><ele>284.42857142857144</ele><time>2026-04-06T08:27:51.671Z</time></trkpt><trkpt lat="43.1177848" lon="12.195988"><ele>285.0</ele><time>2026-04-06T08:27:55.669Z</time></trkpt><trkpt lat="43.117722" lon="12.1959705"><ele>285.0</ele><time>2026-04-06T08:27:59.675Z</time></trkpt><trkpt lat="43.117648" lon="12.1959594"><ele>285.0</ele><time>2026-04-06T08:28:03.771Z</time></trkpt><trkpt lat="43.1175833" lon="12.1959397"><ele>285.0</ele><time>2026-04-06T08:28:07.673Z</time></trkpt><trkpt lat="43.117523" lon="12.1958746"><ele>285.0</ele><time>2026-04-06T08:28:11.667Z</time></trkpt><trkpt lat="43.1174843" lon="12.1958061"><ele>285.0</ele><time>2026-04-06T08:28:14.682Z</time></trkpt><trkpt lat="43.1174359" lon="12.1957176"><ele>285.0</ele><time>2026-04-06T08:28:18.679Z</time></trkpt><trkpt lat="43.1173863" lon="12.1956274"><ele>285.0</ele><time>2026-04-06T08:28:22.67Z</time></trkpt><trkpt lat="43.1173454" lon="12.1955345"><ele>287.5</ele><time>2026-04-06T08:28:26.662Z</time></trkpt><trkpt lat="43.1172982" lon="12.1954452"><ele>290.0</ele><time>2026-04-06T08:28:30.678Z</time></trkpt><trkpt lat="43.1172479" lon="12.1953587"><ele>292.5</ele><time>2026-04-06T08:28:34.671Z</time></trkpt><trkpt lat="43.1172005" lon="12.1952795"><ele>295.0</ele><time>2026-04-06T08:28:38.679Z</time></trkpt><trkpt lat="43.1171595" lon="12.1951944"><ele>297.5</ele><time>2026-04-06T08:28:42.653Z</time></trkpt><trkpt lat="43.1171114" lon="12.1951064"><ele>300.0</ele><time>2026-04-06T08:28:46.682Z</time></trkpt><trkpt lat="43.1170599" lon="12.1950255"><ele>299.99999999999994</ele><time>2026-04-06T08:28:50.673Z</time></trkpt><trkpt lat="43.1170182" lon="12.1949458"><ele>300.0</ele><time>2026-04-06T08:28:54.682Z</time></trkpt><trkpt lat="43.1169655" lon="12.1948774"><ele>300.0</ele><time>2026-04-06T08:28:58.67Z</time></trkpt><trkpt lat="43.1169211" lon="12.194806"><ele>300.0</ele><time>2026-04-06T08:29:02.668Z</time></trkpt><trkpt lat="43.1168829" lon="12.1947221"><ele>300.0</ele><time>2026-04-06T08:29:06.667Z</time></trkpt><trkpt lat="43.1168373" lon="12.1946378"><ele>299.99999999999994</ele><time>2026-04-06T08:29:10.664Z</time></trkpt><trkpt lat="43.1167888" lon="12.1945595"><ele>300.0</ele><time>2026-04-06T08:29:14.666Z</time></trkpt><trkpt lat="43.1167254" lon="12.1945047"><ele>300.57142857142856</ele><time>2026-04-06T08:29:18.676Z</time></trkpt><trkpt lat="43.1166573" lon="12.1944624"><ele>301.1428571428571</ele><time>2026-04-06T08:29:22.669Z</time></trkpt><trkpt lat="43.1166046" lon="12.194404"><ele>301.71428571428567</ele><time>2026-04-06T08:29:26.692Z</time></trkpt><trkpt lat="43.1165595" lon="12.1943187"><ele>302.2857142857143</ele><time>2026-04-06T08:29:30.774Z</time></trkpt><trkpt lat="43.1165093" lon="12.1942345"><ele>302.8571428571429</ele><time>2026-04-06T08:29:34.654Z</time></trkpt><trkpt lat="43.1164626" lon="12.1941533"><ele>303.4285714285714</ele><time>2026-04-06T08:29:38.67Z</time></trkpt><trkpt lat="43.1164217" lon="12.1940799"><ele>304.0</ele><time>2026-04-06T08:29:42.653Z</time></trkpt><trkpt lat="43.1163656" lon="12.1940137"><ele>307.5</ele><time>2026-04-06T08:29:46.653Z</time></trkpt><trkpt lat="43.116296" lon="12.1939661"><ele>311.0</ele><time>2026-04-06T08:29:50.658Z</time></trkpt><trkpt lat="43.1162209" lon="12.1939568"><ele>314.5</ele><time>2026-04-06T08:29:54.653Z</time></trkpt><trkpt lat="43.1161411" lon="12.1939641"><ele>318.0</ele><time>2026-04-06T08:29:58.658Z</time></trkpt><trkpt lat="43.116071" lon="12.1939526"><ele>321.5</ele><time>2026-04-06T08:30:02.658Z</time></trkpt><trkpt lat="43.1159919" lon="12.1939215"><ele>325.0</ele><time>2026-04-06T08:30:06.657Z</time></trkpt><trkpt lat="43.1159275" lon="12.1938626"><ele>325.0</ele><time>2026-04-06T08:30:10.672Z</time></trkpt><trkpt lat="43.1158806" lon="12.1937813"><ele>325.0</ele><time>2026-04-06T08:30:14.665Z</time></trkpt><trkpt lat="43.1158316" lon="12.1936905"><ele>325.0</ele><time>2026-04-06T08:30:18.679Z</time></trkpt><trkpt lat="43.115774" lon="12.1936145"><ele>325.0</ele><time>2026-04-06T08:30:22.67Z</time></trkpt><trkpt lat="43.115711" lon="12.1935525"><ele>325.0</ele><time>2026-04-06T08:30:26.652Z</time></trkpt><trkpt lat="43.115653" lon="12.1935105"><ele>325.0</ele><time>2026-04-06T08:30:30.649Z</time></trkpt><trkpt lat="43.1155831" lon="12.1934743"><ele>327.0</ele><time>2026-04-06T08:30:35.681Z</time></trkpt><trkpt lat="43.115524" lon="12.1934421"><ele>329.0</ele><time>2026-04-06T08:30:39.678Z</time></trkpt><trkpt lat="43.1154597" lon="12.1934038"><ele>331.0</ele><time>2026-04-06T08:30:43.671Z</time></trkpt><trkpt lat="43.1153964" lon="12.1933708"><ele>333.0</ele><time>2026-04-06T08:30:47.67Z</time></trkpt><trkpt lat="43.1153263" lon="12.1933307"><ele>335.0</ele><time>2026-04-06T08:30:51.662Z</time></trkpt><trkpt lat="43.1152562" lon="12.193278"><ele>337.0</ele><time>2026-04-06T08:30:55.671Z</time></trkpt><trkpt lat="43.1151792" lon="12.1932399"><ele>339.0</ele><time>2026-04-06T08:30:59.679Z</time></trkpt><trkpt lat="43.1151025" lon="12.1932204"><ele>339.0</ele><time>2026-04-06T08:31:03.68Z</time></trkpt><trkpt lat="43.1150361" lon="12.1931848"><ele>339.0</ele><time>2026-04-06T08:31:08.671Z</time></trkpt><trkpt lat="43.1150141" lon="12.1930886"><ele>339.0</ele><time>2026-04-06T08:31:13.672Z</time></trkpt><trkpt lat="43.1150551" lon="12.1929889"><ele>339.0</ele><time>2026-04-06T08:31:18.661Z</time></trkpt><trkpt lat="43.1150858" lon="12.1928936"><ele>339.0</ele><time>2026-04-06T08:31:22.674Z</time></trkpt><trkpt lat="43.1151157" lon="12.1928"><ele>339.0</ele><time>2026-04-06T08:31:26.676Z</time></trkpt><trkpt lat="43.1151549" lon="12.1927041"><ele>341.0</ele><time>2026-04-06T08:31:30.675Z</time></trkpt><trkpt lat="43.1152032" lon="12.192637"><ele>343.0</ele><time>2026-04-06T08:31:34.659Z</time></trkpt><trkpt lat="43.1152783" lon="12.1926203"><ele>345.0</ele><time>2026-04-06T08:31:38.653Z</time></trkpt><trkpt lat="43.115344" lon="12.1926131"><ele>347.0</ele><time>2026-04-06T08:31:41.677Z</time></trkpt><trkpt lat="43.1154141" lon="12.1925923"><ele>349.0</ele><time>2026-04-06T08:31:45.654Z</time></trkpt><trkpt lat="43.1154716" lon="12.1925408"><ele>351.0</ele><time>2026-04-06T08:31:49.657Z</time></trkpt><trkpt lat="43.1155486" lon="12.1925084"><ele>353.0</ele><time>2026-04-06T08:31:54.663Z</time></trkpt><trkpt lat="43.1156376" lon="12.1924528"><ele>353.0</ele><time>2026-04-06T08:31:59.679Z</time></trkpt><trkpt lat="43.1156943" lon="12.1924108"><ele>353.0</ele><time>2026-04-06T08:32:02.671Z</time></trkpt><trkpt lat="43.1157583" lon="12.1923439"><ele>353.0</ele><time>2026-04-06T08:32:06.669Z</time></trkpt><trkpt lat="43.115818" lon="12.1922566"><ele>353.0</ele><time>2026-04-06T08:32:09.666Z</time></trkpt><trkpt lat="43.1158408" lon="12.1921407"><ele>353.0</ele><time>2026-04-06T08:32:12.674Z</time></trkpt><trkpt lat="43.1158487" lon="12.1920403"><ele>353.0</ele><time>2026-04-06T08:32:15.773Z</time></trkpt><trkpt lat="43.1158555" lon="12.1919384"><ele>353.7142857142857</ele><time>2026-04-06T08:32:18.662Z</time></trkpt><trkpt lat="43.1158649" lon="12.1918474"><ele>354.42857142857144</ele><time>2026-04-06T08:32:21.669Z</time></trkpt><trkpt lat="43.11588" lon="12.191761"><ele>355.14285714285717</ele><time>2026-04-06T08:32:24.676Z</time></trkpt><trkpt lat="43.1159121" lon="12.1916564"><ele>355.8571428571429</ele><time>2026-04-06T08:32:28.669Z</time></trkpt><trkpt lat="43.1159419" lon="12.1915782"><ele>356.57142857142856</ele><time>2026-04-06T08:32:31.675Z</time></trkpt><trkpt lat="43.1159823" lon="12.1914782"><ele>357.28571428571433</ele><time>2026-04-06T08:32:35.668Z</time></trkpt><trkpt lat="43.1160263" lon="12.1914136"><ele>358.0</ele><time>2026-04-06T08:32:38.759Z</time></trkpt><trkpt lat="43.1160731" lon="12.1913195"><ele>359.00000000000006</ele><time>2026-04-06T08:32:42.658Z</time></trkpt><trkpt lat="43.1161195" lon="12.1912604"><ele>360.0</ele><time>2026-04-06T08:32:45.679Z</time></trkpt><trkpt lat="43.1161876" lon="12.1911961"><ele>361.0</ele><time>2026-04-06T08:32:49.661Z</time></trkpt><trkpt lat="43.1162535" lon="12.1911437"><ele>362.0</ele><time>2026-04-06T08:32:52.677Z</time></trkpt><trkpt lat="43.1162971" lon="12.1910811"><ele>363.0</ele><time>2026-04-06T08:32:55.669Z</time></trkpt><trkpt lat="43.1163197" lon="12.1909984"><ele>364.00000000000006</ele><time>2026-04-06T08:32:59.675Z</time></trkpt><trkpt lat="43.116349" lon="12.1908904"><ele>365.0</ele><time>2026-04-06T08:33:03.667Z</time></trkpt><trkpt lat="43.1163801" lon="12.1908011"><ele>365.0</ele><time>2026-04-06T08:33:06.675Z</time></trkpt><trkpt lat="43.1164322" lon="12.190691"><ele>365.0</ele><time>2026-04-06T08:33:10.655Z</time></trkpt><trkpt lat="43.1164782" lon="12.1906139"><ele>365.0</ele><time>2026-04-06T08:33:13.666Z</time></trkpt><trkpt lat="43.1165268" lon="12.1905462"><ele>365.0</ele><time>2026-04-06T08:33:16.67Z</time></trkpt><trkpt lat="43.1165726" lon="12.1904711"><ele>365.0</ele><time>2026-04-06T08:33:19.665Z</time></trkpt><trkpt lat="43.1166206" lon="12.1904151"><ele>365.0</ele><time>2026-04-06T08:33:22.676Z</time></trkpt><trkpt lat="43.116692" lon="12.1903665"><ele>364.8571428571429</ele><time>2026-04-06T08:33:27.677Z</time></trkpt><trkpt lat="43.1167432" lon="12.1903049"><ele>364.7142857142857</ele><time>2026-04-06T08:35:21.671Z</time></trkpt><trkpt lat="43.1167835" lon="12.19021"><ele>364.57142857142856</ele><time>2026-04-06T08:35:26.654Z</time></trkpt><trkpt lat="43.1168242" lon="12.1901345"><ele>364.42857142857144</ele><time>2026-04-06T08:35:30.664Z</time></trkpt><trkpt lat="43.1168619" lon="12.1900471"><ele>364.2857142857143</ele><time>2026-04-06T08:35:34.675Z</time></trkpt><trkpt lat="43.1168925" lon="12.1899583"><ele>364.14285714285717</ele><time>2026-04-06T08:35:38.671Z</time></trkpt><trkpt lat="43.1168902" lon="12.1898492"><ele>364.0</ele><time>2026-04-06T08:35:42.67Z</time></trkpt><trkpt lat="43.1168931" lon="12.1897421"><ele>363.57142857142856</ele><time>2026-04-06T08:35:46.674Z</time></trkpt><trkpt lat="43.1169265" lon="12.1896586"><ele>363.1428571428571</ele><time>2026-04-06T08:35:49.663Z</time></trkpt><trkpt lat="43.1169721" lon="12.1895685"><ele>362.7142857142857</ele><time>2026-04-06T08:35:53.655Z</time></trkpt><trkpt lat="43.1169905" lon="12.189462"><ele>362.2857142857143</ele><time>2026-04-06T08:35:57.676Z</time></trkpt><trkpt lat="43.1170324" lon="12.1893716"><ele>361.85714285714283</ele><time>2026-04-06T08:36:02.67Z</time></trkpt><trkpt lat="43.1170954" lon="12.1893627"><ele>361.42857142857144</ele><time>2026-04-06T08:36:06.679Z</time></trkpt><trkpt lat="43.1171602" lon="12.189326"><ele>361.0</ele><time>2026-04-06T08:36:10.657Z</time></trkpt><trkpt lat="43.117211" lon="12.1892613"><ele>361.0</ele><time>2026-04-06T08:36:14.677Z</time></trkpt><trkpt lat="43.1172712" lon="12.1891918"><ele>361.0</ele><time>2026-04-06T08:36:19.667Z</time></trkpt><trkpt lat="43.1173446" lon="12.1891603"><ele>361.0</ele><time>2026-04-06T08:36:24.66Z</time></trkpt><trkpt lat="43.1174197" lon="12.1891276"><ele>361.0</ele><time>2026-04-06T08:36:29.651Z</time></trkpt><trkpt lat="43.1174802" lon="12.1890691"><ele>361.0</ele><time>2026-04-06T08:36:33.661Z</time></trkpt><trkpt lat="43.1175484" lon="12.1890404"><ele>361.0</ele><time>2026-04-06T08:36:38.658Z</time></trkpt><trkpt lat="43.1176124" lon="12.1890384"><ele>361.0</ele><time>2026-04-06T08:36:42.772Z</time></trkpt><trkpt lat="43.1176813" lon="12.1890539"><ele>363.42857142857144</ele><time>2026-04-06T08:36:46.653Z</time></trkpt><trkpt lat="43.117753" lon="12.1890769"><ele>365.85714285714283</ele><time>2026-04-06T08:36:51.667Z</time></trkpt><trkpt lat="43.1178164" lon="12.1890868"><ele>368.2857142857143</ele><time>2026-04-06T08:36:55.668Z</time></trkpt><trkpt lat="43.1178828" lon="12.1890802"><ele>370.7142857142857</ele><time>2026-04-06T08:36:59.655Z</time></trkpt><trkpt lat="43.1179483" lon="12.1890683"><ele>373.1428571428571</ele><time>2026-04-06T08:37:03.673Z</time></trkpt><trkpt lat="43.1180183" lon="12.1890209"><ele>375.57142857142856</ele><time>2026-04-06T08:37:07.675Z</time></trkpt><trkpt lat="43.1180813" lon="12.1890261"><ele>378.0</ele><time>2026-04-06T08:37:10.666Z</time></trkpt><trkpt lat="43.1181478" lon="12.1890247"><ele>377.0</ele><time>2026-04-06T08:37:13.654Z</time></trkpt><trkpt lat="43.1182292" lon="12.1890009"><ele>376.0</ele><time>2026-04-06T08:37:17.658Z</time></trkpt><trkpt lat="43.1182957" lon="12.1889813"><ele>375.0</ele><time>2026-04-06T08:37:20.67Z</time></trkpt><trkpt lat="43.118371" lon="12.1889371"><ele>374.0</ele><time>2026-04-06T08:37:24.662Z</time></trkpt><trkpt lat="43.1184337" lon="12.1889185"><ele>373.0</ele><time>2026-04-06T08:37:27.671Z</time></trkpt><trkpt lat="43.1184959" lon="12.1888883"><ele>372.0</ele><time>2026-04-06T08:37:29.671Z</time></trkpt><trkpt lat="43.1185663" lon="12.1888043"><ele>372.00000000000006</ele><time>2026-04-06T08:37:32.68Z</time></trkpt><trkpt lat="43.1186217" lon="12.1887519"><ele>372.0</ele><time>2026-04-06T08:37:34.673Z</time></trkpt><trkpt lat="43.1186799" lon="12.1886894"><ele>372.0</ele><time>2026-04-06T08:37:37.653Z</time></trkpt><trkpt lat="43.1187476" lon="12.1886292"><ele>372.0</ele><time>2026-04-06T08:37:40.66Z</time></trkpt><trkpt lat="43.1188118" lon="12.1885481"><ele>372.0</ele><time>2026-04-06T08:37:43.674Z</time></trkpt><trkpt lat="43.1188602" lon="12.1884903"><ele>372.00000000000006</ele><time>2026-04-06T08:37:45.67Z</time></trkpt><trkpt lat="43.1189095" lon="12.1884293"><ele>372.0</ele><time>2026-04-06T08:37:47.682Z</time></trkpt><trkpt lat="43.1189597" lon="12.1883736"><ele>372.00000000000006</ele><time>2026-04-06T08:37:49.675Z</time></trkpt><trkpt lat="43.1190073" lon="12.1882849"><ele>372.0</ele><time>2026-04-06T08:37:52.666Z</time></trkpt><trkpt lat="43.1190457" lon="12.1881873"><ele>372.0</ele><time>2026-04-06T08:37:55.67Z</time></trkpt><trkpt lat="43.1190802" lon="12.1881059"><ele>372.0</ele><time>2026-04-06T08:37:58.662Z</time></trkpt><trkpt lat="43.1191335" lon="12.1880599"><ele>372.0</ele><time>2026-04-06T08:38:01.686Z</time></trkpt><trkpt lat="43.1191918" lon="12.1880015"><ele>372.00000000000006</ele><time>2026-04-06T08:38:05.677Z</time></trkpt><trkpt lat="43.1192571" lon="12.1879631"><ele>372.0</ele><time>2026-04-06T08:38:09.667Z</time></trkpt><trkpt lat="43.1193166" lon="12.1879085"><ele>373.0</ele><time>2026-04-06T08:38:12.671Z</time></trkpt><trkpt lat="43.1193872" lon="12.1878286"><ele>374.0</ele><time>2026-04-06T08:38:15.674Z</time></trkpt><trkpt lat="43.1194349" lon="12.1877703"><ele>375.0</ele><time>2026-04-06T08:38:17.672Z</time></trkpt><trkpt lat="43.1194996" lon="12.1877448"><ele>376.0</ele><time>2026-04-06T08:38:20.66Z</time></trkpt><trkpt lat="43.119564" lon="12.187719"><ele>377.0</ele><time>2026-04-06T08:38:22.656Z</time></trkpt><trkpt lat="43.1196366" lon="12.1876843"><ele>378.0</ele><time>2026-04-06T08:38:24.673Z</time></trkpt><trkpt lat="43.119714" lon="12.1876322"><ele>378.0</ele><time>2026-04-06T08:38:27.664Z</time></trkpt><trkpt lat="43.1197788" lon="12.1875906"><ele>378.0</ele><time>2026-04-06T08:38:30.676Z</time></trkpt><trkpt lat="43.1198219" lon="12.1875045"><ele>378.0</ele><time>2026-04-06T08:38:34.679Z</time></trkpt><trkpt lat="43.1198956" lon="12.1875069"><ele>378.0</ele><time>2026-04-06T08:38:38.671Z</time></trkpt><trkpt lat="43.1199675" lon="12.1874473"><ele>378.0</ele><time>2026-04-06T08:38:41.675Z</time></trkpt><trkpt lat="43.1200253" lon="12.1873691"><ele>378.0</ele><time>2026-04-06T08:38:44.679Z</time></trkpt><trkpt lat="43.120086" lon="12.1872945"><ele>380.6666666666667</ele><time>2026-04-06T08:38:47.676Z</time></trkpt><trkpt lat="43.1201476" lon="12.1872155"><ele>383.33333333333337</ele><time>2026-04-06T08:38:50.685Z</time></trkpt><trkpt lat="43.1202275" lon="12.187192"><ele>386.0</ele><time>2026-04-06T08:38:53.671Z</time></trkpt><trkpt lat="43.1203093" lon="12.1871431"><ele>388.6666666666667</ele><time>2026-04-06T08:38:56.664Z</time></trkpt><trkpt lat="43.1203871" lon="12.187103"><ele>391.33333333333337</ele><time>2026-04-06T08:38:59.659Z</time></trkpt><trkpt lat="43.1204623" lon="12.1870457"><ele>394.0</ele><time>2026-04-06T08:39:02.652Z</time></trkpt><trkpt lat="43.1205245" lon="12.186993"><ele>394.00000000000006</ele><time>2026-04-06T08:39:05.651Z</time></trkpt><trkpt lat="43.120591" lon="12.1869299"><ele>394.0</ele><time>2026-04-06T08:39:08.665Z</time></trkpt><trkpt lat="43.1206599" lon="12.1868856"><ele>394.0</ele><time>2026-04-06T08:39:15.65Z</time></trkpt><trkpt lat="43.1207189" lon="12.1868023"><ele>394.0</ele><time>2026-04-06T08:39:19.662Z</time></trkpt><trkpt lat="43.1207711" lon="12.1867248"><ele>394.00000000000006</ele><time>2026-04-06T08:39:22.669Z</time></trkpt><trkpt lat="43.1208204" lon="12.1866419"><ele>394.0</ele><time>2026-04-06T08:39:25.677Z</time></trkpt><trkpt lat="43.1208698" lon="12.1865602"><ele>395.0</ele><time>2026-04-06T08:39:28.673Z</time></trkpt><trkpt lat="43.12092" lon="12.1864957"><ele>396.0</ele><time>2026-04-06T08:39:31.673Z</time></trkpt><trkpt lat="43.1209699" lon="12.1864411"><ele>397.0</ele><time>2026-04-06T08:39:34.657Z</time></trkpt><trkpt lat="43.1210213" lon="12.1863743"><ele>398.0</ele><time>2026-04-06T08:39:37.676Z</time></trkpt><trkpt lat="43.1210524" lon="12.1862798"><ele>399.0</ele><time>2026-04-06T08:39:40.669Z</time></trkpt><trkpt lat="43.1210642" lon="12.1861749"><ele>400.0</ele><time>2026-04-06T08:39:44.662Z</time></trkpt><trkpt lat="43.121091" lon="12.1860833"><ele>401.0</ele><time>2026-04-06T08:39:48.675Z</time></trkpt><trkpt lat="43.1210944" lon="12.1859784"><ele>400.99999999999994</ele><time>2026-04-06T08:39:51.675Z</time></trkpt><trkpt lat="43.1211199" lon="12.1858799"><ele>401.0</ele><time>2026-04-06T08:39:54.64Z</time></trkpt><trkpt lat="43.1211634" lon="12.1857881"><ele>401.0</ele><time>2026-04-06T08:39:57.674Z</time></trkpt><trkpt lat="43.1212189" lon="12.1857199"><ele>401.0</ele><time>2026-04-06T08:40:00.67Z</time></trkpt><trkpt lat="43.1213128" lon="12.1856318"><ele>400.99999999999994</ele><time>2026-04-06T08:40:04.672Z</time></trkpt><trkpt lat="43.1213765" lon="12.1855681"><ele>401.0</ele><time>2026-04-06T08:40:07.678Z</time></trkpt><trkpt lat="43.1214364" lon="12.1854961"><ele>400.99999999999994</ele><time>2026-04-06T08:40:10.667Z</time></trkpt><trkpt lat="43.1214998" lon="12.1854118"><ele>401.0</ele><time>2026-04-06T08:40:13.671Z</time></trkpt><trkpt lat="43.1215668" lon="12.1853436"><ele>401.0</ele><time>2026-04-06T08:40:16.678Z</time></trkpt><trkpt lat="43.1216324" lon="12.1852969"><ele>401.0</ele><time>2026-04-06T08:40:19.781Z</time></trkpt><trkpt lat="43.1216969" lon="12.1852435"><ele>400.99999999999994</ele><time>2026-04-06T08:40:22.671Z</time></trkpt><trkpt lat="43.1217626" lon="12.1851806"><ele>401.0</ele><time>2026-04-06T08:40:25.672Z</time></trkpt><trkpt lat="43.121837" lon="12.1851121"><ele>401.66666666666663</ele><time>2026-04-06T08:40:28.673Z</time></trkpt><trkpt lat="43.1219012" lon="12.1850321"><ele>402.3333333333333</ele><time>2026-04-06T08:40:31.669Z</time></trkpt><trkpt lat="43.1219495" lon="12.1849332"><ele>403.0</ele><time>2026-04-06T08:40:34.668Z</time></trkpt><trkpt lat="43.1219803" lon="12.1848208"><ele>403.66666666666663</ele><time>2026-04-06T08:40:37.676Z</time></trkpt><trkpt lat="43.1220144" lon="12.1847064"><ele>404.3333333333333</ele><time>2026-04-06T08:40:40.672Z</time></trkpt><trkpt lat="43.122042" lon="12.1846213"><ele>405.0</ele><time>2026-04-06T08:40:42.66Z</time></trkpt><trkpt lat="43.122052" lon="12.1845295"><ele>405.0</ele><time>2026-04-06T08:40:44.673Z</time></trkpt><trkpt lat="43.1220777" lon="12.1844328"><ele>405.0</ele><time>2026-04-06T08:40:46.666Z</time></trkpt><trkpt lat="43.1221571" lon="12.1842743"><ele>405.0</ele><time>2026-04-06T08:40:49.674Z</time></trkpt><trkpt lat="43.1222274" lon="12.1841672"><ele>405.0</ele><time>2026-04-06T08:40:51.68Z</time></trkpt><trkpt lat="43.1223057" lon="12.1840707"><ele>405.0</ele><time>2026-04-06T08:40:53.668Z</time></trkpt><trkpt lat="43.1223953" lon="12.18397"><ele>402.4</ele><time>2026-04-06T08:40:55.669Z</time></trkpt><trkpt lat="43.1224889" lon="12.1838993"><ele>399.8</ele><time>2026-04-06T08:40:57.671Z</time></trkpt><trkpt lat="43.1226024" lon="12.1838822"><ele>397.20000000000005</ele><time>2026-04-06T08:40:59.664Z</time></trkpt><trkpt lat="43.122668" lon="12.1838746"><ele>394.6</ele><time>2026-04-06T08:41:00.672Z</time></trkpt><trkpt lat="43.1227806" lon="12.1838419"><ele>392.0</ele><time>2026-04-06T08:41:02.667Z</time></trkpt><trkpt lat="43.1228842" lon="12.1838142"><ele>391.99999999999994</ele><time>2026-04-06T08:41:04.665Z</time></trkpt><trkpt lat="43.1229825" lon="12.1837914"><ele>392.0</ele><time>2026-04-06T08:41:06.675Z</time></trkpt><trkpt lat="43.1230626" lon="12.183768"><ele>392.0</ele><time>2026-04-06T08:41:08.666Z</time></trkpt><trkpt lat="43.1231417" lon="12.1837157"><ele>392.0</ele><time>2026-04-06T08:41:10.673Z</time></trkpt><trkpt lat="43.1232195" lon="12.1836959"><ele>391.99999999999994</ele><time>2026-04-06T08:41:12.669Z</time></trkpt><trkpt lat="43.1232988" lon="12.1836822"><ele>392.0</ele><time>2026-04-06T08:41:14.672Z</time></trkpt><trkpt lat="43.1233572" lon="12.1836302"><ele>392.66666666666663</ele><time>2026-04-06T08:41:16.664Z</time></trkpt><trkpt lat="43.1233773" lon="12.1835466"><ele>393.3333333333333</ele><time>2026-04-06T08:41:18.654Z</time></trkpt><trkpt lat="43.1234068" lon="12.1834641"><ele>394.0</ele><time>2026-04-06T08:41:20.663Z</time></trkpt><trkpt lat="43.1234394" lon="12.1833891"><ele>394.66666666666663</ele><time>2026-04-06T08:41:22.661Z</time></trkpt><trkpt lat="43.1234929" lon="12.1833085"><ele>395.3333333333333</ele><time>2026-04-06T08:41:24.671Z</time></trkpt><trkpt lat="43.1235414" lon="12.1832057"><ele>396.0</ele><time>2026-04-06T08:41:26.653Z</time></trkpt><trkpt lat="43.1235905" lon="12.1831082"><ele>394.6666666666667</ele><time>2026-04-06T08:41:28.661Z</time></trkpt><trkpt lat="43.1236684" lon="12.1830502"><ele>393.33333333333337</ele><time>2026-04-06T08:41:30.664Z</time></trkpt><trkpt lat="43.1237521" lon="12.1830314"><ele>392.0</ele><time>2026-04-06T08:41:32.679Z</time></trkpt><trkpt lat="43.1238359" lon="12.1830165"><ele>390.6666666666667</ele><time>2026-04-06T08:41:34.659Z</time></trkpt><trkpt lat="43.1239053" lon="12.1830248"><ele>389.33333333333337</ele><time>2026-04-06T08:41:36.68Z</time></trkpt><trkpt lat="43.1239858" lon="12.1830359"><ele>388.0</ele><time>2026-04-06T08:41:39.65Z</time></trkpt><trkpt lat="43.1240726" lon="12.1829888"><ele>388.00000000000006</ele><time>2026-04-06T08:41:42.666Z</time></trkpt><trkpt lat="43.1241484" lon="12.1829314"><ele>388.0</ele><time>2026-04-06T08:41:45.655Z</time></trkpt><trkpt lat="43.1242238" lon="12.1828655"><ele>388.0</ele><time>2026-04-06T08:41:48.673Z</time></trkpt><trkpt lat="43.1243101" lon="12.1828365"><ele>388.0</ele><time>2026-04-06T08:41:51.668Z</time></trkpt><trkpt lat="43.1243858" lon="12.1828016"><ele>388.00000000000006</ele><time>2026-04-06T08:41:54.652Z</time></trkpt><trkpt lat="43.1244603" lon="12.1827743"><ele>388.0</ele><time>2026-04-06T08:41:57.665Z</time></trkpt><trkpt lat="43.1245185" lon="12.1827403"><ele>388.00000000000006</ele><time>2026-04-06T08:42:00.669Z</time></trkpt><trkpt lat="43.1245929" lon="12.1826768"><ele>388.0</ele><time>2026-04-06T08:42:03.668Z</time></trkpt><trkpt lat="43.1246475" lon="12.1825895"><ele>388.0</ele><time>2026-04-06T08:42:06.668Z</time></trkpt><trkpt lat="43.1246866" lon="12.1825203"><ele>388.0</ele><time>2026-04-06T08:42:08.666Z</time></trkpt><trkpt lat="43.1247263" lon="12.1824429"><ele>388.00000000000006</ele><time>2026-04-06T08:42:10.671Z</time></trkpt><trkpt lat="43.124756" lon="12.1823425"><ele>388.0</ele><time>2026-04-06T08:42:12.659Z</time></trkpt><trkpt lat="43.1247651" lon="12.1822201"><ele>387.0</ele><time>2026-04-06T08:42:14.649Z</time></trkpt><trkpt lat="43.1247549" lon="12.1819773"><ele>386.0</ele><time>2026-04-06T08:42:17.66Z</time></trkpt><trkpt lat="43.1247515" lon="12.1818223"><ele>385.0</ele><time>2026-04-06T08:42:19.672Z</time></trkpt><trkpt lat="43.1247396" lon="12.181656"><ele>384.0</ele><time>2026-04-06T08:42:21.653Z</time></trkpt><trkpt lat="43.1247226" lon="12.1814906"><ele>384.0</ele><time>2026-04-06T08:42:23.667Z</time></trkpt><trkpt lat="43.124703" lon="12.1813436"><ele>384.0</ele><time>2026-04-06T08:42:25.674Z</time></trkpt><trkpt lat="43.1246916" lon="12.1812133"><ele>384.0</ele><time>2026-04-06T08:42:27.776Z</time></trkpt><trkpt lat="43.1246779" lon="12.181091"><ele>384.0</ele><time>2026-04-06T08:42:29.677Z</time></trkpt><trkpt lat="43.124658" lon="12.1809718"><ele>384.0</ele><time>2026-04-06T08:42:31.677Z</time></trkpt><trkpt lat="43.1246556" lon="12.1808707"><ele>384.0</ele><time>2026-04-06T08:42:33.673Z</time></trkpt><trkpt lat="43.1246477" lon="12.1807482"><ele>384.0</ele><time>2026-04-06T08:42:35.652Z</time></trkpt><trkpt lat="43.1246538" lon="12.1806239"><ele>384.0</ele><time>2026-04-06T08:42:37.676Z</time></trkpt><trkpt lat="43.1246717" lon="12.1804757"><ele>384.0</ele><time>2026-04-06T08:42:39.776Z</time></trkpt><trkpt lat="43.1246879" lon="12.1803321"><ele>384.0</ele><time>2026-04-06T08:42:41.677Z</time></trkpt><trkpt lat="43.1247126" lon="12.1801708"><ele>384.0</ele><time>2026-04-06T08:42:43.673Z</time></trkpt><trkpt lat="43.1247175" lon="12.1800833"><ele>384.0</ele><time>2026-04-06T08:42:44.674Z</time></trkpt><trkpt lat="43.1247191" lon="12.1799832"><ele>384.0</ele><time>2026-04-06T08:42:45.665Z</time></trkpt><trkpt lat="43.1247267" lon="12.179886"><ele>384.0</ele><time>2026-04-06T08:42:46.647Z</time></trkpt><trkpt lat="43.1247372" lon="12.1797778"><ele>384.0</ele><time>2026-04-06T08:42:47.678Z</time></trkpt><trkpt lat="43.1247443" lon="12.1796485"><ele>384.0</ele><time>2026-04-06T08:42:48.666Z</time></trkpt><trkpt lat="43.1247565" lon="12.1795215"><ele>383.1666666666667</ele><time>2026-04-06T08:42:49.669Z</time></trkpt><trkpt lat="43.1247677" lon="12.1793851"><ele>382.3333333333333</ele><time>2026-04-06T08:42:50.675Z</time></trkpt><trkpt lat="43.1247829" lon="12.1792573"><ele>381.5</ele><time>2026-04-06T08:42:51.772Z</time></trkpt><trkpt lat="43.1248057" lon="12.1791356"><ele>380.66666666666663</ele><time>2026-04-06T08:42:52.675Z</time></trkpt><trkpt lat="43.1248278" lon="12.1790395"><ele>379.8333333333333</ele><time>2026-04-06T08:42:53.673Z</time></trkpt><trkpt lat="43.1248487" lon="12.1789456"><ele>379.0</ele><time>2026-04-06T08:42:54.675Z</time></trkpt><trkpt lat="43.1248858" lon="12.1788573"><ele>379.42857142857144</ele><time>2026-04-06T08:42:55.669Z</time></trkpt><trkpt lat="43.1249442" lon="12.1787832"><ele>379.8571428571429</ele><time>2026-04-06T08:42:56.668Z</time></trkpt><trkpt lat="43.1249924" lon="12.1787056"><ele>380.28571428571433</ele><time>2026-04-06T08:42:57.663Z</time></trkpt><trkpt lat="43.1250471" lon="12.1786499"><ele>380.7142857142857</ele><time>2026-04-06T08:42:58.665Z</time></trkpt><trkpt lat="43.1251077" lon="12.1785776"><ele>381.1428571428571</ele><time>2026-04-06T08:42:59.666Z</time></trkpt><trkpt lat="43.1251552" lon="12.1785121"><ele>381.5714285714286</ele><time>2026-04-06T08:43:00.668Z</time></trkpt><trkpt lat="43.125201" lon="12.1784333"><ele>382.0</ele><time>2026-04-06T08:43:01.674Z</time></trkpt><trkpt lat="43.1252415" lon="12.1783493"><ele>382.0</ele><time>2026-04-06T08:43:02.652Z</time></trkpt><trkpt lat="43.1252898" lon="12.1782679"><ele>382.0</ele><time>2026-04-06T08:43:03.67Z</time></trkpt><trkpt lat="43.1253441" lon="12.1781924"><ele>382.0</ele><time>2026-04-06T08:43:04.677Z</time></trkpt><trkpt lat="43.1253916" lon="12.1781281"><ele>382.0</ele><time>2026-04-06T08:43:05.669Z</time></trkpt><trkpt lat="43.1254507" lon="12.1780752"><ele>382.0</ele><time>2026-04-06T08:43:06.662Z</time></trkpt><trkpt lat="43.1255147" lon="12.178043"><ele>382.0</ele><time>2026-04-06T08:43:07.655Z</time></trkpt><trkpt lat="43.1255818" lon="12.1780212"><ele>382.0</ele><time>2026-04-06T08:43:08.662Z</time></trkpt><trkpt lat="43.1256455" lon="12.1779999"><ele>382.42857142857144</ele><time>2026-04-06T08:43:09.673Z</time></trkpt><trkpt lat="43.1257142" lon="12.177992"><ele>382.85714285714283</ele><time>2026-04-06T08:43:10.673Z</time></trkpt><trkpt lat="43.125782" lon="12.1779865"><ele>383.2857142857143</ele><time>2026-04-06T08:43:11.671Z</time></trkpt><trkpt lat="43.1258497" lon="12.1779779"><ele>383.7142857142857</ele><time>2026-04-06T08:43:12.667Z</time></trkpt><trkpt lat="43.1259156" lon="12.177958"><ele>384.1428571428571</ele><time>2026-04-06T08:43:13.667Z</time></trkpt><trkpt lat="43.1259801" lon="12.1779543"><ele>384.57142857142856</ele><time>2026-04-06T08:43:14.773Z</time></trkpt><trkpt lat="43.1260763" lon="12.1779575"><ele>385.0</ele><time>2026-04-06T08:43:16.667Z</time></trkpt><trkpt lat="43.1261405" lon="12.1779571"><ele>385.00000000000006</ele><time>2026-04-06T08:43:17.673Z</time></trkpt><trkpt lat="43.1262194" lon="12.1779478"><ele>385.0</ele><time>2026-04-06T08:43:18.677Z</time></trkpt><trkpt lat="43.126288" lon="12.1779423"><ele>385.0</ele><time>2026-04-06T08:43:19.668Z</time></trkpt><trkpt lat="43.1263615" lon="12.177939"><ele>385.0</ele><time>2026-04-06T08:43:20.669Z</time></trkpt><trkpt lat="43.1264726" lon="12.1779438"><ele>385.00000000000006</ele><time>2026-04-06T08:43:22.667Z</time></trkpt><trkpt lat="43.1265872" lon="12.1779332"><ele>385.0</ele><time>2026-04-06T08:43:24.651Z</time></trkpt><trkpt lat="43.1266513" lon="12.1779215"><ele>382.5</ele><time>2026-04-06T08:43:25.669Z</time></trkpt><trkpt lat="43.1268164" lon="12.1777924"><ele>380.0</ele><time>2026-04-06T08:43:28.673Z</time></trkpt><trkpt lat="43.1268729" lon="12.1777373"><ele>377.5</ele><time>2026-04-06T08:43:29.665Z</time></trkpt><trkpt lat="43.1269683" lon="12.1776249"><ele>375.0</ele><time>2026-04-06T08:43:31.652Z</time></trkpt><trkpt lat="43.1270488" lon="12.1775327"><ele>375.0</ele><time>2026-04-06T08:43:33.651Z</time></trkpt><trkpt lat="43.1271101" lon="12.1774205"><ele>375.0</ele><time>2026-04-06T08:43:35.676Z</time></trkpt><trkpt lat="43.127168" lon="12.1773283"><ele>375.0</ele><time>2026-04-06T08:43:37.654Z</time></trkpt><trkpt lat="43.1272428" lon="12.1772888"><ele>375.0</ele><time>2026-04-06T08:43:39.655Z</time></trkpt><trkpt lat="43.1273113" lon="12.17727"><ele>375.0</ele><time>2026-04-06T08:43:41.651Z</time></trkpt><trkpt lat="43.1274036" lon="12.1773029"><ele>375.0</ele><time>2026-04-06T08:43:44.654Z</time></trkpt><trkpt lat="43.1274582" lon="12.1773577"><ele>374.7142857142857</ele><time>2026-04-06T08:43:46.652Z</time></trkpt><trkpt lat="43.1275054" lon="12.1774274"><ele>374.4285714285714</ele><time>2026-04-06T08:43:48.65Z</time></trkpt><trkpt lat="43.1275583" lon="12.17749"><ele>374.1428571428571</ele><time>2026-04-06T08:43:50.662Z</time></trkpt><trkpt lat="43.1276091" lon="12.1775554"><ele>373.8571428571429</ele><time>2026-04-06T08:43:52.66Z</time></trkpt><trkpt lat="43.1276494" lon="12.177631"><ele>373.57142857142856</ele><time>2026-04-06T08:43:54.671Z</time></trkpt><trkpt lat="43.1276957" lon="12.1777005"><ele>373.2857142857143</ele><time>2026-04-06T08:43:56.68Z</time></trkpt><trkpt lat="43.1277419" lon="12.1777746"><ele>373.0</ele><time>2026-04-06T08:43:58.657Z</time></trkpt><trkpt lat="43.1277901" lon="12.1778497"><ele>373.0</ele><time>2026-04-06T08:44:00.661Z</time></trkpt><trkpt lat="43.1278468" lon="12.1779154"><ele>373.0</ele><time>2026-04-06T08:44:02.668Z</time></trkpt><trkpt lat="43.1279093" lon="12.17798"><ele>373.0</ele><time>2026-04-06T08:44:04.66Z</time></trkpt><trkpt lat="43.1279704" lon="12.1780464"><ele>373.0</ele><time>2026-04-06T08:44:06.661Z</time></trkpt><trkpt lat="43.1280361" lon="12.1781137"><ele>373.0</ele><time>2026-04-06T08:44:08.665Z</time></trkpt><trkpt lat="43.1281045" lon="12.178181"><ele>373.0</ele><time>2026-04-06T08:44:10.67Z</time></trkpt><trkpt lat="43.1281769" lon="12.1782476"><ele>373.59999999999997</ele><time>2026-04-06T08:44:12.661Z</time></trkpt><trkpt lat="43.1282577" lon="12.1782934"><ele>374.2</ele><time>2026-04-06T08:44:14.668Z</time></trkpt><trkpt lat="43.1283357" lon="12.1783399"><ele>374.8</ele><time>2026-04-06T08:44:16.673Z</time></trkpt><trkpt lat="43.1284504" lon="12.1784119"><ele>375.4</ele><time>2026-04-06T08:44:19.668Z</time></trkpt><trkpt lat="43.1285329" lon="12.1784492"><ele>376.0</ele><time>2026-04-06T08:44:21.675Z</time></trkpt><trkpt lat="43.1286121" lon="12.1784901"><ele>376.0</ele><time>2026-04-06T08:44:23.671Z</time></trkpt><trkpt lat="43.1286886" lon="12.1785265"><ele>376.0</ele><time>2026-04-06T08:44:25.662Z</time></trkpt><trkpt lat="43.1287559" lon="12.1785622"><ele>376.0</ele><time>2026-04-06T08:44:27.663Z</time></trkpt><trkpt lat="43.1288315" lon="12.1785988"><ele>376.0</ele><time>2026-04-06T08:44:29.669Z</time></trkpt><trkpt lat="43.1289032" lon="12.1786358"><ele>376.0</ele><time>2026-04-06T08:44:31.665Z</time></trkpt><trkpt lat="43.1289715" lon="12.1786749"><ele>376.0</ele><time>2026-04-06T08:44:33.661Z</time></trkpt><trkpt lat="43.1290433" lon="12.1787127"><ele>375.5</ele><time>2026-04-06T08:44:35.667Z</time></trkpt><trkpt lat="43.1291088" lon="12.1787479"><ele>375.0</ele><time>2026-04-06T08:44:37.672Z</time></trkpt><trkpt lat="43.1291721" lon="12.1787795"><ele>374.5</ele><time>2026-04-06T08:44:39.666Z</time></trkpt><trkpt lat="43.1292649" lon="12.1788669"><ele>374.0</ele><time>2026-04-06T08:44:42.656Z</time></trkpt><trkpt lat="43.129326" lon="12.1789135"><ele>373.5</ele><time>2026-04-06T08:44:44.66Z</time></trkpt><trkpt lat="43.1293966" lon="12.1789502"><ele>373.0</ele><time>2026-04-06T08:44:46.665Z</time></trkpt><trkpt lat="43.129472" lon="12.1789867"><ele>373.5</ele><time>2026-04-06T08:44:48.661Z</time></trkpt><trkpt lat="43.1295454" lon="12.1790301"><ele>374.0</ele><time>2026-04-06T08:44:50.678Z</time></trkpt><trkpt lat="43.1296242" lon="12.1790687"><ele>374.5</ele><time>2026-04-06T08:44:52.655Z</time></trkpt><trkpt lat="43.1297063" lon="12.1791014"><ele>375.0</ele><time>2026-04-06T08:44:54.664Z</time></trkpt><trkpt lat="43.1297899" lon="12.1791347"><ele>375.5</ele><time>2026-04-06T08:44:56.663Z</time></trkpt><trkpt lat="43.1298689" lon="12.1791715"><ele>376.0</ele><time>2026-04-06T08:44:58.775Z</time></trkpt><trkpt lat="43.129947" lon="12.1792095"><ele>376.5</ele><time>2026-04-06T08:45:00.664Z</time></trkpt><trkpt lat="43.1300254" lon="12.1792472"><ele>377.0</ele><time>2026-04-06T08:45:02.663Z</time></trkpt><trkpt lat="43.1301042" lon="12.1792892"><ele>377.5</ele><time>2026-04-06T08:45:04.676Z</time></trkpt><trkpt lat="43.1301882" lon="12.1793205"><ele>378.0</ele><time>2026-04-06T08:45:06.66Z</time></trkpt><trkpt lat="43.1302725" lon="12.1793425"><ele>378.5</ele><time>2026-04-06T08:45:08.659Z</time></trkpt><trkpt lat="43.1303561" lon="12.1793671"><ele>379.0</ele><time>2026-04-06T08:45:10.668Z</time></trkpt><trkpt lat="43.1304366" lon="12.1794012"><ele>379.0</ele><time>2026-04-06T08:45:12.66Z</time></trkpt><trkpt lat="43.1305163" lon="12.1794388"><ele>379.0</ele><time>2026-04-06T08:45:14.672Z</time></trkpt><trkpt lat="43.1305973" lon="12.1794658"><ele>379.0</ele><time>2026-04-06T08:45:16.68Z</time></trkpt><trkpt lat="43.1306768" lon="12.1794863"><ele>379.0</ele><time>2026-04-06T08:45:18.662Z</time></trkpt><trkpt lat="43.1307506" lon="12.179522"><ele>379.0</ele><time>2026-04-06T08:45:20.66Z</time></trkpt><trkpt lat="43.1308265" lon="12.1795499"><ele>379.0</ele><time>2026-04-06T08:45:22.665Z</time></trkpt><trkpt lat="43.1308994" lon="12.1795761"><ele>378.7142857142857</ele><time>2026-04-06T08:45:24.661Z</time></trkpt><trkpt lat="43.1309701" lon="12.1796002"><ele>378.42857142857144</ele><time>2026-04-06T08:45:26.658Z</time></trkpt><trkpt lat="43.1310413" lon="12.1796239"><ele>378.1428571428571</ele><time>2026-04-06T08:45:28.664Z</time></trkpt><trkpt lat="43.131108" lon="12.1796546"><ele>377.8571428571429</ele><time>2026-04-06T08:45:30.663Z</time></trkpt><trkpt lat="43.1311772" lon="12.1796733"><ele>377.57142857142856</ele><time>2026-04-06T08:45:32.66Z</time></trkpt><trkpt lat="43.1312449" lon="12.1797026"><ele>377.2857142857143</ele><time>2026-04-06T08:45:34.666Z</time></trkpt><trkpt lat="43.1313084" lon="12.1797387"><ele>377.0</ele><time>2026-04-06T08:45:36.663Z</time></trkpt><trkpt lat="43.1313685" lon="12.1797804"><ele>377.0</ele><time>2026-04-06T08:45:38.658Z</time></trkpt><trkpt lat="43.131425" lon="12.1798197"><ele>377.0</ele><time>2026-04-06T08:45:40.662Z</time></trkpt><trkpt lat="43.1315004" lon="12.1798887"><ele>377.0</ele><time>2026-04-06T08:45:43.67Z</time></trkpt><trkpt lat="43.1315577" lon="12.1799254"><ele>377.0</ele><time>2026-04-06T08:45:45.661Z</time></trkpt><trkpt lat="43.1316439" lon="12.1799715"><ele>377.0</ele><time>2026-04-06T08:45:48.669Z</time></trkpt><trkpt lat="43.1317298" lon="12.1800127"><ele>377.0</ele><time>2026-04-06T08:45:51.67Z</time></trkpt><trkpt lat="43.1318241" lon="12.1800281"><ele>378.0</ele><time>2026-04-06T08:45:54.663Z</time></trkpt><trkpt lat="43.1319117" lon="12.1800601"><ele>379.0</ele><time>2026-04-06T08:45:57.67Z</time></trkpt><trkpt lat="43.1319718" lon="12.1800912"><ele>380.0</ele><time>2026-04-06T08:45:59.679Z</time></trkpt><trkpt lat="43.132029" lon="12.1801298"><ele>381.0</ele><time>2026-04-06T08:46:01.662Z</time></trkpt><trkpt lat="43.1320874" lon="12.1801627"><ele>382.0</ele><time>2026-04-06T08:46:03.667Z</time></trkpt><trkpt lat="43.1321725" lon="12.1802118"><ele>383.0</ele><time>2026-04-06T08:46:06.652Z</time></trkpt><trkpt lat="43.1322606" lon="12.1802537"><ele>383.0</ele><time>2026-04-06T08:46:09.662Z</time></trkpt><trkpt lat="43.1323453" lon="12.1802998"><ele>383.0</ele><time>2026-04-06T08:46:12.661Z</time></trkpt><trkpt lat="43.1324313" lon="12.1803459"><ele>383.0</ele><time>2026-04-06T08:46:15.665Z</time></trkpt><trkpt lat="43.1325211" lon="12.1803851"><ele>383.0</ele><time>2026-04-06T08:46:18.663Z</time></trkpt><trkpt lat="43.1325803" lon="12.1804166"><ele>383.0</ele><time>2026-04-06T08:46:20.662Z</time></trkpt><trkpt lat="43.1326421" lon="12.180442"><ele>383.0</ele><time>2026-04-06T08:46:22.661Z</time></trkpt><trkpt lat="43.1327089" lon="12.1804617"><ele>383.42857142857144</ele><time>2026-04-06T08:46:24.667Z</time></trkpt><trkpt lat="43.1327712" lon="12.180481"><ele>383.85714285714283</ele><time>2026-04-06T08:46:26.666Z</time></trkpt><trkpt lat="43.1328617" lon="12.1805103"><ele>384.28571428571433</ele><time>2026-04-06T08:46:29.662Z</time></trkpt><trkpt lat="43.1329259" lon="12.1805361"><ele>384.7142857142857</ele><time>2026-04-06T08:46:31.677Z</time></trkpt><trkpt lat="43.1329896" lon="12.1805619"><ele>385.14285714285717</ele><time>2026-04-06T08:46:33.653Z</time></trkpt><trkpt lat="43.1330524" lon="12.1805795"><ele>385.5714285714286</ele><time>2026-04-06T08:46:35.67Z</time></trkpt><trkpt lat="43.1331131" lon="12.1806085"><ele>386.0</ele><time>2026-04-06T08:46:37.67Z</time></trkpt><trkpt lat="43.1331753" lon="12.180636"><ele>386.00000000000006</ele><time>2026-04-06T08:46:39.669Z</time></trkpt><trkpt lat="43.1332375" lon="12.1806671"><ele>386.0</ele><time>2026-04-06T08:46:41.667Z</time></trkpt><trkpt lat="43.1333019" lon="12.180697"><ele>386.0</ele><time>2026-04-06T08:46:43.672Z</time></trkpt><trkpt lat="43.1333669" lon="12.1807222"><ele>386.0</ele><time>2026-04-06T08:46:45.662Z</time></trkpt><trkpt lat="43.1334284" lon="12.1807518"><ele>386.0</ele><time>2026-04-06T08:46:47.66Z</time></trkpt><trkpt lat="43.1334868" lon="12.1807849"><ele>386.00000000000006</ele><time>2026-04-06T08:46:49.668Z</time></trkpt><trkpt lat="43.1335457" lon="12.1808162"><ele>386.0</ele><time>2026-04-06T08:46:51.66Z</time></trkpt><trkpt lat="43.1336334" lon="12.1808671"><ele>385.99999999999994</ele><time>2026-04-06T08:46:54.662Z</time></trkpt><trkpt lat="43.1336921" lon="12.1808987"><ele>386.0</ele><time>2026-04-06T08:46:56.663Z</time></trkpt><trkpt lat="43.133752" lon="12.1809287"><ele>386.0</ele><time>2026-04-06T08:46:58.66Z</time></trkpt><trkpt lat="43.1338142" lon="12.1809659"><ele>386.0</ele><time>2026-04-06T08:47:00.666Z</time></trkpt><trkpt lat="43.1338766" lon="12.1810029"><ele>385.99999999999994</ele><time>2026-04-06T08:47:02.659Z</time></trkpt><trkpt lat="43.1339661" lon="12.1810429"><ele>386.0</ele><time>2026-04-06T08:47:05.662Z</time></trkpt><trkpt lat="43.1340571" lon="12.1810839"><ele>387.16666666666663</ele><time>2026-04-06T08:47:08.666Z</time></trkpt><trkpt lat="43.1341292" lon="12.1811124"><ele>388.3333333333333</ele><time>2026-04-06T08:47:10.667Z</time></trkpt><trkpt lat="43.1342129" lon="12.181148"><ele>389.5</ele><time>2026-04-06T08:47:12.662Z</time></trkpt><trkpt lat="43.1342887" lon="12.1811915"><ele>390.66666666666663</ele><time>2026-04-06T08:47:14.664Z</time></trkpt><trkpt lat="43.1343671" lon="12.1812366"><ele>391.8333333333333</ele><time>2026-04-06T08:47:16.66Z</time></trkpt><trkpt lat="43.1344456" lon="12.1812828"><ele>393.0</ele><time>2026-04-06T08:47:18.663Z</time></trkpt><trkpt lat="43.1345186" lon="12.1813255"><ele>393.0</ele><time>2026-04-06T08:47:20.67Z</time></trkpt><trkpt lat="43.1345962" lon="12.1813638"><ele>393.0</ele><time>2026-04-06T08:47:22.652Z</time></trkpt><trkpt lat="43.1346654" lon="12.1814068"><ele>393.0</ele><time>2026-04-06T08:47:24.666Z</time></trkpt><trkpt lat="43.1347311" lon="12.181444"><ele>393.0</ele><time>2026-04-06T08:47:26.664Z</time></trkpt><trkpt lat="43.134799" lon="12.1814885"><ele>393.0</ele><time>2026-04-06T08:47:28.662Z</time></trkpt><trkpt lat="43.1348588" lon="12.1815475"><ele>393.0</ele><time>2026-04-06T08:47:30.668Z</time></trkpt><trkpt lat="43.1349207" lon="12.1816095"><ele>392.5</ele><time>2026-04-06T08:47:32.666Z</time></trkpt><trkpt lat="43.1349879" lon="12.1816677"><ele>392.0</ele><time>2026-04-06T08:47:34.661Z</time></trkpt><trkpt lat="43.1350549" lon="12.1817256"><ele>391.5</ele><time>2026-04-06T08:47:36.66Z</time></trkpt><trkpt lat="43.135154" lon="12.1818145"><ele>391.0</ele><time>2026-04-06T08:47:39.662Z</time></trkpt><trkpt lat="43.1352162" lon="12.1818747"><ele>390.5</ele><time>2026-04-06T08:47:41.662Z</time></trkpt><trkpt lat="43.1352757" lon="12.181935"><ele>390.0</ele><time>2026-04-06T08:47:43.66Z</time></trkpt><trkpt lat="43.1353375" lon="12.1819989"><ele>390.0</ele><time>2026-04-06T08:47:45.661Z</time></trkpt><trkpt lat="43.1354065" lon="12.1820689"><ele>390.0</ele><time>2026-04-06T08:47:47.661Z</time></trkpt><trkpt lat="43.1354768" lon="12.1821364"><ele>390.0</ele><time>2026-04-06T08:47:49.665Z</time></trkpt><trkpt lat="43.1355502" lon="12.1821943"><ele>390.0</ele><time>2026-04-06T08:47:51.664Z</time></trkpt><trkpt lat="43.1356186" lon="12.1822295"><ele>390.0</ele><time>2026-04-06T08:47:53.681Z</time></trkpt><trkpt lat="43.1356765" lon="12.1822764"><ele>390.0</ele><time>2026-04-06T08:47:55.652Z</time></trkpt><trkpt lat="43.1357335" lon="12.1823192"><ele>390.5</ele><time>2026-04-06T08:47:57.67Z</time></trkpt><trkpt lat="43.1358085" lon="12.1823815"><ele>391.0</ele><time>2026-04-06T08:48:00.662Z</time></trkpt><trkpt lat="43.1358945" lon="12.1824196"><ele>391.5</ele><time>2026-04-06T08:48:03.663Z</time></trkpt><trkpt lat="43.1359813" lon="12.1824551"><ele>392.0</ele><time>2026-04-06T08:48:06.66Z</time></trkpt><trkpt lat="43.1360437" lon="12.1824799"><ele>392.5</ele><time>2026-04-06T08:48:08.668Z</time></trkpt><trkpt lat="43.1361071" lon="12.1825024"><ele>393.0</ele><time>2026-04-06T08:48:10.678Z</time></trkpt><trkpt lat="43.1361722" lon="12.1825323"><ele>393.00000000000006</ele><time>2026-04-06T08:48:12.659Z</time></trkpt><trkpt lat="43.1362387" lon="12.1825557"><ele>393.0</ele><time>2026-04-06T08:48:14.664Z</time></trkpt><trkpt lat="43.1363017" lon="12.1825826"><ele>393.0</ele><time>2026-04-06T08:48:16.654Z</time></trkpt><trkpt lat="43.1363656" lon="12.182609"><ele>393.0</ele><time>2026-04-06T08:48:18.64Z</time></trkpt><trkpt lat="43.1364251" lon="12.1826485"><ele>393.0</ele><time>2026-04-06T08:48:20.65Z</time></trkpt><trkpt lat="43.1364872" lon="12.182681"><ele>393.00000000000006</ele><time>2026-04-06T08:48:22.65Z</time></trkpt><trkpt lat="43.1365488" lon="12.1827067"><ele>393.0</ele><time>2026-04-06T08:48:24.649Z</time></trkpt><trkpt lat="43.1366105" lon="12.182731"><ele>393.8333333333333</ele><time>2026-04-06T08:48:26.649Z</time></trkpt><trkpt lat="43.1366744" lon="12.1827423"><ele>394.66666666666663</ele><time>2026-04-06T08:48:28.66Z</time></trkpt><trkpt lat="43.1367636" lon="12.1827432"><ele>395.5</ele><time>2026-04-06T08:48:31.664Z</time></trkpt><trkpt lat="43.1368444" lon="12.182744"><ele>396.3333333333333</ele><time>2026-04-06T08:48:34.65Z</time></trkpt><trkpt lat="43.1369226" lon="12.1827477"><ele>397.16666666666663</ele><time>2026-04-06T08:48:37.653Z</time></trkpt><trkpt lat="43.1369995" lon="12.1827454"><ele>398.0</ele><time>2026-04-06T08:48:40.659Z</time></trkpt><trkpt lat="43.1370775" lon="12.1827515"><ele>397.99999999999994</ele><time>2026-04-06T08:48:43.667Z</time></trkpt><trkpt lat="43.1371567" lon="12.1827514"><ele>398.0</ele><time>2026-04-06T08:48:46.66Z</time></trkpt><trkpt lat="43.1372404" lon="12.1827647"><ele>398.0</ele><time>2026-04-06T08:48:49.648Z</time></trkpt><trkpt lat="43.1373227" lon="12.1827844"><ele>398.0</ele><time>2026-04-06T08:48:52.668Z</time></trkpt><trkpt lat="43.1374021" lon="12.1828166"><ele>397.99999999999994</ele><time>2026-04-06T08:48:55.668Z</time></trkpt><trkpt lat="43.1374739" lon="12.1828537"><ele>398.0</ele><time>2026-04-06T08:48:58.657Z</time></trkpt><trkpt lat="43.1375376" lon="12.1828928"><ele>399.2857142857143</ele><time>2026-04-06T08:49:01.671Z</time></trkpt><trkpt lat="43.1375957" lon="12.1829394"><ele>400.57142857142856</ele><time>2026-04-06T08:49:04.662Z</time></trkpt><trkpt lat="43.1376553" lon="12.1829777"><ele>401.8571428571429</ele><time>2026-04-06T08:49:07.662Z</time></trkpt><trkpt lat="43.1377224" lon="12.1830148"><ele>403.1428571428571</ele><time>2026-04-06T08:49:10.664Z</time></trkpt><trkpt lat="43.1377941" lon="12.1830393"><ele>404.42857142857144</ele><time>2026-04-06T08:49:13.661Z</time></trkpt><trkpt lat="43.1378703" lon="12.1830465"><ele>405.7142857142857</ele><time>2026-04-06T08:49:16.661Z</time></trkpt><trkpt lat="43.1379515" lon="12.1830499"><ele>407.0</ele><time>2026-04-06T08:49:19.676Z</time></trkpt><trkpt lat="43.1380257" lon="12.1830514"><ele>406.99999999999994</ele><time>2026-04-06T08:49:22.659Z</time></trkpt><trkpt lat="43.138113" lon="12.1830357"><ele>407.0</ele><time>2026-04-06T08:49:25.669Z</time></trkpt><trkpt lat="43.1381963" lon="12.1830359"><ele>407.0</ele><time>2026-04-06T08:49:28.66Z</time></trkpt><trkpt lat="43.1382897" lon="12.1830456"><ele>407.0</ele><time>2026-04-06T08:49:31.668Z</time></trkpt><trkpt lat="43.1383789" lon="12.18305"><ele>406.99999999999994</ele><time>2026-04-06T08:49:34.639Z</time></trkpt><trkpt lat="43.1384615" lon="12.1830659"><ele>407.0</ele><time>2026-04-06T08:49:37.661Z</time></trkpt><trkpt lat="43.138549" lon="12.1830936"><ele>408.00000000000006</ele><time>2026-04-06T08:49:40.659Z</time></trkpt><trkpt lat="43.1386362" lon="12.1831086"><ele>409.0</ele><time>2026-04-06T08:49:43.663Z</time></trkpt><trkpt lat="43.1387296" lon="12.1831249"><ele>410.0</ele><time>2026-04-06T08:49:46.667Z</time></trkpt><trkpt lat="43.1387936" lon="12.1831345"><ele>411.0</ele><time>2026-04-06T08:49:48.675Z</time></trkpt><trkpt lat="43.1388593" lon="12.1831427"><ele>412.0</ele><time>2026-04-06T08:49:50.666Z</time></trkpt><trkpt lat="43.1389272" lon="12.183147"><ele>413.00000000000006</ele><time>2026-04-06T08:49:52.664Z</time></trkpt><trkpt lat="43.138994" lon="12.1831375"><ele>414.0</ele><time>2026-04-06T08:49:54.661Z</time></trkpt><trkpt lat="43.1390578" lon="12.1831295"><ele>414.3333333333333</ele><time>2026-04-06T08:49:56.661Z</time></trkpt><trkpt lat="43.1391476" lon="12.1831183"><ele>414.66666666666663</ele><time>2026-04-06T08:49:59.662Z</time></trkpt><trkpt lat="43.1392219" lon="12.1830901"><ele>415.0</ele><time>2026-04-06T08:50:02.651Z</time></trkpt><trkpt lat="43.1393137" lon="12.1830763"><ele>415.3333333333333</ele><time>2026-04-06T08:50:05.66Z</time></trkpt><trkpt lat="43.1394034" lon="12.1830725"><ele>415.66666666666663</ele><time>2026-04-06T08:50:08.659Z</time></trkpt><trkpt lat="43.1394948" lon="12.1830782"><ele>416.0</ele><time>2026-04-06T08:50:11.65Z</time></trkpt><trkpt lat="43.1395751" lon="12.1830768"><ele>416.0</ele><time>2026-04-06T08:50:13.663Z</time></trkpt><trkpt lat="43.1396785" lon="12.1830533"><ele>416.0</ele><time>2026-04-06T08:50:15.672Z</time></trkpt><trkpt lat="43.1397841" lon="12.1830244"><ele>416.0</ele><time>2026-04-06T08:50:17.67Z</time></trkpt><trkpt lat="43.1399016" lon="12.183017"><ele>416.0</ele><time>2026-04-06T08:50:19.674Z</time></trkpt><trkpt lat="43.139967" lon="12.1830174"><ele>416.0</ele><time>2026-04-06T08:50:20.656Z</time></trkpt><trkpt lat="43.1400351" lon="12.1830202"><ele>415.7142857142857</ele><time>2026-04-06T08:50:21.659Z</time></trkpt><trkpt lat="43.1401036" lon="12.1830248"><ele>415.42857142857144</ele><time>2026-04-06T08:50:22.67Z</time></trkpt><trkpt lat="43.140172" lon="12.1830204"><ele>415.14285714285717</ele><time>2026-04-06T08:50:23.665Z</time></trkpt><trkpt lat="43.1402419" lon="12.1830083"><ele>414.8571428571429</ele><time>2026-04-06T08:50:24.652Z</time></trkpt><trkpt lat="43.1403154" lon="12.1830017"><ele>414.57142857142856</ele><time>2026-04-06T08:50:25.668Z</time></trkpt><trkpt lat="43.1403872" lon="12.1829794"><ele>414.28571428571433</ele><time>2026-04-06T08:50:26.759Z</time></trkpt><trkpt lat="43.1404549" lon="12.1829588"><ele>414.0</ele><time>2026-04-06T08:50:27.668Z</time></trkpt><trkpt lat="43.140525" lon="12.1829332"><ele>414.0</ele><time>2026-04-06T08:50:28.677Z</time></trkpt><trkpt lat="43.1405875" lon="12.1829124"><ele>414.0</ele><time>2026-04-06T08:50:29.671Z</time></trkpt><trkpt lat="43.1406481" lon="12.1828806"><ele>414.0</ele><time>2026-04-06T08:50:30.666Z</time></trkpt><trkpt lat="43.1407103" lon="12.1828538"><ele>414.0</ele><time>2026-04-06T08:50:31.662Z</time></trkpt><trkpt lat="43.1408127" lon="12.1828105"><ele>414.0</ele><time>2026-04-06T08:50:33.677Z</time></trkpt><trkpt lat="43.1408901" lon="12.1827779"><ele>414.0</ele><time>2026-04-06T08:50:35.663Z</time></trkpt><trkpt lat="43.1409826" lon="12.1827795"><ele>413.6</ele><time>2026-04-06T08:50:37.66Z</time></trkpt><trkpt lat="43.1410715" lon="12.182752"><ele>413.2</ele><time>2026-04-06T08:50:39.676Z</time></trkpt><trkpt lat="43.1411891" lon="12.1827097"><ele>412.8</ele><time>2026-04-06T08:50:41.669Z</time></trkpt><trkpt lat="43.1412894" lon="12.182668"><ele>412.40000000000003</ele><time>2026-04-06T08:50:43.662Z</time></trkpt><trkpt lat="43.1413893" lon="12.1826431"><ele>412.0</ele><time>2026-04-06T08:50:45.676Z</time></trkpt><trkpt lat="43.141476" lon="12.1826409"><ele>411.71428571428567</ele><time>2026-04-06T08:50:47.663Z</time></trkpt><trkpt lat="43.1415642" lon="12.1826812"><ele>411.42857142857144</ele><time>2026-04-06T08:50:49.659Z</time></trkpt><trkpt lat="43.1416268" lon="12.182701"><ele>411.1428571428571</ele><time>2026-04-06T08:51:00.658Z</time></trkpt><trkpt lat="43.1416996" lon="12.1826886"><ele>410.85714285714283</ele><time>2026-04-06T08:51:10.661Z</time></trkpt><trkpt lat="43.1417674" lon="12.1826974"><ele>410.57142857142856</ele><time>2026-04-06T08:51:20.665Z</time></trkpt><trkpt lat="43.1418376" lon="12.1827232"><ele>410.2857142857143</ele><time>2026-04-06T08:51:23.668Z</time></trkpt><trkpt lat="43.1419104" lon="12.1827443"><ele>410.0</ele><time>2026-04-06T08:51:25.66Z</time></trkpt><trkpt lat="43.1419784" lon="12.1827751"><ele>409.99999999999994</ele><time>2026-04-06T08:51:27.666Z</time></trkpt><trkpt lat="43.1420627" lon="12.1828114"><ele>410.0</ele><time>2026-04-06T08:51:30.665Z</time></trkpt><trkpt lat="43.1421342" lon="12.182854"><ele>410.0</ele><time>2026-04-06T08:51:33.659Z</time></trkpt><trkpt lat="43.1422121" lon="12.1829046"><ele>410.0</ele><time>2026-04-06T08:51:36.669Z</time></trkpt><trkpt lat="43.1422757" lon="12.1829471"><ele>409.99999999999994</ele><time>2026-04-06T08:51:38.644Z</time></trkpt><trkpt lat="43.1423442" lon="12.1829768"><ele>410.0</ele><time>2026-04-06T08:51:40.644Z</time></trkpt><trkpt lat="43.1424406" lon="12.1830049"><ele>411.0</ele><time>2026-04-06T08:51:42.648Z</time></trkpt><trkpt lat="43.1425589" lon="12.1830506"><ele>412.0</ele><time>2026-04-06T08:51:44.662Z</time></trkpt><trkpt lat="43.1426753" lon="12.1830829"><ele>413.0</ele><time>2026-04-06T08:51:46.673Z</time></trkpt><trkpt lat="43.1427448" lon="12.1831012"><ele>414.0</ele><time>2026-04-06T08:51:47.665Z</time></trkpt><trkpt lat="43.1428187" lon="12.1831186"><ele>415.0</ele><time>2026-04-06T08:51:48.66Z</time></trkpt><trkpt lat="43.142884" lon="12.183144"><ele>415.0</ele><time>2026-04-06T08:51:49.66Z</time></trkpt><trkpt lat="43.1429466" lon="12.1831774"><ele>415.0</ele><time>2026-04-06T08:51:50.662Z</time></trkpt><trkpt lat="43.1430115" lon="12.1832073"><ele>415.0</ele><time>2026-04-06T08:51:51.655Z</time></trkpt><trkpt lat="43.1430703" lon="12.1832432"><ele>415.0</ele><time>2026-04-06T08:51:52.679Z</time></trkpt><trkpt lat="43.1431269" lon="12.1832811"><ele>415.0</ele><time>2026-04-06T08:51:53.673Z</time></trkpt><trkpt lat="43.1431816" lon="12.1833248"><ele>415.0</ele><time>2026-04-06T08:51:54.662Z</time></trkpt><trkpt lat="43.143238" lon="12.183378"><ele>415.0</ele><time>2026-04-06T08:51:55.649Z</time></trkpt><trkpt lat="43.1432993" lon="12.1834364"><ele>412.8</ele><time>2026-04-06T08:51:56.661Z</time></trkpt><trkpt lat="43.1433486" lon="12.1834971"><ele>410.6</ele><time>2026-04-06T08:51:57.668Z</time></trkpt><trkpt lat="43.1434363" lon="12.1836195"><ele>408.4</ele><time>2026-04-06T08:51:59.664Z</time></trkpt><trkpt lat="43.1434808" lon="12.1836809"><ele>406.2</ele><time>2026-04-06T08:52:00.648Z</time></trkpt><trkpt lat="43.1435695" lon="12.1837854"><ele>404.0</ele><time>2026-04-06T08:52:02.645Z</time></trkpt><trkpt lat="43.1436601" lon="12.1838865"><ele>404.0</ele><time>2026-04-06T08:52:04.66Z</time></trkpt><trkpt lat="43.1437448" lon="12.1839915"><ele>404.0</ele><time>2026-04-06T08:52:06.644Z</time></trkpt><trkpt lat="43.1438332" lon="12.1841016"><ele>404.0</ele><time>2026-04-06T08:52:08.659Z</time></trkpt><trkpt lat="43.1439117" lon="12.1842126"><ele>404.0</ele><time>2026-04-06T08:52:10.649Z</time></trkpt><trkpt lat="43.1439586" lon="12.1842936"><ele>404.0</ele><time>2026-04-06T08:52:11.663Z</time></trkpt><trkpt lat="43.1439945" lon="12.1843808"><ele>402.4</ele><time>2026-04-06T08:52:12.659Z</time></trkpt><trkpt lat="43.1440243" lon="12.1844623"><ele>400.79999999999995</ele><time>2026-04-06T08:52:13.66Z</time></trkpt><trkpt lat="43.144053" lon="12.1845402"><ele>399.20000000000005</ele><time>2026-04-06T08:52:14.648Z</time></trkpt><trkpt lat="43.1440819" lon="12.1847011"><ele>397.6</ele><time>2026-04-06T08:52:16.661Z</time></trkpt><trkpt lat="43.1441171" lon="12.1848624"><ele>396.0</ele><time>2026-04-06T08:52:18.666Z</time></trkpt><trkpt lat="43.1441444" lon="12.1850191"><ele>393.8333333333333</ele><time>2026-04-06T08:52:20.664Z</time></trkpt><trkpt lat="43.1441669" lon="12.1851043"><ele>391.6666666666667</ele><time>2026-04-06T08:52:21.659Z</time></trkpt><trkpt lat="43.1442013" lon="12.1852003"><ele>389.5</ele><time>2026-04-06T08:52:22.674Z</time></trkpt><trkpt lat="43.1442376" lon="12.1853144"><ele>387.33333333333337</ele><time>2026-04-06T08:52:23.663Z</time></trkpt><trkpt lat="43.1442722" lon="12.1854166"><ele>385.1666666666667</ele><time>2026-04-06T08:52:24.667Z</time></trkpt><trkpt lat="43.144305" lon="12.1855237"><ele>383.0</ele><time>2026-04-06T08:52:25.669Z</time></trkpt><trkpt lat="43.1443353" lon="12.1856204"><ele>380.83333333333337</ele><time>2026-04-06T08:52:26.665Z</time></trkpt><trkpt lat="43.1443565" lon="12.1857038"><ele>378.6666666666667</ele><time>2026-04-06T08:52:27.665Z</time></trkpt><trkpt lat="43.1443812" lon="12.1858611"><ele>376.5</ele><time>2026-04-06T08:52:29.668Z</time></trkpt><trkpt lat="43.1443766" lon="12.1859696"><ele>374.3333333333333</ele><time>2026-04-06T08:52:31.675Z</time></trkpt><trkpt lat="43.1443586" lon="12.1860799"><ele>372.16666666666663</ele><time>2026-04-06T08:52:34.662Z</time></trkpt><trkpt lat="43.1443337" lon="12.186176"><ele>370.0</ele><time>2026-04-06T08:52:37.66Z</time></trkpt><trkpt lat="43.1442838" lon="12.1862805"><ele>370.0</ele><time>2026-04-06T08:52:40.658Z</time></trkpt><trkpt lat="43.1442488" lon="12.1863923"><ele>370.0</ele><time>2026-04-06T08:52:43.644Z</time></trkpt><trkpt lat="43.1443137" lon="12.1864596"><ele>370.0</ele><time>2026-04-06T08:52:46.66Z</time></trkpt><trkpt lat="43.1443259" lon="12.1865596"><ele>370.0</ele><time>2026-04-06T08:52:48.667Z</time></trkpt><trkpt lat="43.1443389" lon="12.1867045"><ele>370.0</ele><time>2026-04-06T08:52:50.653Z</time></trkpt><trkpt lat="43.1443437" lon="12.1868586"><ele>368.3333333333333</ele><time>2026-04-06T08:52:52.645Z</time></trkpt><trkpt lat="43.1443394" lon="12.1869454"><ele>366.66666666666663</ele><time>2026-04-06T08:52:53.653Z</time></trkpt><trkpt lat="43.1443387" lon="12.1870436"><ele>365.0</ele><time>2026-04-06T08:52:54.645Z</time></trkpt><trkpt lat="43.1443458" lon="12.1872273"><ele>363.3333333333333</ele><time>2026-04-06T08:52:56.652Z</time></trkpt><trkpt lat="43.1443541" lon="12.187318"><ele>361.6666666666667</ele><time>2026-04-06T08:52:57.644Z</time></trkpt><trkpt lat="43.144356" lon="12.1874174"><ele>360.0</ele><time>2026-04-06T08:52:58.644Z</time></trkpt><trkpt lat="43.1443511" lon="12.1875081"><ele>358.8333333333333</ele><time>2026-04-06T08:52:59.651Z</time></trkpt><trkpt lat="43.144353" lon="12.1875964"><ele>357.6666666666667</ele><time>2026-04-06T08:53:00.649Z</time></trkpt><trkpt lat="43.1443898" lon="12.1877247"><ele>356.5</ele><time>2026-04-06T08:53:02.643Z</time></trkpt><trkpt lat="43.1444554" lon="12.1877805"><ele>355.33333333333337</ele><time>2026-04-06T08:53:04.644Z</time></trkpt><trkpt lat="43.1445362" lon="12.187783"><ele>354.1666666666667</ele><time>2026-04-06T08:53:06.64Z</time></trkpt><trkpt lat="43.1446158" lon="12.1877472"><ele>353.0</ele><time>2026-04-06T08:53:08.648Z</time></trkpt><trkpt lat="43.1446971" lon="12.1876925"><ele>353.0</ele><time>2026-04-06T08:53:10.652Z</time></trkpt><trkpt lat="43.144765" lon="12.1876445"><ele>353.0</ele><time>2026-04-06T08:53:12.648Z</time></trkpt><trkpt lat="43.1448301" lon="12.1876023"><ele>353.0</ele><time>2026-04-06T08:53:14.65Z</time></trkpt><trkpt lat="43.1449001" lon="12.1875686"><ele>353.0</ele><time>2026-04-06T08:53:16.653Z</time></trkpt><trkpt lat="43.1449657" lon="12.187547"><ele>353.0</ele><time>2026-04-06T08:53:18.661Z</time></trkpt><trkpt lat="43.1450659" lon="12.1875303"><ele>353.0</ele><time>2026-04-06T08:53:21.664Z</time></trkpt><trkpt lat="43.1451366" lon="12.1875396"><ele>353.85714285714283</ele><time>2026-04-06T08:53:23.661Z</time></trkpt><trkpt lat="43.1452036" lon="12.1875692"><ele>354.7142857142857</ele><time>2026-04-06T08:53:25.659Z</time></trkpt><trkpt lat="43.1452635" lon="12.1876054"><ele>355.57142857142856</ele><time>2026-04-06T08:53:27.638Z</time></trkpt><trkpt lat="43.1453227" lon="12.1876448"><ele>356.42857142857144</ele><time>2026-04-06T08:53:29.663Z</time></trkpt><trkpt lat="43.1453769" lon="12.1876985"><ele>357.28571428571433</ele><time>2026-04-06T08:53:31.657Z</time></trkpt><trkpt lat="43.1454401" lon="12.1877593"><ele>358.14285714285717</ele><time>2026-04-06T08:53:33.668Z</time></trkpt><trkpt lat="43.1455102" lon="12.1878355"><ele>359.0</ele><time>2026-04-06T08:53:35.65Z</time></trkpt><trkpt lat="43.1455843" lon="12.1879243"><ele>359.0</ele><time>2026-04-06T08:53:37.646Z</time></trkpt><trkpt lat="43.1456599" lon="12.188013"><ele>359.0</ele><time>2026-04-06T08:53:39.665Z</time></trkpt><trkpt lat="43.1457348" lon="12.1881035"><ele>359.0</ele><time>2026-04-06T08:53:41.662Z</time></trkpt><trkpt lat="43.145789" lon="12.1881812"><ele>359.0</ele><time>2026-04-06T08:53:43.666Z</time></trkpt><trkpt lat="43.1458537" lon="12.1882609"><ele>359.0</ele><time>2026-04-06T08:53:46.651Z</time></trkpt><trkpt lat="43.1459154" lon="12.1883167"><ele>359.0</ele><time>2026-04-06T08:53:49.68Z</time></trkpt><trkpt lat="43.1459713" lon="12.1883668"><ele>358.14285714285717</ele><time>2026-04-06T08:53:52.65Z</time></trkpt><trkpt lat="43.1460244" lon="12.1884168"><ele>357.28571428571433</ele><time>2026-04-06T08:53:55.651Z</time></trkpt><trkpt lat="43.146079" lon="12.1884866"><ele>356.42857142857144</ele><time>2026-04-06T08:53:59.662Z</time></trkpt><trkpt lat="43.1461295" lon="12.188562"><ele>355.57142857142856</ele><time>2026-04-06T08:54:04.664Z</time></trkpt><trkpt lat="43.14616" lon="12.1886405"><ele>354.7142857142857</ele><time>2026-04-06T08:54:08.668Z</time></trkpt><trkpt lat="43.1461954" lon="12.1887299"><ele>353.85714285714283</ele><time>2026-04-06T08:54:12.771Z</time></trkpt><trkpt lat="43.1462438" lon="12.1888228"><ele>353.0</ele><time>2026-04-06T08:54:16.662Z</time></trkpt><trkpt lat="43.1462974" lon="12.1889342"><ele>353.7142857142857</ele><time>2026-04-06T08:54:19.658Z</time></trkpt><trkpt lat="43.1463435" lon="12.1890158"><ele>354.42857142857144</ele><time>2026-04-06T08:54:22.667Z</time></trkpt><trkpt lat="43.146381" lon="12.1891028"><ele>355.14285714285717</ele><time>2026-04-06T08:54:25.664Z</time></trkpt><trkpt lat="43.1464209" lon="12.189188"><ele>355.8571428571429</ele><time>2026-04-06T08:54:28.662Z</time></trkpt><trkpt lat="43.1464509" lon="12.1892713"><ele>356.57142857142856</ele><time>2026-04-06T08:54:31.665Z</time></trkpt><trkpt lat="43.1464849" lon="12.1893468"><ele>357.28571428571433</ele><time>2026-04-06T08:54:34.662Z</time></trkpt><trkpt lat="43.1465612" lon="12.1893742"><ele>358.0</ele><time>2026-04-06T08:54:37.662Z</time></trkpt><trkpt lat="43.1466258" lon="12.1893652"><ele>358.0</ele><time>2026-04-06T08:54:40.651Z</time></trkpt><trkpt lat="43.1466889" lon="12.1893643"><ele>358.0</ele><time>2026-04-06T08:54:43.652Z</time></trkpt><trkpt lat="43.1467667" lon="12.1893477"><ele>358.0</ele><time>2026-04-06T08:54:47.66Z</time></trkpt><trkpt lat="43.1468443" lon="12.1893245"><ele>358.0</ele><time>2026-04-06T08:54:51.661Z</time></trkpt><trkpt lat="43.1469269" lon="12.1893048"><ele>358.0</ele><time>2026-04-06T08:54:55.662Z</time></trkpt><trkpt lat="43.1470032" lon="12.1892898"><ele>358.0</ele><time>2026-04-06T08:54:59.778Z</time></trkpt><trkpt lat="43.1470709" lon="12.1892848"><ele>358.00000000000006</ele><time>2026-04-06T08:55:02.658Z</time></trkpt><trkpt lat="43.1471424" lon="12.1892893"><ele>358.0</ele><time>2026-04-06T08:55:06.667Z</time></trkpt><trkpt lat="43.1472059" lon="12.1893042"><ele>358.0</ele><time>2026-04-06T08:55:09.666Z</time></trkpt><trkpt lat="43.1472968" lon="12.1893382"><ele>358.0</ele><time>2026-04-06T08:55:13.669Z</time></trkpt><trkpt lat="43.1473759" lon="12.1893555"><ele>358.0</ele><time>2026-04-06T08:55:16.66Z</time></trkpt><trkpt lat="43.1474396" lon="12.1893698"><ele>358.00000000000006</ele><time>2026-04-06T08:55:19.641Z</time></trkpt><trkpt lat="43.1475107" lon="12.189377"><ele>358.0</ele><time>2026-04-06T08:55:22.65Z</time></trkpt><trkpt lat="43.1475805" lon="12.1893852"><ele>359.7142857142857</ele><time>2026-04-06T08:55:25.675Z</time></trkpt><trkpt lat="43.1476483" lon="12.1893896"><ele>361.42857142857144</ele><time>2026-04-06T08:55:28.667Z</time></trkpt><trkpt lat="43.1477162" lon="12.1894049"><ele>363.1428571428571</ele><time>2026-04-06T08:55:31.66Z</time></trkpt><trkpt lat="43.1477834" lon="12.189415"><ele>364.8571428571429</ele><time>2026-04-06T08:55:34.647Z</time></trkpt><trkpt lat="43.1478525" lon="12.1894219"><ele>366.57142857142856</ele><time>2026-04-06T08:55:37.669Z</time></trkpt><trkpt lat="43.1479226" lon="12.1894309"><ele>368.2857142857143</ele><time>2026-04-06T08:55:40.658Z</time></trkpt><trkpt lat="43.1479926" lon="12.1894347"><ele>370.0</ele><time>2026-04-06T08:55:43.66Z</time></trkpt><trkpt lat="43.1480608" lon="12.1894519"><ele>369.99999999999994</ele><time>2026-04-06T08:55:46.76Z</time></trkpt><trkpt lat="43.1481283" lon="12.189463"><ele>370.0</ele><time>2026-04-06T08:55:49.662Z</time></trkpt><trkpt lat="43.1482085" lon="12.1894891"><ele>370.0</ele><time>2026-04-06T08:55:53.649Z</time></trkpt><trkpt lat="43.1482716" lon="12.1895099"><ele>370.0</ele><time>2026-04-06T08:55:56.66Z</time></trkpt><trkpt lat="43.1483462" lon="12.189553"><ele>370.0</ele><time>2026-04-06T08:56:00.664Z</time></trkpt><trkpt lat="43.1484071" lon="12.189589"><ele>369.99999999999994</ele><time>2026-04-06T08:56:03.677Z</time></trkpt><trkpt lat="43.1484722" lon="12.1896298"><ele>370.0</ele><time>2026-04-06T08:56:06.66Z</time></trkpt><trkpt lat="43.1485418" lon="12.1896684"><ele>371.8333333333333</ele><time>2026-04-06T08:56:09.662Z</time></trkpt><trkpt lat="43.1486089" lon="12.1897008"><ele>373.66666666666663</ele><time>2026-04-06T08:56:12.665Z</time></trkpt><trkpt lat="43.1486793" lon="12.1897227"><ele>375.5</ele><time>2026-04-06T08:56:15.676Z</time></trkpt><trkpt lat="43.1487483" lon="12.1897495"><ele>377.3333333333333</ele><time>2026-04-06T08:56:18.65Z</time></trkpt><trkpt lat="43.1488196" lon="12.1897829"><ele>379.1666666666667</ele><time>2026-04-06T08:56:21.655Z</time></trkpt><trkpt lat="43.1488917" lon="12.1898065"><ele>381.0</ele><time>2026-04-06T08:56:24.662Z</time></trkpt><trkpt lat="43.1489753" lon="12.1898292"><ele>379.3333333333333</ele><time>2026-04-06T08:56:27.657Z</time></trkpt><trkpt lat="43.1490633" lon="12.1898503"><ele>377.6666666666667</ele><time>2026-04-06T08:56:30.676Z</time></trkpt><trkpt lat="43.1491459" lon="12.1898743"><ele>376.0</ele><time>2026-04-06T08:56:33.66Z</time></trkpt><trkpt lat="43.1492259" lon="12.1899102"><ele>374.33333333333337</ele><time>2026-04-06T08:56:36.673Z</time></trkpt><trkpt lat="43.1493037" lon="12.1899279"><ele>372.6666666666667</ele><time>2026-04-06T08:56:39.661Z</time></trkpt><trkpt lat="43.1493763" lon="12.1899575"><ele>371.0</ele><time>2026-04-06T08:56:42.669Z</time></trkpt><trkpt lat="43.1494153" lon="12.1900253"><ele>371.0</ele><time>2026-04-06T08:56:44.776Z</time></trkpt><trkpt lat="43.1494395" lon="12.1901379"><ele>371.0</ele><time>2026-04-06T08:56:46.661Z</time></trkpt><trkpt lat="43.1494443" lon="12.1902547"><ele>371.0</ele><time>2026-04-06T08:56:48.662Z</time></trkpt><trkpt lat="43.1494429" lon="12.1903697"><ele>371.0</ele><time>2026-04-06T08:56:50.659Z</time></trkpt><trkpt lat="43.1494577" lon="12.1904776"><ele>371.0</ele><time>2026-04-06T08:56:52.663Z</time></trkpt><trkpt lat="43.1495289" lon="12.1905519"><ele>371.0</ele><time>2026-04-06T08:56:55.665Z</time></trkpt><trkpt lat="43.1496026" lon="12.1905883"><ele>371.0</ele><time>2026-04-06T08:56:58.653Z</time></trkpt><trkpt lat="43.1496743" lon="12.1906291"><ele>371.0</ele><time>2026-04-06T08:57:01.663Z</time></trkpt><trkpt lat="43.1497428" lon="12.1906856"><ele>371.0</ele><time>2026-04-06T08:57:04.659Z</time></trkpt><trkpt lat="43.1498159" lon="12.1907121"><ele>371.0</ele><time>2026-04-06T08:57:07.658Z</time></trkpt><trkpt lat="43.1498849" lon="12.1907593"><ele>371.0</ele><time>2026-04-06T08:57:10.661Z</time></trkpt><trkpt lat="43.1499617" lon="12.1908014"><ele>371.0</ele><time>2026-04-06T08:57:13.659Z</time></trkpt><trkpt lat="43.1500389" lon="12.1908483"><ele>371.6</ele><time>2026-04-06T08:57:16.638Z</time></trkpt><trkpt lat="43.1501296" lon="12.1908709"><ele>372.20000000000005</ele><time>2026-04-06T08:57:19.776Z</time></trkpt><trkpt lat="43.150216" lon="12.190921"><ele>372.79999999999995</ele><time>2026-04-06T08:57:22.661Z</time></trkpt><trkpt lat="43.1502921" lon="12.1909855"><ele>373.4</ele><time>2026-04-06T08:57:25.658Z</time></trkpt><trkpt lat="43.1503639" lon="12.191055"><ele>374.0</ele><time>2026-04-06T08:57:28.663Z</time></trkpt><trkpt lat="43.1504394" lon="12.1911221"><ele>374.0</ele><time>2026-04-06T08:57:31.777Z</time></trkpt><trkpt lat="43.1505176" lon="12.1911836"><ele>374.0</ele><time>2026-04-06T08:57:34.662Z</time></trkpt><trkpt lat="43.1505941" lon="12.1912518"><ele>374.0</ele><time>2026-04-06T08:57:37.66Z</time></trkpt><trkpt lat="43.1506752" lon="12.191313"><ele>374.0</ele><time>2026-04-06T08:57:40.664Z</time></trkpt><trkpt lat="43.1507293" lon="12.1913647"><ele>374.0</ele><time>2026-04-06T08:57:42.661Z</time></trkpt><trkpt lat="43.1507832" lon="12.1914113"><ele>374.0</ele><time>2026-04-06T08:57:44.665Z</time></trkpt><trkpt lat="43.1508363" lon="12.1914625"><ele>375.85714285714283</ele><time>2026-04-06T08:57:46.664Z</time></trkpt><trkpt lat="43.1508944" lon="12.1915088"><ele>377.7142857142857</ele><time>2026-04-06T08:57:48.662Z</time></trkpt><trkpt lat="43.1509525" lon="12.1915625"><ele>379.57142857142856</ele><time>2026-04-06T08:57:50.651Z</time></trkpt><trkpt lat="43.1510141" lon="12.1916051"><ele>381.42857142857144</ele><time>2026-04-06T08:57:52.661Z</time></trkpt><trkpt lat="43.1510758" lon="12.1916454"><ele>383.28571428571433</ele><time>2026-04-06T08:57:54.66Z</time></trkpt><trkpt lat="43.1511378" lon="12.1916889"><ele>385.14285714285717</ele><time>2026-04-06T08:57:56.66Z</time></trkpt><trkpt lat="43.1512026" lon="12.1917285"><ele>387.0</ele><time>2026-04-06T08:57:58.659Z</time></trkpt><trkpt lat="43.1512653" lon="12.191775"><ele>387.0</ele><time>2026-04-06T08:58:00.66Z</time></trkpt><trkpt lat="43.1513275" lon="12.1918232"><ele>387.0</ele><time>2026-04-06T08:58:02.66Z</time></trkpt><trkpt lat="43.1513906" lon="12.1918688"><ele>387.0</ele><time>2026-04-06T08:58:04.663Z</time></trkpt><trkpt lat="43.151451" lon="12.191911"><ele>387.0</ele><time>2026-04-06T08:58:06.66Z</time></trkpt><trkpt lat="43.1515104" lon="12.1919597"><ele>387.0</ele><time>2026-04-06T08:58:08.666Z</time></trkpt><trkpt lat="43.1515622" lon="12.1920225"><ele>387.0</ele><time>2026-04-06T08:58:10.661Z</time></trkpt><trkpt lat="43.151616" lon="12.1920798"><ele>387.0</ele><time>2026-04-06T08:58:12.679Z</time></trkpt><trkpt lat="43.1516715" lon="12.1921286"><ele>386.6666666666667</ele><time>2026-04-06T08:58:14.658Z</time></trkpt><trkpt lat="43.1517474" lon="12.1922022"><ele>386.33333333333337</ele><time>2026-04-06T08:58:17.666Z</time></trkpt><trkpt lat="43.1517987" lon="12.1922878"><ele>386.0</ele><time>2026-04-06T08:58:20.662Z</time></trkpt><trkpt lat="43.1518257" lon="12.1924015"><ele>385.6666666666667</ele><time>2026-04-06T08:58:23.667Z</time></trkpt><trkpt lat="43.1518203" lon="12.1925171"><ele>385.33333333333337</ele><time>2026-04-06T08:58:26.663Z</time></trkpt><trkpt lat="43.1517929" lon="12.1926161"><ele>385.0</ele><time>2026-04-06T08:58:29.662Z</time></trkpt><trkpt lat="43.1517961" lon="12.1925229"><ele>385.0</ele><time>2026-04-06T09:02:08.662Z</time></trkpt><trkpt lat="43.151845" lon="12.1925818"><ele>385.0</ele><time>2026-04-06T09:02:56.659Z</time></trkpt><trkpt lat="43.1517681" lon="12.1925984"><ele>385.0</ele><time>2026-04-06T09:04:08.653Z</time></trkpt><trkpt lat="43.1517047" lon="12.1925903"><ele>385.0</ele><time>2026-04-06T09:04:11.661Z</time></trkpt><trkpt lat="43.15164" lon="12.192551"><ele>385.0</ele><time>2026-04-06T09:04:14.75Z</time></trkpt><trkpt lat="43.1515739" lon="12.1925207"><ele>385.0</ele><time>2026-04-06T09:04:17.661Z</time></trkpt><trkpt lat="43.1515054" lon="12.1925259"><ele>385.0</ele><time>2026-04-06T09:04:20.66Z</time></trkpt><trkpt lat="43.1514365" lon="12.1925316"><ele>387.0</ele><time>2026-04-06T09:04:23.66Z</time></trkpt><trkpt lat="43.1513663" lon="12.1925247"><ele>389.0</ele><time>2026-04-06T09:04:26.659Z</time></trkpt><trkpt lat="43.1512968" lon="12.1925175"><ele>391.0</ele><time>2026-04-06T09:04:29.658Z</time></trkpt><trkpt lat="43.1512127" lon="12.1925233"><ele>393.0</ele><time>2026-04-06T09:04:33.659Z</time></trkpt><trkpt lat="43.1511427" lon="12.1925127"><ele>395.0</ele><time>2026-04-06T09:04:36.661Z</time></trkpt><trkpt lat="43.1510739" lon="12.1924997"><ele>397.0</ele><time>2026-04-06T09:04:39.662Z</time></trkpt><trkpt lat="43.1510015" lon="12.1925031"><ele>399.0</ele><time>2026-04-06T09:04:42.657Z</time></trkpt><trkpt lat="43.1509325" lon="12.1925074"><ele>399.0</ele><time>2026-04-06T09:04:45.66Z</time></trkpt><trkpt lat="43.1508631" lon="12.1924845"><ele>399.0</ele><time>2026-04-06T09:04:48.649Z</time></trkpt><trkpt lat="43.1507954" lon="12.1924461"><ele>399.0</ele><time>2026-04-06T09:04:51.659Z</time></trkpt><trkpt lat="43.1507253" lon="12.1924392"><ele>399.0</ele><time>2026-04-06T09:04:54.661Z</time></trkpt><trkpt lat="43.1506501" lon="12.1924414"><ele>399.0</ele><time>2026-04-06T09:04:57.66Z</time></trkpt><trkpt lat="43.1505814" lon="12.1924502"><ele>399.0</ele><time>2026-04-06T09:04:59.738Z</time></trkpt><trkpt lat="43.150499" lon="12.1924492"><ele>399.0</ele><time>2026-04-06T09:05:01.661Z</time></trkpt><trkpt lat="43.1504137" lon="12.1924453"><ele>397.5</ele><time>2026-04-06T09:05:03.659Z</time></trkpt><trkpt lat="43.1503479" lon="12.1924387"><ele>396.0</ele><time>2026-04-06T09:05:05.658Z</time></trkpt><trkpt lat="43.1502848" lon="12.1924384"><ele>394.5</ele><time>2026-04-06T09:05:07.659Z</time></trkpt><trkpt lat="43.1502211" lon="12.1924405"><ele>393.0</ele><time>2026-04-06T09:05:09.66Z</time></trkpt><trkpt lat="43.150171" lon="12.1925439"><ele>391.5</ele><time>2026-04-06T09:05:12.666Z</time></trkpt><trkpt lat="43.1501971" lon="12.1926619"><ele>390.0</ele><time>2026-04-06T09:05:14.657Z</time></trkpt><trkpt lat="43.1502484" lon="12.1927564"><ele>390.0</ele><time>2026-04-06T09:05:16.659Z</time></trkpt><trkpt lat="43.1503062" lon="12.1928611"><ele>390.0</ele><time>2026-04-06T09:05:18.662Z</time></trkpt><trkpt lat="43.1503568" lon="12.1929335"><ele>390.0</ele><time>2026-04-06T09:05:20.665Z</time></trkpt><trkpt lat="43.1504356" lon="12.1929791"><ele>390.0</ele><time>2026-04-06T09:05:23.773Z</time></trkpt><trkpt lat="43.1503687" lon="12.1929971"><ele>390.0</ele><time>2026-04-06T09:05:31.665Z</time></trkpt><trkpt lat="43.1503063" lon="12.1929736"><ele>390.0</ele><time>2026-04-06T09:05:35.658Z</time></trkpt><trkpt lat="43.1502583" lon="12.1930295"><ele>390.0</ele><time>2026-04-06T09:05:42.661Z</time></trkpt><trkpt lat="43.1502978" lon="12.1931005"><ele>390.0</ele><time>2026-04-06T09:05:45.665Z</time></trkpt><trkpt lat="43.1503468" lon="12.1931845"><ele>390.0</ele><time>2026-04-06T09:05:49.66Z</time></trkpt><trkpt lat="43.1503838" lon="12.1932748"><ele>390.0</ele><time>2026-04-06T09:05:53.661Z</time></trkpt><trkpt lat="43.1504108" lon="12.1933531"><ele>390.0</ele><time>2026-04-06T09:05:56.658Z</time></trkpt><trkpt lat="43.1504331" lon="12.1934353"><ele>390.0</ele><time>2026-04-06T09:05:59.664Z</time></trkpt><trkpt lat="43.1504501" lon="12.1935416"><ele>390.0</ele><time>2026-04-06T09:06:03.663Z</time></trkpt><trkpt lat="43.1504681" lon="12.1936523"><ele>387.42857142857144</ele><time>2026-04-06T09:06:07.668Z</time></trkpt><trkpt lat="43.1504799" lon="12.1937388"><ele>384.85714285714283</ele><time>2026-04-06T09:06:10.66Z</time></trkpt><trkpt lat="43.1504762" lon="12.1938437"><ele>382.28571428571433</ele><time>2026-04-06T09:06:14.658Z</time></trkpt><trkpt lat="43.1504675" lon="12.1939366"><ele>379.7142857142857</ele><time>2026-04-06T09:06:17.662Z</time></trkpt><trkpt lat="43.1504683" lon="12.1940283"><ele>377.14285714285717</ele><time>2026-04-06T09:06:21.657Z</time></trkpt><trkpt lat="43.1504553" lon="12.1941341"><ele>374.5714285714286</ele><time>2026-04-06T09:06:24.659Z</time></trkpt><trkpt lat="43.1504502" lon="12.1942315"><ele>372.0</ele><time>2026-04-06T09:06:26.671Z</time></trkpt><trkpt lat="43.150443" lon="12.1943508"><ele>369.6666666666667</ele><time>2026-04-06T09:06:28.659Z</time></trkpt><trkpt lat="43.1504388" lon="12.1944635"><ele>367.3333333333333</ele><time>2026-04-06T09:06:30.658Z</time></trkpt><trkpt lat="43.1504385" lon="12.1945588"><ele>365.0</ele><time>2026-04-06T09:06:32.66Z</time></trkpt><trkpt lat="43.1504302" lon="12.1946706"><ele>362.66666666666663</ele><time>2026-04-06T09:06:35.661Z</time></trkpt><trkpt lat="43.1503522" lon="12.1947482"><ele>360.3333333333333</ele><time>2026-04-06T09:06:38.658Z</time></trkpt><trkpt lat="43.1502757" lon="12.1947782"><ele>358.0</ele><time>2026-04-06T09:06:40.657Z</time></trkpt><trkpt lat="43.1501865" lon="12.1948024"><ele>357.66666666666663</ele><time>2026-04-06T09:06:43.658Z</time></trkpt><trkpt lat="43.1501049" lon="12.1948666"><ele>357.3333333333333</ele><time>2026-04-06T09:06:46.662Z</time></trkpt><trkpt lat="43.1500447" lon="12.1949086"><ele>357.0</ele><time>2026-04-06T09:06:48.657Z</time></trkpt><trkpt lat="43.1499766" lon="12.194947"><ele>356.6666666666667</ele><time>2026-04-06T09:06:50.661Z</time></trkpt><trkpt lat="43.1499057" lon="12.1949897"><ele>356.33333333333337</ele><time>2026-04-06T09:06:52.66Z</time></trkpt><trkpt lat="43.1498279" lon="12.1950404"><ele>356.0</ele><time>2026-04-06T09:06:54.662Z</time></trkpt><trkpt lat="43.1497502" lon="12.1950954"><ele>353.6</ele><time>2026-04-06T09:06:56.663Z</time></trkpt><trkpt lat="43.1496654" lon="12.1951554"><ele>351.20000000000005</ele><time>2026-04-06T09:06:58.661Z</time></trkpt><trkpt lat="43.1495815" lon="12.1952328"><ele>348.79999999999995</ele><time>2026-04-06T09:07:00.659Z</time></trkpt><trkpt lat="43.1494972" lon="12.1953252"><ele>346.4</ele><time>2026-04-06T09:07:02.662Z</time></trkpt><trkpt lat="43.1494333" lon="12.1954378"><ele>344.0</ele><time>2026-04-06T09:07:04.656Z</time></trkpt><trkpt lat="43.1493858" lon="12.1955635"><ele>344.25</ele><time>2026-04-06T09:07:06.654Z</time></trkpt><trkpt lat="43.1493599" lon="12.1957093"><ele>344.5</ele><time>2026-04-06T09:07:08.667Z</time></trkpt><trkpt lat="43.1493622" lon="12.1958629"><ele>344.75</ele><time>2026-04-06T09:07:10.659Z</time></trkpt><trkpt lat="43.1493784" lon="12.1960215"><ele>345.0</ele><time>2026-04-06T09:07:12.657Z</time></trkpt><trkpt lat="43.1494022" lon="12.1961893"><ele>345.0</ele><time>2026-04-06T09:07:14.661Z</time></trkpt><trkpt lat="43.1494248" lon="12.1963626"><ele>345.0</ele><time>2026-04-06T09:07:16.658Z</time></trkpt><trkpt lat="43.1494361" lon="12.1964491"><ele>345.0</ele><time>2026-04-06T09:07:17.657Z</time></trkpt><trkpt lat="43.1494632" lon="12.1966199"><ele>345.0</ele><time>2026-04-06T09:07:19.664Z</time></trkpt><trkpt lat="43.149477" lon="12.1967065"><ele>345.0</ele><time>2026-04-06T09:07:20.659Z</time></trkpt><trkpt lat="43.1494903" lon="12.1967969"><ele>344.2857142857143</ele><time>2026-04-06T09:07:21.659Z</time></trkpt><trkpt lat="43.1495015" lon="12.196886"><ele>343.57142857142856</ele><time>2026-04-06T09:07:22.661Z</time></trkpt><trkpt lat="43.1495135" lon="12.1969756"><ele>342.8571428571429</ele><time>2026-04-06T09:07:23.658Z</time></trkpt><trkpt lat="43.1495263" lon="12.1970671"><ele>342.1428571428571</ele><time>2026-04-06T09:07:24.665Z</time></trkpt><trkpt lat="43.1495384" lon="12.1971582"><ele>341.4285714285714</ele><time>2026-04-06T09:07:25.661Z</time></trkpt><trkpt lat="43.1495456" lon="12.1972473"><ele>340.7142857142857</ele><time>2026-04-06T09:07:26.662Z</time></trkpt><trkpt lat="43.149556" lon="12.1973411"><ele>340.0</ele><time>2026-04-06T09:07:27.663Z</time></trkpt><trkpt lat="43.1495707" lon="12.1974291"><ele>339.14285714285717</ele><time>2026-04-06T09:07:28.657Z</time></trkpt><trkpt lat="43.1495833" lon="12.1975233"><ele>338.2857142857143</ele><time>2026-04-06T09:07:29.659Z</time></trkpt><trkpt lat="43.1495956" lon="12.19762"><ele>337.42857142857144</ele><time>2026-04-06T09:07:30.658Z</time></trkpt><trkpt lat="43.1496073" lon="12.197722"><ele>336.57142857142856</ele><time>2026-04-06T09:07:31.658Z</time></trkpt><trkpt lat="43.1496118" lon="12.1978205"><ele>335.7142857142857</ele><time>2026-04-06T09:07:32.662Z</time></trkpt><trkpt lat="43.1496098" lon="12.1979226"><ele>334.85714285714283</ele><time>2026-04-06T09:07:33.66Z</time></trkpt><trkpt lat="43.149596" lon="12.1980291"><ele>334.0</ele><time>2026-04-06T09:07:34.758Z</time></trkpt><trkpt lat="43.149571" lon="12.1981301"><ele>334.3333333333333</ele><time>2026-04-06T09:07:35.662Z</time></trkpt><trkpt lat="43.1495319" lon="12.1982162"><ele>334.66666666666663</ele><time>2026-04-06T09:07:36.658Z</time></trkpt><trkpt lat="43.1494759" lon="12.1982993"><ele>335.0</ele><time>2026-04-06T09:07:37.67Z</time></trkpt><trkpt lat="43.1494103" lon="12.1983634"><ele>335.3333333333333</ele><time>2026-04-06T09:07:38.657Z</time></trkpt><trkpt lat="43.1493418" lon="12.1984145"><ele>335.6666666666667</ele><time>2026-04-06T09:07:39.658Z</time></trkpt><trkpt lat="43.1492675" lon="12.1984517"><ele>336.0</ele><time>2026-04-06T09:07:40.659Z</time></trkpt><trkpt lat="43.1491905" lon="12.1984862"><ele>336.0</ele><time>2026-04-06T09:07:41.663Z</time></trkpt><trkpt lat="43.149109" lon="12.1985098"><ele>336.0</ele><time>2026-04-06T09:07:42.657Z</time></trkpt><trkpt lat="43.1490382" lon="12.1985432"><ele>336.0</ele><time>2026-04-06T09:07:43.659Z</time></trkpt><trkpt lat="43.1489627" lon="12.1985737"><ele>336.0</ele><time>2026-04-06T09:07:44.67Z</time></trkpt><trkpt lat="43.1488899" lon="12.1985982"><ele>336.0</ele><time>2026-04-06T09:07:45.659Z</time></trkpt><trkpt lat="43.1488268" lon="12.1986279"><ele>336.0</ele><time>2026-04-06T09:07:46.657Z</time></trkpt><trkpt lat="43.1487565" lon="12.1986629"><ele>335.57142857142856</ele><time>2026-04-06T09:07:47.669Z</time></trkpt><trkpt lat="43.1486943" lon="12.1986906"><ele>335.1428571428571</ele><time>2026-04-06T09:07:48.666Z</time></trkpt><trkpt lat="43.1486266" lon="12.1987464"><ele>334.7142857142857</ele><time>2026-04-06T09:07:49.656Z</time></trkpt><trkpt lat="43.1485814" lon="12.1988246"><ele>334.2857142857143</ele><time>2026-04-06T09:07:50.656Z</time></trkpt><trkpt lat="43.1485327" lon="12.1989073"><ele>333.85714285714283</ele><time>2026-04-06T09:07:51.674Z</time></trkpt><trkpt lat="43.1484904" lon="12.1989953"><ele>333.42857142857144</ele><time>2026-04-06T09:07:52.661Z</time></trkpt><trkpt lat="43.1484551" lon="12.1990874"><ele>333.0</ele><time>2026-04-06T09:07:53.664Z</time></trkpt><trkpt lat="43.1484267" lon="12.1991823"><ele>333.0</ele><time>2026-04-06T09:07:54.664Z</time></trkpt><trkpt lat="43.1483965" lon="12.1992782"><ele>333.0</ele><time>2026-04-06T09:07:55.665Z</time></trkpt><trkpt lat="43.1483699" lon="12.1993828"><ele>333.0</ele><time>2026-04-06T09:07:56.664Z</time></trkpt><trkpt lat="43.1483493" lon="12.1994857"><ele>333.0</ele><time>2026-04-06T09:07:57.658Z</time></trkpt><trkpt lat="43.148319" lon="12.1995879"><ele>333.0</ele><time>2026-04-06T09:07:58.659Z</time></trkpt><trkpt lat="43.1482978" lon="12.1996816"><ele>333.0</ele><time>2026-04-06T09:07:59.662Z</time></trkpt><trkpt lat="43.1482836" lon="12.199797"><ele>333.8333333333333</ele><time>2026-04-06T09:08:00.662Z</time></trkpt><trkpt lat="43.1482518" lon="12.1998979"><ele>334.6666666666667</ele><time>2026-04-06T09:08:01.646Z</time></trkpt><trkpt lat="43.148223" lon="12.2000074"><ele>335.5</ele><time>2026-04-06T09:08:02.656Z</time></trkpt><trkpt lat="43.1481937" lon="12.200097"><ele>336.33333333333337</ele><time>2026-04-06T09:08:03.751Z</time></trkpt><trkpt lat="43.1481535" lon="12.2002199"><ele>337.1666666666667</ele><time>2026-04-06T09:08:04.66Z</time></trkpt><trkpt lat="43.1481145" lon="12.2003236"><ele>338.0</ele><time>2026-04-06T09:08:05.657Z</time></trkpt><trkpt lat="43.1480588" lon="12.2004123"><ele>335.33333333333337</ele><time>2026-04-06T09:08:06.66Z</time></trkpt><trkpt lat="43.1480004" lon="12.2004926"><ele>332.6666666666667</ele><time>2026-04-06T09:08:07.659Z</time></trkpt><trkpt lat="43.1479246" lon="12.2005506"><ele>330.0</ele><time>2026-04-06T09:08:08.676Z</time></trkpt><trkpt lat="43.1478552" lon="12.2005855"><ele>327.3333333333333</ele><time>2026-04-06T09:08:09.66Z</time></trkpt><trkpt lat="43.1477708" lon="12.2005753"><ele>324.66666666666663</ele><time>2026-04-06T09:08:10.666Z</time></trkpt><trkpt lat="43.1476839" lon="12.2005384"><ele>322.0</ele><time>2026-04-06T09:08:11.664Z</time></trkpt><trkpt lat="43.1476116" lon="12.2004998"><ele>322.0</ele><time>2026-04-06T09:08:12.66Z</time></trkpt><trkpt lat="43.1475356" lon="12.2004538"><ele>322.0</ele><time>2026-04-06T09:08:13.657Z</time></trkpt><trkpt lat="43.1474647" lon="12.2004045"><ele>322.0</ele><time>2026-04-06T09:08:14.656Z</time></trkpt><trkpt lat="43.1473881" lon="12.2003541"><ele>322.0</ele><time>2026-04-06T09:08:15.67Z</time></trkpt><trkpt lat="43.1473208" lon="12.2003028"><ele>322.0</ele><time>2026-04-06T09:08:16.659Z</time></trkpt><trkpt lat="43.1472507" lon="12.2002548"><ele>322.0</ele><time>2026-04-06T09:08:17.66Z</time></trkpt><trkpt lat="43.1471816" lon="12.200212"><ele>321.8333333333333</ele><time>2026-04-06T09:08:18.661Z</time></trkpt><trkpt lat="43.1471133" lon="12.2001783"><ele>321.66666666666663</ele><time>2026-04-06T09:08:19.658Z</time></trkpt><trkpt lat="43.147039" lon="12.2001503"><ele>321.5</ele><time>2026-04-06T09:08:20.658Z</time></trkpt><trkpt lat="43.1469622" lon="12.2001385"><ele>321.3333333333333</ele><time>2026-04-06T09:08:21.661Z</time></trkpt><trkpt lat="43.1468838" lon="12.2001478"><ele>321.1666666666667</ele><time>2026-04-06T09:08:22.659Z</time></trkpt><trkpt lat="43.1468101" lon="12.2001673"><ele>321.0</ele><time>2026-04-06T09:08:23.662Z</time></trkpt><trkpt lat="43.1467366" lon="12.2001965"><ele>321.0</ele><time>2026-04-06T09:08:24.665Z</time></trkpt><trkpt lat="43.1466689" lon="12.2002452"><ele>321.0</ele><time>2026-04-06T09:08:25.757Z</time></trkpt><trkpt lat="43.146606" lon="12.2003031"><ele>321.0</ele><time>2026-04-06T09:08:26.665Z</time></trkpt><trkpt lat="43.1465411" lon="12.2003665"><ele>321.0</ele><time>2026-04-06T09:08:27.66Z</time></trkpt><trkpt lat="43.1464893" lon="12.2004393"><ele>321.0</ele><time>2026-04-06T09:08:28.661Z</time></trkpt><trkpt lat="43.1464441" lon="12.2005358"><ele>321.0</ele><time>2026-04-06T09:08:29.66Z</time></trkpt><trkpt lat="43.1464066" lon="12.2006325"><ele>320.3333333333333</ele><time>2026-04-06T09:08:30.66Z</time></trkpt><trkpt lat="43.1463817" lon="12.2007362"><ele>319.6666666666667</ele><time>2026-04-06T09:08:31.66Z</time></trkpt><trkpt lat="43.1463658" lon="12.2008434"><ele>319.0</ele><time>2026-04-06T09:08:32.661Z</time></trkpt><trkpt lat="43.1463566" lon="12.200954"><ele>318.33333333333337</ele><time>2026-04-06T09:08:33.665Z</time></trkpt><trkpt lat="43.1463444" lon="12.2010665"><ele>317.6666666666667</ele><time>2026-04-06T09:08:34.659Z</time></trkpt><trkpt lat="43.1463372" lon="12.2011719"><ele>317.0</ele><time>2026-04-06T09:08:35.658Z</time></trkpt><trkpt lat="43.146329" lon="12.2012817"><ele>317.0</ele><time>2026-04-06T09:08:36.645Z</time></trkpt><trkpt lat="43.1463238" lon="12.2013998"><ele>317.0</ele><time>2026-04-06T09:08:37.663Z</time></trkpt><trkpt lat="43.1463203" lon="12.2015125"><ele>317.0</ele><time>2026-04-06T09:08:38.662Z</time></trkpt><trkpt lat="43.1463111" lon="12.2016136"><ele>317.0</ele><time>2026-04-06T09:08:39.654Z</time></trkpt><trkpt lat="43.1463065" lon="12.2017283"><ele>317.0</ele><time>2026-04-06T09:08:40.658Z</time></trkpt><trkpt lat="43.1463046" lon="12.2018383"><ele>317.0</ele><time>2026-04-06T09:08:41.659Z</time></trkpt><trkpt lat="43.1463029" lon="12.2019549"><ele>316.5</ele><time>2026-04-06T09:08:42.659Z</time></trkpt><trkpt lat="43.1462952" lon="12.2020616"><ele>316.0</ele><time>2026-04-06T09:08:43.662Z</time></trkpt><trkpt lat="43.1462858" lon="12.202176"><ele>315.5</ele><time>2026-04-06T09:08:44.662Z</time></trkpt><trkpt lat="43.1462659" lon="12.2022918"><ele>315.0</ele><time>2026-04-06T09:08:45.662Z</time></trkpt><trkpt lat="43.1462422" lon="12.2023912"><ele>314.5</ele><time>2026-04-06T09:08:46.659Z</time></trkpt><trkpt lat="43.1461906" lon="12.2024764"><ele>314.0</ele><time>2026-04-06T09:08:47.658Z</time></trkpt><trkpt lat="43.1461285" lon="12.2025445"><ele>315.0</ele><time>2026-04-06T09:08:48.657Z</time></trkpt><trkpt lat="43.1460476" lon="12.2025801"><ele>316.0</ele><time>2026-04-06T09:08:49.647Z</time></trkpt><trkpt lat="43.1459626" lon="12.2025923"><ele>317.0</ele><time>2026-04-06T09:08:50.647Z</time></trkpt><trkpt lat="43.1458861" lon="12.2025971"><ele>318.0</ele><time>2026-04-06T09:08:51.661Z</time></trkpt><trkpt lat="43.1458083" lon="12.2025834"><ele>319.0</ele><time>2026-04-06T09:08:52.66Z</time></trkpt><trkpt lat="43.1457306" lon="12.2025712"><ele>320.0</ele><time>2026-04-06T09:08:53.66Z</time></trkpt><trkpt lat="43.1456504" lon="12.2025603"><ele>320.0</ele><time>2026-04-06T09:08:54.74Z</time></trkpt><trkpt lat="43.1455755" lon="12.2025469"><ele>320.0</ele><time>2026-04-06T09:08:55.658Z</time></trkpt><trkpt lat="43.1454985" lon="12.2025314"><ele>320.0</ele><time>2026-04-06T09:08:56.645Z</time></trkpt><trkpt lat="43.145422" lon="12.2025136"><ele>320.0</ele><time>2026-04-06T09:08:57.652Z</time></trkpt><trkpt lat="43.1453433" lon="12.2024977"><ele>320.0</ele><time>2026-04-06T09:08:58.652Z</time></trkpt><trkpt lat="43.1452602" lon="12.2024767"><ele>320.0</ele><time>2026-04-06T09:08:59.646Z</time></trkpt><trkpt lat="43.1451781" lon="12.2024631"><ele>320.0</ele><time>2026-04-06T09:09:00.757Z</time></trkpt><trkpt lat="43.1450147" lon="12.2024253"><ele>320.0</ele><time>2026-04-06T09:09:02.641Z</time></trkpt><trkpt lat="43.1449359" lon="12.2024038"><ele>320.0</ele><time>2026-04-06T09:09:03.641Z</time></trkpt><trkpt lat="43.1448563" lon="12.2023883"><ele>320.0</ele><time>2026-04-06T09:09:04.65Z</time></trkpt><trkpt lat="43.1447775" lon="12.2023735"><ele>320.0</ele><time>2026-04-06T09:09:05.646Z</time></trkpt><trkpt lat="43.1446963" lon="12.2023601"><ele>319.5</ele><time>2026-04-06T09:09:06.645Z</time></trkpt><trkpt lat="43.1446169" lon="12.2023411"><ele>319.0</ele><time>2026-04-06T09:09:07.648Z</time></trkpt><trkpt lat="43.1445355" lon="12.2023248"><ele>318.5</ele><time>2026-04-06T09:09:08.648Z</time></trkpt><trkpt lat="43.1444518" lon="12.2023176"><ele>318.0</ele><time>2026-04-06T09:09:09.659Z</time></trkpt><trkpt lat="43.1443668" lon="12.2023056"><ele>317.5</ele><time>2026-04-06T09:09:10.662Z</time></trkpt><trkpt lat="43.1442914" lon="12.2023032"><ele>317.0</ele><time>2026-04-06T09:09:11.66Z</time></trkpt><trkpt lat="43.1442105" lon="12.2023179"><ele>317.0</ele><time>2026-04-06T09:09:12.661Z</time></trkpt><trkpt lat="43.1441376" lon="12.2023468"><ele>317.0</ele><time>2026-04-06T09:09:13.663Z</time></trkpt><trkpt lat="43.1440641" lon="12.2023812"><ele>317.0</ele><time>2026-04-06T09:09:14.657Z</time></trkpt><trkpt lat="43.1439858" lon="12.2024217"><ele>317.0</ele><time>2026-04-06T09:09:15.648Z</time></trkpt><trkpt lat="43.1439177" lon="12.2024573"><ele>317.0</ele><time>2026-04-06T09:09:16.663Z</time></trkpt><trkpt lat="43.1438454" lon="12.2024916"><ele>317.0</ele><time>2026-04-06T09:09:17.67Z</time></trkpt><trkpt lat="43.1437809" lon="12.2025288"><ele>315.8571428571429</ele><time>2026-04-06T09:09:18.658Z</time></trkpt><trkpt lat="43.143707" lon="12.2025653"><ele>314.7142857142857</ele><time>2026-04-06T09:09:19.66Z</time></trkpt><trkpt lat="43.1436384" lon="12.202599"><ele>313.57142857142856</ele><time>2026-04-06T09:09:20.66Z</time></trkpt><trkpt lat="43.143569" lon="12.2026322"><ele>312.42857142857144</ele><time>2026-04-06T09:09:21.662Z</time></trkpt><trkpt lat="43.1435023" lon="12.2026654"><ele>311.2857142857143</ele><time>2026-04-06T09:09:22.659Z</time></trkpt><trkpt lat="43.1434366" lon="12.2027109"><ele>310.14285714285717</ele><time>2026-04-06T09:09:23.659Z</time></trkpt><trkpt lat="43.1433731" lon="12.2027548"><ele>309.0</ele><time>2026-04-06T09:09:24.662Z</time></trkpt><trkpt lat="43.1432657" lon="12.2028356"><ele>308.1666666666667</ele><time>2026-04-06T09:09:26.659Z</time></trkpt><trkpt lat="43.1432039" lon="12.2028754"><ele>307.3333333333333</ele><time>2026-04-06T09:09:27.66Z</time></trkpt><trkpt lat="43.1431475" lon="12.2029219"><ele>306.5</ele><time>2026-04-06T09:09:28.656Z</time></trkpt><trkpt lat="43.1430995" lon="12.2029782"><ele>305.66666666666663</ele><time>2026-04-06T09:09:29.66Z</time></trkpt><trkpt lat="43.1430431" lon="12.2030285"><ele>304.8333333333333</ele><time>2026-04-06T09:09:30.657Z</time></trkpt><trkpt lat="43.1429859" lon="12.2030783"><ele>304.0</ele><time>2026-04-06T09:09:31.662Z</time></trkpt><trkpt lat="43.1428811" lon="12.2031782"><ele>304.0</ele><time>2026-04-06T09:09:33.658Z</time></trkpt><trkpt lat="43.1428293" lon="12.2032276"><ele>304.0</ele><time>2026-04-06T09:09:34.656Z</time></trkpt><trkpt lat="43.1427208" lon="12.2033113"><ele>304.0</ele><time>2026-04-06T09:09:36.658Z</time></trkpt><trkpt lat="43.1426087" lon="12.2034139"><ele>304.0</ele><time>2026-04-06T09:09:38.66Z</time></trkpt><trkpt lat="43.1425565" lon="12.2034658"><ele>304.0</ele><time>2026-04-06T09:09:39.656Z</time></trkpt><trkpt lat="43.1425004" lon="12.2035227"><ele>304.0</ele><time>2026-04-06T09:09:40.657Z</time></trkpt><trkpt lat="43.1424442" lon="12.2035734"><ele>304.0</ele><time>2026-04-06T09:09:41.659Z</time></trkpt><trkpt lat="43.1423862" lon="12.2036253"><ele>304.0</ele><time>2026-04-06T09:09:42.659Z</time></trkpt><trkpt lat="43.1423264" lon="12.203687"><ele>304.0</ele><time>2026-04-06T09:09:43.658Z</time></trkpt><trkpt lat="43.1422715" lon="12.2037407"><ele>304.0</ele><time>2026-04-06T09:09:44.65Z</time></trkpt><trkpt lat="43.1421813" lon="12.2038665"><ele>304.0</ele><time>2026-04-06T09:09:46.656Z</time></trkpt><trkpt lat="43.142147" lon="12.2039422"><ele>302.8</ele><time>2026-04-06T09:09:47.657Z</time></trkpt><trkpt lat="43.1421259" lon="12.2040272"><ele>301.59999999999997</ele><time>2026-04-06T09:09:48.663Z</time></trkpt><trkpt lat="43.1421104" lon="12.2041992"><ele>300.4</ele><time>2026-04-06T09:09:50.658Z</time></trkpt><trkpt lat="43.1421097" lon="12.2042881"><ele>299.2</ele><time>2026-04-06T09:09:51.657Z</time></trkpt><trkpt lat="43.1421086" lon="12.2044716"><ele>298.0</ele><time>2026-04-06T09:09:53.659Z</time></trkpt><trkpt lat="43.1421158" lon="12.204562"><ele>298.0</ele><time>2026-04-06T09:09:54.659Z</time></trkpt><trkpt lat="43.1421249" lon="12.204653"><ele>298.0</ele><time>2026-04-06T09:09:55.66Z</time></trkpt><trkpt lat="43.1421365" lon="12.204822"><ele>298.0</ele><time>2026-04-06T09:09:57.658Z</time></trkpt><trkpt lat="43.1421375" lon="12.2049131"><ele>298.0</ele><time>2026-04-06T09:09:58.752Z</time></trkpt><trkpt lat="43.1421466" lon="12.2050937"><ele>298.0</ele><time>2026-04-06T09:10:00.662Z</time></trkpt><trkpt lat="43.1421461" lon="12.2051889"><ele>298.4</ele><time>2026-04-06T09:10:01.657Z</time></trkpt><trkpt lat="43.1421499" lon="12.205369"><ele>298.8</ele><time>2026-04-06T09:10:03.659Z</time></trkpt><trkpt lat="43.14216" lon="12.2054645"><ele>299.2</ele><time>2026-04-06T09:10:04.765Z</time></trkpt><trkpt lat="43.1421657" lon="12.2056455"><ele>299.6</ele><time>2026-04-06T09:10:06.662Z</time></trkpt><trkpt lat="43.1421682" lon="12.2057389"><ele>300.0</ele><time>2026-04-06T09:10:07.661Z</time></trkpt><trkpt lat="43.1421748" lon="12.2058345"><ele>300.2857142857143</ele><time>2026-04-06T09:10:08.66Z</time></trkpt><trkpt lat="43.1421772" lon="12.2059298"><ele>300.57142857142856</ele><time>2026-04-06T09:10:09.656Z</time></trkpt><trkpt lat="43.142181" lon="12.2060305"><ele>300.8571428571429</ele><time>2026-04-06T09:10:10.661Z</time></trkpt><trkpt lat="43.1421806" lon="12.2061304"><ele>301.1428571428571</ele><time>2026-04-06T09:10:11.658Z</time></trkpt><trkpt lat="43.1421663" lon="12.2062309"><ele>301.42857142857144</ele><time>2026-04-06T09:10:12.664Z</time></trkpt><trkpt lat="43.1421283" lon="12.2063184"><ele>301.7142857142857</ele><time>2026-04-06T09:10:13.662Z</time></trkpt><trkpt lat="43.1420834" lon="12.206396"><ele>302.0</ele><time>2026-04-06T09:10:14.658Z</time></trkpt><trkpt lat="43.1420013" lon="12.2064039"><ele>302.0</ele><time>2026-04-06T09:10:15.656Z</time></trkpt><trkpt lat="43.1419259" lon="12.2064068"><ele>302.0</ele><time>2026-04-06T09:10:16.661Z</time></trkpt><trkpt lat="43.1418445" lon="12.2064094"><ele>302.0</ele><time>2026-04-06T09:10:17.663Z</time></trkpt><trkpt lat="43.1417607" lon="12.2064153"><ele>302.0</ele><time>2026-04-06T09:10:18.674Z</time></trkpt><trkpt lat="43.1416842" lon="12.2064221"><ele>302.0</ele><time>2026-04-06T09:10:19.664Z</time></trkpt><trkpt lat="43.14161" lon="12.2064421"><ele>302.0</ele><time>2026-04-06T09:10:20.662Z</time></trkpt><trkpt lat="43.1415274" lon="12.2064687"><ele>300.83333333333337</ele><time>2026-04-06T09:10:21.657Z</time></trkpt><trkpt lat="43.1414475" lon="12.2064934"><ele>299.6666666666667</ele><time>2026-04-06T09:10:22.655Z</time></trkpt><trkpt lat="43.1413656" lon="12.2065271"><ele>298.5</ele><time>2026-04-06T09:10:23.662Z</time></trkpt><trkpt lat="43.1412792" lon="12.2065605"><ele>297.3333333333333</ele><time>2026-04-06T09:10:24.659Z</time></trkpt><trkpt lat="43.1411986" lon="12.2065995"><ele>296.16666666666663</ele><time>2026-04-06T09:10:25.657Z</time></trkpt><trkpt lat="43.1411219" lon="12.2066309"><ele>295.0</ele><time>2026-04-06T09:10:26.66Z</time></trkpt><trkpt lat="43.1410426" lon="12.2066705"><ele>295.0</ele><time>2026-04-06T09:10:27.664Z</time></trkpt><trkpt lat="43.1409634" lon="12.2067047"><ele>295.0</ele><time>2026-04-06T09:10:28.663Z</time></trkpt><trkpt lat="43.1408785" lon="12.2066929"><ele>295.0</ele><time>2026-04-06T09:10:29.66Z</time></trkpt><trkpt lat="43.1408007" lon="12.2066647"><ele>295.0</ele><time>2026-04-06T09:10:30.659Z</time></trkpt><trkpt lat="43.1407191" lon="12.206627"><ele>295.0</ele><time>2026-04-06T09:10:31.661Z</time></trkpt><trkpt lat="43.1406369" lon="12.2065858"><ele>295.0</ele><time>2026-04-06T09:10:32.664Z</time></trkpt><trkpt lat="43.1405585" lon="12.2065411"><ele>294.16666666666663</ele><time>2026-04-06T09:10:33.66Z</time></trkpt><trkpt lat="43.1404805" lon="12.2064965"><ele>293.3333333333333</ele><time>2026-04-06T09:10:34.657Z</time></trkpt><trkpt lat="43.1403993" lon="12.206448"><ele>292.5</ele><time>2026-04-06T09:10:35.672Z</time></trkpt><trkpt lat="43.1403216" lon="12.2063978"><ele>291.6666666666667</ele><time>2026-04-06T09:10:36.656Z</time></trkpt><trkpt lat="43.1402408" lon="12.2063485"><ele>290.83333333333337</ele><time>2026-04-06T09:10:37.659Z</time></trkpt><trkpt lat="43.1401644" lon="12.2062988"><ele>290.0</ele><time>2026-04-06T09:10:38.657Z</time></trkpt><trkpt lat="43.1400811" lon="12.206259"><ele>289.6666666666667</ele><time>2026-04-06T09:10:39.66Z</time></trkpt><trkpt lat="43.1400062" lon="12.2062218"><ele>289.33333333333337</ele><time>2026-04-06T09:10:40.662Z</time></trkpt><trkpt lat="43.1399261" lon="12.2061744"><ele>289.0</ele><time>2026-04-06T09:10:41.657Z</time></trkpt><trkpt lat="43.1398533" lon="12.2061285"><ele>288.6666666666667</ele><time>2026-04-06T09:10:42.754Z</time></trkpt><trkpt lat="43.1397808" lon="12.2060863"><ele>288.3333333333333</ele><time>2026-04-06T09:10:43.661Z</time></trkpt><trkpt lat="43.1397066" lon="12.206044"><ele>288.0</ele><time>2026-04-06T09:10:44.658Z</time></trkpt><trkpt lat="43.1396309" lon="12.2060026"><ele>287.5</ele><time>2026-04-06T09:10:45.659Z</time></trkpt><trkpt lat="43.1395509" lon="12.2059676"><ele>287.0</ele><time>2026-04-06T09:10:46.651Z</time></trkpt><trkpt lat="43.1394737" lon="12.2059308"><ele>286.5</ele><time>2026-04-06T09:10:47.658Z</time></trkpt><trkpt lat="43.1393912" lon="12.2059014"><ele>286.0</ele><time>2026-04-06T09:10:48.658Z</time></trkpt><trkpt lat="43.1393092" lon="12.2058801"><ele>285.5</ele><time>2026-04-06T09:10:49.678Z</time></trkpt><trkpt lat="43.1392266" lon="12.2058674"><ele>285.0</ele><time>2026-04-06T09:10:50.654Z</time></trkpt><trkpt lat="43.1391428" lon="12.2058638"><ele>285.0</ele><time>2026-04-06T09:10:51.661Z</time></trkpt><trkpt lat="43.1390558" lon="12.2058645"><ele>285.0</ele><time>2026-04-06T09:10:52.66Z</time></trkpt><trkpt lat="43.1389661" lon="12.2058682"><ele>285.0</ele><time>2026-04-06T09:10:53.755Z</time></trkpt><trkpt lat="43.1388762" lon="12.205889"><ele>285.0</ele><time>2026-04-06T09:10:54.655Z</time></trkpt><trkpt lat="43.1387977" lon="12.2059384"><ele>285.0</ele><time>2026-04-06T09:10:55.66Z</time></trkpt><trkpt lat="43.1387273" lon="12.2060094"><ele>285.0</ele><time>2026-04-06T09:10:56.657Z</time></trkpt><trkpt lat="43.138671" lon="12.2060968"><ele>284.3333333333333</ele><time>2026-04-06T09:10:57.657Z</time></trkpt><trkpt lat="43.1386199" lon="12.2061915"><ele>283.6666666666667</ele><time>2026-04-06T09:10:58.663Z</time></trkpt><trkpt lat="43.1385722" lon="12.2062905"><ele>283.0</ele><time>2026-04-06T09:10:59.648Z</time></trkpt><trkpt lat="43.1385293" lon="12.206394"><ele>282.33333333333337</ele><time>2026-04-06T09:11:00.656Z</time></trkpt><trkpt lat="43.1384911" lon="12.2064981"><ele>281.6666666666667</ele><time>2026-04-06T09:11:01.657Z</time></trkpt><trkpt lat="43.1384476" lon="12.2066021"><ele>281.0</ele><time>2026-04-06T09:11:02.657Z</time></trkpt><trkpt lat="43.1384024" lon="12.2067042"><ele>281.0</ele><time>2026-04-06T09:11:03.657Z</time></trkpt><trkpt lat="43.1383629" lon="12.2068042"><ele>281.0</ele><time>2026-04-06T09:11:04.754Z</time></trkpt><trkpt lat="43.1383179" lon="12.2069047"><ele>281.0</ele><time>2026-04-06T09:11:05.659Z</time></trkpt><trkpt lat="43.1382775" lon="12.2070056"><ele>281.0</ele><time>2026-04-06T09:11:06.663Z</time></trkpt><trkpt lat="43.1382305" lon="12.2071039"><ele>281.0</ele><time>2026-04-06T09:11:07.665Z</time></trkpt><trkpt lat="43.1381952" lon="12.2072007"><ele>281.0</ele><time>2026-04-06T09:11:08.658Z</time></trkpt><trkpt lat="43.1381686" lon="12.2072985"><ele>280.83333333333337</ele><time>2026-04-06T09:11:09.657Z</time></trkpt><trkpt lat="43.1381516" lon="12.2073994"><ele>280.6666666666667</ele><time>2026-04-06T09:11:10.659Z</time></trkpt><trkpt lat="43.1381423" lon="12.207501"><ele>280.5</ele><time>2026-04-06T09:11:11.656Z</time></trkpt><trkpt lat="43.1381545" lon="12.2076039"><ele>280.3333333333333</ele><time>2026-04-06T09:11:12.654Z</time></trkpt><trkpt lat="43.138191" lon="12.2077008"><ele>280.16666666666663</ele><time>2026-04-06T09:11:13.66Z</time></trkpt><trkpt lat="43.1382442" lon="12.2077783"><ele>280.0</ele><time>2026-04-06T09:11:14.663Z</time></trkpt><trkpt lat="43.1383115" lon="12.2078296"><ele>280.0</ele><time>2026-04-06T09:11:15.758Z</time></trkpt><trkpt lat="43.1383895" lon="12.2078544"><ele>280.0</ele><time>2026-04-06T09:11:16.669Z</time></trkpt><trkpt lat="43.1384693" lon="12.2078627"><ele>280.0</ele><time>2026-04-06T09:11:17.664Z</time></trkpt><trkpt lat="43.1385531" lon="12.2078527"><ele>280.0</ele><time>2026-04-06T09:11:18.662Z</time></trkpt><trkpt lat="43.1386337" lon="12.2078341"><ele>280.0</ele><time>2026-04-06T09:11:19.68Z</time></trkpt><trkpt lat="43.1387172" lon="12.2078127"><ele>280.0</ele><time>2026-04-06T09:11:20.679Z</time></trkpt><trkpt lat="43.1387973" lon="12.2077823"><ele>280.0</ele><time>2026-04-06T09:11:21.659Z</time></trkpt><trkpt lat="43.1388766" lon="12.2077565"><ele>280.0</ele><time>2026-04-06T09:11:22.668Z</time></trkpt><trkpt lat="43.1389541" lon="12.2077386"><ele>280.0</ele><time>2026-04-06T09:11:23.659Z</time></trkpt><trkpt lat="43.139031" lon="12.2077174"><ele>280.0</ele><time>2026-04-06T09:11:24.657Z</time></trkpt><trkpt lat="43.1391101" lon="12.2076866"><ele>280.0</ele><time>2026-04-06T09:11:25.661Z</time></trkpt><trkpt lat="43.1391903" lon="12.2076504"><ele>280.0</ele><time>2026-04-06T09:11:26.655Z</time></trkpt><trkpt lat="43.1392719" lon="12.2076167"><ele>279.5</ele><time>2026-04-06T09:11:27.664Z</time></trkpt><trkpt lat="43.1393553" lon="12.2075971"><ele>279.0</ele><time>2026-04-06T09:11:28.661Z</time></trkpt><trkpt lat="43.1394352" lon="12.2075668"><ele>278.5</ele><time>2026-04-06T09:11:29.655Z</time></trkpt><trkpt lat="43.139512" lon="12.2075269"><ele>278.0</ele><time>2026-04-06T09:11:30.67Z</time></trkpt><trkpt lat="43.1395946" lon="12.2074986"><ele>277.5</ele><time>2026-04-06T09:11:31.662Z</time></trkpt><trkpt lat="43.1396742" lon="12.2074682"><ele>277.0</ele><time>2026-04-06T09:11:32.658Z</time></trkpt><trkpt lat="43.1397646" lon="12.2074413"><ele>277.0</ele><time>2026-04-06T09:11:33.658Z</time></trkpt><trkpt lat="43.1398528" lon="12.2074195"><ele>277.0</ele><time>2026-04-06T09:11:34.656Z</time></trkpt><trkpt lat="43.1399405" lon="12.2074102"><ele>277.0</ele><time>2026-04-06T09:11:35.676Z</time></trkpt><trkpt lat="43.1400327" lon="12.2074114"><ele>277.0</ele><time>2026-04-06T09:11:36.659Z</time></trkpt><trkpt lat="43.1401255" lon="12.2074215"><ele>277.0</ele><time>2026-04-06T09:11:37.757Z</time></trkpt><trkpt lat="43.1403109" lon="12.20746"><ele>277.0</ele><time>2026-04-06T09:11:39.661Z</time></trkpt><trkpt lat="43.1403955" lon="12.207493"><ele>277.0</ele><time>2026-04-06T09:11:40.658Z</time></trkpt><trkpt lat="43.1404911" lon="12.207526"><ele>277.0</ele><time>2026-04-06T09:11:41.662Z</time></trkpt><trkpt lat="43.1405742" lon="12.2075695"><ele>277.0</ele><time>2026-04-06T09:11:42.667Z</time></trkpt><trkpt lat="43.1406664" lon="12.2076114"><ele>277.0</ele><time>2026-04-06T09:11:43.671Z</time></trkpt><trkpt lat="43.1407512" lon="12.2076561"><ele>277.0</ele><time>2026-04-06T09:11:44.656Z</time></trkpt><trkpt lat="43.1408384" lon="12.2076926"><ele>277.0</ele><time>2026-04-06T09:11:45.659Z</time></trkpt><trkpt lat="43.1409287" lon="12.2077338"><ele>277.0</ele><time>2026-04-06T09:11:46.661Z</time></trkpt><trkpt lat="43.1410191" lon="12.2077761"><ele>277.0</ele><time>2026-04-06T09:11:47.662Z</time></trkpt><trkpt lat="43.1411104" lon="12.2078152"><ele>277.0</ele><time>2026-04-06T09:11:48.662Z</time></trkpt><trkpt lat="43.1411963" lon="12.2078569"><ele>277.0</ele><time>2026-04-06T09:11:49.658Z</time></trkpt><trkpt lat="43.1412842" lon="12.2078975"><ele>277.0</ele><time>2026-04-06T09:11:50.661Z</time></trkpt><trkpt lat="43.1413716" lon="12.2079362"><ele>277.0</ele><time>2026-04-06T09:11:51.647Z</time></trkpt><trkpt lat="43.1414589" lon="12.2079775"><ele>277.0</ele><time>2026-04-06T09:11:52.66Z</time></trkpt><trkpt lat="43.1415482" lon="12.2080151"><ele>277.0</ele><time>2026-04-06T09:11:53.669Z</time></trkpt><trkpt lat="43.1416339" lon="12.2080436"><ele>277.66666666666663</ele><time>2026-04-06T09:11:54.658Z</time></trkpt><trkpt lat="43.1417184" lon="12.2080785"><ele>278.3333333333333</ele><time>2026-04-06T09:11:55.67Z</time></trkpt><trkpt lat="43.1418025" lon="12.2081193"><ele>279.0</ele><time>2026-04-06T09:11:56.657Z</time></trkpt><trkpt lat="43.141871" lon="12.208156"><ele>279.6666666666667</ele><time>2026-04-06T09:11:57.659Z</time></trkpt><trkpt lat="43.141949" lon="12.2081816"><ele>280.33333333333337</ele><time>2026-04-06T09:11:58.663Z</time></trkpt><trkpt lat="43.1420248" lon="12.2082148"><ele>281.0</ele><time>2026-04-06T09:11:59.755Z</time></trkpt><trkpt lat="43.1420975" lon="12.2082491"><ele>278.0</ele><time>2026-04-06T09:12:00.666Z</time></trkpt><trkpt lat="43.1421672" lon="12.2082897"><ele>275.0</ele><time>2026-04-06T09:12:01.662Z</time></trkpt><trkpt lat="43.1422393" lon="12.2083312"><ele>272.0</ele><time>2026-04-06T09:12:02.662Z</time></trkpt><trkpt lat="43.1423097" lon="12.2083661"><ele>269.0</ele><time>2026-04-06T09:12:03.67Z</time></trkpt><trkpt lat="43.1423942" lon="12.2083937"><ele>266.0</ele><time>2026-04-06T09:12:04.659Z</time></trkpt><trkpt lat="43.142472" lon="12.208419"><ele>263.0</ele><time>2026-04-06T09:12:05.647Z</time></trkpt><trkpt lat="43.1425458" lon="12.2084486"><ele>262.83333333333337</ele><time>2026-04-06T09:12:06.653Z</time></trkpt><trkpt lat="43.1426184" lon="12.2084818"><ele>262.6666666666667</ele><time>2026-04-06T09:12:07.659Z</time></trkpt><trkpt lat="43.1426898" lon="12.2085125"><ele>262.5</ele><time>2026-04-06T09:12:08.662Z</time></trkpt><trkpt lat="43.1427661" lon="12.2085491"><ele>262.3333333333333</ele><time>2026-04-06T09:12:09.659Z</time></trkpt><trkpt lat="43.1428432" lon="12.208593"><ele>262.16666666666663</ele><time>2026-04-06T09:12:10.657Z</time></trkpt><trkpt lat="43.1429164" lon="12.2086362"><ele>262.0</ele><time>2026-04-06T09:12:11.659Z</time></trkpt><trkpt lat="43.14298" lon="12.2086829"><ele>262.0</ele><time>2026-04-06T09:12:12.659Z</time></trkpt><trkpt lat="43.1430565" lon="12.20875"><ele>262.0</ele><time>2026-04-06T09:12:13.659Z</time></trkpt><trkpt lat="43.1431227" lon="12.2088178"><ele>262.0</ele><time>2026-04-06T09:12:14.657Z</time></trkpt><trkpt lat="43.1431834" lon="12.2088926"><ele>262.0</ele><time>2026-04-06T09:12:15.663Z</time></trkpt><trkpt lat="43.1432456" lon="12.2089796"><ele>262.0</ele><time>2026-04-06T09:12:16.661Z</time></trkpt><trkpt lat="43.1433015" lon="12.209057"><ele>262.0</ele><time>2026-04-06T09:12:17.661Z</time></trkpt><trkpt lat="43.1433536" lon="12.2091389"><ele>261.0</ele><time>2026-04-06T09:12:18.672Z</time></trkpt><trkpt lat="43.1434027" lon="12.2092287"><ele>260.0</ele><time>2026-04-06T09:12:19.647Z</time></trkpt><trkpt lat="43.1434505" lon="12.2093138"><ele>259.0</ele><time>2026-04-06T09:12:20.658Z</time></trkpt><trkpt lat="43.1434977" lon="12.2094054"><ele>258.0</ele><time>2026-04-06T09:12:21.659Z</time></trkpt><trkpt lat="43.1435441" lon="12.2095002"><ele>257.0</ele><time>2026-04-06T09:12:22.66Z</time></trkpt><trkpt lat="43.143598" lon="12.2095971"><ele>256.0</ele><time>2026-04-06T09:12:23.66Z</time></trkpt><trkpt lat="43.1436489" lon="12.2096873"><ele>255.99999999999997</ele><time>2026-04-06T09:12:24.661Z</time></trkpt><trkpt lat="43.1436995" lon="12.2097717"><ele>256.0</ele><time>2026-04-06T09:12:25.657Z</time></trkpt><trkpt lat="43.1437483" lon="12.2098633"><ele>256.0</ele><time>2026-04-06T09:12:26.667Z</time></trkpt><trkpt lat="43.1438005" lon="12.2099504"><ele>256.0</ele><time>2026-04-06T09:12:27.757Z</time></trkpt><trkpt lat="43.1438482" lon="12.2100336"><ele>255.99999999999997</ele><time>2026-04-06T09:12:28.657Z</time></trkpt><trkpt lat="43.143897" lon="12.2101195"><ele>256.0</ele><time>2026-04-06T09:12:29.656Z</time></trkpt><trkpt lat="43.1439414" lon="12.2102145"><ele>256.16666666666663</ele><time>2026-04-06T09:12:30.658Z</time></trkpt><trkpt lat="43.1439911" lon="12.2102959"><ele>256.3333333333333</ele><time>2026-04-06T09:12:31.659Z</time></trkpt><trkpt lat="43.1440416" lon="12.2103758"><ele>256.5</ele><time>2026-04-06T09:12:32.657Z</time></trkpt><trkpt lat="43.1440881" lon="12.210461"><ele>256.6666666666667</ele><time>2026-04-06T09:12:33.761Z</time></trkpt><trkpt lat="43.1441334" lon="12.2105508"><ele>256.83333333333337</ele><time>2026-04-06T09:12:34.672Z</time></trkpt><trkpt lat="43.1441779" lon="12.210635"><ele>257.0</ele><time>2026-04-06T09:12:35.658Z</time></trkpt><trkpt lat="43.144224" lon="12.210725"><ele>256.1666666666667</ele><time>2026-04-06T09:12:36.669Z</time></trkpt><trkpt lat="43.1442637" lon="12.2107999"><ele>255.33333333333334</ele><time>2026-04-06T09:12:37.66Z</time></trkpt><trkpt lat="43.1443132" lon="12.2108909"><ele>254.5</ele><time>2026-04-06T09:12:38.653Z</time></trkpt><trkpt lat="43.144355" lon="12.2109705"><ele>253.66666666666669</ele><time>2026-04-06T09:12:39.658Z</time></trkpt><trkpt lat="43.1444021" lon="12.211062"><ele>252.83333333333334</ele><time>2026-04-06T09:12:40.656Z</time></trkpt><trkpt lat="43.1444518" lon="12.2111463"><ele>252.0</ele><time>2026-04-06T09:12:41.658Z</time></trkpt><trkpt lat="43.1444966" lon="12.2112349"><ele>252.0</ele><time>2026-04-06T09:12:42.659Z</time></trkpt><trkpt lat="43.1445427" lon="12.2113241"><ele>252.0</ele><time>2026-04-06T09:12:43.658Z</time></trkpt><trkpt lat="43.1445804" lon="12.2114056"><ele>252.0</ele><time>2026-04-06T09:12:44.657Z</time></trkpt><trkpt lat="43.1446279" lon="12.2115055"><ele>252.0</ele><time>2026-04-06T09:12:45.659Z</time></trkpt><trkpt lat="43.1446553" lon="12.2115975"><ele>252.0</ele><time>2026-04-06T09:12:46.657Z</time></trkpt><trkpt lat="43.144681" lon="12.2117104"><ele>252.0</ele><time>2026-04-06T09:12:47.657Z</time></trkpt><trkpt lat="43.1447174" lon="12.2118073"><ele>250.85714285714286</ele><time>2026-04-06T09:12:48.661Z</time></trkpt><trkpt lat="43.1447396" lon="12.211897"><ele>249.71428571428572</ele><time>2026-04-06T09:12:49.67Z</time></trkpt><trkpt lat="43.1447612" lon="12.2119952"><ele>248.57142857142856</ele><time>2026-04-06T09:12:50.66Z</time></trkpt><trkpt lat="43.1447854" lon="12.2120806"><ele>247.42857142857142</ele><time>2026-04-06T09:12:51.66Z</time></trkpt><trkpt lat="43.1447992" lon="12.2121849"><ele>246.28571428571428</ele><time>2026-04-06T09:12:52.662Z</time></trkpt><trkpt lat="43.1448011" lon="12.2122949"><ele>245.1428571428571</ele><time>2026-04-06T09:12:53.659Z</time></trkpt><trkpt lat="43.1448081" lon="12.2124026"><ele>243.99999999999997</ele><time>2026-04-06T09:12:54.657Z</time></trkpt><trkpt lat="43.1448131" lon="12.2125168"><ele>243.66666666666666</ele><time>2026-04-06T09:12:55.755Z</time></trkpt><trkpt lat="43.1448064" lon="12.2126254"><ele>243.33333333333331</ele><time>2026-04-06T09:12:56.658Z</time></trkpt><trkpt lat="43.1447912" lon="12.2127284"><ele>243.0</ele><time>2026-04-06T09:12:57.668Z</time></trkpt><trkpt lat="43.1447687" lon="12.212831"><ele>242.66666666666669</ele><time>2026-04-06T09:12:58.657Z</time></trkpt><trkpt lat="43.1447381" lon="12.2129281"><ele>242.33333333333334</ele><time>2026-04-06T09:12:59.66Z</time></trkpt><trkpt lat="43.144709" lon="12.2130157"><ele>242.0</ele><time>2026-04-06T09:13:00.658Z</time></trkpt><trkpt lat="43.1446778" lon="12.2130995"><ele>241.39999999999998</ele><time>2026-04-06T09:13:01.656Z</time></trkpt><trkpt lat="43.1446377" lon="12.2131735"><ele>240.79999999999998</ele><time>2026-04-06T09:13:02.667Z</time></trkpt><trkpt lat="43.1445992" lon="12.2132474"><ele>240.2</ele><time>2026-04-06T09:13:03.668Z</time></trkpt><trkpt lat="43.144513" lon="12.2133537"><ele>239.6</ele><time>2026-04-06T09:13:05.66Z</time></trkpt><trkpt lat="43.1444004" lon="12.2133871"><ele>239.0</ele><time>2026-04-06T09:13:07.66Z</time></trkpt><trkpt lat="43.144278" lon="12.2133974"><ele>239.00000000000003</ele><time>2026-04-06T09:13:09.657Z</time></trkpt><trkpt lat="43.1442172" lon="12.2134292"><ele>239.0</ele><time>2026-04-06T09:13:10.657Z</time></trkpt><trkpt lat="43.1441264" lon="12.2135541"><ele>239.0</ele><time>2026-04-06T09:13:12.652Z</time></trkpt><trkpt lat="43.1440985" lon="12.2136346"><ele>239.0</ele><time>2026-04-06T09:13:13.674Z</time></trkpt><trkpt lat="43.1440915" lon="12.2138056"><ele>239.00000000000003</ele><time>2026-04-06T09:13:15.659Z</time></trkpt><trkpt lat="43.1441141" lon="12.2138899"><ele>239.0</ele><time>2026-04-06T09:13:16.644Z</time></trkpt><trkpt lat="43.1441521" lon="12.2139661"><ele>238.8571428571429</ele><time>2026-04-06T09:13:17.65Z</time></trkpt><trkpt lat="43.1441994" lon="12.2140287"><ele>238.71428571428572</ele><time>2026-04-06T09:13:18.656Z</time></trkpt><trkpt lat="43.1442561" lon="12.2140856"><ele>238.57142857142858</ele><time>2026-04-06T09:13:19.657Z</time></trkpt><trkpt lat="43.1443135" lon="12.2141348"><ele>238.42857142857144</ele><time>2026-04-06T09:13:20.656Z</time></trkpt><trkpt lat="43.1443544" lon="12.2142052"><ele>238.28571428571428</ele><time>2026-04-06T09:13:21.658Z</time></trkpt><trkpt lat="43.1443887" lon="12.2142851"><ele>238.14285714285714</ele><time>2026-04-06T09:13:22.652Z</time></trkpt><trkpt lat="43.1444128" lon="12.2143704"><ele>238.0</ele><time>2026-04-06T09:13:23.66Z</time></trkpt><trkpt lat="43.1444265" lon="12.2144659"><ele>238.0</ele><time>2026-04-06T09:13:24.656Z</time></trkpt><trkpt lat="43.1444345" lon="12.2145572"><ele>238.0</ele><time>2026-04-06T09:13:25.661Z</time></trkpt><trkpt lat="43.144431" lon="12.2146522"><ele>238.0</ele><time>2026-04-06T09:13:26.656Z</time></trkpt><trkpt lat="43.144419" lon="12.2147387"><ele>238.0</ele><time>2026-04-06T09:13:27.683Z</time></trkpt><trkpt lat="43.1444017" lon="12.2148273"><ele>238.0</ele><time>2026-04-06T09:13:28.648Z</time></trkpt><trkpt lat="43.1443828" lon="12.2149151"><ele>238.0</ele><time>2026-04-06T09:13:29.656Z</time></trkpt><trkpt lat="43.1443646" lon="12.2150024"><ele>238.0</ele><time>2026-04-06T09:13:30.647Z</time></trkpt><trkpt lat="43.1443411" lon="12.2150876"><ele>238.0</ele><time>2026-04-06T09:13:31.649Z</time></trkpt><trkpt lat="43.1443155" lon="12.2151738"><ele>238.0</ele><time>2026-04-06T09:13:32.665Z</time></trkpt><trkpt lat="43.1442943" lon="12.2152602"><ele>238.0</ele><time>2026-04-06T09:13:33.648Z</time></trkpt><trkpt lat="43.1442703" lon="12.2153435"><ele>238.0</ele><time>2026-04-06T09:13:34.654Z</time></trkpt><trkpt lat="43.1442499" lon="12.2154332"><ele>238.0</ele><time>2026-04-06T09:13:35.643Z</time></trkpt><trkpt lat="43.1442258" lon="12.2155185"><ele>238.0</ele><time>2026-04-06T09:13:36.747Z</time></trkpt><trkpt lat="43.1442015" lon="12.2155993"><ele>238.0</ele><time>2026-04-06T09:13:37.648Z</time></trkpt><trkpt lat="43.1441775" lon="12.2156827"><ele>238.0</ele><time>2026-04-06T09:13:38.641Z</time></trkpt><trkpt lat="43.14416" lon="12.215769"><ele>238.0</ele><time>2026-04-06T09:13:39.642Z</time></trkpt><trkpt lat="43.1441335" lon="12.2158511"><ele>238.0</ele><time>2026-04-06T09:13:40.644Z</time></trkpt><trkpt lat="43.1440895" lon="12.2160084"><ele>238.0</ele><time>2026-04-06T09:13:42.644Z</time></trkpt><trkpt lat="43.1440501" lon="12.2161623"><ele>238.0</ele><time>2026-04-06T09:13:44.644Z</time></trkpt><trkpt lat="43.144011" lon="12.2163173"><ele>237.75</ele><time>2026-04-06T09:13:46.657Z</time></trkpt><trkpt lat="43.1439658" lon="12.2164669"><ele>237.5</ele><time>2026-04-06T09:13:48.661Z</time></trkpt><trkpt lat="43.1439279" lon="12.2166193"><ele>237.25</ele><time>2026-04-06T09:13:50.657Z</time></trkpt><trkpt lat="43.1438895" lon="12.2167741"><ele>237.0</ele><time>2026-04-06T09:13:52.643Z</time></trkpt><trkpt lat="43.1438472" lon="12.2169283"><ele>237.0</ele><time>2026-04-06T09:13:54.648Z</time></trkpt><trkpt lat="43.1438066" lon="12.2170804"><ele>237.0</ele><time>2026-04-06T09:13:56.64Z</time></trkpt><trkpt lat="43.1437705" lon="12.2172354"><ele>237.0</ele><time>2026-04-06T09:13:58.686Z</time></trkpt><trkpt lat="43.1437351" lon="12.2173949"><ele>237.0</ele><time>2026-04-06T09:14:00.642Z</time></trkpt><trkpt lat="43.1436942" lon="12.2175481"><ele>237.5</ele><time>2026-04-06T09:14:02.66Z</time></trkpt><trkpt lat="43.1436523" lon="12.2177013"><ele>238.0</ele><time>2026-04-06T09:14:04.738Z</time></trkpt><trkpt lat="43.1436144" lon="12.217863"><ele>238.5</ele><time>2026-04-06T09:14:06.664Z</time></trkpt><trkpt lat="43.143571" lon="12.2180131"><ele>239.0</ele><time>2026-04-06T09:14:08.659Z</time></trkpt><trkpt lat="43.1435382" lon="12.21817"><ele>239.25</ele><time>2026-04-06T09:14:10.659Z</time></trkpt><trkpt lat="43.1435068" lon="12.2183266"><ele>239.5</ele><time>2026-04-06T09:14:12.675Z</time></trkpt><trkpt lat="43.1434675" lon="12.2184802"><ele>239.75</ele><time>2026-04-06T09:14:14.659Z</time></trkpt><trkpt lat="43.1434321" lon="12.2186437"><ele>240.0</ele><time>2026-04-06T09:14:16.66Z</time></trkpt><trkpt lat="43.1433992" lon="12.2188068"><ele>240.0</ele><time>2026-04-06T09:14:18.658Z</time></trkpt><trkpt lat="43.143356" lon="12.2189557"><ele>240.0</ele><time>2026-04-06T09:14:20.663Z</time></trkpt><trkpt lat="43.1433153" lon="12.2191016"><ele>240.0</ele><time>2026-04-06T09:14:22.663Z</time></trkpt><trkpt lat="43.1432762" lon="12.2192515"><ele>240.0</ele><time>2026-04-06T09:14:24.657Z</time></trkpt><trkpt lat="43.1432587" lon="12.2193372"><ele>240.0</ele><time>2026-04-06T09:14:25.661Z</time></trkpt><trkpt lat="43.1432134" lon="12.2194992"><ele>239.75</ele><time>2026-04-06T09:14:27.64Z</time></trkpt><trkpt lat="43.1431744" lon="12.2196465"><ele>239.5</ele><time>2026-04-06T09:14:29.658Z</time></trkpt><trkpt lat="43.143137" lon="12.219788"><ele>239.25</ele><time>2026-04-06T09:14:31.661Z</time></trkpt><trkpt lat="43.1430799" lon="12.2200005"><ele>239.0</ele><time>2026-04-06T09:14:34.661Z</time></trkpt><trkpt lat="43.1430399" lon="12.2201426"><ele>239.0</ele><time>2026-04-06T09:14:36.661Z</time></trkpt><trkpt lat="43.1430194" lon="12.2202245"><ele>238.99999999999997</ele><time>2026-04-06T09:14:37.665Z</time></trkpt><trkpt lat="43.1429789" lon="12.2203733"><ele>238.99999999999997</ele><time>2026-04-06T09:14:39.671Z</time></trkpt><trkpt lat="43.1429434" lon="12.2205246"><ele>239.0</ele><time>2026-04-06T09:14:41.659Z</time></trkpt><trkpt lat="43.1429138" lon="12.2206838"><ele>239.0</ele><time>2026-04-06T09:14:43.645Z</time></trkpt><trkpt lat="43.1428743" lon="12.2208401"><ele>239.0</ele><time>2026-04-06T09:14:45.664Z</time></trkpt><trkpt lat="43.1428366" lon="12.220989"><ele>239.0</ele><time>2026-04-06T09:14:47.644Z</time></trkpt><trkpt lat="43.1427853" lon="12.2212222"><ele>239.0</ele><time>2026-04-06T09:14:50.66Z</time></trkpt><trkpt lat="43.1427553" lon="12.2213767"><ele>239.0</ele><time>2026-04-06T09:14:52.66Z</time></trkpt><trkpt lat="43.1427189" lon="12.2215271"><ele>239.00000000000003</ele><time>2026-04-06T09:14:54.771Z</time></trkpt><trkpt lat="43.1426809" lon="12.2216873"><ele>239.0</ele><time>2026-04-06T09:14:56.659Z</time></trkpt><trkpt lat="43.1426425" lon="12.2218441"><ele>239.0</ele><time>2026-04-06T09:14:58.662Z</time></trkpt><trkpt lat="43.1426172" lon="12.2219241"><ele>239.0</ele><time>2026-04-06T09:14:59.667Z</time></trkpt><trkpt lat="43.1425967" lon="12.2220142"><ele>239.00000000000003</ele><time>2026-04-06T09:15:00.763Z</time></trkpt><trkpt lat="43.1425728" lon="12.2221027"><ele>239.0</ele><time>2026-04-06T09:15:01.672Z</time></trkpt><trkpt lat="43.1425531" lon="12.2221948"><ele>239.00000000000003</ele><time>2026-04-06T09:15:02.669Z</time></trkpt><trkpt lat="43.1425263" lon="12.2222932"><ele>239.0</ele><time>2026-04-06T09:15:03.663Z</time></trkpt><trkpt lat="43.1425029" lon="12.2223868"><ele>239.0</ele><time>2026-04-06T09:15:04.663Z</time></trkpt><trkpt lat="43.1424793" lon="12.2224897"><ele>239.0</ele><time>2026-04-06T09:15:05.658Z</time></trkpt><trkpt lat="43.1424531" lon="12.222592"><ele>239.00000000000003</ele><time>2026-04-06T09:15:06.661Z</time></trkpt><trkpt lat="43.1424297" lon="12.2226928"><ele>239.0</ele><time>2026-04-06T09:15:07.66Z</time></trkpt><trkpt lat="43.142403" lon="12.2227947"><ele>238.83333333333334</ele><time>2026-04-06T09:15:08.658Z</time></trkpt><trkpt lat="43.1423757" lon="12.2228954"><ele>238.66666666666669</ele><time>2026-04-06T09:15:09.665Z</time></trkpt><trkpt lat="43.1423525" lon="12.223001"><ele>238.5</ele><time>2026-04-06T09:15:10.657Z</time></trkpt><trkpt lat="43.1423302" lon="12.2231088"><ele>238.33333333333331</ele><time>2026-04-06T09:15:11.672Z</time></trkpt><trkpt lat="43.1423067" lon="12.223212"><ele>238.16666666666666</ele><time>2026-04-06T09:15:12.656Z</time></trkpt><trkpt lat="43.1422808" lon="12.2233141"><ele>238.0</ele><time>2026-04-06T09:15:13.664Z</time></trkpt><trkpt lat="43.1422557" lon="12.2234158"><ele>237.71428571428572</ele><time>2026-04-06T09:15:14.663Z</time></trkpt><trkpt lat="43.1422296" lon="12.2235135"><ele>237.42857142857144</ele><time>2026-04-06T09:15:15.658Z</time></trkpt><trkpt lat="43.1422033" lon="12.2236086"><ele>237.14285714285714</ele><time>2026-04-06T09:15:16.661Z</time></trkpt><trkpt lat="43.1421774" lon="12.2236965"><ele>236.85714285714286</ele><time>2026-04-06T09:15:17.659Z</time></trkpt><trkpt lat="43.1421528" lon="12.2237933"><ele>236.57142857142858</ele><time>2026-04-06T09:15:18.656Z</time></trkpt><trkpt lat="43.1421332" lon="12.2238889"><ele>236.28571428571428</ele><time>2026-04-06T09:15:19.639Z</time></trkpt><trkpt lat="43.1421135" lon="12.2239798"><ele>236.0</ele><time>2026-04-06T09:15:20.663Z</time></trkpt><trkpt lat="43.1420933" lon="12.2240753"><ele>235.8</ele><time>2026-04-06T09:15:21.663Z</time></trkpt><trkpt lat="43.1420731" lon="12.2241617"><ele>235.60000000000002</ele><time>2026-04-06T09:15:22.677Z</time></trkpt><trkpt lat="43.1420498" lon="12.2242434"><ele>235.4</ele><time>2026-04-06T09:15:23.76Z</time></trkpt><trkpt lat="43.1420099" lon="12.2243974"><ele>235.2</ele><time>2026-04-06T09:15:25.664Z</time></trkpt><trkpt lat="43.1419663" lon="12.224556"><ele>235.0</ele><time>2026-04-06T09:15:27.666Z</time></trkpt><trkpt lat="43.1419254" lon="12.2247127"><ele>235.5</ele><time>2026-04-06T09:15:29.653Z</time></trkpt><trkpt lat="43.1418863" lon="12.2248606"><ele>236.0</ele><time>2026-04-06T09:15:31.66Z</time></trkpt><trkpt lat="43.1418449" lon="12.2250034"><ele>236.5</ele><time>2026-04-06T09:15:33.657Z</time></trkpt><trkpt lat="43.1417781" lon="12.2252329"><ele>237.0</ele><time>2026-04-06T09:15:36.657Z</time></trkpt><trkpt lat="43.1417551" lon="12.2253133"><ele>237.0</ele><time>2026-04-06T09:15:37.657Z</time></trkpt><trkpt lat="43.1417101" lon="12.2254642"><ele>237.0</ele><time>2026-04-06T09:15:39.67Z</time></trkpt><trkpt lat="43.1416878" lon="12.2255465"><ele>237.0</ele><time>2026-04-06T09:15:40.662Z</time></trkpt><trkpt lat="43.1416616" lon="12.225629"><ele>237.0</ele><time>2026-04-06T09:15:41.659Z</time></trkpt><trkpt lat="43.1416135" lon="12.2257847"><ele>237.0</ele><time>2026-04-06T09:15:43.661Z</time></trkpt><trkpt lat="43.141577" lon="12.2259429"><ele>236.8</ele><time>2026-04-06T09:15:45.652Z</time></trkpt><trkpt lat="43.1415396" lon="12.2261041"><ele>236.6</ele><time>2026-04-06T09:15:47.661Z</time></trkpt><trkpt lat="43.1414786" lon="12.2262475"><ele>236.40000000000003</ele><time>2026-04-06T09:15:49.659Z</time></trkpt><trkpt lat="43.1414329" lon="12.2263095"><ele>236.20000000000002</ele><time>2026-04-06T09:15:50.661Z</time></trkpt><trkpt lat="43.1413864" lon="12.2263717"><ele>236.0</ele><time>2026-04-06T09:15:51.776Z</time></trkpt><trkpt lat="43.1413226" lon="12.226533"><ele>236.0</ele><time>2026-04-06T09:15:53.663Z</time></trkpt><trkpt lat="43.1413077" lon="12.2266221"><ele>236.0</ele><time>2026-04-06T09:15:54.658Z</time></trkpt><trkpt lat="43.1413074" lon="12.2267118"><ele>236.0</ele><time>2026-04-06T09:15:55.658Z</time></trkpt><trkpt lat="43.1413198" lon="12.2268063"><ele>236.0</ele><time>2026-04-06T09:15:56.658Z</time></trkpt><trkpt lat="43.1413252" lon="12.2268981"><ele>236.0</ele><time>2026-04-06T09:15:57.656Z</time></trkpt><trkpt lat="43.1413227" lon="12.2269948"><ele>236.0</ele><time>2026-04-06T09:15:58.654Z</time></trkpt><trkpt lat="43.1413001" lon="12.2270838"><ele>236.0</ele><time>2026-04-06T09:15:59.657Z</time></trkpt><trkpt lat="43.1412725" lon="12.2271685"><ele>236.00000000000003</ele><time>2026-04-06T09:16:00.656Z</time></trkpt><trkpt lat="43.1412464" lon="12.2272535"><ele>236.0</ele><time>2026-04-06T09:16:01.663Z</time></trkpt><trkpt lat="43.1412216" lon="12.2273428"><ele>236.0</ele><time>2026-04-06T09:16:02.659Z</time></trkpt><trkpt lat="43.1411985" lon="12.2274289"><ele>236.0</ele><time>2026-04-06T09:16:03.659Z</time></trkpt><trkpt lat="43.1411749" lon="12.2275125"><ele>236.00000000000003</ele><time>2026-04-06T09:16:04.659Z</time></trkpt><trkpt lat="43.1411539" lon="12.2276002"><ele>236.0</ele><time>2026-04-06T09:16:05.657Z</time></trkpt><trkpt lat="43.1411124" lon="12.2277646"><ele>236.0</ele><time>2026-04-06T09:16:07.661Z</time></trkpt><trkpt lat="43.1410728" lon="12.2279246"><ele>236.00000000000003</ele><time>2026-04-06T09:16:09.664Z</time></trkpt><trkpt lat="43.1410309" lon="12.2280854"><ele>236.00000000000003</ele><time>2026-04-06T09:16:11.658Z</time></trkpt><trkpt lat="43.1409938" lon="12.228248"><ele>236.0</ele><time>2026-04-06T09:16:13.657Z</time></trkpt><trkpt lat="43.140975" lon="12.2283309"><ele>236.0</ele><time>2026-04-06T09:16:14.665Z</time></trkpt><trkpt lat="43.1409356" lon="12.2284907"><ele>236.25</ele><time>2026-04-06T09:16:16.662Z</time></trkpt><trkpt lat="43.1408936" lon="12.2286484"><ele>236.5</ele><time>2026-04-06T09:16:18.663Z</time></trkpt><trkpt lat="43.1408582" lon="12.2288096"><ele>236.75</ele><time>2026-04-06T09:16:20.658Z</time></trkpt><trkpt lat="43.1408223" lon="12.2289655"><ele>237.0</ele><time>2026-04-06T09:16:22.664Z</time></trkpt><trkpt lat="43.1407897" lon="12.2291181"><ele>236.5</ele><time>2026-04-06T09:16:24.648Z</time></trkpt><trkpt lat="43.1407506" lon="12.2292702"><ele>236.0</ele><time>2026-04-06T09:16:26.653Z</time></trkpt><trkpt lat="43.1407192" lon="12.2294217"><ele>235.5</ele><time>2026-04-06T09:16:28.659Z</time></trkpt><trkpt lat="43.1406779" lon="12.2295748"><ele>235.0</ele><time>2026-04-06T09:16:30.657Z</time></trkpt><trkpt lat="43.1406421" lon="12.2297245"><ele>235.25</ele><time>2026-04-06T09:16:32.661Z</time></trkpt><trkpt lat="43.1406092" lon="12.2298807"><ele>235.5</ele><time>2026-04-06T09:16:34.664Z</time></trkpt><trkpt lat="43.1405859" lon="12.2300403"><ele>235.75</ele><time>2026-04-06T09:16:36.663Z</time></trkpt><trkpt lat="43.1405488" lon="12.2301943"><ele>236.0</ele><time>2026-04-06T09:16:38.674Z</time></trkpt><trkpt lat="43.1405069" lon="12.2303398"><ele>236.0</ele><time>2026-04-06T09:16:40.661Z</time></trkpt><trkpt lat="43.1404622" lon="12.230485"><ele>236.0</ele><time>2026-04-06T09:16:42.643Z</time></trkpt><trkpt lat="43.1404303" lon="12.2306361"><ele>236.0</ele><time>2026-04-06T09:16:44.669Z</time></trkpt><trkpt lat="43.1403945" lon="12.2307852"><ele>236.0</ele><time>2026-04-06T09:16:46.659Z</time></trkpt><trkpt lat="43.1403555" lon="12.2309349"><ele>236.0</ele><time>2026-04-06T09:16:48.661Z</time></trkpt><trkpt lat="43.1403185" lon="12.2310795"><ele>236.00000000000003</ele><time>2026-04-06T09:16:50.649Z</time></trkpt><trkpt lat="43.1402848" lon="12.2312216"><ele>236.00000000000003</ele><time>2026-04-06T09:16:52.658Z</time></trkpt><trkpt lat="43.1402449" lon="12.2313608"><ele>236.0</ele><time>2026-04-06T09:16:54.659Z</time></trkpt><trkpt lat="43.1402007" lon="12.2314951"><ele>236.0</ele><time>2026-04-06T09:16:56.668Z</time></trkpt><trkpt lat="43.1401149" lon="12.2315768"><ele>236.0</ele><time>2026-04-06T09:16:58.66Z</time></trkpt><trkpt lat="43.1400121" lon="12.2315696"><ele>236.00000000000003</ele><time>2026-04-06T09:17:00.662Z</time></trkpt><trkpt lat="43.1399116" lon="12.2315015"><ele>236.00000000000003</ele><time>2026-04-06T09:17:02.661Z</time></trkpt><trkpt lat="43.1398236" lon="12.2314197"><ele>236.0</ele><time>2026-04-06T09:17:04.662Z</time></trkpt><trkpt lat="43.1397309" lon="12.2313356"><ele>236.0</ele><time>2026-04-06T09:17:06.665Z</time></trkpt><trkpt lat="43.1396336" lon="12.2312416"><ele>236.0</ele><time>2026-04-06T09:17:08.658Z</time></trkpt><trkpt lat="43.1395371" lon="12.2311463"><ele>236.0</ele><time>2026-04-06T09:17:10.756Z</time></trkpt><trkpt lat="43.139435" lon="12.2310656"><ele>236.0</ele><time>2026-04-06T09:17:12.657Z</time></trkpt><trkpt lat="43.1393336" lon="12.2309893"><ele>236.0</ele><time>2026-04-06T09:17:14.67Z</time></trkpt><trkpt lat="43.1392318" lon="12.2309111"><ele>236.0</ele><time>2026-04-06T09:17:16.659Z</time></trkpt><trkpt lat="43.1391335" lon="12.2308178"><ele>236.0</ele><time>2026-04-06T09:17:18.658Z</time></trkpt><trkpt lat="43.1390377" lon="12.2307255"><ele>236.0</ele><time>2026-04-06T09:17:20.66Z</time></trkpt><trkpt lat="43.1389404" lon="12.2306399"><ele>236.0</ele><time>2026-04-06T09:17:22.656Z</time></trkpt><trkpt lat="43.1388389" lon="12.2305545"><ele>235.60000000000002</ele><time>2026-04-06T09:17:24.663Z</time></trkpt><trkpt lat="43.1387434" lon="12.2304798"><ele>235.20000000000002</ele><time>2026-04-06T09:17:26.658Z</time></trkpt><trkpt lat="43.138665" lon="12.2304103"><ele>234.79999999999998</ele><time>2026-04-06T09:17:28.658Z</time></trkpt><trkpt lat="43.1385647" lon="12.2303257"><ele>234.39999999999998</ele><time>2026-04-06T09:17:30.662Z</time></trkpt><trkpt lat="43.1384592" lon="12.2302511"><ele>234.0</ele><time>2026-04-06T09:17:32.656Z</time></trkpt><trkpt lat="43.13836" lon="12.2302018"><ele>234.0</ele><time>2026-04-06T09:17:34.668Z</time></trkpt><trkpt lat="43.1382552" lon="12.2301418"><ele>233.99999999999997</ele><time>2026-04-06T09:17:36.657Z</time></trkpt><trkpt lat="43.1381367" lon="12.2301133"><ele>233.99999999999997</ele><time>2026-04-06T09:17:38.659Z</time></trkpt><trkpt lat="43.1380364" lon="12.2300914"><ele>234.0</ele><time>2026-04-06T09:17:40.662Z</time></trkpt><trkpt lat="43.1379319" lon="12.2300829"><ele>234.0</ele><time>2026-04-06T09:17:42.658Z</time></trkpt><trkpt lat="43.1378329" lon="12.2300971"><ele>233.79999999999998</ele><time>2026-04-06T09:17:44.657Z</time></trkpt><trkpt lat="43.1377428" lon="12.2301316"><ele>233.59999999999997</ele><time>2026-04-06T09:17:46.642Z</time></trkpt><trkpt lat="43.1376728" lon="12.2302096"><ele>233.4</ele><time>2026-04-06T09:17:48.657Z</time></trkpt><trkpt lat="43.1376371" lon="12.2303297"><ele>233.2</ele><time>2026-04-06T09:17:50.66Z</time></trkpt><trkpt lat="43.1375947" lon="12.2304551"><ele>233.0</ele><time>2026-04-06T09:17:52.657Z</time></trkpt><trkpt lat="43.1375483" lon="12.230588"><ele>233.0</ele><time>2026-04-06T09:17:54.664Z</time></trkpt><trkpt lat="43.1375084" lon="12.2307221"><ele>233.0</ele><time>2026-04-06T09:17:56.645Z</time></trkpt><trkpt lat="43.1374491" lon="12.2308453"><ele>233.0</ele><time>2026-04-06T09:17:58.657Z</time></trkpt><trkpt lat="43.1373823" lon="12.2309668"><ele>233.0</ele><time>2026-04-06T09:18:00.648Z</time></trkpt><trkpt lat="43.1373208" lon="12.2311027"><ele>233.0</ele><time>2026-04-06T09:18:02.652Z</time></trkpt><trkpt lat="43.1372564" lon="12.2312285"><ele>233.0</ele><time>2026-04-06T09:18:04.664Z</time></trkpt><trkpt lat="43.137197" lon="12.2313459"><ele>233.0</ele><time>2026-04-06T09:18:06.657Z</time></trkpt><trkpt lat="43.1371397" lon="12.2314547"><ele>233.0</ele><time>2026-04-06T09:18:08.664Z</time></trkpt><trkpt lat="43.1370769" lon="12.2315699"><ele>233.0</ele><time>2026-04-06T09:18:10.644Z</time></trkpt><trkpt lat="43.1370205" lon="12.2316686"><ele>233.0</ele><time>2026-04-06T09:18:12.661Z</time></trkpt><trkpt lat="43.1369803" lon="12.2317765"><ele>232.83333333333334</ele><time>2026-04-06T09:18:14.644Z</time></trkpt><trkpt lat="43.1369362" lon="12.2318676"><ele>232.66666666666669</ele><time>2026-04-06T09:18:16.662Z</time></trkpt><trkpt lat="43.1368988" lon="12.2319671"><ele>232.5</ele><time>2026-04-06T09:18:18.639Z</time></trkpt><trkpt lat="43.1368709" lon="12.2320649"><ele>232.33333333333331</ele><time>2026-04-06T09:18:20.644Z</time></trkpt><trkpt lat="43.1368461" lon="12.2321653"><ele>232.16666666666666</ele><time>2026-04-06T09:18:22.64Z</time></trkpt><trkpt lat="43.1368214" lon="12.2322673"><ele>232.0</ele><time>2026-04-06T09:18:24.655Z</time></trkpt><trkpt lat="43.1368017" lon="12.232372"><ele>232.0</ele><time>2026-04-06T09:18:26.654Z</time></trkpt><trkpt lat="43.1367871" lon="12.2324855"><ele>232.0</ele><time>2026-04-06T09:18:28.655Z</time></trkpt><trkpt lat="43.1367446" lon="12.2326215"><ele>232.0</ele><time>2026-04-06T09:18:30.66Z</time></trkpt><trkpt lat="43.1367223" lon="12.2327556"><ele>232.0</ele><time>2026-04-06T09:18:32.659Z</time></trkpt><trkpt lat="43.1367098" lon="12.2328852"><ele>232.0</ele><time>2026-04-06T09:18:34.649Z</time></trkpt><trkpt lat="43.1366928" lon="12.233027"><ele>232.0</ele><time>2026-04-06T09:18:36.667Z</time></trkpt><trkpt lat="43.1366731" lon="12.233163"><ele>232.0</ele><time>2026-04-06T09:18:38.666Z</time></trkpt><trkpt lat="43.1366525" lon="12.2333032"><ele>232.0</ele><time>2026-04-06T09:18:40.66Z</time></trkpt><trkpt lat="43.1366299" lon="12.2334447"><ele>232.0</ele><time>2026-04-06T09:18:42.658Z</time></trkpt><trkpt lat="43.1366011" lon="12.2335779"><ele>232.0</ele><time>2026-04-06T09:18:44.656Z</time></trkpt><trkpt lat="43.1365628" lon="12.2337106"><ele>232.0</ele><time>2026-04-06T09:18:46.657Z</time></trkpt><trkpt lat="43.1365215" lon="12.2338422"><ele>232.0</ele><time>2026-04-06T09:18:48.657Z</time></trkpt><trkpt lat="43.1364832" lon="12.2339782"><ele>232.0</ele><time>2026-04-06T09:18:50.65Z</time></trkpt><trkpt lat="43.1364339" lon="12.2341187"><ele>232.0</ele><time>2026-04-06T09:18:52.663Z</time></trkpt><trkpt lat="43.1363891" lon="12.234265"><ele>232.0</ele><time>2026-04-06T09:18:54.657Z</time></trkpt><trkpt lat="43.1363405" lon="12.2344008"><ele>231.75</ele><time>2026-04-06T09:18:56.658Z</time></trkpt><trkpt lat="43.1363023" lon="12.2345508"><ele>231.5</ele><time>2026-04-06T09:18:58.657Z</time></trkpt><trkpt lat="43.1362564" lon="12.2346906"><ele>231.25</ele><time>2026-04-06T09:19:00.676Z</time></trkpt><trkpt lat="43.1362049" lon="12.234837"><ele>231.0</ele><time>2026-04-06T09:19:02.656Z</time></trkpt><trkpt lat="43.1361598" lon="12.2349756"><ele>231.0</ele><time>2026-04-06T09:19:04.656Z</time></trkpt><trkpt lat="43.1361096" lon="12.2351184"><ele>231.00000000000003</ele><time>2026-04-06T09:19:06.757Z</time></trkpt><trkpt lat="43.136057" lon="12.2352498"><ele>231.00000000000003</ele><time>2026-04-06T09:19:08.657Z</time></trkpt><trkpt lat="43.1360105" lon="12.2353777"><ele>231.0</ele><time>2026-04-06T09:19:10.658Z</time></trkpt><trkpt lat="43.1359723" lon="12.2354862"><ele>231.0</ele><time>2026-04-06T09:19:12.656Z</time></trkpt><trkpt lat="43.1359326" lon="12.2356079"><ele>231.0</ele><time>2026-04-06T09:19:14.659Z</time></trkpt><trkpt lat="43.1358942" lon="12.2357211"><ele>231.00000000000003</ele><time>2026-04-06T09:19:16.657Z</time></trkpt><trkpt lat="43.1358585" lon="12.2358373"><ele>231.00000000000003</ele><time>2026-04-06T09:19:18.655Z</time></trkpt><trkpt lat="43.1358222" lon="12.2359553"><ele>231.0</ele><time>2026-04-06T09:19:20.657Z</time></trkpt><trkpt lat="43.1357838" lon="12.2360716"><ele>231.0</ele><time>2026-04-06T09:19:22.662Z</time></trkpt><trkpt lat="43.1357524" lon="12.2361936"><ele>231.0</ele><time>2026-04-06T09:19:24.664Z</time></trkpt><trkpt lat="43.135724" lon="12.2363204"><ele>231.00000000000003</ele><time>2026-04-06T09:19:26.662Z</time></trkpt><trkpt lat="43.1356948" lon="12.2364477"><ele>231.00000000000003</ele><time>2026-04-06T09:19:28.661Z</time></trkpt><trkpt lat="43.1356615" lon="12.2365732"><ele>231.0</ele><time>2026-04-06T09:19:30.658Z</time></trkpt><trkpt lat="43.1356256" lon="12.236694"><ele>231.0</ele><time>2026-04-06T09:19:32.662Z</time></trkpt><trkpt lat="43.1355898" lon="12.2367947"><ele>230.66666666666666</ele><time>2026-04-06T09:19:34.758Z</time></trkpt><trkpt lat="43.1355585" lon="12.2368976"><ele>230.33333333333331</ele><time>2026-04-06T09:19:36.649Z</time></trkpt><trkpt lat="43.1355303" lon="12.2369883"><ele>230.0</ele><time>2026-04-06T09:19:38.659Z</time></trkpt><trkpt lat="43.1355042" lon="12.2370731"><ele>229.66666666666666</ele><time>2026-04-06T09:19:40.661Z</time></trkpt><trkpt lat="43.1354759" lon="12.2371904"><ele>229.33333333333331</ele><time>2026-04-06T09:19:43.64Z</time></trkpt><trkpt lat="43.1354423" lon="12.237294"><ele>229.0</ele><time>2026-04-06T09:19:46.66Z</time></trkpt><trkpt lat="43.1354159" lon="12.2373759"><ele>228.66666666666666</ele><time>2026-04-06T09:19:48.66Z</time></trkpt><trkpt lat="43.1353941" lon="12.2374713"><ele>228.33333333333331</ele><time>2026-04-06T09:19:50.657Z</time></trkpt><trkpt lat="43.1353746" lon="12.2375795"><ele>228.0</ele><time>2026-04-06T09:19:52.657Z</time></trkpt><trkpt lat="43.1353373" lon="12.2376818"><ele>227.66666666666669</ele><time>2026-04-06T09:19:54.652Z</time></trkpt><trkpt lat="43.1352954" lon="12.2377875"><ele>227.33333333333334</ele><time>2026-04-06T09:19:56.657Z</time></trkpt><trkpt lat="43.1352528" lon="12.2378927"><ele>227.0</ele><time>2026-04-06T09:19:58.658Z</time></trkpt><trkpt lat="43.1352149" lon="12.2380119"><ele>227.2</ele><time>2026-04-06T09:20:00.657Z</time></trkpt><trkpt lat="43.1351794" lon="12.2381368"><ele>227.39999999999998</ele><time>2026-04-06T09:20:02.681Z</time></trkpt><trkpt lat="43.1351341" lon="12.2382546"><ele>227.60000000000002</ele><time>2026-04-06T09:20:04.655Z</time></trkpt><trkpt lat="43.1350981" lon="12.2383663"><ele>227.8</ele><time>2026-04-06T09:20:06.657Z</time></trkpt><trkpt lat="43.1350567" lon="12.2384968"><ele>228.0</ele><time>2026-04-06T09:20:08.658Z</time></trkpt><trkpt lat="43.1350165" lon="12.2386293"><ele>228.0</ele><time>2026-04-06T09:20:10.66Z</time></trkpt><trkpt lat="43.1349728" lon="12.2387484"><ele>228.0</ele><time>2026-04-06T09:20:12.657Z</time></trkpt><trkpt lat="43.1349294" lon="12.2388699"><ele>228.0</ele><time>2026-04-06T09:20:14.665Z</time></trkpt><trkpt lat="43.1348919" lon="12.2390004"><ele>228.0</ele><time>2026-04-06T09:20:16.66Z</time></trkpt><trkpt lat="43.1348571" lon="12.2391247"><ele>228.0</ele><time>2026-04-06T09:20:18.656Z</time></trkpt><trkpt lat="43.1348164" lon="12.2392608"><ele>228.2</ele><time>2026-04-06T09:20:20.658Z</time></trkpt><trkpt lat="43.1347745" lon="12.2393945"><ele>228.4</ele><time>2026-04-06T09:20:22.656Z</time></trkpt><trkpt lat="43.13474" lon="12.2395193"><ele>228.59999999999997</ele><time>2026-04-06T09:20:24.646Z</time></trkpt><trkpt lat="43.1347099" lon="12.239636"><ele>228.79999999999998</ele><time>2026-04-06T09:20:26.661Z</time></trkpt><trkpt lat="43.1346697" lon="12.2397567"><ele>229.0</ele><time>2026-04-06T09:20:28.662Z</time></trkpt><trkpt lat="43.1346319" lon="12.2398882"><ele>229.0</ele><time>2026-04-06T09:20:30.656Z</time></trkpt><trkpt lat="43.1345981" lon="12.2400093"><ele>228.99999999999997</ele><time>2026-04-06T09:20:32.659Z</time></trkpt><trkpt lat="43.1345616" lon="12.2401469"><ele>228.99999999999997</ele><time>2026-04-06T09:20:34.656Z</time></trkpt><trkpt lat="43.134531" lon="12.2402791"><ele>229.0</ele><time>2026-04-06T09:20:36.654Z</time></trkpt><trkpt lat="43.1344967" lon="12.2404046"><ele>229.0</ele><time>2026-04-06T09:20:38.656Z</time></trkpt><trkpt lat="43.1344584" lon="12.2405281"><ele>228.83333333333331</ele><time>2026-04-06T09:20:40.66Z</time></trkpt><trkpt lat="43.134426" lon="12.240646"><ele>228.66666666666666</ele><time>2026-04-06T09:20:42.657Z</time></trkpt><trkpt lat="43.1343991" lon="12.2407631"><ele>228.5</ele><time>2026-04-06T09:20:44.66Z</time></trkpt><trkpt lat="43.1343665" lon="12.2408624"><ele>228.33333333333331</ele><time>2026-04-06T09:20:46.656Z</time></trkpt><trkpt lat="43.134343" lon="12.2409667"><ele>228.16666666666666</ele><time>2026-04-06T09:20:48.659Z</time></trkpt><trkpt lat="43.1343157" lon="12.2410784"><ele>228.0</ele><time>2026-04-06T09:20:50.657Z</time></trkpt><trkpt lat="43.1342817" lon="12.2411991"><ele>228.0</ele><time>2026-04-06T09:20:52.67Z</time></trkpt><trkpt lat="43.1342462" lon="12.2413276"><ele>228.0</ele><time>2026-04-06T09:20:54.752Z</time></trkpt><trkpt lat="43.1342087" lon="12.2414559"><ele>228.0</ele><time>2026-04-06T09:20:56.665Z</time></trkpt><trkpt lat="43.1341687" lon="12.2415955"><ele>228.0</ele><time>2026-04-06T09:20:58.656Z</time></trkpt><trkpt lat="43.1341366" lon="12.2417315"><ele>228.0</ele><time>2026-04-06T09:21:00.654Z</time></trkpt><trkpt lat="43.1341053" lon="12.2418612"><ele>228.2</ele><time>2026-04-06T09:21:02.66Z</time></trkpt><trkpt lat="43.1340727" lon="12.2419898"><ele>228.4</ele><time>2026-04-06T09:21:04.66Z</time></trkpt><trkpt lat="43.1340432" lon="12.2421123"><ele>228.59999999999997</ele><time>2026-04-06T09:21:06.658Z</time></trkpt><trkpt lat="43.1340184" lon="12.2422336"><ele>228.79999999999998</ele><time>2026-04-06T09:21:08.658Z</time></trkpt><trkpt lat="43.1339803" lon="12.2423437"><ele>229.0</ele><time>2026-04-06T09:21:10.663Z</time></trkpt><trkpt lat="43.1339513" lon="12.2424496"><ele>229.16666666666666</ele><time>2026-04-06T09:21:12.654Z</time></trkpt><trkpt lat="43.1339192" lon="12.2425565"><ele>229.33333333333331</ele><time>2026-04-06T09:21:14.657Z</time></trkpt><trkpt lat="43.1338899" lon="12.2426493"><ele>229.5</ele><time>2026-04-06T09:21:16.66Z</time></trkpt><trkpt lat="43.1339091" lon="12.2427549"><ele>229.66666666666669</ele><time>2026-04-06T09:21:18.657Z</time></trkpt><trkpt lat="43.1339883" lon="12.2427966"><ele>229.83333333333334</ele><time>2026-04-06T09:21:20.653Z</time></trkpt><trkpt lat="43.1340815" lon="12.2427649"><ele>230.0</ele><time>2026-04-06T09:21:22.665Z</time></trkpt><trkpt lat="43.1341772" lon="12.2427294"><ele>230.0</ele><time>2026-04-06T09:21:24.642Z</time></trkpt><trkpt lat="43.1342734" lon="12.2427052"><ele>230.0</ele><time>2026-04-06T09:21:26.66Z</time></trkpt><trkpt lat="43.1343734" lon="12.2426945"><ele>230.0</ele><time>2026-04-06T09:21:28.655Z</time></trkpt><trkpt lat="43.1344664" lon="12.2426687"><ele>230.0</ele><time>2026-04-06T09:21:30.634Z</time></trkpt><trkpt lat="43.1345709" lon="12.2426526"><ele>230.0</ele><time>2026-04-06T09:21:32.669Z</time></trkpt><trkpt lat="43.1346838" lon="12.2426388"><ele>230.0</ele><time>2026-04-06T09:21:34.64Z</time></trkpt><trkpt lat="43.1347791" lon="12.2426164"><ele>230.0</ele><time>2026-04-06T09:21:36.637Z</time></trkpt><trkpt lat="43.1348791" lon="12.2426019"><ele>230.0</ele><time>2026-04-06T09:21:38.641Z</time></trkpt><trkpt lat="43.1349752" lon="12.2425821"><ele>230.0</ele><time>2026-04-06T09:21:40.656Z</time></trkpt><trkpt lat="43.1350783" lon="12.2425369"><ele>230.0</ele><time>2026-04-06T09:21:42.657Z</time></trkpt><trkpt lat="43.1351839" lon="12.2425013"><ele>230.2</ele><time>2026-04-06T09:21:44.659Z</time></trkpt><trkpt lat="43.1352753" lon="12.2424822"><ele>230.4</ele><time>2026-04-06T09:21:46.657Z</time></trkpt><trkpt lat="43.1353796" lon="12.2424519"><ele>230.60000000000002</ele><time>2026-04-06T09:21:48.658Z</time></trkpt><trkpt lat="43.1354868" lon="12.2424463"><ele>230.8</ele><time>2026-04-06T09:21:50.66Z</time></trkpt><trkpt lat="43.1355962" lon="12.2424228"><ele>231.0</ele><time>2026-04-06T09:21:52.656Z</time></trkpt><trkpt lat="43.1357023" lon="12.2423882"><ele>231.20000000000002</ele><time>2026-04-06T09:21:54.656Z</time></trkpt><trkpt lat="43.1358021" lon="12.2423516"><ele>231.40000000000003</ele><time>2026-04-06T09:21:56.653Z</time></trkpt><trkpt lat="43.1359048" lon="12.2423214"><ele>231.6</ele><time>2026-04-06T09:21:58.657Z</time></trkpt><trkpt lat="43.1360188" lon="12.2423015"><ele>231.8</ele><time>2026-04-06T09:22:00.654Z</time></trkpt><trkpt lat="43.136116" lon="12.2422773"><ele>232.0</ele><time>2026-04-06T09:22:02.655Z</time></trkpt><trkpt lat="43.1362138" lon="12.2422754"><ele>232.39999999999998</ele><time>2026-04-06T09:22:04.662Z</time></trkpt><trkpt lat="43.1363272" lon="12.2422565"><ele>232.79999999999998</ele><time>2026-04-06T09:22:06.654Z</time></trkpt><trkpt lat="43.1364332" lon="12.2422363"><ele>233.2</ele><time>2026-04-06T09:22:08.661Z</time></trkpt><trkpt lat="43.1365414" lon="12.2421978"><ele>233.6</ele><time>2026-04-06T09:22:10.664Z</time></trkpt><trkpt lat="43.1366488" lon="12.2421496"><ele>234.0</ele><time>2026-04-06T09:22:12.657Z</time></trkpt><trkpt lat="43.1367479" lon="12.2421294"><ele>234.39999999999998</ele><time>2026-04-06T09:22:14.655Z</time></trkpt><trkpt lat="43.1368393" lon="12.242114"><ele>234.79999999999998</ele><time>2026-04-06T09:22:16.66Z</time></trkpt><trkpt lat="43.1369346" lon="12.2420964"><ele>235.20000000000002</ele><time>2026-04-06T09:22:18.658Z</time></trkpt><trkpt lat="43.1370252" lon="12.2421167"><ele>235.60000000000002</ele><time>2026-04-06T09:22:20.67Z</time></trkpt><trkpt lat="43.1371217" lon="12.2421505"><ele>236.0</ele><time>2026-04-06T09:22:22.657Z</time></trkpt><trkpt lat="43.1372112" lon="12.2421898"><ele>236.00000000000003</ele><time>2026-04-06T09:22:24.656Z</time></trkpt><trkpt lat="43.1372966" lon="12.2422361"><ele>236.0</ele><time>2026-04-06T09:22:26.656Z</time></trkpt><trkpt lat="43.1373767" lon="12.2422928"><ele>236.0</ele><time>2026-04-06T09:22:28.658Z</time></trkpt><trkpt lat="43.1374488" lon="12.2423459"><ele>236.0</ele><time>2026-04-06T09:22:30.654Z</time></trkpt><trkpt lat="43.1374811" lon="12.242449"><ele>236.00000000000003</ele><time>2026-04-06T09:22:32.656Z</time></trkpt><trkpt lat="43.1374513" lon="12.2425682"><ele>236.0</ele><time>2026-04-06T09:22:34.66Z</time></trkpt><trkpt lat="43.1374137" lon="12.2426966"><ele>235.4</ele><time>2026-04-06T09:22:36.662Z</time></trkpt><trkpt lat="43.1373775" lon="12.2428296"><ele>234.8</ele><time>2026-04-06T09:22:38.655Z</time></trkpt><trkpt lat="43.1373411" lon="12.2429656"><ele>234.20000000000002</ele><time>2026-04-06T09:22:40.656Z</time></trkpt><trkpt lat="43.1373051" lon="12.2431158"><ele>233.60000000000002</ele><time>2026-04-06T09:22:42.653Z</time></trkpt><trkpt lat="43.1372672" lon="12.2432701"><ele>233.0</ele><time>2026-04-06T09:22:44.655Z</time></trkpt><trkpt lat="43.1372292" lon="12.2434174"><ele>232.5</ele><time>2026-04-06T09:22:46.658Z</time></trkpt><trkpt lat="43.1371858" lon="12.2435575"><ele>232.0</ele><time>2026-04-06T09:22:48.655Z</time></trkpt><trkpt lat="43.1371416" lon="12.243705"><ele>231.5</ele><time>2026-04-06T09:22:50.661Z</time></trkpt><trkpt lat="43.1371083" lon="12.2438593"><ele>231.0</ele><time>2026-04-06T09:22:52.658Z</time></trkpt><trkpt lat="43.1370735" lon="12.2439951"><ele>231.0</ele><time>2026-04-06T09:22:54.644Z</time></trkpt><trkpt lat="43.1370396" lon="12.244139"><ele>231.00000000000003</ele><time>2026-04-06T09:22:56.639Z</time></trkpt><trkpt lat="43.1369947" lon="12.2442761"><ele>231.00000000000003</ele><time>2026-04-06T09:22:58.657Z</time></trkpt><trkpt lat="43.1369561" lon="12.2444193"><ele>231.0</ele><time>2026-04-06T09:23:00.638Z</time></trkpt><trkpt lat="43.1369249" lon="12.2445569"><ele>231.0</ele><time>2026-04-06T09:23:02.646Z</time></trkpt><trkpt lat="43.1368856" lon="12.2446957"><ele>231.20000000000002</ele><time>2026-04-06T09:23:04.644Z</time></trkpt><trkpt lat="43.1368551" lon="12.2448327"><ele>231.40000000000003</ele><time>2026-04-06T09:23:06.641Z</time></trkpt><trkpt lat="43.1368188" lon="12.2449704"><ele>231.6</ele><time>2026-04-06T09:23:08.638Z</time></trkpt><trkpt lat="43.136779" lon="12.2451194"><ele>231.8</ele><time>2026-04-06T09:23:10.64Z</time></trkpt><trkpt lat="43.1367645" lon="12.2452058"><ele>232.0</ele><time>2026-04-06T09:23:11.651Z</time></trkpt><trkpt lat="43.1367182" lon="12.2453576"><ele>232.0</ele><time>2026-04-06T09:23:13.646Z</time></trkpt><trkpt lat="43.1366782" lon="12.2455166"><ele>232.0</ele><time>2026-04-06T09:23:15.647Z</time></trkpt><trkpt lat="43.1366335" lon="12.2456725"><ele>232.0</ele><time>2026-04-06T09:23:17.661Z</time></trkpt><trkpt lat="43.1366007" lon="12.2458292"><ele>232.0</ele><time>2026-04-06T09:23:19.661Z</time></trkpt><trkpt lat="43.1365667" lon="12.2459886"><ele>232.0</ele><time>2026-04-06T09:23:21.658Z</time></trkpt><trkpt lat="43.1365239" lon="12.246145"><ele>232.0</ele><time>2026-04-06T09:23:23.657Z</time></trkpt><trkpt lat="43.1364779" lon="12.2462943"><ele>232.0</ele><time>2026-04-06T09:23:25.663Z</time></trkpt><trkpt lat="43.1364376" lon="12.2464486"><ele>232.0</ele><time>2026-04-06T09:23:27.659Z</time></trkpt><trkpt lat="43.1363968" lon="12.2465983"><ele>232.0</ele><time>2026-04-06T09:23:29.658Z</time></trkpt><trkpt lat="43.136354" lon="12.2467473"><ele>232.0</ele><time>2026-04-06T09:23:31.658Z</time></trkpt><trkpt lat="43.136323" lon="12.2469019"><ele>232.0</ele><time>2026-04-06T09:23:33.662Z</time></trkpt><trkpt lat="43.1362809" lon="12.2470539"><ele>232.0</ele><time>2026-04-06T09:23:35.656Z</time></trkpt><trkpt lat="43.1362403" lon="12.2472165"><ele>232.2</ele><time>2026-04-06T09:23:37.656Z</time></trkpt><trkpt lat="43.1362092" lon="12.2473785"><ele>232.39999999999998</ele><time>2026-04-06T09:23:39.662Z</time></trkpt><trkpt lat="43.1361703" lon="12.2475293"><ele>232.60000000000002</ele><time>2026-04-06T09:23:41.658Z</time></trkpt><trkpt lat="43.1361347" lon="12.2476766"><ele>232.8</ele><time>2026-04-06T09:23:43.657Z</time></trkpt><trkpt lat="43.1361073" lon="12.2477543"><ele>233.0</ele><time>2026-04-06T09:23:44.656Z</time></trkpt><trkpt lat="43.1360687" lon="12.2479026"><ele>233.0</ele><time>2026-04-06T09:23:46.656Z</time></trkpt><trkpt lat="43.1360261" lon="12.248062"><ele>233.0</ele><time>2026-04-06T09:23:48.662Z</time></trkpt><trkpt lat="43.1359877" lon="12.2482033"><ele>233.0</ele><time>2026-04-06T09:23:50.655Z</time></trkpt><trkpt lat="43.1359481" lon="12.2483599"><ele>233.0</ele><time>2026-04-06T09:23:52.656Z</time></trkpt><trkpt lat="43.1359196" lon="12.2485165"><ele>232.25</ele><time>2026-04-06T09:23:54.655Z</time></trkpt><trkpt lat="43.1358944" lon="12.2485985"><ele>231.5</ele><time>2026-04-06T09:23:55.658Z</time></trkpt><trkpt lat="43.1358578" lon="12.248745"><ele>230.75</ele><time>2026-04-06T09:23:57.649Z</time></trkpt><trkpt lat="43.1357967" lon="12.2489638"><ele>230.0</ele><time>2026-04-06T09:24:00.655Z</time></trkpt><trkpt lat="43.1357594" lon="12.2491095"><ele>230.0</ele><time>2026-04-06T09:24:02.663Z</time></trkpt><trkpt lat="43.1357174" lon="12.24925"><ele>230.0</ele><time>2026-04-06T09:24:04.776Z</time></trkpt><trkpt lat="43.1356839" lon="12.2493886"><ele>230.0</ele><time>2026-04-06T09:24:06.658Z</time></trkpt><trkpt lat="43.1356503" lon="12.2495187"><ele>230.0</ele><time>2026-04-06T09:24:08.651Z</time></trkpt><trkpt lat="43.135627" lon="12.2496648"><ele>230.0</ele><time>2026-04-06T09:24:10.658Z</time></trkpt><trkpt lat="43.1355897" lon="12.2498086"><ele>230.0</ele><time>2026-04-06T09:24:12.656Z</time></trkpt><trkpt lat="43.1355426" lon="12.2499551"><ele>230.0</ele><time>2026-04-06T09:24:14.66Z</time></trkpt><trkpt lat="43.1355181" lon="12.2500348"><ele>230.0</ele><time>2026-04-06T09:24:15.666Z</time></trkpt><trkpt lat="43.1354649" lon="12.2502718"><ele>230.0</ele><time>2026-04-06T09:24:18.663Z</time></trkpt><trkpt lat="43.135421" lon="12.2504145"><ele>230.0</ele><time>2026-04-06T09:24:20.658Z</time></trkpt><trkpt lat="43.1353824" lon="12.2505584"><ele>230.0</ele><time>2026-04-06T09:24:22.749Z</time></trkpt><trkpt lat="43.1353421" lon="12.2507085"><ele>230.0</ele><time>2026-04-06T09:24:24.654Z</time></trkpt><trkpt lat="43.1353005" lon="12.2508398"><ele>230.0</ele><time>2026-04-06T09:24:26.662Z</time></trkpt><trkpt lat="43.1352672" lon="12.2509833"><ele>230.0</ele><time>2026-04-06T09:24:28.759Z</time></trkpt><trkpt lat="43.1352305" lon="12.2511282"><ele>230.25</ele><time>2026-04-06T09:24:30.655Z</time></trkpt><trkpt lat="43.1351956" lon="12.2512781"><ele>230.5</ele><time>2026-04-06T09:24:32.659Z</time></trkpt><trkpt lat="43.1351567" lon="12.2514269"><ele>230.75</ele><time>2026-04-06T09:24:34.645Z</time></trkpt><trkpt lat="43.1351171" lon="12.2515716"><ele>231.0</ele><time>2026-04-06T09:24:36.667Z</time></trkpt><trkpt lat="43.1350775" lon="12.2517104"><ele>231.0</ele><time>2026-04-06T09:24:38.654Z</time></trkpt><trkpt lat="43.1350356" lon="12.2518505"><ele>231.00000000000003</ele><time>2026-04-06T09:24:40.657Z</time></trkpt><trkpt lat="43.1350092" lon="12.251992"><ele>231.00000000000003</ele><time>2026-04-06T09:24:42.66Z</time></trkpt><trkpt lat="43.1349786" lon="12.2521329"><ele>231.0</ele><time>2026-04-06T09:24:44.662Z</time></trkpt><trkpt lat="43.134943" lon="12.2522782"><ele>231.0</ele><time>2026-04-06T09:24:46.656Z</time></trkpt><trkpt lat="43.1349037" lon="12.2524337"><ele>230.60000000000002</ele><time>2026-04-06T09:24:48.665Z</time></trkpt><trkpt lat="43.1348648" lon="12.2525825"><ele>230.20000000000002</ele><time>2026-04-06T09:24:50.659Z</time></trkpt><trkpt lat="43.1348429" lon="12.2526655"><ele>229.79999999999998</ele><time>2026-04-06T09:24:51.657Z</time></trkpt><trkpt lat="43.1348037" lon="12.2528212"><ele>229.39999999999998</ele><time>2026-04-06T09:24:53.661Z</time></trkpt><trkpt lat="43.134762" lon="12.2529697"><ele>229.0</ele><time>2026-04-06T09:24:55.661Z</time></trkpt><trkpt lat="43.1347286" lon="12.2531174"><ele>229.25</ele><time>2026-04-06T09:24:57.659Z</time></trkpt><trkpt lat="43.134685" lon="12.2532692"><ele>229.5</ele><time>2026-04-06T09:24:59.654Z</time></trkpt><trkpt lat="43.1346405" lon="12.2534138"><ele>229.75</ele><time>2026-04-06T09:25:01.662Z</time></trkpt><trkpt lat="43.1345981" lon="12.2535646"><ele>230.0</ele><time>2026-04-06T09:25:03.637Z</time></trkpt><trkpt lat="43.1345617" lon="12.2537199"><ele>230.0</ele><time>2026-04-06T09:25:05.643Z</time></trkpt><trkpt lat="43.1345136" lon="12.2538833"><ele>230.0</ele><time>2026-04-06T09:25:07.642Z</time></trkpt><trkpt lat="43.1344686" lon="12.2540282"><ele>230.0</ele><time>2026-04-06T09:25:09.642Z</time></trkpt><trkpt lat="43.1344312" lon="12.2541658"><ele>230.0</ele><time>2026-04-06T09:25:11.67Z</time></trkpt><trkpt lat="43.1343969" lon="12.2543101"><ele>230.4</ele><time>2026-04-06T09:25:13.64Z</time></trkpt><trkpt lat="43.1343619" lon="12.2544494"><ele>230.8</ele><time>2026-04-06T09:25:15.641Z</time></trkpt><trkpt lat="43.1343206" lon="12.2545858"><ele>231.2</ele><time>2026-04-06T09:25:17.657Z</time></trkpt><trkpt lat="43.1342941" lon="12.2547231"><ele>231.6</ele><time>2026-04-06T09:25:19.658Z</time></trkpt><trkpt lat="43.1342541" lon="12.254863"><ele>232.0</ele><time>2026-04-06T09:25:21.662Z</time></trkpt><trkpt lat="43.1342148" lon="12.2550013"><ele>232.6</ele><time>2026-04-06T09:25:23.64Z</time></trkpt><trkpt lat="43.1341768" lon="12.2551396"><ele>233.2</ele><time>2026-04-06T09:25:25.658Z</time></trkpt><trkpt lat="43.1341374" lon="12.2552721"><ele>233.8</ele><time>2026-04-06T09:25:27.661Z</time></trkpt><trkpt lat="43.1340949" lon="12.2554157"><ele>234.4</ele><time>2026-04-06T09:25:29.651Z</time></trkpt><trkpt lat="43.1340766" lon="12.2554987"><ele>235.0</ele><time>2026-04-06T09:25:30.658Z</time></trkpt><trkpt lat="43.1340406" lon="12.255651"><ele>235.0</ele><time>2026-04-06T09:25:32.653Z</time></trkpt><trkpt lat="43.1340237" lon="12.2557407"><ele>235.0</ele><time>2026-04-06T09:25:33.657Z</time></trkpt><trkpt lat="43.1339774" lon="12.2558981"><ele>235.0</ele><time>2026-04-06T09:25:35.661Z</time></trkpt><trkpt lat="43.1339311" lon="12.2560662"><ele>235.0</ele><time>2026-04-06T09:25:37.656Z</time></trkpt><trkpt lat="43.1339053" lon="12.2561519"><ele>235.0</ele><time>2026-04-06T09:25:38.651Z</time></trkpt><trkpt lat="43.1338766" lon="12.2562458"><ele>234.99999999999997</ele><time>2026-04-06T09:25:39.651Z</time></trkpt><trkpt lat="43.133847" lon="12.2563332"><ele>235.0</ele><time>2026-04-06T09:25:40.655Z</time></trkpt><trkpt lat="43.133815" lon="12.2564264"><ele>235.0</ele><time>2026-04-06T09:25:41.664Z</time></trkpt><trkpt lat="43.1337842" lon="12.2565163"><ele>235.0</ele><time>2026-04-06T09:25:42.661Z</time></trkpt><trkpt lat="43.1337596" lon="12.2566092"><ele>234.99999999999997</ele><time>2026-04-06T09:25:43.659Z</time></trkpt><trkpt lat="43.1337228" lon="12.2566938"><ele>235.0</ele><time>2026-04-06T09:25:44.765Z</time></trkpt><trkpt lat="43.1336548" lon="12.2568716"><ele>234.49999999999997</ele><time>2026-04-06T09:25:46.661Z</time></trkpt><trkpt lat="43.1336264" lon="12.2569585"><ele>234.0</ele><time>2026-04-06T09:25:47.643Z</time></trkpt><trkpt lat="43.1336028" lon="12.2570525"><ele>233.5</ele><time>2026-04-06T09:25:48.662Z</time></trkpt><trkpt lat="43.1335646" lon="12.2571305"><ele>233.0</ele><time>2026-04-06T09:25:49.665Z</time></trkpt><trkpt lat="43.1335087" lon="12.2572838"><ele>232.49999999999997</ele><time>2026-04-06T09:25:51.659Z</time></trkpt><trkpt lat="43.1334744" lon="12.2573663"><ele>232.0</ele><time>2026-04-06T09:25:52.651Z</time></trkpt><trkpt lat="43.1334181" lon="12.2575195"><ele>232.0</ele><time>2026-04-06T09:25:54.654Z</time></trkpt><trkpt lat="43.1333577" lon="12.257666"><ele>232.0</ele><time>2026-04-06T09:25:56.663Z</time></trkpt><trkpt lat="43.1333011" lon="12.2578106"><ele>232.0</ele><time>2026-04-06T09:25:58.646Z</time></trkpt><trkpt lat="43.1332558" lon="12.2579603"><ele>232.0</ele><time>2026-04-06T09:26:00.651Z</time></trkpt><trkpt lat="43.133206" lon="12.2581062"><ele>232.5</ele><time>2026-04-06T09:26:02.661Z</time></trkpt><trkpt lat="43.133161" lon="12.2582555"><ele>233.0</ele><time>2026-04-06T09:26:04.652Z</time></trkpt><trkpt lat="43.1331208" lon="12.2584072"><ele>233.5</ele><time>2026-04-06T09:26:06.657Z</time></trkpt><trkpt lat="43.1330781" lon="12.2585653"><ele>234.0</ele><time>2026-04-06T09:26:08.661Z</time></trkpt><trkpt lat="43.1330337" lon="12.2587144"><ele>234.0</ele><time>2026-04-06T09:26:10.652Z</time></trkpt><trkpt lat="43.1329897" lon="12.2588627"><ele>234.0</ele><time>2026-04-06T09:26:12.658Z</time></trkpt><trkpt lat="43.1329514" lon="12.2590189"><ele>234.0</ele><time>2026-04-06T09:26:14.641Z</time></trkpt><trkpt lat="43.1329128" lon="12.2591758"><ele>234.0</ele><time>2026-04-06T09:26:16.654Z</time></trkpt><trkpt lat="43.1328732" lon="12.2593313"><ele>234.0</ele><time>2026-04-06T09:26:18.649Z</time></trkpt><trkpt lat="43.1328333" lon="12.2594837"><ele>234.0</ele><time>2026-04-06T09:26:20.663Z</time></trkpt><trkpt lat="43.1328012" lon="12.259634"><ele>234.0</ele><time>2026-04-06T09:26:22.657Z</time></trkpt><trkpt lat="43.1327695" lon="12.2597928"><ele>234.0</ele><time>2026-04-06T09:26:24.653Z</time></trkpt><trkpt lat="43.1327357" lon="12.2599436"><ele>233.75</ele><time>2026-04-06T09:26:26.639Z</time></trkpt><trkpt lat="43.1327096" lon="12.2600896"><ele>233.5</ele><time>2026-04-06T09:26:28.64Z</time></trkpt><trkpt lat="43.132674" lon="12.2602455"><ele>233.25</ele><time>2026-04-06T09:26:30.652Z</time></trkpt><trkpt lat="43.1326337" lon="12.2603911"><ele>233.0</ele><time>2026-04-06T09:26:32.638Z</time></trkpt><trkpt lat="43.1325966" lon="12.2605457"><ele>233.25</ele><time>2026-04-06T09:26:34.639Z</time></trkpt><trkpt lat="43.1325753" lon="12.2606853"><ele>233.5</ele><time>2026-04-06T09:26:36.644Z</time></trkpt><trkpt lat="43.1325517" lon="12.2608231"><ele>233.75</ele><time>2026-04-06T09:26:38.636Z</time></trkpt><trkpt lat="43.1325059" lon="12.2609511"><ele>234.0</ele><time>2026-04-06T09:26:40.638Z</time></trkpt><trkpt lat="43.1323899" lon="12.2610953"><ele>234.25</ele><time>2026-04-06T09:26:43.639Z</time></trkpt><trkpt lat="43.132292" lon="12.2611777"><ele>234.5</ele><time>2026-04-06T09:26:45.651Z</time></trkpt><trkpt lat="43.1322171" lon="12.2612883"><ele>234.75</ele><time>2026-04-06T09:26:47.66Z</time></trkpt><trkpt lat="43.1321496" lon="12.2614127"><ele>235.0</ele><time>2026-04-06T09:26:49.659Z</time></trkpt><trkpt lat="43.1320981" lon="12.2615646"><ele>235.0</ele><time>2026-04-06T09:26:51.658Z</time></trkpt><trkpt lat="43.1320737" lon="12.2617122"><ele>235.0</ele><time>2026-04-06T09:26:53.653Z</time></trkpt><trkpt lat="43.1320755" lon="12.2618731"><ele>235.0</ele><time>2026-04-06T09:26:55.659Z</time></trkpt><trkpt lat="43.1320984" lon="12.2620314"><ele>235.0</ele><time>2026-04-06T09:26:57.643Z</time></trkpt><trkpt lat="43.1321374" lon="12.2621729"><ele>235.2</ele><time>2026-04-06T09:26:59.759Z</time></trkpt><trkpt lat="43.1321796" lon="12.2623173"><ele>235.4</ele><time>2026-04-06T09:27:01.657Z</time></trkpt><trkpt lat="43.1321902" lon="12.2624735"><ele>235.60000000000002</ele><time>2026-04-06T09:27:03.659Z</time></trkpt><trkpt lat="43.1321651" lon="12.2626234"><ele>235.8</ele><time>2026-04-06T09:27:05.659Z</time></trkpt><trkpt lat="43.1321286" lon="12.2627645"><ele>236.0</ele><time>2026-04-06T09:27:07.657Z</time></trkpt><trkpt lat="43.1320922" lon="12.2629101"><ele>236.0</ele><time>2026-04-06T09:27:09.657Z</time></trkpt><trkpt lat="43.1320528" lon="12.2630629"><ele>236.0</ele><time>2026-04-06T09:27:11.657Z</time></trkpt><trkpt lat="43.1320108" lon="12.2632129"><ele>236.0</ele><time>2026-04-06T09:27:13.662Z</time></trkpt><trkpt lat="43.1319574" lon="12.2633518"><ele>236.0</ele><time>2026-04-06T09:27:15.675Z</time></trkpt><trkpt lat="43.1319077" lon="12.2634885"><ele>236.33333333333334</ele><time>2026-04-06T09:27:17.668Z</time></trkpt><trkpt lat="43.1318643" lon="12.263614"><ele>236.66666666666669</ele><time>2026-04-06T09:27:19.647Z</time></trkpt><trkpt lat="43.1318106" lon="12.2637263"><ele>237.0</ele><time>2026-04-06T09:27:21.657Z</time></trkpt><trkpt lat="43.1317404" lon="12.2637856"><ele>237.33333333333331</ele><time>2026-04-06T09:27:23.666Z</time></trkpt><trkpt lat="43.1316577" lon="12.2637845"><ele>237.66666666666666</ele><time>2026-04-06T09:27:25.657Z</time></trkpt><trkpt lat="43.1315928" lon="12.2638113"><ele>238.0</ele><time>2026-04-06T09:27:27.662Z</time></trkpt><trkpt lat="43.1315243" lon="12.2638645"><ele>239.33333333333331</ele><time>2026-04-06T09:27:30.666Z</time></trkpt><trkpt lat="43.1314493" lon="12.2638788"><ele>240.66666666666666</ele><time>2026-04-06T09:27:33.665Z</time></trkpt><trkpt lat="43.1313666" lon="12.2639236"><ele>242.0</ele><time>2026-04-06T09:27:36.662Z</time></trkpt><trkpt lat="43.1312868" lon="12.2639545"><ele>243.33333333333331</ele><time>2026-04-06T09:27:39.658Z</time></trkpt><trkpt lat="43.1312067" lon="12.2639766"><ele>244.66666666666666</ele><time>2026-04-06T09:27:42.655Z</time></trkpt><trkpt lat="43.131128" lon="12.2639967"><ele>246.0</ele><time>2026-04-06T09:27:45.643Z</time></trkpt><trkpt lat="43.131066" lon="12.2640164"><ele>246.71428571428575</ele><time>2026-04-06T09:27:48.648Z</time></trkpt><trkpt lat="43.1309942" lon="12.2640344"><ele>247.42857142857144</ele><time>2026-04-06T09:27:52.754Z</time></trkpt><trkpt lat="43.1309295" lon="12.2640617"><ele>248.14285714285714</ele><time>2026-04-06T09:27:55.646Z</time></trkpt><trkpt lat="43.1308553" lon="12.2640954"><ele>248.85714285714286</ele><time>2026-04-06T09:27:58.642Z</time></trkpt><trkpt lat="43.1307856" lon="12.2641228"><ele>249.57142857142856</ele><time>2026-04-06T09:28:01.638Z</time></trkpt><trkpt lat="43.1307207" lon="12.2641427"><ele>250.28571428571425</ele><time>2026-04-06T09:28:04.641Z</time></trkpt><trkpt lat="43.1306527" lon="12.2641453"><ele>250.99999999999997</ele><time>2026-04-06T09:28:07.64Z</time></trkpt><trkpt lat="43.1305874" lon="12.2641394"><ele>251.50000000000003</ele><time>2026-04-06T09:28:10.64Z</time></trkpt><trkpt lat="43.1305256" lon="12.2640882"><ele>252.0</ele><time>2026-04-06T09:28:14.647Z</time></trkpt><trkpt lat="43.1304621" lon="12.2640132"><ele>252.5</ele><time>2026-04-06T09:28:18.662Z</time></trkpt><trkpt lat="43.1303772" lon="12.2639552"><ele>253.0</ele><time>2026-04-06T09:28:21.658Z</time></trkpt><trkpt lat="43.1302906" lon="12.2639098"><ele>253.50000000000003</ele><time>2026-04-06T09:28:24.662Z</time></trkpt><trkpt lat="43.1302133" lon="12.2638738"><ele>254.0</ele><time>2026-04-06T09:28:27.655Z</time></trkpt><trkpt lat="43.1301495" lon="12.2638286"><ele>254.00000000000003</ele><time>2026-04-06T09:28:30.638Z</time></trkpt><trkpt lat="43.1300687" lon="12.2637967"><ele>254.0</ele><time>2026-04-06T09:28:33.657Z</time></trkpt><trkpt lat="43.1300051" lon="12.2637856"><ele>254.0</ele><time>2026-04-06T09:28:35.659Z</time></trkpt><trkpt lat="43.1299405" lon="12.2637771"><ele>254.0</ele><time>2026-04-06T09:28:37.655Z</time></trkpt><trkpt lat="43.1298482" lon="12.2637654"><ele>254.00000000000003</ele><time>2026-04-06T09:28:40.638Z</time></trkpt><trkpt lat="43.1297573" lon="12.263767"><ele>254.0</ele><time>2026-04-06T09:28:43.657Z</time></trkpt><trkpt lat="43.129669" lon="12.2637549"><ele>255.16666666666669</ele><time>2026-04-06T09:28:46.655Z</time></trkpt><trkpt lat="43.1295838" lon="12.263741"><ele>256.33333333333337</ele><time>2026-04-06T09:28:49.661Z</time></trkpt><trkpt lat="43.1294971" lon="12.2637234"><ele>257.5</ele><time>2026-04-06T09:28:52.644Z</time></trkpt><trkpt lat="43.129408" lon="12.2637117"><ele>258.6666666666667</ele><time>2026-04-06T09:28:55.655Z</time></trkpt><trkpt lat="43.129319" lon="12.2637098"><ele>259.8333333333333</ele><time>2026-04-06T09:28:58.658Z</time></trkpt><trkpt lat="43.1292358" lon="12.2637054"><ele>261.0</ele><time>2026-04-06T09:29:01.658Z</time></trkpt><trkpt lat="43.1291501" lon="12.2637039"><ele>261.0</ele><time>2026-04-06T09:29:04.657Z</time></trkpt><trkpt lat="43.1290872" lon="12.2636977"><ele>261.0</ele><time>2026-04-06T09:29:06.656Z</time></trkpt><trkpt lat="43.1290184" lon="12.2636941"><ele>261.0</ele><time>2026-04-06T09:29:08.657Z</time></trkpt><trkpt lat="43.1289352" lon="12.2636837"><ele>261.0</ele><time>2026-04-06T09:29:10.656Z</time></trkpt><trkpt lat="43.1288338" lon="12.2636722"><ele>261.0</ele><time>2026-04-06T09:29:12.656Z</time></trkpt><trkpt lat="43.128746" lon="12.2636551"><ele>261.0</ele><time>2026-04-06T09:29:14.655Z</time></trkpt><trkpt lat="43.1286322" lon="12.2636577"><ele>261.1666666666667</ele><time>2026-04-06T09:29:15.658Z</time></trkpt><trkpt lat="43.1285519" lon="12.2636358"><ele>261.3333333333333</ele><time>2026-04-06T09:29:16.66Z</time></trkpt><trkpt lat="43.1284668" lon="12.2636162"><ele>261.5</ele><time>2026-04-06T09:29:17.66Z</time></trkpt><trkpt lat="43.1283827" lon="12.2635748"><ele>261.66666666666663</ele><time>2026-04-06T09:29:18.658Z</time></trkpt><trkpt lat="43.1282999" lon="12.2635286"><ele>261.8333333333333</ele><time>2026-04-06T09:29:19.657Z</time></trkpt><trkpt lat="43.128214" lon="12.2634712"><ele>262.0</ele><time>2026-04-06T09:29:20.66Z</time></trkpt><trkpt lat="43.1281279" lon="12.2634024"><ele>262.0</ele><time>2026-04-06T09:29:21.659Z</time></trkpt><trkpt lat="43.128044" lon="12.263328"><ele>262.0</ele><time>2026-04-06T09:29:22.658Z</time></trkpt><trkpt lat="43.1279618" lon="12.2632462"><ele>262.0</ele><time>2026-04-06T09:29:23.655Z</time></trkpt><trkpt lat="43.1278794" lon="12.2631752"><ele>262.0</ele><time>2026-04-06T09:29:24.662Z</time></trkpt><trkpt lat="43.1278004" lon="12.2631034"><ele>262.0</ele><time>2026-04-06T09:29:25.657Z</time></trkpt><trkpt lat="43.1277288" lon="12.2630279"><ele>262.0</ele><time>2026-04-06T09:29:26.64Z</time></trkpt><trkpt lat="43.1276571" lon="12.2629595"><ele>262.0</ele><time>2026-04-06T09:29:27.658Z</time></trkpt><trkpt lat="43.1275897" lon="12.2628942"><ele>262.0</ele><time>2026-04-06T09:29:28.657Z</time></trkpt><trkpt lat="43.1275279" lon="12.262835"><ele>262.0</ele><time>2026-04-06T09:29:29.657Z</time></trkpt><trkpt lat="43.1274694" lon="12.2627739"><ele>262.0</ele><time>2026-04-06T09:29:30.652Z</time></trkpt><trkpt lat="43.127417" lon="12.2627134"><ele>262.0</ele><time>2026-04-06T09:29:31.66Z</time></trkpt><trkpt lat="43.1273703" lon="12.2626513"><ele>262.0</ele><time>2026-04-06T09:29:32.658Z</time></trkpt><trkpt lat="43.1272863" lon="12.2625526"><ele>262.0</ele><time>2026-04-06T09:29:34.653Z</time></trkpt><trkpt lat="43.1272043" lon="12.2624631"><ele>262.0</ele><time>2026-04-06T09:29:36.66Z</time></trkpt><trkpt lat="43.1271269" lon="12.2623839"><ele>262.0</ele><time>2026-04-06T09:29:38.659Z</time></trkpt><trkpt lat="43.1270601" lon="12.2623293"><ele>262.0</ele><time>2026-04-06T09:29:40.661Z</time></trkpt><trkpt lat="43.1269873" lon="12.2622639"><ele>261.3333333333333</ele><time>2026-04-06T09:29:42.663Z</time></trkpt><trkpt lat="43.1269197" lon="12.2621895"><ele>260.66666666666663</ele><time>2026-04-06T09:29:44.659Z</time></trkpt><trkpt lat="43.1268571" lon="12.2621097"><ele>260.0</ele><time>2026-04-06T09:29:46.662Z</time></trkpt><trkpt lat="43.1267918" lon="12.262026"><ele>259.3333333333333</ele><time>2026-04-06T09:29:48.649Z</time></trkpt><trkpt lat="43.1267178" lon="12.2619607"><ele>258.6666666666667</ele><time>2026-04-06T09:29:50.657Z</time></trkpt><trkpt lat="43.1266365" lon="12.2619031"><ele>258.0</ele><time>2026-04-06T09:29:52.661Z</time></trkpt><trkpt lat="43.1265562" lon="12.2618452"><ele>258.0</ele><time>2026-04-06T09:29:54.664Z</time></trkpt><trkpt lat="43.1264731" lon="12.261808"><ele>258.0</ele><time>2026-04-06T09:29:56.759Z</time></trkpt><trkpt lat="43.1263938" lon="12.26176"><ele>258.0</ele><time>2026-04-06T09:29:58.631Z</time></trkpt><trkpt lat="43.1263096" lon="12.2617189"><ele>258.0</ele><time>2026-04-06T09:30:00.659Z</time></trkpt><trkpt lat="43.1262276" lon="12.2616725"><ele>258.0</ele><time>2026-04-06T09:30:02.656Z</time></trkpt><trkpt lat="43.1261408" lon="12.2616085"><ele>258.0</ele><time>2026-04-06T09:30:04.658Z</time></trkpt><trkpt lat="43.1260489" lon="12.2615362"><ele>258.0</ele><time>2026-04-06T09:30:06.661Z</time></trkpt><trkpt lat="43.1259525" lon="12.2614529"><ele>258.0</ele><time>2026-04-06T09:30:08.66Z</time></trkpt><trkpt lat="43.1258494" lon="12.2613754"><ele>258.0</ele><time>2026-04-06T09:30:10.658Z</time></trkpt><trkpt lat="43.1257434" lon="12.2612977"><ele>258.6</ele><time>2026-04-06T09:30:12.658Z</time></trkpt><trkpt lat="43.1256339" lon="12.2612393"><ele>259.20000000000005</ele><time>2026-04-06T09:30:14.655Z</time></trkpt><trkpt lat="43.1255439" lon="12.2611679"><ele>259.8</ele><time>2026-04-06T09:30:16.658Z</time></trkpt><trkpt lat="43.1254624" lon="12.2611036"><ele>260.40000000000003</ele><time>2026-04-06T09:30:18.656Z</time></trkpt><trkpt lat="43.1253798" lon="12.2610302"><ele>261.0</ele><time>2026-04-06T09:30:20.658Z</time></trkpt><trkpt lat="43.1253094" lon="12.2609463"><ele>261.0</ele><time>2026-04-06T09:30:22.654Z</time></trkpt><trkpt lat="43.1252491" lon="12.2608578"><ele>261.0</ele><time>2026-04-06T09:30:24.655Z</time></trkpt><trkpt lat="43.1252244" lon="12.2607609"><ele>261.0</ele><time>2026-04-06T09:30:26.661Z</time></trkpt><trkpt lat="43.1252088" lon="12.2606582"><ele>261.0</ele><time>2026-04-06T09:30:28.658Z</time></trkpt><trkpt lat="43.1251958" lon="12.2605576"><ele>261.0</ele><time>2026-04-06T09:30:30.653Z</time></trkpt><trkpt lat="43.1251891" lon="12.2604542"><ele>261.0</ele><time>2026-04-06T09:30:32.648Z</time></trkpt><trkpt lat="43.125175" lon="12.2603564"><ele>260.8571428571429</ele><time>2026-04-06T09:30:34.644Z</time></trkpt><trkpt lat="43.1251586" lon="12.2602632"><ele>260.7142857142857</ele><time>2026-04-06T09:30:36.762Z</time></trkpt><trkpt lat="43.1251396" lon="12.2601679"><ele>260.57142857142856</ele><time>2026-04-06T09:30:38.66Z</time></trkpt><trkpt lat="43.1251075" lon="12.2600804"><ele>260.42857142857144</ele><time>2026-04-06T09:30:40.661Z</time></trkpt><trkpt lat="43.1250707" lon="12.2599969"><ele>260.2857142857143</ele><time>2026-04-06T09:30:42.639Z</time></trkpt><trkpt lat="43.1250323" lon="12.2599166"><ele>260.14285714285717</ele><time>2026-04-06T09:30:44.637Z</time></trkpt><trkpt lat="43.1249896" lon="12.2598369"><ele>260.0</ele><time>2026-04-06T09:30:46.639Z</time></trkpt><trkpt lat="43.1249436" lon="12.2597558"><ele>260.5714285714286</ele><time>2026-04-06T09:30:48.661Z</time></trkpt><trkpt lat="43.1249001" lon="12.2596773"><ele>261.14285714285717</ele><time>2026-04-06T09:30:50.652Z</time></trkpt><trkpt lat="43.1248542" lon="12.2595957"><ele>261.7142857142857</ele><time>2026-04-06T09:30:52.658Z</time></trkpt><trkpt lat="43.1248059" lon="12.2595207"><ele>262.28571428571433</ele><time>2026-04-06T09:30:54.66Z</time></trkpt><trkpt lat="43.1247533" lon="12.2594527"><ele>262.8571428571429</ele><time>2026-04-06T09:30:56.641Z</time></trkpt><trkpt lat="43.124694" lon="12.2593811"><ele>263.42857142857144</ele><time>2026-04-06T09:30:58.657Z</time></trkpt><trkpt lat="43.1246357" lon="12.2593128"><ele>264.0</ele><time>2026-04-06T09:31:00.656Z</time></trkpt><trkpt lat="43.1245841" lon="12.2592315"><ele>264.0</ele><time>2026-04-06T09:31:02.657Z</time></trkpt><trkpt lat="43.1245337" lon="12.2591271"><ele>264.0</ele><time>2026-04-06T09:31:04.659Z</time></trkpt><trkpt lat="43.1244734" lon="12.259009"><ele>264.0</ele><time>2026-04-06T09:31:06.661Z</time></trkpt><trkpt lat="43.1244007" lon="12.2588745"><ele>264.0</ele><time>2026-04-06T09:31:08.658Z</time></trkpt><trkpt lat="43.1243631" lon="12.2588017"><ele>264.0</ele><time>2026-04-06T09:31:09.655Z</time></trkpt><trkpt lat="43.1243269" lon="12.2587242"><ele>263.2</ele><time>2026-04-06T09:31:10.659Z</time></trkpt><trkpt lat="43.1242934" lon="12.2586459"><ele>262.4</ele><time>2026-04-06T09:31:11.657Z</time></trkpt><trkpt lat="43.1242343" lon="12.2585028"><ele>261.6</ele><time>2026-04-06T09:31:13.658Z</time></trkpt><trkpt lat="43.1241856" lon="12.2583575"><ele>260.8</ele><time>2026-04-06T09:31:15.657Z</time></trkpt><trkpt lat="43.1241675" lon="12.2582205"><ele>260.0</ele><time>2026-04-06T09:31:17.657Z</time></trkpt><trkpt lat="43.1241504" lon="12.258098"><ele>259.83333333333337</ele><time>2026-04-06T09:31:19.657Z</time></trkpt><trkpt lat="43.1241363" lon="12.2579815"><ele>259.6666666666667</ele><time>2026-04-06T09:31:21.656Z</time></trkpt><trkpt lat="43.124109" lon="12.257878"><ele>259.5</ele><time>2026-04-06T09:31:23.659Z</time></trkpt><trkpt lat="43.1240714" lon="12.2577885"><ele>259.3333333333333</ele><time>2026-04-06T09:31:25.656Z</time></trkpt><trkpt lat="43.1240254" lon="12.2577024"><ele>259.16666666666663</ele><time>2026-04-06T09:31:27.656Z</time></trkpt><trkpt lat="43.1239773" lon="12.2576169"><ele>259.0</ele><time>2026-04-06T09:31:29.653Z</time></trkpt><trkpt lat="43.1239233" lon="12.2575347"><ele>259.0</ele><time>2026-04-06T09:31:31.662Z</time></trkpt><trkpt lat="43.1238714" lon="12.257446"><ele>259.0</ele><time>2026-04-06T09:31:33.656Z</time></trkpt><trkpt lat="43.123813" lon="12.2573488"><ele>259.0</ele><time>2026-04-06T09:31:35.656Z</time></trkpt><trkpt lat="43.1237511" lon="12.2572367"><ele>259.0</ele><time>2026-04-06T09:31:37.634Z</time></trkpt><trkpt lat="43.1236889" lon="12.2571062"><ele>259.0</ele><time>2026-04-06T09:31:39.662Z</time></trkpt><trkpt lat="43.1236529" lon="12.2570312"><ele>259.0</ele><time>2026-04-06T09:31:40.661Z</time></trkpt><trkpt lat="43.1235863" lon="12.2568884"><ele>259.0</ele><time>2026-04-06T09:31:42.657Z</time></trkpt><trkpt lat="43.1235185" lon="12.2567441"><ele>259.0</ele><time>2026-04-06T09:31:44.656Z</time></trkpt><trkpt lat="43.1234929" lon="12.2566641"><ele>259.0</ele><time>2026-04-06T09:31:45.658Z</time></trkpt><trkpt lat="43.1234674" lon="12.2565075"><ele>259.0</ele><time>2026-04-06T09:31:47.656Z</time></trkpt><trkpt lat="43.1234572" lon="12.2563474"><ele>258.66666666666663</ele><time>2026-04-06T09:31:49.646Z</time></trkpt><trkpt lat="43.123458" lon="12.2562148"><ele>258.3333333333333</ele><time>2026-04-06T09:31:51.656Z</time></trkpt><trkpt lat="43.1234549" lon="12.256093"><ele>258.0</ele><time>2026-04-06T09:31:53.658Z</time></trkpt><trkpt lat="43.1234573" lon="12.2559748"><ele>257.6666666666667</ele><time>2026-04-06T09:31:55.654Z</time></trkpt><trkpt lat="43.1234528" lon="12.2558589"><ele>257.33333333333337</ele><time>2026-04-06T09:31:57.65Z</time></trkpt><trkpt lat="43.1234433" lon="12.25574"><ele>257.0</ele><time>2026-04-06T09:31:59.658Z</time></trkpt><trkpt lat="43.123425" lon="12.2556274"><ele>257.2</ele><time>2026-04-06T09:32:01.655Z</time></trkpt><trkpt lat="43.1234063" lon="12.2555135"><ele>257.4</ele><time>2026-04-06T09:32:03.629Z</time></trkpt><trkpt lat="43.1233933" lon="12.2554007"><ele>257.6</ele><time>2026-04-06T09:32:05.66Z</time></trkpt><trkpt lat="43.1233745" lon="12.2552774"><ele>257.8</ele><time>2026-04-06T09:32:07.655Z</time></trkpt><trkpt lat="43.1233572" lon="12.2551465"><ele>258.0</ele><time>2026-04-06T09:32:09.655Z</time></trkpt><trkpt lat="43.1233407" lon="12.2550154"><ele>258.0</ele><time>2026-04-06T09:32:11.655Z</time></trkpt><trkpt lat="43.1233255" lon="12.2548861"><ele>258.0</ele><time>2026-04-06T09:32:13.661Z</time></trkpt><trkpt lat="43.12331" lon="12.2547583"><ele>258.0</ele><time>2026-04-06T09:32:15.658Z</time></trkpt><trkpt lat="43.1232885" lon="12.2546287"><ele>258.0</ele><time>2026-04-06T09:32:17.656Z</time></trkpt><trkpt lat="43.1232602" lon="12.2544959"><ele>258.0</ele><time>2026-04-06T09:32:19.661Z</time></trkpt><trkpt lat="43.1232378" lon="12.2543508"><ele>259.1666666666667</ele><time>2026-04-06T09:32:21.66Z</time></trkpt><trkpt lat="43.1232128" lon="12.2541926"><ele>260.3333333333333</ele><time>2026-04-06T09:32:23.657Z</time></trkpt><trkpt lat="43.1232006" lon="12.2541057"><ele>261.5</ele><time>2026-04-06T09:32:24.66Z</time></trkpt><trkpt lat="43.1231928" lon="12.2540153"><ele>262.66666666666663</ele><time>2026-04-06T09:32:25.657Z</time></trkpt><trkpt lat="43.1231877" lon="12.2539221"><ele>263.8333333333333</ele><time>2026-04-06T09:32:26.66Z</time></trkpt><trkpt lat="43.1231854" lon="12.2538235"><ele>265.0</ele><time>2026-04-06T09:32:27.654Z</time></trkpt><trkpt lat="43.1231853" lon="12.2537255"><ele>265.0</ele><time>2026-04-06T09:32:28.658Z</time></trkpt><trkpt lat="43.1231881" lon="12.2536263"><ele>265.0</ele><time>2026-04-06T09:32:29.669Z</time></trkpt><trkpt lat="43.1231925" lon="12.253531"><ele>265.0</ele><time>2026-04-06T09:32:30.656Z</time></trkpt><trkpt lat="43.1231989" lon="12.2534412"><ele>265.0</ele><time>2026-04-06T09:32:31.661Z</time></trkpt><trkpt lat="43.1232095" lon="12.2532817"><ele>265.0</ele><time>2026-04-06T09:32:33.658Z</time></trkpt><trkpt lat="43.1232119" lon="12.2531253"><ele>265.0</ele><time>2026-04-06T09:32:35.638Z</time></trkpt><trkpt lat="43.1232042" lon="12.2529802"><ele>263.0</ele><time>2026-04-06T09:32:37.656Z</time></trkpt><trkpt lat="43.123191" lon="12.252848"><ele>261.0</ele><time>2026-04-06T09:32:39.652Z</time></trkpt><trkpt lat="43.1231719" lon="12.2527102"><ele>259.0</ele><time>2026-04-06T09:32:41.728Z</time></trkpt><trkpt lat="43.1231351" lon="12.252563"><ele>257.0</ele><time>2026-04-06T09:32:43.655Z</time></trkpt><trkpt lat="43.1230783" lon="12.2524153"><ele>255.0</ele><time>2026-04-06T09:32:45.653Z</time></trkpt><trkpt lat="43.1230442" lon="12.2523383"><ele>253.0</ele><time>2026-04-06T09:32:46.653Z</time></trkpt><trkpt lat="43.123003" lon="12.2522661"><ele>251.0</ele><time>2026-04-06T09:32:47.647Z</time></trkpt><trkpt lat="43.1229055" lon="12.2521322"><ele>249.0</ele><time>2026-04-06T09:32:49.661Z</time></trkpt><trkpt lat="43.1228496" lon="12.2520673"><ele>247.0</ele><time>2026-04-06T09:32:50.65Z</time></trkpt><trkpt lat="43.1227914" lon="12.2519969"><ele>245.0</ele><time>2026-04-06T09:32:51.647Z</time></trkpt><trkpt lat="43.1227351" lon="12.2519187"><ele>243.0</ele><time>2026-04-06T09:32:52.749Z</time></trkpt><trkpt lat="43.1226696" lon="12.2518453"><ele>243.0</ele><time>2026-04-06T09:32:53.657Z</time></trkpt><trkpt lat="43.1226113" lon="12.2517765"><ele>243.0</ele><time>2026-04-06T09:32:54.666Z</time></trkpt><trkpt lat="43.1225512" lon="12.2517023"><ele>243.0</ele><time>2026-04-06T09:32:55.64Z</time></trkpt><trkpt lat="43.122497" lon="12.2516281"><ele>243.0</ele><time>2026-04-06T09:32:56.668Z</time></trkpt><trkpt lat="43.1224459" lon="12.2515672"><ele>243.0</ele><time>2026-04-06T09:32:57.649Z</time></trkpt><trkpt lat="43.1223985" lon="12.2514903"><ele>243.0</ele><time>2026-04-06T09:32:58.649Z</time></trkpt><trkpt lat="43.1223512" lon="12.2514231"><ele>243.0</ele><time>2026-04-06T09:32:59.649Z</time></trkpt><trkpt lat="43.1223013" lon="12.251358"><ele>242.4</ele><time>2026-04-06T09:33:00.66Z</time></trkpt><trkpt lat="43.1222139" lon="12.2512406"><ele>241.8</ele><time>2026-04-06T09:33:02.635Z</time></trkpt><trkpt lat="43.1221301" lon="12.251158"><ele>241.2</ele><time>2026-04-06T09:33:04.635Z</time></trkpt><trkpt lat="43.1220538" lon="12.251085"><ele>240.6</ele><time>2026-04-06T09:33:06.637Z</time></trkpt><trkpt lat="43.121974" lon="12.2510356"><ele>240.0</ele><time>2026-04-06T09:33:08.637Z</time></trkpt><trkpt lat="43.1218844" lon="12.2510022"><ele>240.0</ele><time>2026-04-06T09:33:10.766Z</time></trkpt><trkpt lat="43.1217891" lon="12.2509781"><ele>240.0</ele><time>2026-04-06T09:33:12.636Z</time></trkpt><trkpt lat="43.1216992" lon="12.250966"><ele>240.0</ele><time>2026-04-06T09:33:14.644Z</time></trkpt><trkpt lat="43.1216018" lon="12.2509511"><ele>240.0</ele><time>2026-04-06T09:33:16.742Z</time></trkpt><trkpt lat="43.1215046" lon="12.2509255"><ele>240.0</ele><time>2026-04-06T09:33:18.662Z</time></trkpt><trkpt lat="43.1213872" lon="12.250887"><ele>240.0</ele><time>2026-04-06T09:33:20.658Z</time></trkpt><trkpt lat="43.121326" lon="12.2508623"><ele>240.0</ele><time>2026-04-06T09:33:21.661Z</time></trkpt><trkpt lat="43.1212657" lon="12.2508365"><ele>240.0</ele><time>2026-04-06T09:33:22.652Z</time></trkpt><trkpt lat="43.1211454" lon="12.2507812"><ele>240.0</ele><time>2026-04-06T09:33:24.659Z</time></trkpt><trkpt lat="43.1210833" lon="12.2507614"><ele>240.0</ele><time>2026-04-06T09:33:25.657Z</time></trkpt><trkpt lat="43.1209688" lon="12.2507108"><ele>240.0</ele><time>2026-04-06T09:33:27.646Z</time></trkpt><trkpt lat="43.1208657" lon="12.2506678"><ele>240.0</ele><time>2026-04-06T09:33:29.657Z</time></trkpt><trkpt lat="43.1207765" lon="12.2506334"><ele>240.0</ele><time>2026-04-06T09:33:31.668Z</time></trkpt><trkpt lat="43.1206772" lon="12.2505962"><ele>240.0</ele><time>2026-04-06T09:33:33.656Z</time></trkpt><trkpt lat="43.1205728" lon="12.2505396"><ele>240.0</ele><time>2026-04-06T09:33:35.643Z</time></trkpt><trkpt lat="43.1204895" lon="12.2504675"><ele>240.0</ele><time>2026-04-06T09:33:37.642Z</time></trkpt><trkpt lat="43.1204143" lon="12.2503762"><ele>240.0</ele><time>2026-04-06T09:33:39.657Z</time></trkpt><trkpt lat="43.1203408" lon="12.2502911"><ele>240.0</ele><time>2026-04-06T09:33:41.661Z</time></trkpt><trkpt lat="43.1202639" lon="12.2502094"><ele>240.0</ele><time>2026-04-06T09:33:43.653Z</time></trkpt><trkpt lat="43.1201862" lon="12.2501252"><ele>240.0</ele><time>2026-04-06T09:33:45.654Z</time></trkpt><trkpt lat="43.1201001" lon="12.2500243"><ele>240.0</ele><time>2026-04-06T09:33:47.647Z</time></trkpt><trkpt lat="43.1200175" lon="12.2499212"><ele>240.0</ele><time>2026-04-06T09:33:49.661Z</time></trkpt><trkpt lat="43.1199494" lon="12.249835"><ele>240.0</ele><time>2026-04-06T09:33:51.757Z</time></trkpt><trkpt lat="43.1198852" lon="12.2497315"><ele>240.0</ele><time>2026-04-06T09:33:53.66Z</time></trkpt><trkpt lat="43.1198206" lon="12.2496361"><ele>240.0</ele><time>2026-04-06T09:33:55.657Z</time></trkpt><trkpt lat="43.1197556" lon="12.2495369"><ele>240.0</ele><time>2026-04-06T09:33:57.656Z</time></trkpt><trkpt lat="43.1196869" lon="12.2494431"><ele>239.6</ele><time>2026-04-06T09:33:59.657Z</time></trkpt><trkpt lat="43.1196171" lon="12.2493391"><ele>239.2</ele><time>2026-04-06T09:34:01.662Z</time></trkpt><trkpt lat="43.1195465" lon="12.2492532"><ele>238.8</ele><time>2026-04-06T09:34:03.76Z</time></trkpt><trkpt lat="43.1194803" lon="12.2491526"><ele>238.4</ele><time>2026-04-06T09:34:05.661Z</time></trkpt><trkpt lat="43.1194148" lon="12.2490729"><ele>238.0</ele><time>2026-04-06T09:34:07.664Z</time></trkpt><trkpt lat="43.1193373" lon="12.249011"><ele>237.49999999999997</ele><time>2026-04-06T09:34:09.67Z</time></trkpt><trkpt lat="43.1192655" lon="12.2489342"><ele>237.0</ele><time>2026-04-06T09:34:11.661Z</time></trkpt><trkpt lat="43.1191857" lon="12.2488828"><ele>236.5</ele><time>2026-04-06T09:34:13.657Z</time></trkpt><trkpt lat="43.1190949" lon="12.2488503"><ele>236.0</ele><time>2026-04-06T09:34:15.668Z</time></trkpt><trkpt lat="43.1190114" lon="12.2488438"><ele>235.49999999999997</ele><time>2026-04-06T09:34:17.659Z</time></trkpt><trkpt lat="43.1189245" lon="12.2488251"><ele>235.0</ele><time>2026-04-06T09:34:19.662Z</time></trkpt><trkpt lat="43.1188281" lon="12.248792"><ele>234.99999999999997</ele><time>2026-04-06T09:34:21.665Z</time></trkpt><trkpt lat="43.1187112" lon="12.2487566"><ele>235.0</ele><time>2026-04-06T09:34:23.656Z</time></trkpt><trkpt lat="43.1186487" lon="12.2487345"><ele>235.0</ele><time>2026-04-06T09:34:24.654Z</time></trkpt><trkpt lat="43.1185835" lon="12.2487056"><ele>235.0</ele><time>2026-04-06T09:34:25.656Z</time></trkpt><trkpt lat="43.1185211" lon="12.2486861"><ele>234.99999999999997</ele><time>2026-04-06T09:34:26.653Z</time></trkpt><trkpt lat="43.1184523" lon="12.2486634"><ele>235.0</ele><time>2026-04-06T09:34:27.657Z</time></trkpt><trkpt lat="43.1183859" lon="12.2486359"><ele>235.0</ele><time>2026-04-06T09:34:28.651Z</time></trkpt><trkpt lat="43.1183167" lon="12.2486134"><ele>234.99999999999997</ele><time>2026-04-06T09:34:29.654Z</time></trkpt><trkpt lat="43.1182461" lon="12.2485888"><ele>235.0</ele><time>2026-04-06T09:34:30.648Z</time></trkpt><trkpt lat="43.1181754" lon="12.2485602"><ele>235.0</ele><time>2026-04-06T09:34:31.658Z</time></trkpt><trkpt lat="43.1181048" lon="12.2485341"><ele>234.99999999999997</ele><time>2026-04-06T09:34:32.661Z</time></trkpt><trkpt lat="43.1180376" lon="12.248503"><ele>235.0</ele><time>2026-04-06T09:34:33.656Z</time></trkpt><trkpt lat="43.1179644" lon="12.2484713"><ele>235.0</ele><time>2026-04-06T09:34:34.661Z</time></trkpt><trkpt lat="43.1178914" lon="12.2484326"><ele>234.6</ele><time>2026-04-06T09:34:35.662Z</time></trkpt><trkpt lat="43.1178245" lon="12.2484002"><ele>234.2</ele><time>2026-04-06T09:34:36.642Z</time></trkpt><trkpt lat="43.117709" lon="12.2483614"><ele>233.8</ele><time>2026-04-06T09:34:38.658Z</time></trkpt><trkpt lat="43.1175988" lon="12.2483667"><ele>233.4</ele><time>2026-04-06T09:34:40.657Z</time></trkpt><trkpt lat="43.1174977" lon="12.2483822"><ele>233.0</ele><time>2026-04-06T09:34:42.637Z</time></trkpt><trkpt lat="43.1173938" lon="12.2484062"><ele>233.0</ele><time>2026-04-06T09:34:44.658Z</time></trkpt><trkpt lat="43.1172816" lon="12.2484366"><ele>233.0</ele><time>2026-04-06T09:34:46.656Z</time></trkpt><trkpt lat="43.1171725" lon="12.2484489"><ele>233.0</ele><time>2026-04-06T09:34:48.741Z</time></trkpt><trkpt lat="43.1170585" lon="12.248441"><ele>233.0</ele><time>2026-04-06T09:34:50.652Z</time></trkpt><trkpt lat="43.1169439" lon="12.2484117"><ele>233.0</ele><time>2026-04-06T09:34:52.663Z</time></trkpt><trkpt lat="43.116833" lon="12.2483846"><ele>233.0</ele><time>2026-04-06T09:34:54.661Z</time></trkpt><trkpt lat="43.1167123" lon="12.2483648"><ele>233.0</ele><time>2026-04-06T09:34:56.662Z</time></trkpt><trkpt lat="43.1166496" lon="12.2483498"><ele>233.0</ele><time>2026-04-06T09:34:57.662Z</time></trkpt><trkpt lat="43.1165865" lon="12.2483408"><ele>233.0</ele><time>2026-04-06T09:34:58.656Z</time></trkpt><trkpt lat="43.116468" lon="12.2483286"><ele>233.25</ele><time>2026-04-06T09:35:00.654Z</time></trkpt><trkpt lat="43.1163445" lon="12.2483268"><ele>233.5</ele><time>2026-04-06T09:35:02.66Z</time></trkpt><trkpt lat="43.116227" lon="12.2482911"><ele>233.75</ele><time>2026-04-06T09:35:04.656Z</time></trkpt><trkpt lat="43.1160473" lon="12.2482697"><ele>234.0</ele><time>2026-04-06T09:35:07.657Z</time></trkpt><trkpt lat="43.1159303" lon="12.2482619"><ele>234.0</ele><time>2026-04-06T09:35:09.658Z</time></trkpt><trkpt lat="43.1158196" lon="12.2482599"><ele>234.0</ele><time>2026-04-06T09:35:11.657Z</time></trkpt><trkpt lat="43.1157023" lon="12.2482499"><ele>234.0</ele><time>2026-04-06T09:35:13.657Z</time></trkpt><trkpt lat="43.1155892" lon="12.2482404"><ele>234.0</ele><time>2026-04-06T09:35:15.656Z</time></trkpt><trkpt lat="43.1154783" lon="12.2482229"><ele>234.0</ele><time>2026-04-06T09:35:17.657Z</time></trkpt><trkpt lat="43.115369" lon="12.2482116"><ele>233.99999999999997</ele><time>2026-04-06T09:35:19.654Z</time></trkpt><trkpt lat="43.1152524" lon="12.2482003"><ele>233.99999999999997</ele><time>2026-04-06T09:35:21.658Z</time></trkpt><trkpt lat="43.1151455" lon="12.2481778"><ele>234.0</ele><time>2026-04-06T09:35:23.664Z</time></trkpt><trkpt lat="43.1150433" lon="12.2481305"><ele>234.0</ele><time>2026-04-06T09:35:25.655Z</time></trkpt><trkpt lat="43.114942" lon="12.2480725"><ele>233.25</ele><time>2026-04-06T09:35:27.656Z</time></trkpt><trkpt lat="43.1148446" lon="12.2479825"><ele>232.5</ele><time>2026-04-06T09:35:29.656Z</time></trkpt><trkpt lat="43.1147471" lon="12.2478922"><ele>231.75</ele><time>2026-04-06T09:35:31.654Z</time></trkpt><trkpt lat="43.1146407" lon="12.2478106"><ele>231.0</ele><time>2026-04-06T09:35:33.65Z</time></trkpt><trkpt lat="43.1145385" lon="12.2477295"><ele>231.0</ele><time>2026-04-06T09:35:35.66Z</time></trkpt><trkpt lat="43.1144377" lon="12.2476439"><ele>231.00000000000003</ele><time>2026-04-06T09:35:37.653Z</time></trkpt><trkpt lat="43.1143274" lon="12.2475754"><ele>231.00000000000003</ele><time>2026-04-06T09:35:39.651Z</time></trkpt><trkpt lat="43.1142674" lon="12.2475439"><ele>231.0</ele><time>2026-04-06T09:35:40.655Z</time></trkpt><trkpt lat="43.1141525" lon="12.2474969"><ele>231.0</ele><time>2026-04-06T09:35:42.653Z</time></trkpt><trkpt lat="43.1140304" lon="12.2474626"><ele>231.25</ele><time>2026-04-06T09:35:44.66Z</time></trkpt><trkpt lat="43.1139094" lon="12.2474532"><ele>231.5</ele><time>2026-04-06T09:35:46.663Z</time></trkpt><trkpt lat="43.1137963" lon="12.2474638"><ele>231.75</ele><time>2026-04-06T09:35:48.656Z</time></trkpt><trkpt lat="43.1136879" lon="12.2474753"><ele>232.0</ele><time>2026-04-06T09:35:50.649Z</time></trkpt><trkpt lat="43.113579" lon="12.247486"><ele>232.0</ele><time>2026-04-06T09:35:52.658Z</time></trkpt><trkpt lat="43.113479" lon="12.2475142"><ele>232.0</ele><time>2026-04-06T09:35:54.642Z</time></trkpt><trkpt lat="43.1133756" lon="12.2475348"><ele>232.0</ele><time>2026-04-06T09:35:56.648Z</time></trkpt><trkpt lat="43.1132587" lon="12.2475604"><ele>232.0</ele><time>2026-04-06T09:35:58.66Z</time></trkpt><trkpt lat="43.1131461" lon="12.2475739"><ele>232.0</ele><time>2026-04-06T09:36:00.656Z</time></trkpt><trkpt lat="43.1130378" lon="12.2475822"><ele>231.6</ele><time>2026-04-06T09:36:02.643Z</time></trkpt><trkpt lat="43.1129389" lon="12.2475742"><ele>231.2</ele><time>2026-04-06T09:36:04.658Z</time></trkpt><trkpt lat="43.1128329" lon="12.2475782"><ele>230.8</ele><time>2026-04-06T09:36:06.653Z</time></trkpt><trkpt lat="43.1127219" lon="12.247593"><ele>230.4</ele><time>2026-04-06T09:36:08.655Z</time></trkpt><trkpt lat="43.112603" lon="12.2476283"><ele>230.0</ele><time>2026-04-06T09:36:10.65Z</time></trkpt><trkpt lat="43.1124976" lon="12.2476539"><ele>229.75</ele><time>2026-04-06T09:36:12.654Z</time></trkpt><trkpt lat="43.1123851" lon="12.2476754"><ele>229.5</ele><time>2026-04-06T09:36:14.657Z</time></trkpt><trkpt lat="43.112275" lon="12.2476975"><ele>229.25</ele><time>2026-04-06T09:36:16.668Z</time></trkpt><trkpt lat="43.1121527" lon="12.2477174"><ele>229.0</ele><time>2026-04-06T09:36:18.642Z</time></trkpt><trkpt lat="43.1120325" lon="12.2477357"><ele>229.0</ele><time>2026-04-06T09:36:20.662Z</time></trkpt><trkpt lat="43.1119127" lon="12.2477502"><ele>229.0</ele><time>2026-04-06T09:36:22.648Z</time></trkpt><trkpt lat="43.1117968" lon="12.2477706"><ele>229.0</ele><time>2026-04-06T09:36:24.654Z</time></trkpt><trkpt lat="43.1116878" lon="12.2477968"><ele>229.0</ele><time>2026-04-06T09:36:26.658Z</time></trkpt><trkpt lat="43.1115802" lon="12.2478453"><ele>229.0</ele><time>2026-04-06T09:36:28.656Z</time></trkpt><trkpt lat="43.1114705" lon="12.2478822"><ele>229.0</ele><time>2026-04-06T09:36:30.648Z</time></trkpt><trkpt lat="43.1113673" lon="12.2479044"><ele>229.0</ele><time>2026-04-06T09:36:32.652Z</time></trkpt><trkpt lat="43.1112562" lon="12.2479219"><ele>229.0</ele><time>2026-04-06T09:36:34.651Z</time></trkpt><trkpt lat="43.1111377" lon="12.2479529"><ele>229.0</ele><time>2026-04-06T09:36:36.662Z</time></trkpt><trkpt lat="43.1110269" lon="12.2479804"><ele>228.99999999999997</ele><time>2026-04-06T09:36:38.647Z</time></trkpt><trkpt lat="43.1109173" lon="12.2480236"><ele>228.99999999999997</ele><time>2026-04-06T09:36:40.653Z</time></trkpt><trkpt lat="43.1108136" lon="12.2480716"><ele>229.0</ele><time>2026-04-06T09:36:42.658Z</time></trkpt><trkpt lat="43.1107103" lon="12.2481116"><ele>229.0</ele><time>2026-04-06T09:36:44.654Z</time></trkpt><trkpt lat="43.1106028" lon="12.2481288"><ele>229.79999999999998</ele><time>2026-04-06T09:36:46.658Z</time></trkpt><trkpt lat="43.1104935" lon="12.2481413"><ele>230.59999999999997</ele><time>2026-04-06T09:36:48.657Z</time></trkpt><trkpt lat="43.1103863" lon="12.2481376"><ele>231.4</ele><time>2026-04-06T09:36:50.663Z</time></trkpt><trkpt lat="43.110281" lon="12.2481373"><ele>232.2</ele><time>2026-04-06T09:36:52.655Z</time></trkpt><trkpt lat="43.1101778" lon="12.2481431"><ele>233.0</ele><time>2026-04-06T09:36:54.659Z</time></trkpt><trkpt lat="43.1100742" lon="12.2481322"><ele>231.8</ele><time>2026-04-06T09:36:56.66Z</time></trkpt><trkpt lat="43.1099669" lon="12.248104"><ele>230.60000000000002</ele><time>2026-04-06T09:36:58.649Z</time></trkpt><trkpt lat="43.1098551" lon="12.2480839"><ele>229.39999999999998</ele><time>2026-04-06T09:37:00.663Z</time></trkpt><trkpt lat="43.1097523" lon="12.2480477"><ele>228.2</ele><time>2026-04-06T09:37:02.658Z</time></trkpt><trkpt lat="43.109645" lon="12.248025"><ele>227.0</ele><time>2026-04-06T09:37:04.657Z</time></trkpt><trkpt lat="43.109543" lon="12.2480072"><ele>227.0</ele><time>2026-04-06T09:37:06.664Z</time></trkpt><trkpt lat="43.1094379" lon="12.2480208"><ele>227.0</ele><time>2026-04-06T09:37:08.662Z</time></trkpt><trkpt lat="43.1093217" lon="12.2480328"><ele>227.0</ele><time>2026-04-06T09:37:10.649Z</time></trkpt><trkpt lat="43.1092097" lon="12.2480262"><ele>227.0</ele><time>2026-04-06T09:37:12.665Z</time></trkpt><trkpt lat="43.1091009" lon="12.248024"><ele>227.0</ele><time>2026-04-06T09:37:14.655Z</time></trkpt><trkpt lat="43.1089765" lon="12.2480241"><ele>227.2</ele><time>2026-04-06T09:37:16.643Z</time></trkpt><trkpt lat="43.1088726" lon="12.2480281"><ele>227.39999999999998</ele><time>2026-04-06T09:37:18.656Z</time></trkpt><trkpt lat="43.1087776" lon="12.2480271"><ele>227.60000000000002</ele><time>2026-04-06T09:37:20.659Z</time></trkpt><trkpt lat="43.1086745" lon="12.2480272"><ele>227.8</ele><time>2026-04-06T09:37:22.648Z</time></trkpt><trkpt lat="43.1085653" lon="12.2480272"><ele>228.0</ele><time>2026-04-06T09:37:24.654Z</time></trkpt><trkpt lat="43.1084526" lon="12.2480268"><ele>228.0</ele><time>2026-04-06T09:37:26.639Z</time></trkpt><trkpt lat="43.1083308" lon="12.2480276"><ele>228.0</ele><time>2026-04-06T09:37:28.753Z</time></trkpt><trkpt lat="43.1082212" lon="12.2480334"><ele>228.0</ele><time>2026-04-06T09:37:30.658Z</time></trkpt><trkpt lat="43.1081091" lon="12.2480445"><ele>228.0</ele><time>2026-04-06T09:37:32.649Z</time></trkpt><trkpt lat="43.1079948" lon="12.2480571"><ele>227.5</ele><time>2026-04-06T09:37:34.642Z</time></trkpt><trkpt lat="43.1078784" lon="12.2480817"><ele>227.0</ele><time>2026-04-06T09:37:36.634Z</time></trkpt><trkpt lat="43.1077572" lon="12.248127"><ele>226.5</ele><time>2026-04-06T09:37:38.648Z</time></trkpt><trkpt lat="43.107642" lon="12.2481819"><ele>226.0</ele><time>2026-04-06T09:37:40.74Z</time></trkpt><trkpt lat="43.1075424" lon="12.2482404"><ele>226.60000000000002</ele><time>2026-04-06T09:37:42.639Z</time></trkpt><trkpt lat="43.1074614" lon="12.248315"><ele>227.20000000000002</ele><time>2026-04-06T09:37:44.642Z</time></trkpt><trkpt lat="43.1073852" lon="12.2484034"><ele>227.79999999999998</ele><time>2026-04-06T09:37:46.634Z</time></trkpt><trkpt lat="43.1073185" lon="12.2484975"><ele>228.39999999999998</ele><time>2026-04-06T09:37:48.64Z</time></trkpt><trkpt lat="43.1072432" lon="12.2485855"><ele>229.0</ele><time>2026-04-06T09:37:50.641Z</time></trkpt><trkpt lat="43.1071732" lon="12.2486939"><ele>229.0</ele><time>2026-04-06T09:37:52.638Z</time></trkpt><trkpt lat="43.1070888" lon="12.2487951"><ele>228.99999999999997</ele><time>2026-04-06T09:37:54.647Z</time></trkpt><trkpt lat="43.1070136" lon="12.2489041"><ele>228.99999999999997</ele><time>2026-04-06T09:37:56.657Z</time></trkpt><trkpt lat="43.1069325" lon="12.2490086"><ele>229.0</ele><time>2026-04-06T09:37:58.647Z</time></trkpt><trkpt lat="43.1068548" lon="12.2491147"><ele>229.0</ele><time>2026-04-06T09:38:00.656Z</time></trkpt><trkpt lat="43.1067834" lon="12.2492263"><ele>229.2</ele><time>2026-04-06T09:38:02.661Z</time></trkpt><trkpt lat="43.1067009" lon="12.2493237"><ele>229.39999999999998</ele><time>2026-04-06T09:38:04.649Z</time></trkpt><trkpt lat="43.1066309" lon="12.2494297"><ele>229.6</ele><time>2026-04-06T09:38:06.651Z</time></trkpt><trkpt lat="43.1065589" lon="12.2495326"><ele>229.8</ele><time>2026-04-06T09:38:08.654Z</time></trkpt><trkpt lat="43.1065015" lon="12.2496542"><ele>230.0</ele><time>2026-04-06T09:38:10.754Z</time></trkpt><trkpt lat="43.1064504" lon="12.2497821"><ele>229.2</ele><time>2026-04-06T09:38:12.653Z</time></trkpt><trkpt lat="43.1063813" lon="12.249911"><ele>228.4</ele><time>2026-04-06T09:38:14.652Z</time></trkpt><trkpt lat="43.1063469" lon="12.2499863"><ele>227.60000000000002</ele><time>2026-04-06T09:38:15.655Z</time></trkpt><trkpt lat="43.1063" lon="12.2501238"><ele>226.8</ele><time>2026-04-06T09:38:17.663Z</time></trkpt><trkpt lat="43.1062663" lon="12.2502809"><ele>226.0</ele><time>2026-04-06T09:38:19.652Z</time></trkpt><trkpt lat="43.1062335" lon="12.2504353"><ele>226.0</ele><time>2026-04-06T09:38:21.661Z</time></trkpt><trkpt lat="43.1062011" lon="12.2505765"><ele>226.00000000000003</ele><time>2026-04-06T09:38:23.656Z</time></trkpt><trkpt lat="43.106168" lon="12.2507161"><ele>226.00000000000003</ele><time>2026-04-06T09:38:25.656Z</time></trkpt><trkpt lat="43.1061329" lon="12.2508429"><ele>226.0</ele><time>2026-04-06T09:38:27.754Z</time></trkpt><trkpt lat="43.1061105" lon="12.2509884"><ele>226.0</ele><time>2026-04-06T09:38:29.647Z</time></trkpt><trkpt lat="43.1060784" lon="12.2511242"><ele>226.8</ele><time>2026-04-06T09:38:31.658Z</time></trkpt><trkpt lat="43.1060391" lon="12.2512582"><ele>227.60000000000002</ele><time>2026-04-06T09:38:33.65Z</time></trkpt><trkpt lat="43.1060018" lon="12.251389"><ele>228.4</ele><time>2026-04-06T09:38:35.658Z</time></trkpt><trkpt lat="43.1059673" lon="12.2515246"><ele>229.2</ele><time>2026-04-06T09:38:37.657Z</time></trkpt><trkpt lat="43.1059479" lon="12.2516549"><ele>230.0</ele><time>2026-04-06T09:38:39.659Z</time></trkpt><trkpt lat="43.1059212" lon="12.2518001"><ele>230.4</ele><time>2026-04-06T09:38:41.657Z</time></trkpt><trkpt lat="43.1058998" lon="12.2519376"><ele>230.8</ele><time>2026-04-06T09:38:43.652Z</time></trkpt><trkpt lat="43.1058787" lon="12.252082"><ele>231.2</ele><time>2026-04-06T09:38:45.657Z</time></trkpt><trkpt lat="43.105846" lon="12.2522287"><ele>231.6</ele><time>2026-04-06T09:38:47.649Z</time></trkpt><trkpt lat="43.10582" lon="12.2523803"><ele>232.0</ele><time>2026-04-06T09:38:49.657Z</time></trkpt><trkpt lat="43.1057902" lon="12.2525195"><ele>232.2</ele><time>2026-04-06T09:38:51.652Z</time></trkpt><trkpt lat="43.1057668" lon="12.2526729"><ele>232.39999999999998</ele><time>2026-04-06T09:38:53.649Z</time></trkpt><trkpt lat="43.1057464" lon="12.2528212"><ele>232.60000000000002</ele><time>2026-04-06T09:38:55.649Z</time></trkpt><trkpt lat="43.1057226" lon="12.2529635"><ele>232.8</ele><time>2026-04-06T09:38:57.66Z</time></trkpt><trkpt lat="43.1057043" lon="12.2531155"><ele>233.0</ele><time>2026-04-06T09:38:59.646Z</time></trkpt><trkpt lat="43.1056818" lon="12.2532536"><ele>231.8</ele><time>2026-04-06T09:39:01.651Z</time></trkpt><trkpt lat="43.1056589" lon="12.2533951"><ele>230.60000000000002</ele><time>2026-04-06T09:39:03.656Z</time></trkpt><trkpt lat="43.1056396" lon="12.2535307"><ele>229.39999999999998</ele><time>2026-04-06T09:39:05.646Z</time></trkpt><trkpt lat="43.1056208" lon="12.2536741"><ele>228.2</ele><time>2026-04-06T09:39:07.652Z</time></trkpt><trkpt lat="43.1055971" lon="12.2538178"><ele>227.0</ele><time>2026-04-06T09:39:09.65Z</time></trkpt><trkpt lat="43.1055945" lon="12.2539688"><ele>226.75</ele><time>2026-04-06T09:39:11.661Z</time></trkpt><trkpt lat="43.1056125" lon="12.2541279"><ele>226.5</ele><time>2026-04-06T09:39:13.656Z</time></trkpt><trkpt lat="43.1056232" lon="12.2542818"><ele>226.25</ele><time>2026-04-06T09:39:15.658Z</time></trkpt><trkpt lat="43.1056319" lon="12.2544277"><ele>226.0</ele><time>2026-04-06T09:39:17.65Z</time></trkpt><trkpt lat="43.1056484" lon="12.2545846"><ele>226.0</ele><time>2026-04-06T09:39:19.663Z</time></trkpt><trkpt lat="43.1056571" lon="12.2547337"><ele>226.00000000000003</ele><time>2026-04-06T09:39:21.648Z</time></trkpt><trkpt lat="43.1056633" lon="12.2548845"><ele>226.00000000000003</ele><time>2026-04-06T09:39:23.666Z</time></trkpt><trkpt lat="43.1056626" lon="12.2550331"><ele>226.0</ele><time>2026-04-06T09:39:25.653Z</time></trkpt><trkpt lat="43.1056636" lon="12.2551891"><ele>226.0</ele><time>2026-04-06T09:39:27.656Z</time></trkpt><trkpt lat="43.1056631" lon="12.2553433"><ele>226.0</ele><time>2026-04-06T09:39:29.655Z</time></trkpt><trkpt lat="43.1056668" lon="12.2554862"><ele>226.00000000000003</ele><time>2026-04-06T09:39:31.658Z</time></trkpt><trkpt lat="43.1056717" lon="12.2556399"><ele>226.00000000000003</ele><time>2026-04-06T09:39:33.654Z</time></trkpt><trkpt lat="43.105676" lon="12.2557777"><ele>226.0</ele><time>2026-04-06T09:39:35.652Z</time></trkpt><trkpt lat="43.1056722" lon="12.2559201"><ele>226.0</ele><time>2026-04-06T09:39:37.652Z</time></trkpt><trkpt lat="43.1056757" lon="12.2560589"><ele>226.0</ele><time>2026-04-06T09:39:39.65Z</time></trkpt><trkpt lat="43.105683" lon="12.2562035"><ele>226.00000000000003</ele><time>2026-04-06T09:39:41.646Z</time></trkpt><trkpt lat="43.1056885" lon="12.2563507"><ele>226.00000000000003</ele><time>2026-04-06T09:39:43.654Z</time></trkpt><trkpt lat="43.1056946" lon="12.2564914"><ele>226.0</ele><time>2026-04-06T09:39:45.661Z</time></trkpt><trkpt lat="43.1056942" lon="12.2566195"><ele>226.0</ele><time>2026-04-06T09:39:47.649Z</time></trkpt><trkpt lat="43.1056968" lon="12.2567499"><ele>225.8</ele><time>2026-04-06T09:39:49.656Z</time></trkpt><trkpt lat="43.1057012" lon="12.2568711"><ele>225.60000000000002</ele><time>2026-04-06T09:39:51.663Z</time></trkpt><trkpt lat="43.1057045" lon="12.2569976"><ele>225.4</ele><time>2026-04-06T09:39:53.652Z</time></trkpt><trkpt lat="43.10571" lon="12.2571389"><ele>225.2</ele><time>2026-04-06T09:39:55.654Z</time></trkpt><trkpt lat="43.1057141" lon="12.2572956"><ele>225.0</ele><time>2026-04-06T09:39:57.657Z</time></trkpt><trkpt lat="43.105716" lon="12.2574552"><ele>225.0</ele><time>2026-04-06T09:39:59.652Z</time></trkpt><trkpt lat="43.1057101" lon="12.2576023"><ele>225.0</ele><time>2026-04-06T09:40:01.649Z</time></trkpt><trkpt lat="43.105707" lon="12.2577573"><ele>225.0</ele><time>2026-04-06T09:40:03.658Z</time></trkpt><trkpt lat="43.1057087" lon="12.2579058"><ele>225.0</ele><time>2026-04-06T09:40:05.655Z</time></trkpt><trkpt lat="43.10572" lon="12.2580568"><ele>225.0</ele><time>2026-04-06T09:40:07.649Z</time></trkpt><trkpt lat="43.1057273" lon="12.258216"><ele>225.0</ele><time>2026-04-06T09:40:09.66Z</time></trkpt><trkpt lat="43.1057319" lon="12.2583659"><ele>225.0</ele><time>2026-04-06T09:40:11.656Z</time></trkpt><trkpt lat="43.105733" lon="12.258507"><ele>225.0</ele><time>2026-04-06T09:40:13.75Z</time></trkpt><trkpt lat="43.105732" lon="12.2586486"><ele>225.0</ele><time>2026-04-06T09:40:15.647Z</time></trkpt><trkpt lat="43.1057266" lon="12.2587936"><ele>225.0</ele><time>2026-04-06T09:40:17.656Z</time></trkpt><trkpt lat="43.1057252" lon="12.2589386"><ele>225.4</ele><time>2026-04-06T09:40:19.654Z</time></trkpt><trkpt lat="43.1057266" lon="12.2590758"><ele>225.8</ele><time>2026-04-06T09:40:21.648Z</time></trkpt><trkpt lat="43.1057291" lon="12.2592198"><ele>226.2</ele><time>2026-04-06T09:40:23.657Z</time></trkpt><trkpt lat="43.1057351" lon="12.2593644"><ele>226.6</ele><time>2026-04-06T09:40:25.66Z</time></trkpt><trkpt lat="43.105746" lon="12.259489"><ele>227.0</ele><time>2026-04-06T09:40:27.656Z</time></trkpt><trkpt lat="43.1057428" lon="12.2595789"><ele>227.6</ele><time>2026-04-06T09:40:28.656Z</time></trkpt><trkpt lat="43.1057458" lon="12.259725"><ele>228.2</ele><time>2026-04-06T09:40:30.66Z</time></trkpt><trkpt lat="43.1057653" lon="12.2598848"><ele>228.8</ele><time>2026-04-06T09:40:32.659Z</time></trkpt><trkpt lat="43.1057639" lon="12.2600301"><ele>229.4</ele><time>2026-04-06T09:40:34.657Z</time></trkpt><trkpt lat="43.1057718" lon="12.2601796"><ele>230.0</ele><time>2026-04-06T09:40:36.66Z</time></trkpt><trkpt lat="43.1057767" lon="12.2603209"><ele>230.00000000000003</ele><time>2026-04-06T09:40:38.656Z</time></trkpt><trkpt lat="43.105781" lon="12.2604521"><ele>230.0</ele><time>2026-04-06T09:40:40.654Z</time></trkpt><trkpt lat="43.105786" lon="12.2605792"><ele>230.0</ele><time>2026-04-06T09:40:42.646Z</time></trkpt><trkpt lat="43.1057887" lon="12.260706"><ele>230.0</ele><time>2026-04-06T09:40:44.653Z</time></trkpt><trkpt lat="43.1057912" lon="12.2608315"><ele>230.00000000000003</ele><time>2026-04-06T09:40:46.658Z</time></trkpt><trkpt lat="43.1057955" lon="12.2609344"><ele>230.0</ele><time>2026-04-06T09:40:48.656Z</time></trkpt><trkpt lat="43.105799" lon="12.2610337"><ele>229.16666666666669</ele><time>2026-04-06T09:40:50.653Z</time></trkpt><trkpt lat="43.1057354" lon="12.2611096"><ele>228.33333333333334</ele><time>2026-04-06T09:40:53.653Z</time></trkpt><trkpt lat="43.1056756" lon="12.2610762"><ele>227.5</ele><time>2026-04-06T09:40:55.651Z</time></trkpt><trkpt lat="43.1056116" lon="12.261014"><ele>226.66666666666669</ele><time>2026-04-06T09:40:57.642Z</time></trkpt><trkpt lat="43.1055388" lon="12.2609453"><ele>225.83333333333334</ele><time>2026-04-06T09:40:59.672Z</time></trkpt><trkpt lat="43.1054655" lon="12.2608649"><ele>225.0</ele><time>2026-04-06T09:41:01.658Z</time></trkpt><trkpt lat="43.1053807" lon="12.2608046"><ele>225.0</ele><time>2026-04-06T09:41:03.652Z</time></trkpt><trkpt lat="43.1053032" lon="12.2607236"><ele>225.0</ele><time>2026-04-06T09:41:05.658Z</time></trkpt><trkpt lat="43.1052289" lon="12.2606382"><ele>225.0</ele><time>2026-04-06T09:41:07.655Z</time></trkpt><trkpt lat="43.1051499" lon="12.2605452"><ele>225.0</ele><time>2026-04-06T09:41:09.657Z</time></trkpt><trkpt lat="43.1050744" lon="12.2604553"><ele>225.0</ele><time>2026-04-06T09:41:11.66Z</time></trkpt><trkpt lat="43.1049904" lon="12.2603635"><ele>224.8</ele><time>2026-04-06T09:41:13.653Z</time></trkpt><trkpt lat="43.104906" lon="12.2602762"><ele>224.6</ele><time>2026-04-06T09:41:15.657Z</time></trkpt><trkpt lat="43.1048147" lon="12.2602001"><ele>224.39999999999998</ele><time>2026-04-06T09:41:17.654Z</time></trkpt><trkpt lat="43.1047187" lon="12.2601376"><ele>224.2</ele><time>2026-04-06T09:41:19.656Z</time></trkpt><trkpt lat="43.1046334" lon="12.2600676"><ele>224.0</ele><time>2026-04-06T09:41:21.658Z</time></trkpt><trkpt lat="43.1045539" lon="12.2599911"><ele>224.0</ele><time>2026-04-06T09:41:23.65Z</time></trkpt><trkpt lat="43.1044753" lon="12.2599243"><ele>223.99999999999997</ele><time>2026-04-06T09:41:25.658Z</time></trkpt><trkpt lat="43.1043837" lon="12.2598592"><ele>223.99999999999997</ele><time>2026-04-06T09:41:27.656Z</time></trkpt><trkpt lat="43.1043057" lon="12.2597903"><ele>224.0</ele><time>2026-04-06T09:41:29.654Z</time></trkpt><trkpt lat="43.1042128" lon="12.2597235"><ele>224.0</ele><time>2026-04-06T09:41:31.654Z</time></trkpt><trkpt lat="43.1041224" lon="12.2596575"><ele>224.2</ele><time>2026-04-06T09:41:33.654Z</time></trkpt><trkpt lat="43.1040241" lon="12.2595935"><ele>224.39999999999998</ele><time>2026-04-06T09:41:35.65Z</time></trkpt><trkpt lat="43.1039301" lon="12.2595156"><ele>224.6</ele><time>2026-04-06T09:41:37.635Z</time></trkpt><trkpt lat="43.1038398" lon="12.2594446"><ele>224.8</ele><time>2026-04-06T09:41:39.654Z</time></trkpt><trkpt lat="43.1037573" lon="12.259369"><ele>225.0</ele><time>2026-04-06T09:41:41.657Z</time></trkpt><trkpt lat="43.1036738" lon="12.2593117"><ele>225.0</ele><time>2026-04-06T09:41:43.753Z</time></trkpt><trkpt lat="43.1035905" lon="12.2592575"><ele>225.0</ele><time>2026-04-06T09:41:45.648Z</time></trkpt><trkpt lat="43.1035115" lon="12.2592099"><ele>225.0</ele><time>2026-04-06T09:41:47.657Z</time></trkpt><trkpt lat="43.1034145" lon="12.2591699"><ele>225.0</ele><time>2026-04-06T09:41:49.737Z</time></trkpt><trkpt lat="43.1033394" lon="12.2591369"><ele>225.0</ele><time>2026-04-06T09:41:51.648Z</time></trkpt><trkpt lat="43.1032682" lon="12.2591142"><ele>225.0</ele><time>2026-04-06T09:41:54.651Z</time></trkpt><trkpt lat="43.1031994" lon="12.2590606"><ele>224.83333333333334</ele><time>2026-04-06T09:41:57.645Z</time></trkpt><trkpt lat="43.1031575" lon="12.2589942"><ele>224.66666666666669</ele><time>2026-04-06T09:41:59.654Z</time></trkpt><trkpt lat="43.1030774" lon="12.2589139"><ele>224.5</ele><time>2026-04-06T09:42:02.657Z</time></trkpt><trkpt lat="43.1030001" lon="12.2588904"><ele>224.33333333333334</ele><time>2026-04-06T09:42:04.637Z</time></trkpt><trkpt lat="43.102918" lon="12.25886"><ele>224.16666666666669</ele><time>2026-04-06T09:42:06.636Z</time></trkpt><trkpt lat="43.1028294" lon="12.2588165"><ele>224.0</ele><time>2026-04-06T09:42:08.658Z</time></trkpt><trkpt lat="43.1027362" lon="12.2587746"><ele>223.6</ele><time>2026-04-06T09:42:10.654Z</time></trkpt><trkpt lat="43.1026463" lon="12.2587354"><ele>223.2</ele><time>2026-04-06T09:42:12.652Z</time></trkpt><trkpt lat="43.1025615" lon="12.25869"><ele>222.79999999999998</ele><time>2026-04-06T09:42:14.657Z</time></trkpt><trkpt lat="43.1024814" lon="12.2586465"><ele>222.39999999999998</ele><time>2026-04-06T09:42:16.64Z</time></trkpt><trkpt lat="43.1023548" lon="12.2585936"><ele>222.0</ele><time>2026-04-06T09:42:19.65Z</time></trkpt><trkpt lat="43.1022715" lon="12.2585596"><ele>222.0</ele><time>2026-04-06T09:42:21.635Z</time></trkpt><trkpt lat="43.1021925" lon="12.2585217"><ele>222.0</ele><time>2026-04-06T09:42:23.64Z</time></trkpt><trkpt lat="43.1021146" lon="12.2584872"><ele>222.0</ele><time>2026-04-06T09:42:25.638Z</time></trkpt><trkpt lat="43.1020351" lon="12.2584515"><ele>222.0</ele><time>2026-04-06T09:42:27.633Z</time></trkpt><trkpt lat="43.1019567" lon="12.2584235"><ele>222.0</ele><time>2026-04-06T09:42:29.634Z</time></trkpt><trkpt lat="43.1018754" lon="12.2584185"><ele>222.0</ele><time>2026-04-06T09:42:31.634Z</time></trkpt><trkpt lat="43.1017913" lon="12.2584266"><ele>222.0</ele><time>2026-04-06T09:42:33.636Z</time></trkpt><trkpt lat="43.1016733" lon="12.258487"><ele>222.0</ele><time>2026-04-06T09:42:36.641Z</time></trkpt><trkpt lat="43.1016069" lon="12.2585831"><ele>222.0</ele><time>2026-04-06T09:42:38.645Z</time></trkpt><trkpt lat="43.1015499" lon="12.2586981"><ele>222.0</ele><time>2026-04-06T09:42:40.744Z</time></trkpt><trkpt lat="43.1014979" lon="12.258815"><ele>222.0</ele><time>2026-04-06T09:42:42.663Z</time></trkpt><trkpt lat="43.1014548" lon="12.2589302"><ele>221.8</ele><time>2026-04-06T09:42:44.666Z</time></trkpt><trkpt lat="43.1014078" lon="12.2590485"><ele>221.6</ele><time>2026-04-06T09:42:46.649Z</time></trkpt><trkpt lat="43.1013564" lon="12.2591718"><ele>221.40000000000003</ele><time>2026-04-06T09:42:48.663Z</time></trkpt><trkpt lat="43.1013015" lon="12.2592751"><ele>221.20000000000002</ele><time>2026-04-06T09:42:50.655Z</time></trkpt><trkpt lat="43.1012566" lon="12.2593867"><ele>221.0</ele><time>2026-04-06T09:42:52.658Z</time></trkpt><trkpt lat="43.1012126" lon="12.2594956"><ele>221.0</ele><time>2026-04-06T09:42:54.66Z</time></trkpt><trkpt lat="43.1011717" lon="12.2596026"><ele>221.00000000000003</ele><time>2026-04-06T09:42:56.655Z</time></trkpt><trkpt lat="43.1011129" lon="12.2597102"><ele>221.00000000000003</ele><time>2026-04-06T09:42:58.66Z</time></trkpt><trkpt lat="43.1010626" lon="12.2598181"><ele>221.0</ele><time>2026-04-06T09:43:00.656Z</time></trkpt><trkpt lat="43.1010146" lon="12.2599371"><ele>221.0</ele><time>2026-04-06T09:43:02.65Z</time></trkpt><trkpt lat="43.1009749" lon="12.260045"><ele>221.20000000000002</ele><time>2026-04-06T09:43:04.661Z</time></trkpt><trkpt lat="43.1009415" lon="12.2601706"><ele>221.40000000000003</ele><time>2026-04-06T09:43:06.656Z</time></trkpt><trkpt lat="43.1008911" lon="12.2602777"><ele>221.6</ele><time>2026-04-06T09:43:08.658Z</time></trkpt><trkpt lat="43.1008426" lon="12.2603824"><ele>221.8</ele><time>2026-04-06T09:43:10.66Z</time></trkpt><trkpt lat="43.100794" lon="12.2605007"><ele>222.0</ele><time>2026-04-06T09:43:12.657Z</time></trkpt><trkpt lat="43.1007495" lon="12.2606145"><ele>221.6</ele><time>2026-04-06T09:43:14.649Z</time></trkpt><trkpt lat="43.100699" lon="12.2607281"><ele>221.2</ele><time>2026-04-06T09:43:16.658Z</time></trkpt><trkpt lat="43.1006458" lon="12.2608344"><ele>220.8</ele><time>2026-04-06T09:43:18.655Z</time></trkpt><trkpt lat="43.1005954" lon="12.2609366"><ele>220.4</ele><time>2026-04-06T09:43:20.658Z</time></trkpt><trkpt lat="43.1005231" lon="12.2610967"><ele>220.0</ele><time>2026-04-06T09:43:23.651Z</time></trkpt><trkpt lat="43.1004781" lon="12.2612048"><ele>219.99999999999997</ele><time>2026-04-06T09:43:25.66Z</time></trkpt><trkpt lat="43.1004352" lon="12.2613197"><ele>220.0</ele><time>2026-04-06T09:43:27.657Z</time></trkpt><trkpt lat="43.1003852" lon="12.261426"><ele>220.0</ele><time>2026-04-06T09:43:29.659Z</time></trkpt><trkpt lat="43.1003432" lon="12.2615315"><ele>220.0</ele><time>2026-04-06T09:43:31.642Z</time></trkpt><trkpt lat="43.1002995" lon="12.2616282"><ele>219.99999999999997</ele><time>2026-04-06T09:43:33.656Z</time></trkpt><trkpt lat="43.1002572" lon="12.2617248"><ele>220.0</ele><time>2026-04-06T09:43:35.657Z</time></trkpt><trkpt lat="43.1002117" lon="12.2618325"><ele>220.0</ele><time>2026-04-06T09:43:37.659Z</time></trkpt><trkpt lat="43.1001564" lon="12.2619409"><ele>220.0</ele><time>2026-04-06T09:43:39.656Z</time></trkpt><trkpt lat="43.1001054" lon="12.2620448"><ele>220.0</ele><time>2026-04-06T09:43:41.661Z</time></trkpt><trkpt lat="43.1000581" lon="12.2621424"><ele>220.0</ele><time>2026-04-06T09:43:43.654Z</time></trkpt><trkpt lat="43.1000027" lon="12.2622414"><ele>220.0</ele><time>2026-04-06T09:43:45.637Z</time></trkpt><trkpt lat="43.0999579" lon="12.2623542"><ele>220.16666666666666</ele><time>2026-04-06T09:43:47.657Z</time></trkpt><trkpt lat="43.0999147" lon="12.2624662"><ele>220.33333333333331</ele><time>2026-04-06T09:43:49.659Z</time></trkpt><trkpt lat="43.099875" lon="12.2625692"><ele>220.5</ele><time>2026-04-06T09:43:51.659Z</time></trkpt><trkpt lat="43.0998268" lon="12.2626593"><ele>220.66666666666669</ele><time>2026-04-06T09:43:53.656Z</time></trkpt><trkpt lat="43.0997796" lon="12.2627663"><ele>220.83333333333334</ele><time>2026-04-06T09:43:55.658Z</time></trkpt><trkpt lat="43.0997328" lon="12.2628754"><ele>221.0</ele><time>2026-04-06T09:43:57.658Z</time></trkpt><trkpt lat="43.0996877" lon="12.2629816"><ele>221.0</ele><time>2026-04-06T09:43:59.664Z</time></trkpt><trkpt lat="43.0996456" lon="12.2630865"><ele>221.00000000000003</ele><time>2026-04-06T09:44:01.659Z</time></trkpt><trkpt lat="43.0996007" lon="12.2631944"><ele>221.00000000000003</ele><time>2026-04-06T09:44:03.656Z</time></trkpt><trkpt lat="43.0995569" lon="12.2632963"><ele>221.0</ele><time>2026-04-06T09:44:05.655Z</time></trkpt><trkpt lat="43.099507" lon="12.2634004"><ele>221.0</ele><time>2026-04-06T09:44:07.634Z</time></trkpt><trkpt lat="43.0994589" lon="12.2635153"><ele>220.8</ele><time>2026-04-06T09:44:09.658Z</time></trkpt><trkpt lat="43.0994023" lon="12.2636255"><ele>220.60000000000002</ele><time>2026-04-06T09:44:11.652Z</time></trkpt><trkpt lat="43.0993466" lon="12.2637319"><ele>220.4</ele><time>2026-04-06T09:44:13.658Z</time></trkpt><trkpt lat="43.0992945" lon="12.263834"><ele>220.2</ele><time>2026-04-06T09:44:15.653Z</time></trkpt><trkpt lat="43.0992417" lon="12.2639432"><ele>220.0</ele><time>2026-04-06T09:44:17.649Z</time></trkpt><trkpt lat="43.0991979" lon="12.2640497"><ele>220.0</ele><time>2026-04-06T09:44:19.657Z</time></trkpt><trkpt lat="43.0991665" lon="12.2641613"><ele>220.0</ele><time>2026-04-06T09:44:21.653Z</time></trkpt><trkpt lat="43.0991304" lon="12.2642781"><ele>220.0</ele><time>2026-04-06T09:44:23.648Z</time></trkpt><trkpt lat="43.0990884" lon="12.2643995"><ele>220.0</ele><time>2026-04-06T09:44:25.656Z</time></trkpt><trkpt lat="43.0990496" lon="12.2645284"><ele>220.0</ele><time>2026-04-06T09:44:27.655Z</time></trkpt><trkpt lat="43.0990068" lon="12.2646536"><ele>220.0</ele><time>2026-04-06T09:44:29.637Z</time></trkpt><trkpt lat="43.0989681" lon="12.2647768"><ele>220.0</ele><time>2026-04-06T09:44:31.652Z</time></trkpt><trkpt lat="43.0989355" lon="12.2649068"><ele>220.0</ele><time>2026-04-06T09:44:33.661Z</time></trkpt><trkpt lat="43.0988931" lon="12.2650154"><ele>220.0</ele><time>2026-04-06T09:44:35.656Z</time></trkpt><trkpt lat="43.0988448" lon="12.2651225"><ele>220.0</ele><time>2026-04-06T09:44:37.655Z</time></trkpt><trkpt lat="43.0987957" lon="12.2652245"><ele>220.0</ele><time>2026-04-06T09:44:39.652Z</time></trkpt><trkpt lat="43.0987355" lon="12.2653329"><ele>220.0</ele><time>2026-04-06T09:44:41.658Z</time></trkpt><trkpt lat="43.0986886" lon="12.2654437"><ele>220.0</ele><time>2026-04-06T09:44:43.656Z</time></trkpt><trkpt lat="43.0986407" lon="12.2655567"><ele>220.0</ele><time>2026-04-06T09:44:45.756Z</time></trkpt><trkpt lat="43.098591" lon="12.2656649"><ele>220.0</ele><time>2026-04-06T09:44:47.653Z</time></trkpt><trkpt lat="43.0985395" lon="12.2657713"><ele>220.0</ele><time>2026-04-06T09:44:49.662Z</time></trkpt><trkpt lat="43.0984858" lon="12.2658839"><ele>220.0</ele><time>2026-04-06T09:44:51.659Z</time></trkpt><trkpt lat="43.098429" lon="12.2659841"><ele>220.0</ele><time>2026-04-06T09:44:53.654Z</time></trkpt><trkpt lat="43.0983709" lon="12.2660854"><ele>220.0</ele><time>2026-04-06T09:44:55.655Z</time></trkpt><trkpt lat="43.0983165" lon="12.2662011"><ele>220.0</ele><time>2026-04-06T09:44:57.656Z</time></trkpt><trkpt lat="43.0982647" lon="12.2663047"><ele>220.0</ele><time>2026-04-06T09:44:59.757Z</time></trkpt><trkpt lat="43.0982041" lon="12.266418"><ele>220.0</ele><time>2026-04-06T09:45:01.653Z</time></trkpt><trkpt lat="43.0981432" lon="12.266518"><ele>220.0</ele><time>2026-04-06T09:45:03.658Z</time></trkpt><trkpt lat="43.0980858" lon="12.2666139"><ele>220.0</ele><time>2026-04-06T09:45:05.653Z</time></trkpt><trkpt lat="43.09803" lon="12.2667292"><ele>220.0</ele><time>2026-04-06T09:45:07.665Z</time></trkpt><trkpt lat="43.0979729" lon="12.2668536"><ele>220.0</ele><time>2026-04-06T09:45:09.66Z</time></trkpt><trkpt lat="43.0978805" lon="12.2670188"><ele>220.0</ele><time>2026-04-06T09:45:12.658Z</time></trkpt><trkpt lat="43.0978164" lon="12.2671384"><ele>220.0</ele><time>2026-04-06T09:45:14.659Z</time></trkpt><trkpt lat="43.0977549" lon="12.2672476"><ele>220.0</ele><time>2026-04-06T09:45:16.756Z</time></trkpt><trkpt lat="43.0976974" lon="12.2673585"><ele>219.8</ele><time>2026-04-06T09:45:18.662Z</time></trkpt><trkpt lat="43.0976349" lon="12.2674595"><ele>219.6</ele><time>2026-04-06T09:45:20.655Z</time></trkpt><trkpt lat="43.0975723" lon="12.2675755"><ele>219.39999999999998</ele><time>2026-04-06T09:45:22.658Z</time></trkpt><trkpt lat="43.0975165" lon="12.2676884"><ele>219.2</ele><time>2026-04-06T09:45:24.66Z</time></trkpt><trkpt lat="43.0974615" lon="12.2678037"><ele>219.0</ele><time>2026-04-06T09:45:26.657Z</time></trkpt><trkpt lat="43.0973809" lon="12.2679708"><ele>219.0</ele><time>2026-04-06T09:45:29.652Z</time></trkpt><trkpt lat="43.0973192" lon="12.2680697"><ele>218.99999999999997</ele><time>2026-04-06T09:45:31.655Z</time></trkpt><trkpt lat="43.0972573" lon="12.2681877"><ele>218.99999999999997</ele><time>2026-04-06T09:45:33.658Z</time></trkpt><trkpt lat="43.0972025" lon="12.2683008"><ele>219.0</ele><time>2026-04-06T09:45:35.649Z</time></trkpt><trkpt lat="43.0971544" lon="12.268423"><ele>219.0</ele><time>2026-04-06T09:45:37.659Z</time></trkpt><trkpt lat="43.0970927" lon="12.2685394"><ele>219.2</ele><time>2026-04-06T09:45:39.652Z</time></trkpt><trkpt lat="43.0970375" lon="12.2686502"><ele>219.39999999999998</ele><time>2026-04-06T09:45:41.651Z</time></trkpt><trkpt lat="43.0969806" lon="12.2687542"><ele>219.6</ele><time>2026-04-06T09:45:43.65Z</time></trkpt><trkpt lat="43.0969188" lon="12.2688673"><ele>219.8</ele><time>2026-04-06T09:45:45.648Z</time></trkpt><trkpt lat="43.0968657" lon="12.2689757"><ele>220.0</ele><time>2026-04-06T09:45:47.653Z</time></trkpt><trkpt lat="43.0968105" lon="12.2690874"><ele>220.16666666666666</ele><time>2026-04-06T09:45:49.659Z</time></trkpt><trkpt lat="43.0967752" lon="12.2691879"><ele>220.33333333333331</ele><time>2026-04-06T09:45:51.657Z</time></trkpt><trkpt lat="43.0967339" lon="12.26928"><ele>220.5</ele><time>2026-04-06T09:45:53.652Z</time></trkpt><trkpt lat="43.0967287" lon="12.2693842"><ele>220.66666666666669</ele><time>2026-04-06T09:45:55.65Z</time></trkpt><trkpt lat="43.0967365" lon="12.2694987"><ele>220.83333333333334</ele><time>2026-04-06T09:45:57.656Z</time></trkpt><trkpt lat="43.0967683" lon="12.2696323"><ele>221.0</ele><time>2026-04-06T09:45:59.654Z</time></trkpt><trkpt lat="43.0968078" lon="12.26977"><ele>220.20000000000002</ele><time>2026-04-06T09:46:01.649Z</time></trkpt><trkpt lat="43.096848" lon="12.269897"><ele>219.40000000000003</ele><time>2026-04-06T09:46:03.656Z</time></trkpt><trkpt lat="43.0968938" lon="12.2700265"><ele>218.6</ele><time>2026-04-06T09:46:05.662Z</time></trkpt><trkpt lat="43.0969473" lon="12.2701447"><ele>217.8</ele><time>2026-04-06T09:46:07.657Z</time></trkpt><trkpt lat="43.0970126" lon="12.2702528"><ele>217.0</ele><time>2026-04-06T09:46:09.659Z</time></trkpt><trkpt lat="43.0970842" lon="12.270354"><ele>217.0</ele><time>2026-04-06T09:46:11.657Z</time></trkpt><trkpt lat="43.0971666" lon="12.2704375"><ele>217.0</ele><time>2026-04-06T09:46:13.656Z</time></trkpt><trkpt lat="43.0972518" lon="12.2705157"><ele>217.0</ele><time>2026-04-06T09:46:15.654Z</time></trkpt><trkpt lat="43.0973354" lon="12.2705957"><ele>217.0</ele><time>2026-04-06T09:46:17.666Z</time></trkpt><trkpt lat="43.0974191" lon="12.270684"><ele>217.0</ele><time>2026-04-06T09:46:19.659Z</time></trkpt><trkpt lat="43.0975017" lon="12.2707852"><ele>217.39999999999998</ele><time>2026-04-06T09:46:21.657Z</time></trkpt><trkpt lat="43.0975731" lon="12.2708871"><ele>217.79999999999998</ele><time>2026-04-06T09:46:23.753Z</time></trkpt><trkpt lat="43.0976266" lon="12.2710042"><ele>218.2</ele><time>2026-04-06T09:46:25.658Z</time></trkpt><trkpt lat="43.0976716" lon="12.2711207"><ele>218.6</ele><time>2026-04-06T09:46:27.653Z</time></trkpt><trkpt lat="43.0976981" lon="12.2712481"><ele>219.0</ele><time>2026-04-06T09:46:29.646Z</time></trkpt><trkpt lat="43.0977108" lon="12.2713878"><ele>219.0</ele><time>2026-04-06T09:46:31.655Z</time></trkpt><trkpt lat="43.0977256" lon="12.2715362"><ele>219.0</ele><time>2026-04-06T09:46:33.654Z</time></trkpt><trkpt lat="43.0977295" lon="12.271703"><ele>219.0</ele><time>2026-04-06T09:46:35.752Z</time></trkpt><trkpt lat="43.0977305" lon="12.2718724"><ele>219.0</ele><time>2026-04-06T09:46:37.636Z</time></trkpt><trkpt lat="43.0977312" lon="12.2720262"><ele>219.0</ele><time>2026-04-06T09:46:39.649Z</time></trkpt><trkpt lat="43.0977365" lon="12.272186"><ele>219.0</ele><time>2026-04-06T09:46:41.656Z</time></trkpt><trkpt lat="43.0977479" lon="12.2723272"><ele>219.0</ele><time>2026-04-06T09:46:43.643Z</time></trkpt><trkpt lat="43.0977674" lon="12.272477"><ele>219.0</ele><time>2026-04-06T09:46:45.659Z</time></trkpt><trkpt lat="43.0978112" lon="12.2726388"><ele>219.25</ele><time>2026-04-06T09:46:47.657Z</time></trkpt><trkpt lat="43.0978562" lon="12.2727695"><ele>219.5</ele><time>2026-04-06T09:46:49.642Z</time></trkpt><trkpt lat="43.0979113" lon="12.2729046"><ele>219.75</ele><time>2026-04-06T09:46:51.661Z</time></trkpt><trkpt lat="43.0979759" lon="12.2730368"><ele>220.0</ele><time>2026-04-06T09:46:53.654Z</time></trkpt><trkpt lat="43.098033" lon="12.2731751"><ele>220.0</ele><time>2026-04-06T09:46:55.646Z</time></trkpt><trkpt lat="43.0980944" lon="12.2733074"><ele>220.0</ele><time>2026-04-06T09:46:57.647Z</time></trkpt><trkpt lat="43.0981593" lon="12.2734357"><ele>220.0</ele><time>2026-04-06T09:46:59.667Z</time></trkpt><trkpt lat="43.0982264" lon="12.2735569"><ele>220.0</ele><time>2026-04-06T09:47:01.646Z</time></trkpt><trkpt lat="43.0982905" lon="12.2736866"><ele>219.75</ele><time>2026-04-06T09:47:03.752Z</time></trkpt><trkpt lat="43.09836" lon="12.2738223"><ele>219.5</ele><time>2026-04-06T09:47:05.652Z</time></trkpt><trkpt lat="43.0984233" lon="12.2739523"><ele>219.25</ele><time>2026-04-06T09:47:07.64Z</time></trkpt><trkpt lat="43.0984834" lon="12.2740823"><ele>219.0</ele><time>2026-04-06T09:47:09.634Z</time></trkpt><trkpt lat="43.0985442" lon="12.2742081"><ele>219.0</ele><time>2026-04-06T09:47:11.635Z</time></trkpt><trkpt lat="43.0985967" lon="12.2743328"><ele>219.0</ele><time>2026-04-06T09:47:13.634Z</time></trkpt><trkpt lat="43.0986781" lon="12.2745278"><ele>219.0</ele><time>2026-04-06T09:47:16.636Z</time></trkpt><trkpt lat="43.0987233" lon="12.2746541"><ele>219.0</ele><time>2026-04-06T09:47:18.641Z</time></trkpt><trkpt lat="43.0987671" lon="12.2747804"><ele>219.2</ele><time>2026-04-06T09:47:20.757Z</time></trkpt><trkpt lat="43.0988039" lon="12.2749062"><ele>219.39999999999998</ele><time>2026-04-06T09:47:22.656Z</time></trkpt><trkpt lat="43.0988376" lon="12.2750328"><ele>219.6</ele><time>2026-04-06T09:47:24.658Z</time></trkpt><trkpt lat="43.0988704" lon="12.2751731"><ele>219.8</ele><time>2026-04-06T09:47:26.749Z</time></trkpt><trkpt lat="43.0989084" lon="12.2753173"><ele>220.0</ele><time>2026-04-06T09:47:28.65Z</time></trkpt><trkpt lat="43.0989567" lon="12.2754558"><ele>220.0</ele><time>2026-04-06T09:47:30.657Z</time></trkpt><trkpt lat="43.0990169" lon="12.2755944"><ele>220.0</ele><time>2026-04-06T09:47:32.745Z</time></trkpt><trkpt lat="43.0990704" lon="12.2757236"><ele>220.0</ele><time>2026-04-06T09:47:34.647Z</time></trkpt><trkpt lat="43.0991214" lon="12.275851"><ele>220.0</ele><time>2026-04-06T09:47:36.651Z</time></trkpt><trkpt lat="43.0991717" lon="12.2759801"><ele>220.0</ele><time>2026-04-06T09:47:38.649Z</time></trkpt><trkpt lat="43.0992181" lon="12.276116"><ele>219.75</ele><time>2026-04-06T09:47:40.652Z</time></trkpt><trkpt lat="43.0992648" lon="12.2762528"><ele>219.5</ele><time>2026-04-06T09:47:42.652Z</time></trkpt><trkpt lat="43.0993135" lon="12.2763935"><ele>219.25</ele><time>2026-04-06T09:47:44.65Z</time></trkpt><trkpt lat="43.0993658" lon="12.2765339"><ele>219.0</ele><time>2026-04-06T09:47:46.65Z</time></trkpt><trkpt lat="43.0993964" lon="12.2766845"><ele>219.0</ele><time>2026-04-06T09:47:48.647Z</time></trkpt><trkpt lat="43.0994372" lon="12.2768238"><ele>218.99999999999997</ele><time>2026-04-06T09:47:50.654Z</time></trkpt><trkpt lat="43.09947" lon="12.276972"><ele>218.99999999999997</ele><time>2026-04-06T09:47:52.654Z</time></trkpt><trkpt lat="43.0995054" lon="12.2770915"><ele>219.0</ele><time>2026-04-06T09:47:54.647Z</time></trkpt><trkpt lat="43.0995525" lon="12.2772259"><ele>219.0</ele><time>2026-04-06T09:47:56.656Z</time></trkpt><trkpt lat="43.0996058" lon="12.2773562"><ele>219.2</ele><time>2026-04-06T09:47:58.642Z</time></trkpt><trkpt lat="43.0996666" lon="12.2774797"><ele>219.39999999999998</ele><time>2026-04-06T09:48:00.646Z</time></trkpt><trkpt lat="43.0997248" lon="12.2776005"><ele>219.6</ele><time>2026-04-06T09:48:02.648Z</time></trkpt><trkpt lat="43.0997851" lon="12.2777114"><ele>219.8</ele><time>2026-04-06T09:48:04.657Z</time></trkpt><trkpt lat="43.0998374" lon="12.2778347"><ele>220.0</ele><time>2026-04-06T09:48:06.647Z</time></trkpt><trkpt lat="43.0998833" lon="12.2779529"><ele>219.6</ele><time>2026-04-06T09:48:08.647Z</time></trkpt><trkpt lat="43.0999042" lon="12.2781058"><ele>219.2</ele><time>2026-04-06T09:48:10.644Z</time></trkpt><trkpt lat="43.0999039" lon="12.2782569"><ele>218.8</ele><time>2026-04-06T09:48:12.65Z</time></trkpt><trkpt lat="43.0998862" lon="12.2784041"><ele>218.4</ele><time>2026-04-06T09:48:14.649Z</time></trkpt><trkpt lat="43.0998825" lon="12.2785392"><ele>218.0</ele><time>2026-04-06T09:48:16.646Z</time></trkpt><trkpt lat="43.0999065" lon="12.2786789"><ele>218.2</ele><time>2026-04-06T09:48:18.652Z</time></trkpt><trkpt lat="43.0999564" lon="12.27881"><ele>218.4</ele><time>2026-04-06T09:48:20.657Z</time></trkpt><trkpt lat="43.1000104" lon="12.2789324"><ele>218.59999999999997</ele><time>2026-04-06T09:48:22.652Z</time></trkpt><trkpt lat="43.1000643" lon="12.2790549"><ele>218.79999999999998</ele><time>2026-04-06T09:48:24.665Z</time></trkpt><trkpt lat="43.1001016" lon="12.279199"><ele>219.0</ele><time>2026-04-06T09:48:26.651Z</time></trkpt><trkpt lat="43.100132" lon="12.2793445"><ele>219.0</ele><time>2026-04-06T09:48:28.66Z</time></trkpt><trkpt lat="43.1001427" lon="12.2794957"><ele>218.99999999999997</ele><time>2026-04-06T09:48:30.648Z</time></trkpt><trkpt lat="43.1001349" lon="12.2796503"><ele>218.99999999999997</ele><time>2026-04-06T09:48:32.653Z</time></trkpt><trkpt lat="43.100122" lon="12.2798096"><ele>219.0</ele><time>2026-04-06T09:48:34.649Z</time></trkpt><trkpt lat="43.1001091" lon="12.2798951"><ele>219.0</ele><time>2026-04-06T09:48:35.748Z</time></trkpt><trkpt lat="43.1000837" lon="12.2800561"><ele>219.2</ele><time>2026-04-06T09:48:37.649Z</time></trkpt><trkpt lat="43.1000651" lon="12.280201"><ele>219.39999999999998</ele><time>2026-04-06T09:48:39.648Z</time></trkpt><trkpt lat="43.1000432" lon="12.2803506"><ele>219.6</ele><time>2026-04-06T09:48:41.648Z</time></trkpt><trkpt lat="43.1000154" lon="12.2804749"><ele>219.8</ele><time>2026-04-06T09:48:43.655Z</time></trkpt><trkpt lat="43.1000013" lon="12.2805964"><ele>220.0</ele><time>2026-04-06T09:48:45.642Z</time></trkpt><trkpt lat="43.0999886" lon="12.2807167"><ele>220.2</ele><time>2026-04-06T09:48:47.766Z</time></trkpt><trkpt lat="43.0999629" lon="12.2808413"><ele>220.4</ele><time>2026-04-06T09:48:49.647Z</time></trkpt><trkpt lat="43.0999235" lon="12.280952"><ele>220.60000000000002</ele><time>2026-04-06T09:48:51.654Z</time></trkpt><trkpt lat="43.0998588" lon="12.2810529"><ele>220.8</ele><time>2026-04-06T09:48:53.648Z</time></trkpt><trkpt lat="43.0997811" lon="12.2811407"><ele>221.0</ele><time>2026-04-06T09:48:55.656Z</time></trkpt><trkpt lat="43.0996967" lon="12.2812071"><ele>220.8</ele><time>2026-04-06T09:48:57.646Z</time></trkpt><trkpt lat="43.0996136" lon="12.2812708"><ele>220.60000000000002</ele><time>2026-04-06T09:48:59.643Z</time></trkpt><trkpt lat="43.0995212" lon="12.2813296"><ele>220.4</ele><time>2026-04-06T09:49:01.654Z</time></trkpt><trkpt lat="43.0994295" lon="12.2813997"><ele>220.2</ele><time>2026-04-06T09:49:03.656Z</time></trkpt><trkpt lat="43.0993248" lon="12.2814449"><ele>220.0</ele><time>2026-04-06T09:49:05.66Z</time></trkpt><trkpt lat="43.0992221" lon="12.2814948"><ele>220.0</ele><time>2026-04-06T09:49:07.655Z</time></trkpt><trkpt lat="43.0991268" lon="12.2815486"><ele>220.0</ele><time>2026-04-06T09:49:09.643Z</time></trkpt><trkpt lat="43.0990344" lon="12.2816036"><ele>220.0</ele><time>2026-04-06T09:49:11.659Z</time></trkpt><trkpt lat="43.0989348" lon="12.2816567"><ele>220.0</ele><time>2026-04-06T09:49:13.645Z</time></trkpt><trkpt lat="43.0988397" lon="12.2817099"><ele>220.0</ele><time>2026-04-06T09:49:15.649Z</time></trkpt><trkpt lat="43.098748" lon="12.2817622"><ele>220.0</ele><time>2026-04-06T09:49:17.645Z</time></trkpt><trkpt lat="43.098647" lon="12.2818106"><ele>220.0</ele><time>2026-04-06T09:49:19.645Z</time></trkpt><trkpt lat="43.0985444" lon="12.2818803"><ele>220.0</ele><time>2026-04-06T09:49:21.646Z</time></trkpt><trkpt lat="43.0984423" lon="12.2819196"><ele>220.0</ele><time>2026-04-06T09:49:23.646Z</time></trkpt><trkpt lat="43.0983343" lon="12.2819647"><ele>220.0</ele><time>2026-04-06T09:49:25.65Z</time></trkpt><trkpt lat="43.0982228" lon="12.2819816"><ele>220.0</ele><time>2026-04-06T09:49:27.644Z</time></trkpt><trkpt lat="43.0980992" lon="12.2819667"><ele>220.0</ele><time>2026-04-06T09:49:29.655Z</time></trkpt><trkpt lat="43.097985" lon="12.2819548"><ele>220.0</ele><time>2026-04-06T09:49:31.652Z</time></trkpt><trkpt lat="43.0978737" lon="12.2819355"><ele>220.0</ele><time>2026-04-06T09:49:33.757Z</time></trkpt><trkpt lat="43.0977567" lon="12.2819174"><ele>220.0</ele><time>2026-04-06T09:49:35.659Z</time></trkpt><trkpt lat="43.0976376" lon="12.2819033"><ele>220.0</ele><time>2026-04-06T09:49:37.646Z</time></trkpt><trkpt lat="43.0975234" lon="12.2818708"><ele>220.0</ele><time>2026-04-06T09:49:39.662Z</time></trkpt><trkpt lat="43.097407" lon="12.2818503"><ele>220.0</ele><time>2026-04-06T09:49:41.63Z</time></trkpt><trkpt lat="43.0972916" lon="12.2818293"><ele>219.75</ele><time>2026-04-06T09:49:43.635Z</time></trkpt><trkpt lat="43.0971845" lon="12.2818202"><ele>219.5</ele><time>2026-04-06T09:49:45.645Z</time></trkpt><trkpt lat="43.0970684" lon="12.2817957"><ele>219.25</ele><time>2026-04-06T09:49:47.633Z</time></trkpt><trkpt lat="43.0969545" lon="12.2817726"><ele>219.0</ele><time>2026-04-06T09:49:49.634Z</time></trkpt><trkpt lat="43.0968434" lon="12.2817463"><ele>219.0</ele><time>2026-04-06T09:49:51.647Z</time></trkpt><trkpt lat="43.0967281" lon="12.281725"><ele>218.99999999999997</ele><time>2026-04-06T09:49:53.648Z</time></trkpt><trkpt lat="43.0966192" lon="12.2817221"><ele>218.99999999999997</ele><time>2026-04-06T09:49:55.647Z</time></trkpt><trkpt lat="43.0965135" lon="12.2817371"><ele>219.0</ele><time>2026-04-06T09:49:57.658Z</time></trkpt><trkpt lat="43.0964174" lon="12.2817727"><ele>219.0</ele><time>2026-04-06T09:49:59.65Z</time></trkpt><trkpt lat="43.0963319" lon="12.2818479"><ele>219.2</ele><time>2026-04-06T09:50:01.653Z</time></trkpt><trkpt lat="43.0963235" lon="12.2819693"><ele>219.39999999999998</ele><time>2026-04-06T09:50:03.656Z</time></trkpt><trkpt lat="43.0963564" lon="12.2821071"><ele>219.6</ele><time>2026-04-06T09:50:05.649Z</time></trkpt><trkpt lat="43.0963796" lon="12.2822553"><ele>219.8</ele><time>2026-04-06T09:50:07.655Z</time></trkpt><trkpt lat="43.0964048" lon="12.2824105"><ele>220.0</ele><time>2026-04-06T09:50:09.652Z</time></trkpt><trkpt lat="43.0964393" lon="12.28257"><ele>219.75</ele><time>2026-04-06T09:50:11.651Z</time></trkpt><trkpt lat="43.0964645" lon="12.2827238"><ele>219.5</ele><time>2026-04-06T09:50:13.649Z</time></trkpt><trkpt lat="43.096497" lon="12.2828745"><ele>219.25</ele><time>2026-04-06T09:50:15.65Z</time></trkpt><trkpt lat="43.0965329" lon="12.2830349"><ele>219.0</ele><time>2026-04-06T09:50:17.656Z</time></trkpt><trkpt lat="43.0965634" lon="12.2831883"><ele>219.25</ele><time>2026-04-06T09:50:19.65Z</time></trkpt><trkpt lat="43.0965995" lon="12.2833523"><ele>219.5</ele><time>2026-04-06T09:50:21.654Z</time></trkpt><trkpt lat="43.0966329" lon="12.2835111"><ele>219.75</ele><time>2026-04-06T09:50:23.656Z</time></trkpt><trkpt lat="43.0966698" lon="12.2836716"><ele>220.0</ele><time>2026-04-06T09:50:25.644Z</time></trkpt><trkpt lat="43.0966996" lon="12.2838205"><ele>220.25</ele><time>2026-04-06T09:50:27.656Z</time></trkpt><trkpt lat="43.0967274" lon="12.2839711"><ele>220.5</ele><time>2026-04-06T09:50:29.646Z</time></trkpt><trkpt lat="43.0967848" lon="12.284118"><ele>220.75</ele><time>2026-04-06T09:50:31.654Z</time></trkpt><trkpt lat="43.0968242" lon="12.2842656"><ele>221.0</ele><time>2026-04-06T09:50:33.653Z</time></trkpt><trkpt lat="43.096818" lon="12.284418"><ele>221.0</ele><time>2026-04-06T09:50:35.649Z</time></trkpt><trkpt lat="43.0968119" lon="12.2845754"><ele>221.00000000000003</ele><time>2026-04-06T09:50:37.65Z</time></trkpt><trkpt lat="43.0968287" lon="12.2847564"><ele>221.00000000000003</ele><time>2026-04-06T09:50:39.649Z</time></trkpt><trkpt lat="43.0968456" lon="12.284932"><ele>221.0</ele><time>2026-04-06T09:50:41.645Z</time></trkpt><trkpt lat="43.0968653" lon="12.285016"><ele>221.0</ele><time>2026-04-06T09:50:42.648Z</time></trkpt><trkpt lat="43.0968985" lon="12.2851726"><ele>220.75</ele><time>2026-04-06T09:50:44.647Z</time></trkpt><trkpt lat="43.0969348" lon="12.2853179"><ele>220.5</ele><time>2026-04-06T09:50:46.658Z</time></trkpt><trkpt lat="43.0969689" lon="12.2854732"><ele>220.25</ele><time>2026-04-06T09:50:48.663Z</time></trkpt><trkpt lat="43.0970019" lon="12.2856241"><ele>220.0</ele><time>2026-04-06T09:50:50.646Z</time></trkpt><trkpt lat="43.0970279" lon="12.2857699"><ele>220.0</ele><time>2026-04-06T09:50:52.652Z</time></trkpt><trkpt lat="43.0970563" lon="12.2859167"><ele>220.0</ele><time>2026-04-06T09:50:54.649Z</time></trkpt><trkpt lat="43.0970846" lon="12.2860586"><ele>220.0</ele><time>2026-04-06T09:50:56.645Z</time></trkpt><trkpt lat="43.0971301" lon="12.2861998"><ele>220.0</ele><time>2026-04-06T09:50:58.651Z</time></trkpt><trkpt lat="43.0971694" lon="12.2863424"><ele>220.0</ele><time>2026-04-06T09:51:00.645Z</time></trkpt><trkpt lat="43.0972099" lon="12.2864851"><ele>220.6</ele><time>2026-04-06T09:51:02.646Z</time></trkpt><trkpt lat="43.0972528" lon="12.2866198"><ele>221.2</ele><time>2026-04-06T09:51:04.654Z</time></trkpt><trkpt lat="43.097298" lon="12.2867336"><ele>221.8</ele><time>2026-04-06T09:51:06.653Z</time></trkpt><trkpt lat="43.0973595" lon="12.2868462"><ele>222.4</ele><time>2026-04-06T09:51:08.654Z</time></trkpt><trkpt lat="43.0974197" lon="12.2869779"><ele>223.0</ele><time>2026-04-06T09:51:10.638Z</time></trkpt><trkpt lat="43.0974799" lon="12.2871024"><ele>223.0</ele><time>2026-04-06T09:51:12.651Z</time></trkpt><trkpt lat="43.0974795" lon="12.2872493"><ele>223.0</ele><time>2026-04-06T09:51:14.654Z</time></trkpt><trkpt lat="43.0974701" lon="12.2874009"><ele>223.0</ele><time>2026-04-06T09:51:16.644Z</time></trkpt><trkpt lat="43.0974877" lon="12.2875426"><ele>223.0</ele><time>2026-04-06T09:51:18.648Z</time></trkpt><trkpt lat="43.0975174" lon="12.2876836"><ele>223.0</ele><time>2026-04-06T09:51:20.646Z</time></trkpt><trkpt lat="43.0975527" lon="12.287825"><ele>223.0</ele><time>2026-04-06T09:51:22.655Z</time></trkpt><trkpt lat="43.0975791" lon="12.2879743"><ele>223.0</ele><time>2026-04-06T09:51:24.644Z</time></trkpt><trkpt lat="43.0975999" lon="12.2881311"><ele>223.0</ele><time>2026-04-06T09:51:26.658Z</time></trkpt><trkpt lat="43.0976266" lon="12.288285"><ele>223.0</ele><time>2026-04-06T09:51:28.654Z</time></trkpt><trkpt lat="43.097653" lon="12.2884288"><ele>223.25</ele><time>2026-04-06T09:51:30.645Z</time></trkpt><trkpt lat="43.0977044" lon="12.2886572"><ele>223.5</ele><time>2026-04-06T09:51:33.646Z</time></trkpt><trkpt lat="43.0977409" lon="12.2888043"><ele>223.75</ele><time>2026-04-06T09:51:35.642Z</time></trkpt><trkpt lat="43.0977709" lon="12.2889495"><ele>224.0</ele><time>2026-04-06T09:51:37.644Z</time></trkpt><trkpt lat="43.0978012" lon="12.289097"><ele>224.0</ele><time>2026-04-06T09:51:39.63Z</time></trkpt><trkpt lat="43.0978364" lon="12.2892362"><ele>223.99999999999997</ele><time>2026-04-06T09:51:41.636Z</time></trkpt><trkpt lat="43.0978605" lon="12.2893698"><ele>223.99999999999997</ele><time>2026-04-06T09:51:43.628Z</time></trkpt><trkpt lat="43.0978931" lon="12.2895022"><ele>224.0</ele><time>2026-04-06T09:51:45.635Z</time></trkpt><trkpt lat="43.0979219" lon="12.2896536"><ele>224.0</ele><time>2026-04-06T09:51:47.629Z</time></trkpt><trkpt lat="43.0979462" lon="12.2898014"><ele>223.75</ele><time>2026-04-06T09:51:49.633Z</time></trkpt><trkpt lat="43.0979764" lon="12.2899523"><ele>223.5</ele><time>2026-04-06T09:51:51.63Z</time></trkpt><trkpt lat="43.0979969" lon="12.2901207"><ele>223.25</ele><time>2026-04-06T09:51:53.631Z</time></trkpt><trkpt lat="43.0980198" lon="12.2902675"><ele>223.0</ele><time>2026-04-06T09:51:55.642Z</time></trkpt><trkpt lat="43.0980452" lon="12.2904196"><ele>223.0</ele><time>2026-04-06T09:51:57.632Z</time></trkpt><trkpt lat="43.0980783" lon="12.2905572"><ele>223.0</ele><time>2026-04-06T09:51:59.635Z</time></trkpt><trkpt lat="43.0981109" lon="12.2906942"><ele>223.0</ele><time>2026-04-06T09:52:01.632Z</time></trkpt><trkpt lat="43.09814" lon="12.2908326"><ele>223.0</ele><time>2026-04-06T09:52:03.633Z</time></trkpt><trkpt lat="43.0981731" lon="12.2909744"><ele>223.0</ele><time>2026-04-06T09:52:05.632Z</time></trkpt><trkpt lat="43.0981979" lon="12.2911131"><ele>222.8</ele><time>2026-04-06T09:52:07.638Z</time></trkpt><trkpt lat="43.098222" lon="12.2912396"><ele>222.60000000000002</ele><time>2026-04-06T09:52:09.633Z</time></trkpt><trkpt lat="43.0982364" lon="12.2913864"><ele>222.39999999999998</ele><time>2026-04-06T09:52:11.633Z</time></trkpt><trkpt lat="43.0982462" lon="12.2915271"><ele>222.2</ele><time>2026-04-06T09:52:13.645Z</time></trkpt><trkpt lat="43.0982692" lon="12.2916624"><ele>222.0</ele><time>2026-04-06T09:52:15.633Z</time></trkpt><trkpt lat="43.0982905" lon="12.2918085"><ele>223.0</ele><time>2026-04-06T09:52:17.631Z</time></trkpt><trkpt lat="43.0982891" lon="12.2919531"><ele>224.0</ele><time>2026-04-06T09:52:19.634Z</time></trkpt><trkpt lat="43.0982865" lon="12.2920921"><ele>225.0</ele><time>2026-04-06T09:52:21.638Z</time></trkpt><trkpt lat="43.0982708" lon="12.2922305"><ele>226.0</ele><time>2026-04-06T09:52:23.634Z</time></trkpt><trkpt lat="43.09826" lon="12.2923725"><ele>227.0</ele><time>2026-04-06T09:52:25.652Z</time></trkpt><trkpt lat="43.0982364" lon="12.2924949"><ele>227.00000000000003</ele><time>2026-04-06T09:52:27.636Z</time></trkpt><trkpt lat="43.0982188" lon="12.2926122"><ele>227.0</ele><time>2026-04-06T09:52:29.64Z</time></trkpt><trkpt lat="43.0982005" lon="12.2927436"><ele>227.0</ele><time>2026-04-06T09:52:31.642Z</time></trkpt><trkpt lat="43.0981851" lon="12.2928406"><ele>227.0</ele><time>2026-04-06T09:52:33.65Z</time></trkpt><trkpt lat="43.0981659" lon="12.2929478"><ele>227.00000000000003</ele><time>2026-04-06T09:52:35.654Z</time></trkpt><trkpt lat="43.098164" lon="12.2930512"><ele>227.0</ele><time>2026-04-06T09:52:37.626Z</time></trkpt><trkpt lat="43.0981417" lon="12.2931755"><ele>226.83333333333334</ele><time>2026-04-06T09:52:40.646Z</time></trkpt><trkpt lat="43.098124" lon="12.293273"><ele>226.66666666666669</ele><time>2026-04-06T09:52:42.648Z</time></trkpt><trkpt lat="43.0981091" lon="12.2933884"><ele>226.5</ele><time>2026-04-06T09:52:44.656Z</time></trkpt><trkpt lat="43.0980811" lon="12.29352"><ele>226.33333333333331</ele><time>2026-04-06T09:52:46.663Z</time></trkpt><trkpt lat="43.0980103" lon="12.2936464"><ele>226.16666666666666</ele><time>2026-04-06T09:52:48.647Z</time></trkpt><trkpt lat="43.0979541" lon="12.2936904"><ele>226.0</ele><time>2026-04-06T09:52:49.653Z</time></trkpt><trkpt lat="43.0978927" lon="12.2937243"><ele>225.99999999999997</ele><time>2026-04-06T09:52:50.655Z</time></trkpt><trkpt lat="43.0978289" lon="12.2937513"><ele>226.0</ele><time>2026-04-06T09:52:51.657Z</time></trkpt><trkpt lat="43.0977652" lon="12.2937783"><ele>226.0</ele><time>2026-04-06T09:52:52.65Z</time></trkpt><trkpt lat="43.0977003" lon="12.2938022"><ele>226.0</ele><time>2026-04-06T09:52:53.651Z</time></trkpt><trkpt lat="43.097637" lon="12.2938267"><ele>225.99999999999997</ele><time>2026-04-06T09:52:54.647Z</time></trkpt><trkpt lat="43.097519" lon="12.2938487"><ele>226.0</ele><time>2026-04-06T09:52:56.668Z</time></trkpt><trkpt lat="43.0974186" lon="12.2938614"><ele>225.8</ele><time>2026-04-06T09:52:58.633Z</time></trkpt><trkpt lat="43.097328" lon="12.2938589"><ele>225.60000000000002</ele><time>2026-04-06T09:53:00.651Z</time></trkpt><trkpt lat="43.0972476" lon="12.2938446"><ele>225.4</ele><time>2026-04-06T09:53:02.651Z</time></trkpt><trkpt lat="43.0971717" lon="12.2938304"><ele>225.2</ele><time>2026-04-06T09:53:04.643Z</time></trkpt><trkpt lat="43.0970427" lon="12.2938094"><ele>225.0</ele><time>2026-04-06T09:53:07.647Z</time></trkpt><trkpt lat="43.0969487" lon="12.2938139"><ele>225.0</ele><time>2026-04-06T09:53:09.652Z</time></trkpt><trkpt lat="43.0968475" lon="12.2938264"><ele>225.0</ele><time>2026-04-06T09:53:11.758Z</time></trkpt><trkpt lat="43.0967605" lon="12.2938303"><ele>225.0</ele><time>2026-04-06T09:53:13.643Z</time></trkpt><trkpt lat="43.0966764" lon="12.2938405"><ele>225.0</ele><time>2026-04-06T09:53:15.654Z</time></trkpt><trkpt lat="43.0965913" lon="12.2938478"><ele>225.0</ele><time>2026-04-06T09:53:17.632Z</time></trkpt><trkpt lat="43.0965091" lon="12.2938537"><ele>225.0</ele><time>2026-04-06T09:53:19.648Z</time></trkpt><trkpt lat="43.0964258" lon="12.2938655"><ele>225.0</ele><time>2026-04-06T09:53:21.655Z</time></trkpt><trkpt lat="43.0963439" lon="12.2938637"><ele>225.0</ele><time>2026-04-06T09:53:23.756Z</time></trkpt><trkpt lat="43.096256" lon="12.2938565"><ele>225.0</ele><time>2026-04-06T09:53:25.651Z</time></trkpt><trkpt lat="43.0961558" lon="12.2938644"><ele>225.0</ele><time>2026-04-06T09:53:27.634Z</time></trkpt><trkpt lat="43.0960664" lon="12.2938508"><ele>225.0</ele><time>2026-04-06T09:53:29.652Z</time></trkpt><trkpt lat="43.0959736" lon="12.2938455"><ele>225.0</ele><time>2026-04-06T09:53:31.648Z</time></trkpt><trkpt lat="43.0958745" lon="12.2938331"><ele>225.0</ele><time>2026-04-06T09:53:33.655Z</time></trkpt><trkpt lat="43.0957678" lon="12.2938153"><ele>225.0</ele><time>2026-04-06T09:53:35.65Z</time></trkpt><trkpt lat="43.0956563" lon="12.2938009"><ele>225.0</ele><time>2026-04-06T09:53:37.651Z</time></trkpt><trkpt lat="43.0955469" lon="12.293784"><ele>225.0</ele><time>2026-04-06T09:53:39.649Z</time></trkpt><trkpt lat="43.0954473" lon="12.2937789"><ele>225.4</ele><time>2026-04-06T09:53:41.659Z</time></trkpt><trkpt lat="43.0953495" lon="12.29379"><ele>225.8</ele><time>2026-04-06T09:53:43.648Z</time></trkpt><trkpt lat="43.0952487" lon="12.2938111"><ele>226.2</ele><time>2026-04-06T09:53:45.768Z</time></trkpt><trkpt lat="43.0951489" lon="12.2938367"><ele>226.6</ele><time>2026-04-06T09:53:47.652Z</time></trkpt><trkpt lat="43.0950456" lon="12.2938677"><ele>227.0</ele><time>2026-04-06T09:53:49.646Z</time></trkpt><trkpt lat="43.0949472" lon="12.2938833"><ele>227.6</ele><time>2026-04-06T09:53:51.635Z</time></trkpt><trkpt lat="43.0948515" lon="12.2939156"><ele>228.2</ele><time>2026-04-06T09:53:53.651Z</time></trkpt><trkpt lat="43.0947513" lon="12.2939442"><ele>228.8</ele><time>2026-04-06T09:53:55.65Z</time></trkpt><trkpt lat="43.0946527" lon="12.2939839"><ele>229.4</ele><time>2026-04-06T09:53:57.646Z</time></trkpt><trkpt lat="43.0945523" lon="12.2940306"><ele>230.0</ele><time>2026-04-06T09:53:59.647Z</time></trkpt><trkpt lat="43.0944651" lon="12.2940701"><ele>230.00000000000003</ele><time>2026-04-06T09:54:01.652Z</time></trkpt><trkpt lat="43.0943816" lon="12.2941062"><ele>230.0</ele><time>2026-04-06T09:54:03.657Z</time></trkpt><trkpt lat="43.0943023" lon="12.2941475"><ele>230.0</ele><time>2026-04-06T09:54:05.644Z</time></trkpt><trkpt lat="43.0942323" lon="12.2942019"><ele>230.0</ele><time>2026-04-06T09:54:07.649Z</time></trkpt><trkpt lat="43.0941924" lon="12.2943004"><ele>230.00000000000003</ele><time>2026-04-06T09:54:10.647Z</time></trkpt><trkpt lat="43.0941285" lon="12.2943292"><ele>230.0</ele><time>2026-04-06T09:54:14.648Z</time></trkpt><trkpt lat="43.094058" lon="12.2942919"><ele>230.83333333333334</ele><time>2026-04-06T09:54:17.635Z</time></trkpt><trkpt lat="43.0939868" lon="12.2943668"><ele>231.66666666666669</ele><time>2026-04-06T09:54:20.633Z</time></trkpt><trkpt lat="43.0939879" lon="12.2944635"><ele>232.5</ele><time>2026-04-06T09:54:22.656Z</time></trkpt><trkpt lat="43.0940031" lon="12.2945671"><ele>233.33333333333331</ele><time>2026-04-06T09:54:24.65Z</time></trkpt><trkpt lat="43.0940142" lon="12.2946723"><ele>234.16666666666666</ele><time>2026-04-06T09:54:26.653Z</time></trkpt><trkpt lat="43.0940274" lon="12.2947805"><ele>235.0</ele><time>2026-04-06T09:54:28.653Z</time></trkpt><trkpt lat="43.0940354" lon="12.2948948"><ele>234.83333333333331</ele><time>2026-04-06T09:54:30.641Z</time></trkpt><trkpt lat="43.0940513" lon="12.2950146"><ele>234.66666666666666</ele><time>2026-04-06T09:54:32.649Z</time></trkpt><trkpt lat="43.0940661" lon="12.2951334"><ele>234.5</ele><time>2026-04-06T09:54:34.645Z</time></trkpt><trkpt lat="43.0940824" lon="12.2952482"><ele>234.33333333333331</ele><time>2026-04-06T09:54:36.624Z</time></trkpt><trkpt lat="43.0940985" lon="12.2953574"><ele>234.16666666666666</ele><time>2026-04-06T09:54:38.647Z</time></trkpt><trkpt lat="43.0941197" lon="12.2954778"><ele>234.0</ele><time>2026-04-06T09:54:40.652Z</time></trkpt><trkpt lat="43.094139" lon="12.295598"><ele>234.83333333333334</ele><time>2026-04-06T09:54:42.652Z</time></trkpt><trkpt lat="43.0941595" lon="12.2957173"><ele>235.66666666666669</ele><time>2026-04-06T09:54:44.757Z</time></trkpt><trkpt lat="43.0941817" lon="12.2958349"><ele>236.5</ele><time>2026-04-06T09:54:46.657Z</time></trkpt><trkpt lat="43.0942032" lon="12.2959496"><ele>237.33333333333334</ele><time>2026-04-06T09:54:48.66Z</time></trkpt><trkpt lat="43.0942225" lon="12.2960657"><ele>238.16666666666669</ele><time>2026-04-06T09:54:50.656Z</time></trkpt><trkpt lat="43.0942429" lon="12.2961723"><ele>239.0</ele><time>2026-04-06T09:54:52.652Z</time></trkpt><trkpt lat="43.0942574" lon="12.2962743"><ele>239.00000000000003</ele><time>2026-04-06T09:54:54.644Z</time></trkpt><trkpt lat="43.0942712" lon="12.2963787"><ele>239.0</ele><time>2026-04-06T09:54:56.65Z</time></trkpt><trkpt lat="43.0942855" lon="12.2964814"><ele>239.0</ele><time>2026-04-06T09:54:58.652Z</time></trkpt><trkpt lat="43.0943033" lon="12.2965803"><ele>239.0</ele><time>2026-04-06T09:55:00.649Z</time></trkpt><trkpt lat="43.094332" lon="12.2967279"><ele>239.00000000000003</ele><time>2026-04-06T09:55:03.652Z</time></trkpt><trkpt lat="43.0943494" lon="12.2968275"><ele>239.0</ele><time>2026-04-06T09:55:05.653Z</time></trkpt><trkpt lat="43.0943646" lon="12.296927"><ele>240.33333333333334</ele><time>2026-04-06T09:55:07.649Z</time></trkpt><trkpt lat="43.0943757" lon="12.2970242"><ele>241.66666666666669</ele><time>2026-04-06T09:55:09.654Z</time></trkpt><trkpt lat="43.0943841" lon="12.2971269"><ele>243.0</ele><time>2026-04-06T09:55:11.65Z</time></trkpt><trkpt lat="43.0943941" lon="12.2972303"><ele>244.33333333333331</ele><time>2026-04-06T09:55:13.658Z</time></trkpt><trkpt lat="43.0944009" lon="12.297336"><ele>245.66666666666666</ele><time>2026-04-06T09:55:15.648Z</time></trkpt><trkpt lat="43.0944104" lon="12.2974423"><ele>247.0</ele><time>2026-04-06T09:55:17.65Z</time></trkpt><trkpt lat="43.0944215" lon="12.2975512"><ele>247.66666666666666</ele><time>2026-04-06T09:55:19.635Z</time></trkpt><trkpt lat="43.0944332" lon="12.2976626"><ele>248.33333333333331</ele><time>2026-04-06T09:55:21.656Z</time></trkpt><trkpt lat="43.0944482" lon="12.2977733"><ele>249.0</ele><time>2026-04-06T09:55:23.648Z</time></trkpt><trkpt lat="43.09447" lon="12.2978822"><ele>249.66666666666669</ele><time>2026-04-06T09:55:25.657Z</time></trkpt><trkpt lat="43.0944981" lon="12.2979922"><ele>250.33333333333334</ele><time>2026-04-06T09:55:27.649Z</time></trkpt><trkpt lat="43.0945302" lon="12.2981031"><ele>251.0</ele><time>2026-04-06T09:55:29.652Z</time></trkpt><trkpt lat="43.0945618" lon="12.2982178"><ele>252.60000000000002</ele><time>2026-04-06T09:55:31.658Z</time></trkpt><trkpt lat="43.0945885" lon="12.2983401"><ele>254.20000000000002</ele><time>2026-04-06T09:55:33.646Z</time></trkpt><trkpt lat="43.0946197" lon="12.2984714"><ele>255.79999999999998</ele><time>2026-04-06T09:55:35.649Z</time></trkpt><trkpt lat="43.0946445" lon="12.2985907"><ele>257.4</ele><time>2026-04-06T09:55:37.651Z</time></trkpt><trkpt lat="43.0946701" lon="12.2987097"><ele>259.0</ele><time>2026-04-06T09:55:39.654Z</time></trkpt><trkpt lat="43.0946975" lon="12.2988282"><ele>260.0</ele><time>2026-04-06T09:55:41.653Z</time></trkpt><trkpt lat="43.0947207" lon="12.2989537"><ele>261.0</ele><time>2026-04-06T09:55:43.652Z</time></trkpt><trkpt lat="43.0947351" lon="12.2990857"><ele>262.0</ele><time>2026-04-06T09:55:45.65Z</time></trkpt><trkpt lat="43.0947476" lon="12.2992125"><ele>263.0</ele><time>2026-04-06T09:55:47.649Z</time></trkpt><trkpt lat="43.0947666" lon="12.2993343"><ele>264.0</ele><time>2026-04-06T09:55:49.648Z</time></trkpt><trkpt lat="43.0947791" lon="12.2994618"><ele>264.0</ele><time>2026-04-06T09:55:51.755Z</time></trkpt><trkpt lat="43.0947942" lon="12.2995904"><ele>264.0</ele><time>2026-04-06T09:55:53.651Z</time></trkpt><trkpt lat="43.0948112" lon="12.2997241"><ele>264.0</ele><time>2026-04-06T09:55:55.653Z</time></trkpt><trkpt lat="43.0948281" lon="12.2998591"><ele>264.0</ele><time>2026-04-06T09:55:57.643Z</time></trkpt><trkpt lat="43.0948467" lon="12.2999809"><ele>264.0</ele><time>2026-04-06T09:55:59.647Z</time></trkpt><trkpt lat="43.094864" lon="12.3001035"><ele>263.2</ele><time>2026-04-06T09:56:01.648Z</time></trkpt><trkpt lat="43.0948855" lon="12.300292"><ele>262.4</ele><time>2026-04-06T09:56:04.644Z</time></trkpt><trkpt lat="43.0949108" lon="12.3004312"><ele>261.6</ele><time>2026-04-06T09:56:06.658Z</time></trkpt><trkpt lat="43.0949172" lon="12.3005695"><ele>260.8</ele><time>2026-04-06T09:56:08.645Z</time></trkpt><trkpt lat="43.0949415" lon="12.3007031"><ele>260.0</ele><time>2026-04-06T09:56:10.644Z</time></trkpt><trkpt lat="43.0949776" lon="12.3008444"><ele>256.4</ele><time>2026-04-06T09:56:12.642Z</time></trkpt><trkpt lat="43.0950109" lon="12.3009848"><ele>252.8</ele><time>2026-04-06T09:56:14.646Z</time></trkpt><trkpt lat="43.0950419" lon="12.3011417"><ele>249.2</ele><time>2026-04-06T09:56:16.654Z</time></trkpt><trkpt lat="43.0950817" lon="12.3012954"><ele>245.6</ele><time>2026-04-06T09:56:18.652Z</time></trkpt><trkpt lat="43.0951092" lon="12.3013769"><ele>242.0</ele><time>2026-04-06T09:56:19.649Z</time></trkpt><trkpt lat="43.0951649" lon="12.3015213"><ele>242.0</ele><time>2026-04-06T09:56:21.657Z</time></trkpt><trkpt lat="43.0952073" lon="12.3016492"><ele>242.0</ele><time>2026-04-06T09:56:23.65Z</time></trkpt><trkpt lat="43.0952534" lon="12.3017724"><ele>242.0</ele><time>2026-04-06T09:56:25.643Z</time></trkpt><trkpt lat="43.095303" lon="12.3018936"><ele>242.0</ele><time>2026-04-06T09:56:27.645Z</time></trkpt><trkpt lat="43.0953406" lon="12.3020158"><ele>242.0</ele><time>2026-04-06T09:56:29.66Z</time></trkpt><trkpt lat="43.0953973" lon="12.3021071"><ele>242.0</ele><time>2026-04-06T09:56:31.651Z</time></trkpt><trkpt lat="43.0954596" lon="12.3021908"><ele>242.0</ele><time>2026-04-06T09:56:33.649Z</time></trkpt><trkpt lat="43.0955378" lon="12.3022794"><ele>242.0</ele><time>2026-04-06T09:56:35.651Z</time></trkpt><trkpt lat="43.0956214" lon="12.3023453"><ele>242.0</ele><time>2026-04-06T09:56:37.654Z</time></trkpt><trkpt lat="43.0956989" lon="12.302409"><ele>242.0</ele><time>2026-04-06T09:56:39.642Z</time></trkpt><trkpt lat="43.0957693" lon="12.3024761"><ele>242.33333333333334</ele><time>2026-04-06T09:56:41.644Z</time></trkpt><trkpt lat="43.0958452" lon="12.3025464"><ele>242.66666666666669</ele><time>2026-04-06T09:56:43.638Z</time></trkpt><trkpt lat="43.0959215" lon="12.3026112"><ele>243.0</ele><time>2026-04-06T09:56:45.652Z</time></trkpt><trkpt lat="43.0959938" lon="12.3026624"><ele>243.33333333333331</ele><time>2026-04-06T09:56:47.638Z</time></trkpt><trkpt lat="43.0960624" lon="12.3027237"><ele>243.66666666666666</ele><time>2026-04-06T09:56:49.648Z</time></trkpt><trkpt lat="43.0961336" lon="12.3027948"><ele>244.0</ele><time>2026-04-06T09:56:51.638Z</time></trkpt><trkpt lat="43.0962041" lon="12.3028647"><ele>243.99999999999997</ele><time>2026-04-06T09:56:53.656Z</time></trkpt><trkpt lat="43.0962663" lon="12.3029284"><ele>244.0</ele><time>2026-04-06T09:56:55.653Z</time></trkpt><trkpt lat="43.0963132" lon="12.302991"><ele>244.0</ele><time>2026-04-06T09:56:57.647Z</time></trkpt><trkpt lat="43.0963548" lon="12.3030719"><ele>244.0</ele><time>2026-04-06T09:57:00.633Z</time></trkpt><trkpt lat="43.0963752" lon="12.3031579"><ele>243.99999999999997</ele><time>2026-04-06T09:57:02.657Z</time></trkpt><trkpt lat="43.0964247" lon="12.3032676"><ele>244.0</ele><time>2026-04-06T09:57:04.651Z</time></trkpt><trkpt lat="43.0964836" lon="12.303377"><ele>243.6</ele><time>2026-04-06T09:57:06.649Z</time></trkpt><trkpt lat="43.0965664" lon="12.3034753"><ele>243.2</ele><time>2026-04-06T09:57:08.634Z</time></trkpt><trkpt lat="43.0966525" lon="12.3035648"><ele>242.79999999999998</ele><time>2026-04-06T09:57:10.658Z</time></trkpt><trkpt lat="43.0967348" lon="12.3036658"><ele>242.39999999999998</ele><time>2026-04-06T09:57:12.631Z</time></trkpt><trkpt lat="43.0968125" lon="12.3037787"><ele>242.0</ele><time>2026-04-06T09:57:14.637Z</time></trkpt><trkpt lat="43.0968623" lon="12.3039089"><ele>244.0</ele><time>2026-04-06T09:57:16.632Z</time></trkpt><trkpt lat="43.0969118" lon="12.3040302"><ele>246.0</ele><time>2026-04-06T09:57:18.635Z</time></trkpt><trkpt lat="43.0969722" lon="12.3041497"><ele>248.0</ele><time>2026-04-06T09:57:20.633Z</time></trkpt><trkpt lat="43.0970084" lon="12.3042961"><ele>250.0</ele><time>2026-04-06T09:57:22.639Z</time></trkpt><trkpt lat="43.0970317" lon="12.3044339"><ele>252.0</ele><time>2026-04-06T09:57:24.639Z</time></trkpt><trkpt lat="43.097009" lon="12.3045822"><ele>252.0</ele><time>2026-04-06T09:57:26.74Z</time></trkpt><trkpt lat="43.0969934" lon="12.3047039"><ele>252.0</ele><time>2026-04-06T09:57:28.646Z</time></trkpt><trkpt lat="43.0969972" lon="12.3048387"><ele>252.0</ele><time>2026-04-06T09:57:30.642Z</time></trkpt><trkpt lat="43.0970135" lon="12.3049628"><ele>252.0</ele><time>2026-04-06T09:57:32.642Z</time></trkpt><trkpt lat="43.0970258" lon="12.3050925"><ele>252.0</ele><time>2026-04-06T09:57:34.649Z</time></trkpt><trkpt lat="43.0970412" lon="12.3052377"><ele>252.2</ele><time>2026-04-06T09:57:36.649Z</time></trkpt><trkpt lat="43.0970471" lon="12.305373"><ele>252.39999999999998</ele><time>2026-04-06T09:57:38.644Z</time></trkpt><trkpt lat="43.0970501" lon="12.3055177"><ele>252.60000000000002</ele><time>2026-04-06T09:57:40.649Z</time></trkpt><trkpt lat="43.097064" lon="12.305664"><ele>252.8</ele><time>2026-04-06T09:57:42.648Z</time></trkpt><trkpt lat="43.097066" lon="12.3058232"><ele>253.0</ele><time>2026-04-06T09:57:44.642Z</time></trkpt><trkpt lat="43.0970582" lon="12.305977"><ele>253.0</ele><time>2026-04-06T09:57:46.646Z</time></trkpt><trkpt lat="43.0970332" lon="12.3061295"><ele>253.0</ele><time>2026-04-06T09:57:48.653Z</time></trkpt><trkpt lat="43.0970106" lon="12.3062775"><ele>253.0</ele><time>2026-04-06T09:57:50.656Z</time></trkpt><trkpt lat="43.0969906" lon="12.3064125"><ele>253.0</ele><time>2026-04-06T09:57:52.651Z</time></trkpt><trkpt lat="43.096966" lon="12.3065366"><ele>253.0</ele><time>2026-04-06T09:57:54.689Z</time></trkpt><trkpt lat="43.0969561" lon="12.3066708"><ele>253.2</ele><time>2026-04-06T09:57:56.647Z</time></trkpt><trkpt lat="43.0969335" lon="12.3068131"><ele>253.4</ele><time>2026-04-06T09:57:58.65Z</time></trkpt><trkpt lat="43.0969173" lon="12.3069494"><ele>253.59999999999997</ele><time>2026-04-06T09:58:00.645Z</time></trkpt><trkpt lat="43.0968963" lon="12.3070884"><ele>253.79999999999998</ele><time>2026-04-06T09:58:02.645Z</time></trkpt><trkpt lat="43.0968781" lon="12.307219"><ele>254.0</ele><time>2026-04-06T09:58:04.649Z</time></trkpt><trkpt lat="43.0968627" lon="12.3073554"><ele>253.6</ele><time>2026-04-06T09:58:06.646Z</time></trkpt><trkpt lat="43.0968373" lon="12.3074945"><ele>253.2</ele><time>2026-04-06T09:58:08.65Z</time></trkpt><trkpt lat="43.0968219" lon="12.3076216"><ele>252.79999999999998</ele><time>2026-04-06T09:58:10.651Z</time></trkpt><trkpt lat="43.0968094" lon="12.3077582"><ele>252.39999999999998</ele><time>2026-04-06T09:58:12.649Z</time></trkpt><trkpt lat="43.0967992" lon="12.3079001"><ele>252.0</ele><time>2026-04-06T09:58:14.648Z</time></trkpt><trkpt lat="43.0967911" lon="12.3080347"><ele>251.5</ele><time>2026-04-06T09:58:16.654Z</time></trkpt><trkpt lat="43.0967811" lon="12.3081656"><ele>251.0</ele><time>2026-04-06T09:58:18.659Z</time></trkpt><trkpt lat="43.0967608" lon="12.3082936"><ele>250.5</ele><time>2026-04-06T09:58:20.644Z</time></trkpt><trkpt lat="43.0966834" lon="12.3083495"><ele>250.0</ele><time>2026-04-06T09:58:22.649Z</time></trkpt><trkpt lat="43.0966118" lon="12.3084119"><ele>249.5</ele><time>2026-04-06T09:58:24.647Z</time></trkpt><trkpt lat="43.0965718" lon="12.3085122"><ele>249.0</ele><time>2026-04-06T09:58:26.644Z</time></trkpt><trkpt lat="43.09653" lon="12.3086194"><ele>252.6</ele><time>2026-04-06T09:58:28.657Z</time></trkpt><trkpt lat="43.0964953" lon="12.3087419"><ele>256.2</ele><time>2026-04-06T09:58:30.641Z</time></trkpt><trkpt lat="43.0964695" lon="12.3088653"><ele>259.79999999999995</ele><time>2026-04-06T09:58:32.647Z</time></trkpt><trkpt lat="43.0964434" lon="12.3089904"><ele>263.4</ele><time>2026-04-06T09:58:34.655Z</time></trkpt><trkpt lat="43.0964233" lon="12.3091195"><ele>267.0</ele><time>2026-04-06T09:58:36.646Z</time></trkpt><trkpt lat="43.0963926" lon="12.3092343"><ele>266.8333333333333</ele><time>2026-04-06T09:58:38.653Z</time></trkpt><trkpt lat="43.096359" lon="12.3093504"><ele>266.6666666666667</ele><time>2026-04-06T09:58:40.648Z</time></trkpt><trkpt lat="43.0963275" lon="12.3094561"><ele>266.5</ele><time>2026-04-06T09:58:42.646Z</time></trkpt><trkpt lat="43.0963084" lon="12.309568"><ele>266.33333333333337</ele><time>2026-04-06T09:58:44.647Z</time></trkpt><trkpt lat="43.0962908" lon="12.3096756"><ele>266.1666666666667</ele><time>2026-04-06T09:58:46.642Z</time></trkpt><trkpt lat="43.0962765" lon="12.3097735"><ele>266.0</ele><time>2026-04-06T09:58:48.649Z</time></trkpt><trkpt lat="43.0962475" lon="12.3098672"><ele>266.0</ele><time>2026-04-06T09:58:50.745Z</time></trkpt><trkpt lat="43.0962222" lon="12.3099653"><ele>266.0</ele><time>2026-04-06T09:58:52.645Z</time></trkpt><trkpt lat="43.0961891" lon="12.3100693"><ele>266.0</ele><time>2026-04-06T09:58:54.647Z</time></trkpt><trkpt lat="43.0961476" lon="12.3101676"><ele>266.0</ele><time>2026-04-06T09:58:56.648Z</time></trkpt><trkpt lat="43.0961068" lon="12.3102674"><ele>266.0</ele><time>2026-04-06T09:58:58.647Z</time></trkpt><trkpt lat="43.0960689" lon="12.3103674"><ele>266.0</ele><time>2026-04-06T09:59:00.642Z</time></trkpt><trkpt lat="43.0960411" lon="12.3104788"><ele>265.83333333333337</ele><time>2026-04-06T09:59:02.651Z</time></trkpt><trkpt lat="43.0960122" lon="12.3105889"><ele>265.6666666666667</ele><time>2026-04-06T09:59:04.636Z</time></trkpt><trkpt lat="43.0959871" lon="12.3107041"><ele>265.5</ele><time>2026-04-06T09:59:06.639Z</time></trkpt><trkpt lat="43.0959661" lon="12.3108243"><ele>265.3333333333333</ele><time>2026-04-06T09:59:08.657Z</time></trkpt><trkpt lat="43.0959415" lon="12.3109457"><ele>265.16666666666663</ele><time>2026-04-06T09:59:10.652Z</time></trkpt><trkpt lat="43.095914" lon="12.311065"><ele>265.0</ele><time>2026-04-06T09:59:12.649Z</time></trkpt><trkpt lat="43.095886" lon="12.311187"><ele>265.0</ele><time>2026-04-06T09:59:14.65Z</time></trkpt><trkpt lat="43.0958548" lon="12.3113042"><ele>265.0</ele><time>2026-04-06T09:59:16.652Z</time></trkpt><trkpt lat="43.0958305" lon="12.311424"><ele>265.0</ele><time>2026-04-06T09:59:18.656Z</time></trkpt><trkpt lat="43.0958039" lon="12.3115357"><ele>265.0</ele><time>2026-04-06T09:59:20.654Z</time></trkpt><trkpt lat="43.0957707" lon="12.3116486"><ele>265.0</ele><time>2026-04-06T09:59:22.634Z</time></trkpt><trkpt lat="43.0957405" lon="12.3117578"><ele>265.0</ele><time>2026-04-06T09:59:24.653Z</time></trkpt><trkpt lat="43.0957065" lon="12.3118719"><ele>265.0</ele><time>2026-04-06T09:59:26.661Z</time></trkpt><trkpt lat="43.0956792" lon="12.3119906"><ele>265.0</ele><time>2026-04-06T09:59:28.645Z</time></trkpt><trkpt lat="43.0956537" lon="12.3121076"><ele>265.0</ele><time>2026-04-06T09:59:30.648Z</time></trkpt><trkpt lat="43.0956392" lon="12.3122191"><ele>265.0</ele><time>2026-04-06T09:59:32.638Z</time></trkpt><trkpt lat="43.0956366" lon="12.3123473"><ele>265.0</ele><time>2026-04-06T09:59:34.735Z</time></trkpt><trkpt lat="43.0956364" lon="12.3124607"><ele>265.0</ele><time>2026-04-06T09:59:36.641Z</time></trkpt><trkpt lat="43.09564" lon="12.3125867"><ele>264.0</ele><time>2026-04-06T09:59:38.658Z</time></trkpt><trkpt lat="43.0956361" lon="12.312713"><ele>263.0</ele><time>2026-04-06T09:59:40.656Z</time></trkpt><trkpt lat="43.0956393" lon="12.3128114"><ele>262.0</ele><time>2026-04-06T09:59:42.645Z</time></trkpt><trkpt lat="43.0956653" lon="12.3128945"><ele>261.0</ele><time>2026-04-06T09:59:43.653Z</time></trkpt><trkpt lat="43.0957246" lon="12.3130343"><ele>260.0</ele><time>2026-04-06T09:59:45.646Z</time></trkpt><trkpt lat="43.0957893" lon="12.3131544"><ele>259.0</ele><time>2026-04-06T09:59:47.656Z</time></trkpt><trkpt lat="43.0958605" lon="12.3132781"><ele>258.0</ele><time>2026-04-06T09:59:49.644Z</time></trkpt><trkpt lat="43.0959412" lon="12.3133918"><ele>257.0</ele><time>2026-04-06T09:59:51.658Z</time></trkpt><trkpt lat="43.0960206" lon="12.3135054"><ele>256.0</ele><time>2026-04-06T09:59:53.645Z</time></trkpt><trkpt lat="43.096099" lon="12.3136168"><ele>256.0</ele><time>2026-04-06T09:59:55.642Z</time></trkpt><trkpt lat="43.0961192" lon="12.3137565"><ele>256.0</ele><time>2026-04-06T09:59:57.644Z</time></trkpt><trkpt lat="43.0960491" lon="12.3138412"><ele>256.0</ele><time>2026-04-06T09:59:59.658Z</time></trkpt><trkpt lat="43.0959662" lon="12.3138856"><ele>256.0</ele><time>2026-04-06T10:00:01.656Z</time></trkpt><trkpt lat="43.0958793" lon="12.3139218"><ele>256.0</ele><time>2026-04-06T10:00:03.658Z</time></trkpt><trkpt lat="43.0957997" lon="12.313964"><ele>256.16666666666663</ele><time>2026-04-06T10:00:05.649Z</time></trkpt><trkpt lat="43.0957239" lon="12.3140069"><ele>256.3333333333333</ele><time>2026-04-06T10:00:07.656Z</time></trkpt><trkpt lat="43.0956487" lon="12.3140526"><ele>256.5</ele><time>2026-04-06T10:00:09.663Z</time></trkpt><trkpt lat="43.0955828" lon="12.3140838"><ele>256.6666666666667</ele><time>2026-04-06T10:00:11.625Z</time></trkpt><trkpt lat="43.0955102" lon="12.3141215"><ele>256.83333333333337</ele><time>2026-04-06T10:00:13.657Z</time></trkpt><trkpt lat="43.0954337" lon="12.3141566"><ele>257.0</ele><time>2026-04-06T10:00:15.654Z</time></trkpt><trkpt lat="43.0953633" lon="12.3141863"><ele>257.0</ele><time>2026-04-06T10:00:17.652Z</time></trkpt><trkpt lat="43.0952988" lon="12.3141858"><ele>257.0</ele><time>2026-04-06T10:00:19.654Z</time></trkpt><trkpt lat="43.0952258" lon="12.314164"><ele>257.0</ele><time>2026-04-06T10:00:21.658Z</time></trkpt><trkpt lat="43.0951438" lon="12.3141607"><ele>257.0</ele><time>2026-04-06T10:00:23.653Z</time></trkpt><trkpt lat="43.0950505" lon="12.3141934"><ele>257.0</ele><time>2026-04-06T10:00:25.645Z</time></trkpt><trkpt lat="43.0949506" lon="12.3142349"><ele>257.0</ele><time>2026-04-06T10:00:27.649Z</time></trkpt><trkpt lat="43.0948432" lon="12.3142576"><ele>257.0</ele><time>2026-04-06T10:00:29.649Z</time></trkpt><trkpt lat="43.0947335" lon="12.3142666"><ele>257.0</ele><time>2026-04-06T10:00:31.756Z</time></trkpt><trkpt lat="43.0946214" lon="12.3142769"><ele>257.0</ele><time>2026-04-06T10:00:33.648Z</time></trkpt><trkpt lat="43.0945081" lon="12.3142856"><ele>257.0</ele><time>2026-04-06T10:00:35.641Z</time></trkpt><trkpt lat="43.094395" lon="12.3142952"><ele>257.0</ele><time>2026-04-06T10:00:37.65Z</time></trkpt><trkpt lat="43.0942732" lon="12.3142909"><ele>257.0</ele><time>2026-04-06T10:00:39.646Z</time></trkpt><trkpt lat="43.0941565" lon="12.3142858"><ele>257.0</ele><time>2026-04-06T10:00:41.641Z</time></trkpt><trkpt lat="43.0940371" lon="12.3142865"><ele>257.0</ele><time>2026-04-06T10:00:43.657Z</time></trkpt><trkpt lat="43.093973" lon="12.3142893"><ele>257.0</ele><time>2026-04-06T10:00:44.648Z</time></trkpt><trkpt lat="43.0938558" lon="12.314275"><ele>257.0</ele><time>2026-04-06T10:00:46.659Z</time></trkpt><trkpt lat="43.0937488" lon="12.3142714"><ele>256.6</ele><time>2026-04-06T10:00:48.65Z</time></trkpt><trkpt lat="43.0936539" lon="12.314271"><ele>256.2</ele><time>2026-04-06T10:00:50.646Z</time></trkpt><trkpt lat="43.0935574" lon="12.3142721"><ele>255.8</ele><time>2026-04-06T10:00:52.652Z</time></trkpt><trkpt lat="43.0934761" lon="12.314265"><ele>255.4</ele><time>2026-04-06T10:00:54.658Z</time></trkpt><trkpt lat="43.0933759" lon="12.3142408"><ele>255.0</ele><time>2026-04-06T10:00:56.646Z</time></trkpt><trkpt lat="43.0932659" lon="12.3142261"><ele>255.0</ele><time>2026-04-06T10:00:58.645Z</time></trkpt><trkpt lat="43.0931567" lon="12.3142039"><ele>255.0</ele><time>2026-04-06T10:01:00.649Z</time></trkpt><trkpt lat="43.0930557" lon="12.314184"><ele>255.0</ele><time>2026-04-06T10:01:02.655Z</time></trkpt><trkpt lat="43.0929524" lon="12.3141645"><ele>255.0</ele><time>2026-04-06T10:01:04.634Z</time></trkpt><trkpt lat="43.0928481" lon="12.314144"><ele>255.0</ele><time>2026-04-06T10:01:06.644Z</time></trkpt><trkpt lat="43.0927366" lon="12.3141264"><ele>255.0</ele><time>2026-04-06T10:01:08.66Z</time></trkpt><trkpt lat="43.0926276" lon="12.3140985"><ele>255.0</ele><time>2026-04-06T10:01:10.654Z</time></trkpt><trkpt lat="43.0925184" lon="12.3140704"><ele>255.0</ele><time>2026-04-06T10:01:12.651Z</time></trkpt><trkpt lat="43.0924084" lon="12.3140412"><ele>255.0</ele><time>2026-04-06T10:01:14.642Z</time></trkpt><trkpt lat="43.0922951" lon="12.3140293"><ele>255.0</ele><time>2026-04-06T10:01:16.658Z</time></trkpt><trkpt lat="43.0921916" lon="12.3140086"><ele>255.2</ele><time>2026-04-06T10:01:18.646Z</time></trkpt><trkpt lat="43.0920861" lon="12.3139826"><ele>255.4</ele><time>2026-04-06T10:01:20.651Z</time></trkpt><trkpt lat="43.0919757" lon="12.3139727"><ele>255.60000000000002</ele><time>2026-04-06T10:01:22.649Z</time></trkpt><trkpt lat="43.0918679" lon="12.3139481"><ele>255.8</ele><time>2026-04-06T10:01:24.649Z</time></trkpt><trkpt lat="43.0917622" lon="12.3139259"><ele>256.0</ele><time>2026-04-06T10:01:26.644Z</time></trkpt><trkpt lat="43.0916652" lon="12.3139032"><ele>255.4</ele><time>2026-04-06T10:01:28.65Z</time></trkpt><trkpt lat="43.0915589" lon="12.313902"><ele>254.8</ele><time>2026-04-06T10:01:30.642Z</time></trkpt><trkpt lat="43.0914574" lon="12.3139081"><ele>254.20000000000002</ele><time>2026-04-06T10:01:32.646Z</time></trkpt><trkpt lat="43.0913558" lon="12.3139229"><ele>253.60000000000002</ele><time>2026-04-06T10:01:34.644Z</time></trkpt><trkpt lat="43.0912481" lon="12.3139285"><ele>253.0</ele><time>2026-04-06T10:01:36.649Z</time></trkpt><trkpt lat="43.0911544" lon="12.3138908"><ele>253.0</ele><time>2026-04-06T10:01:38.647Z</time></trkpt><trkpt lat="43.091069" lon="12.3138776"><ele>253.0</ele><time>2026-04-06T10:01:40.631Z</time></trkpt><trkpt lat="43.0909804" lon="12.3139276"><ele>253.0</ele><time>2026-04-06T10:01:42.644Z</time></trkpt><trkpt lat="43.0908987" lon="12.3140299"><ele>253.0</ele><time>2026-04-06T10:01:44.645Z</time></trkpt><trkpt lat="43.0908368" lon="12.3141605"><ele>253.0</ele><time>2026-04-06T10:01:46.65Z</time></trkpt><trkpt lat="43.0907507" lon="12.3142697"><ele>252.2</ele><time>2026-04-06T10:01:48.645Z</time></trkpt><trkpt lat="43.0906453" lon="12.3143579"><ele>251.4</ele><time>2026-04-06T10:01:50.649Z</time></trkpt><trkpt lat="43.0905389" lon="12.3144313"><ele>250.59999999999997</ele><time>2026-04-06T10:01:52.649Z</time></trkpt><trkpt lat="43.0904401" lon="12.3144892"><ele>249.79999999999998</ele><time>2026-04-06T10:01:54.651Z</time></trkpt><trkpt lat="43.0903852" lon="12.3145361"><ele>249.0</ele><time>2026-04-06T10:01:55.638Z</time></trkpt><trkpt lat="43.090271" lon="12.3145995"><ele>249.0</ele><time>2026-04-06T10:01:57.633Z</time></trkpt><trkpt lat="43.0901655" lon="12.3146502"><ele>248.99999999999997</ele><time>2026-04-06T10:01:59.657Z</time></trkpt><trkpt lat="43.0900695" lon="12.3147057"><ele>248.99999999999997</ele><time>2026-04-06T10:02:01.631Z</time></trkpt><trkpt lat="43.0899681" lon="12.3147555"><ele>249.0</ele><time>2026-04-06T10:02:03.632Z</time></trkpt><trkpt lat="43.0898869" lon="12.3147782"><ele>249.0</ele><time>2026-04-06T10:02:05.632Z</time></trkpt><trkpt lat="43.0898142" lon="12.3148085"><ele>248.83333333333334</ele><time>2026-04-06T10:02:08.633Z</time></trkpt><trkpt lat="43.0897508" lon="12.3148468"><ele>248.66666666666669</ele><time>2026-04-06T10:02:10.629Z</time></trkpt><trkpt lat="43.0896702" lon="12.3148438"><ele>248.5</ele><time>2026-04-06T10:02:12.632Z</time></trkpt><trkpt lat="43.089588" lon="12.3147753"><ele>248.33333333333334</ele><time>2026-04-06T10:02:14.636Z</time></trkpt><trkpt lat="43.0895057" lon="12.3147142"><ele>248.16666666666669</ele><time>2026-04-06T10:02:16.633Z</time></trkpt><trkpt lat="43.0894247" lon="12.3146462"><ele>248.0</ele><time>2026-04-06T10:02:18.655Z</time></trkpt><trkpt lat="43.0893423" lon="12.314572"><ele>247.8</ele><time>2026-04-06T10:02:20.64Z</time></trkpt><trkpt lat="43.0892516" lon="12.3145007"><ele>247.60000000000002</ele><time>2026-04-06T10:02:22.659Z</time></trkpt><trkpt lat="43.0891628" lon="12.3144227"><ele>247.39999999999998</ele><time>2026-04-06T10:02:24.643Z</time></trkpt><trkpt lat="43.0890687" lon="12.3143432"><ele>247.2</ele><time>2026-04-06T10:02:26.66Z</time></trkpt><trkpt lat="43.0889681" lon="12.3142619"><ele>247.0</ele><time>2026-04-06T10:02:28.651Z</time></trkpt><trkpt lat="43.0888636" lon="12.3141816"><ele>247.0</ele><time>2026-04-06T10:02:30.647Z</time></trkpt><trkpt lat="43.088776" lon="12.3140888"><ele>247.0</ele><time>2026-04-06T10:02:32.647Z</time></trkpt><trkpt lat="43.0886992" lon="12.3139927"><ele>247.0</ele><time>2026-04-06T10:02:34.662Z</time></trkpt><trkpt lat="43.0886291" lon="12.3138936"><ele>247.0</ele><time>2026-04-06T10:02:36.652Z</time></trkpt><trkpt lat="43.0885584" lon="12.3138083"><ele>247.0</ele><time>2026-04-06T10:02:38.737Z</time></trkpt><trkpt lat="43.0884904" lon="12.3137252"><ele>246.99999999999997</ele><time>2026-04-06T10:02:40.646Z</time></trkpt><trkpt lat="43.0884281" lon="12.313652"><ele>247.0</ele><time>2026-04-06T10:02:42.65Z</time></trkpt><trkpt lat="43.0883691" lon="12.3136002"><ele>247.0</ele><time>2026-04-06T10:02:44.735Z</time></trkpt><trkpt lat="43.0882896" lon="12.3135478"><ele>247.0</ele><time>2026-04-06T10:02:46.647Z</time></trkpt><trkpt lat="43.0882103" lon="12.3134798"><ele>246.99999999999997</ele><time>2026-04-06T10:02:48.651Z</time></trkpt><trkpt lat="43.0881263" lon="12.3134061"><ele>247.0</ele><time>2026-04-06T10:02:50.652Z</time></trkpt><trkpt lat="43.0880348" lon="12.313397"><ele>246.6</ele><time>2026-04-06T10:02:52.641Z</time></trkpt><trkpt lat="43.0879701" lon="12.3134789"><ele>246.2</ele><time>2026-04-06T10:02:54.65Z</time></trkpt><trkpt lat="43.0879062" lon="12.3135956"><ele>245.8</ele><time>2026-04-06T10:02:56.658Z</time></trkpt><trkpt lat="43.0878519" lon="12.3137066"><ele>245.4</ele><time>2026-04-06T10:02:58.648Z</time></trkpt><trkpt lat="43.087807" lon="12.3138118"><ele>245.0</ele><time>2026-04-06T10:03:00.658Z</time></trkpt><trkpt lat="43.0877551" lon="12.3138959"><ele>245.14285714285714</ele><time>2026-04-06T10:03:02.65Z</time></trkpt><trkpt lat="43.087715" lon="12.3139787"><ele>245.28571428571428</ele><time>2026-04-06T10:03:04.65Z</time></trkpt><trkpt lat="43.0876687" lon="12.314059"><ele>245.42857142857144</ele><time>2026-04-06T10:03:07.66Z</time></trkpt><trkpt lat="43.0876318" lon="12.3141313"><ele>245.57142857142858</ele><time>2026-04-06T10:03:09.65Z</time></trkpt><trkpt lat="43.0875766" lon="12.3141953"><ele>245.71428571428572</ele><time>2026-04-06T10:03:11.661Z</time></trkpt><trkpt lat="43.087512" lon="12.3141564"><ele>245.8571428571429</ele><time>2026-04-06T10:03:13.641Z</time></trkpt><trkpt lat="43.0874301" lon="12.3141072"><ele>246.00000000000003</ele><time>2026-04-06T10:03:15.648Z</time></trkpt><trkpt lat="43.0873269" lon="12.3140488"><ele>245.60000000000002</ele><time>2026-04-06T10:03:17.653Z</time></trkpt><trkpt lat="43.0872363" lon="12.3140018"><ele>245.20000000000002</ele><time>2026-04-06T10:03:19.649Z</time></trkpt><trkpt lat="43.0871394" lon="12.3139884"><ele>244.79999999999998</ele><time>2026-04-06T10:03:21.65Z</time></trkpt><trkpt lat="43.0870344" lon="12.3139694"><ele>244.39999999999998</ele><time>2026-04-06T10:03:23.643Z</time></trkpt><trkpt lat="43.0869444" lon="12.3139527"><ele>244.0</ele><time>2026-04-06T10:03:25.649Z</time></trkpt><trkpt lat="43.0868568" lon="12.3139396"><ele>244.0</ele><time>2026-04-06T10:03:27.653Z</time></trkpt><trkpt lat="43.08677" lon="12.3139074"><ele>243.99999999999997</ele><time>2026-04-06T10:03:29.647Z</time></trkpt><trkpt lat="43.0866685" lon="12.3138864"><ele>243.99999999999997</ele><time>2026-04-06T10:03:31.654Z</time></trkpt><trkpt lat="43.086558" lon="12.3138658"><ele>244.0</ele><time>2026-04-06T10:03:33.645Z</time></trkpt><trkpt lat="43.0864469" lon="12.3138384"><ele>244.0</ele><time>2026-04-06T10:03:35.647Z</time></trkpt><trkpt lat="43.0863349" lon="12.3138114"><ele>243.75</ele><time>2026-04-06T10:03:37.644Z</time></trkpt><trkpt lat="43.086218" lon="12.3137877"><ele>243.5</ele><time>2026-04-06T10:03:39.645Z</time></trkpt><trkpt lat="43.0861006" lon="12.3137557"><ele>243.25</ele><time>2026-04-06T10:03:41.658Z</time></trkpt><trkpt lat="43.0859823" lon="12.3137165"><ele>243.0</ele><time>2026-04-06T10:03:43.65Z</time></trkpt><trkpt lat="43.0858611" lon="12.3136907"><ele>243.0</ele><time>2026-04-06T10:03:45.646Z</time></trkpt><trkpt lat="43.085797" lon="12.313678"><ele>243.0</ele><time>2026-04-06T10:03:46.644Z</time></trkpt><trkpt lat="43.0856746" lon="12.3136522"><ele>243.0</ele><time>2026-04-06T10:03:48.644Z</time></trkpt><trkpt lat="43.0856122" lon="12.3136387"><ele>243.0</ele><time>2026-04-06T10:03:49.654Z</time></trkpt><trkpt lat="43.0855496" lon="12.3136227"><ele>243.0</ele><time>2026-04-06T10:03:50.649Z</time></trkpt><trkpt lat="43.0854332" lon="12.3135869"><ele>243.0</ele><time>2026-04-06T10:03:52.643Z</time></trkpt><trkpt lat="43.0853178" lon="12.313559"><ele>242.2</ele><time>2026-04-06T10:03:54.651Z</time></trkpt><trkpt lat="43.0851979" lon="12.3135462"><ele>241.4</ele><time>2026-04-06T10:03:56.655Z</time></trkpt><trkpt lat="43.0851353" lon="12.3135339"><ele>240.59999999999997</ele><time>2026-04-06T10:03:57.641Z</time></trkpt><trkpt lat="43.0850198" lon="12.3135102"><ele>239.79999999999998</ele><time>2026-04-06T10:03:59.642Z</time></trkpt><trkpt lat="43.0848947" lon="12.3134899"><ele>239.0</ele><time>2026-04-06T10:04:01.646Z</time></trkpt><trkpt lat="43.0847746" lon="12.313469"><ele>239.0</ele><time>2026-04-06T10:04:03.75Z</time></trkpt><trkpt lat="43.0846609" lon="12.3134369"><ele>238.99999999999997</ele><time>2026-04-06T10:04:05.658Z</time></trkpt><trkpt lat="43.0845963" lon="12.3134294"><ele>238.99999999999997</ele><time>2026-04-06T10:04:06.649Z</time></trkpt><trkpt lat="43.0844851" lon="12.3134038"><ele>239.0</ele><time>2026-04-06T10:04:08.646Z</time></trkpt><trkpt lat="43.0843664" lon="12.3133781"><ele>239.0</ele><time>2026-04-06T10:04:10.655Z</time></trkpt><trkpt lat="43.0842537" lon="12.3133546"><ele>239.0</ele><time>2026-04-06T10:04:12.654Z</time></trkpt><trkpt lat="43.0841466" lon="12.3133273"><ele>238.99999999999997</ele><time>2026-04-06T10:04:14.644Z</time></trkpt><trkpt lat="43.0840347" lon="12.3132955"><ele>238.99999999999997</ele><time>2026-04-06T10:04:16.649Z</time></trkpt><trkpt lat="43.083929" lon="12.3132653"><ele>239.0</ele><time>2026-04-06T10:04:18.656Z</time></trkpt><trkpt lat="43.0838352" lon="12.3132252"><ele>239.0</ele><time>2026-04-06T10:04:20.644Z</time></trkpt><trkpt lat="43.0837407" lon="12.3132236"><ele>239.39999999999998</ele><time>2026-04-06T10:04:22.662Z</time></trkpt><trkpt lat="43.0836493" lon="12.313208"><ele>239.79999999999998</ele><time>2026-04-06T10:04:24.645Z</time></trkpt><trkpt lat="43.0835843" lon="12.3131989"><ele>240.20000000000002</ele><time>2026-04-06T10:04:25.655Z</time></trkpt><trkpt lat="43.0834923" lon="12.313171"><ele>240.60000000000002</ele><time>2026-04-06T10:04:27.659Z</time></trkpt><trkpt lat="43.0833963" lon="12.3131452"><ele>241.0</ele><time>2026-04-06T10:04:29.652Z</time></trkpt><trkpt lat="43.0832816" lon="12.3131338"><ele>240.8</ele><time>2026-04-06T10:04:31.642Z</time></trkpt><trkpt lat="43.083175" lon="12.3131423"><ele>240.60000000000002</ele><time>2026-04-06T10:04:33.657Z</time></trkpt><trkpt lat="43.0830771" lon="12.3131427"><ele>240.4</ele><time>2026-04-06T10:04:35.646Z</time></trkpt><trkpt lat="43.0829679" lon="12.3131443"><ele>240.2</ele><time>2026-04-06T10:04:37.648Z</time></trkpt><trkpt lat="43.0828814" lon="12.3131607"><ele>240.0</ele><time>2026-04-06T10:04:39.655Z</time></trkpt><trkpt lat="43.0827709" lon="12.3131415"><ele>240.0</ele><time>2026-04-06T10:04:41.645Z</time></trkpt><trkpt lat="43.082666" lon="12.3131437"><ele>240.0</ele><time>2026-04-06T10:04:43.653Z</time></trkpt><trkpt lat="43.082552" lon="12.3131499"><ele>240.0</ele><time>2026-04-06T10:04:45.653Z</time></trkpt><trkpt lat="43.082441" lon="12.3131513"><ele>240.0</ele><time>2026-04-06T10:04:47.647Z</time></trkpt><trkpt lat="43.0823194" lon="12.3131529"><ele>239.6</ele><time>2026-04-06T10:04:49.648Z</time></trkpt><trkpt lat="43.082205" lon="12.3131574"><ele>239.2</ele><time>2026-04-06T10:04:51.645Z</time></trkpt><trkpt lat="43.0820907" lon="12.31317"><ele>238.8</ele><time>2026-04-06T10:04:53.646Z</time></trkpt><trkpt lat="43.0819895" lon="12.3131768"><ele>238.4</ele><time>2026-04-06T10:04:55.659Z</time></trkpt><trkpt lat="43.0818815" lon="12.3131741"><ele>238.0</ele><time>2026-04-06T10:04:57.654Z</time></trkpt><trkpt lat="43.0817885" lon="12.3131733"><ele>238.0</ele><time>2026-04-06T10:04:59.645Z</time></trkpt><trkpt lat="43.0816848" lon="12.3131785"><ele>238.0</ele><time>2026-04-06T10:05:01.651Z</time></trkpt><trkpt lat="43.0815827" lon="12.3131765"><ele>238.0</ele><time>2026-04-06T10:05:03.659Z</time></trkpt><trkpt lat="43.0814731" lon="12.3131847"><ele>238.0</ele><time>2026-04-06T10:05:05.645Z</time></trkpt><trkpt lat="43.0813657" lon="12.3131918"><ele>238.0</ele><time>2026-04-06T10:05:07.656Z</time></trkpt><trkpt lat="43.0812611" lon="12.3131991"><ele>237.60000000000002</ele><time>2026-04-06T10:05:09.64Z</time></trkpt><trkpt lat="43.081147" lon="12.3132051"><ele>237.20000000000002</ele><time>2026-04-06T10:05:11.643Z</time></trkpt><trkpt lat="43.0810349" lon="12.3132129"><ele>236.8</ele><time>2026-04-06T10:05:13.657Z</time></trkpt><trkpt lat="43.0809559" lon="12.313227"><ele>236.4</ele><time>2026-04-06T10:05:15.659Z</time></trkpt><trkpt lat="43.0808629" lon="12.3132282"><ele>236.0</ele><time>2026-04-06T10:05:17.644Z</time></trkpt><trkpt lat="43.0807631" lon="12.313225"><ele>235.20000000000002</ele><time>2026-04-06T10:05:19.648Z</time></trkpt><trkpt lat="43.080642" lon="12.3132597"><ele>234.40000000000003</ele><time>2026-04-06T10:05:21.646Z</time></trkpt><trkpt lat="43.0805463" lon="12.313259"><ele>233.6</ele><time>2026-04-06T10:05:23.652Z</time></trkpt><trkpt lat="43.0804508" lon="12.3132757"><ele>232.8</ele><time>2026-04-06T10:05:25.656Z</time></trkpt><trkpt lat="43.0803573" lon="12.3132852"><ele>232.0</ele><time>2026-04-06T10:05:27.65Z</time></trkpt><trkpt lat="43.0802536" lon="12.3133179"><ele>231.99999999999997</ele><time>2026-04-06T10:05:29.644Z</time></trkpt><trkpt lat="43.0801689" lon="12.3133619"><ele>232.0</ele><time>2026-04-06T10:05:31.662Z</time></trkpt><trkpt lat="43.0801029" lon="12.3134268"><ele>232.0</ele><time>2026-04-06T10:05:33.657Z</time></trkpt><trkpt lat="43.0799887" lon="12.3134791"><ele>232.0</ele><time>2026-04-06T10:05:35.648Z</time></trkpt><trkpt lat="43.0799246" lon="12.3134935"><ele>231.99999999999997</ele><time>2026-04-06T10:05:36.652Z</time></trkpt><trkpt lat="43.0798553" lon="12.3135346"><ele>232.0</ele><time>2026-04-06T10:05:37.65Z</time></trkpt><trkpt lat="43.0797839" lon="12.3135867"><ele>231.99999999999997</ele><time>2026-04-06T10:05:38.648Z</time></trkpt><trkpt lat="43.0797165" lon="12.3136612"><ele>232.0</ele><time>2026-04-06T10:05:39.63Z</time></trkpt><trkpt lat="43.0796473" lon="12.3137219"><ele>232.0</ele><time>2026-04-06T10:05:40.649Z</time></trkpt><trkpt lat="43.0795719" lon="12.3138033"><ele>232.0</ele><time>2026-04-06T10:05:41.641Z</time></trkpt><trkpt lat="43.0795039" lon="12.3138713"><ele>231.99999999999997</ele><time>2026-04-06T10:05:42.655Z</time></trkpt><trkpt lat="43.0794431" lon="12.3139399"><ele>232.0</ele><time>2026-04-06T10:05:43.649Z</time></trkpt><trkpt lat="43.0793899" lon="12.3140092"><ele>231.99999999999997</ele><time>2026-04-06T10:05:44.646Z</time></trkpt><trkpt lat="43.0793325" lon="12.3140842"><ele>232.0</ele><time>2026-04-06T10:05:45.648Z</time></trkpt><trkpt lat="43.0792813" lon="12.31415"><ele>232.0</ele><time>2026-04-06T10:05:46.649Z</time></trkpt><trkpt lat="43.079235" lon="12.31425"><ele>232.0</ele><time>2026-04-06T10:05:47.642Z</time></trkpt><trkpt lat="43.079188" lon="12.3143152"><ele>231.99999999999997</ele><time>2026-04-06T10:05:48.647Z</time></trkpt><trkpt lat="43.0791389" lon="12.3143761"><ele>232.0</ele><time>2026-04-06T10:05:49.654Z</time></trkpt><trkpt lat="43.0790478" lon="12.3144727"><ele>232.2</ele><time>2026-04-06T10:05:51.646Z</time></trkpt><trkpt lat="43.0789625" lon="12.3145827"><ele>232.39999999999998</ele><time>2026-04-06T10:05:53.643Z</time></trkpt><trkpt lat="43.0788908" lon="12.3146893"><ele>232.60000000000002</ele><time>2026-04-06T10:05:55.653Z</time></trkpt><trkpt lat="43.0788205" lon="12.3147846"><ele>232.8</ele><time>2026-04-06T10:05:57.651Z</time></trkpt><trkpt lat="43.0787505" lon="12.3148809"><ele>233.0</ele><time>2026-04-06T10:05:59.657Z</time></trkpt><trkpt lat="43.0786757" lon="12.3149776"><ele>233.0</ele><time>2026-04-06T10:06:01.648Z</time></trkpt><trkpt lat="43.0786084" lon="12.3150652"><ele>233.0</ele><time>2026-04-06T10:06:03.647Z</time></trkpt><trkpt lat="43.0785429" lon="12.3151556"><ele>233.0</ele><time>2026-04-06T10:06:05.654Z</time></trkpt><trkpt lat="43.0784771" lon="12.3152335"><ele>233.0</ele><time>2026-04-06T10:06:07.648Z</time></trkpt><trkpt lat="43.078404" lon="12.3152967"><ele>233.0</ele><time>2026-04-06T10:06:09.755Z</time></trkpt><trkpt lat="43.0783226" lon="12.3153585"><ele>233.2</ele><time>2026-04-06T10:06:11.65Z</time></trkpt><trkpt lat="43.0782404" lon="12.3154009"><ele>233.4</ele><time>2026-04-06T10:06:13.65Z</time></trkpt><trkpt lat="43.0781552" lon="12.3154382"><ele>233.59999999999997</ele><time>2026-04-06T10:06:15.646Z</time></trkpt><trkpt lat="43.0780656" lon="12.3154768"><ele>233.79999999999998</ele><time>2026-04-06T10:06:17.649Z</time></trkpt><trkpt lat="43.0779706" lon="12.3155165"><ele>234.0</ele><time>2026-04-06T10:06:19.649Z</time></trkpt><trkpt lat="43.077879" lon="12.3155455"><ele>234.39999999999998</ele><time>2026-04-06T10:06:21.65Z</time></trkpt><trkpt lat="43.0777874" lon="12.3155762"><ele>234.79999999999998</ele><time>2026-04-06T10:06:23.633Z</time></trkpt><trkpt lat="43.0776804" lon="12.3156163"><ele>235.20000000000002</ele><time>2026-04-06T10:06:25.642Z</time></trkpt><trkpt lat="43.0775861" lon="12.3156407"><ele>235.60000000000002</ele><time>2026-04-06T10:06:27.653Z</time></trkpt><trkpt lat="43.0774848" lon="12.3156699"><ele>236.0</ele><time>2026-04-06T10:06:29.661Z</time></trkpt><trkpt lat="43.0773879" lon="12.3156989"><ele>236.20000000000002</ele><time>2026-04-06T10:06:31.648Z</time></trkpt><trkpt lat="43.0772921" lon="12.3157376"><ele>236.40000000000003</ele><time>2026-04-06T10:06:33.661Z</time></trkpt><trkpt lat="43.0771991" lon="12.3157619"><ele>236.6</ele><time>2026-04-06T10:06:35.657Z</time></trkpt><trkpt lat="43.0771023" lon="12.3157867"><ele>236.8</ele><time>2026-04-06T10:06:37.637Z</time></trkpt><trkpt lat="43.0770108" lon="12.3158103"><ele>237.0</ele><time>2026-04-06T10:06:39.658Z</time></trkpt><trkpt lat="43.0769506" lon="12.3158403"><ele>237.0</ele><time>2026-04-06T10:06:40.639Z</time></trkpt><trkpt lat="43.0768592" lon="12.3158737"><ele>237.0</ele><time>2026-04-06T10:06:42.646Z</time></trkpt><trkpt lat="43.0767535" lon="12.3159083"><ele>237.0</ele><time>2026-04-06T10:06:44.754Z</time></trkpt><trkpt lat="43.0766526" lon="12.3159433"><ele>237.0</ele><time>2026-04-06T10:06:46.632Z</time></trkpt><trkpt lat="43.0765606" lon="12.3159734"><ele>237.0</ele><time>2026-04-06T10:06:48.657Z</time></trkpt><trkpt lat="43.0764714" lon="12.3159969"><ele>237.2</ele><time>2026-04-06T10:06:50.639Z</time></trkpt><trkpt lat="43.0763824" lon="12.3160188"><ele>237.39999999999998</ele><time>2026-04-06T10:06:52.647Z</time></trkpt><trkpt lat="43.0762854" lon="12.3160535"><ele>237.60000000000002</ele><time>2026-04-06T10:06:54.643Z</time></trkpt><trkpt lat="43.0761962" lon="12.3160841"><ele>237.8</ele><time>2026-04-06T10:06:56.656Z</time></trkpt><trkpt lat="43.0761052" lon="12.3161048"><ele>238.0</ele><time>2026-04-06T10:06:58.63Z</time></trkpt><trkpt lat="43.0760212" lon="12.3161281"><ele>237.99999999999997</ele><time>2026-04-06T10:07:00.634Z</time></trkpt><trkpt lat="43.0759376" lon="12.3161621"><ele>238.0</ele><time>2026-04-06T10:07:02.629Z</time></trkpt><trkpt lat="43.0758578" lon="12.3161932"><ele>238.0</ele><time>2026-04-06T10:07:04.638Z</time></trkpt><trkpt lat="43.0757761" lon="12.3162272"><ele>238.0</ele><time>2026-04-06T10:07:06.63Z</time></trkpt><trkpt lat="43.0757052" lon="12.3162594"><ele>237.99999999999997</ele><time>2026-04-06T10:07:08.637Z</time></trkpt><trkpt lat="43.0756207" lon="12.3162885"><ele>238.0</ele><time>2026-04-06T10:07:11.63Z</time></trkpt><trkpt lat="43.0755387" lon="12.3163029"><ele>237.99999999999997</ele><time>2026-04-06T10:07:14.633Z</time></trkpt><trkpt lat="43.0754699" lon="12.3163203"><ele>238.0</ele><time>2026-04-06T10:07:16.648Z</time></trkpt><trkpt lat="43.0753936" lon="12.3163515"><ele>238.0</ele><time>2026-04-06T10:07:18.642Z</time></trkpt><trkpt lat="43.075304" lon="12.3163708"><ele>238.0</ele><time>2026-04-06T10:07:20.654Z</time></trkpt><trkpt lat="43.0751982" lon="12.3163804"><ele>237.99999999999997</ele><time>2026-04-06T10:07:22.655Z</time></trkpt><trkpt lat="43.0751041" lon="12.3163851"><ele>238.0</ele><time>2026-04-06T10:07:24.647Z</time></trkpt><trkpt lat="43.0750144" lon="12.3163915"><ele>237.99999999999997</ele><time>2026-04-06T10:07:26.651Z</time></trkpt><trkpt lat="43.0749281" lon="12.3164042"><ele>238.0</ele><time>2026-04-06T10:07:28.645Z</time></trkpt><trkpt lat="43.0748351" lon="12.3164042"><ele>238.0</ele><time>2026-04-06T10:07:30.645Z</time></trkpt><trkpt lat="43.0747559" lon="12.3164113"><ele>238.0</ele><time>2026-04-06T10:07:32.654Z</time></trkpt><trkpt lat="43.0746765" lon="12.3164149"><ele>237.99999999999997</ele><time>2026-04-06T10:07:34.646Z</time></trkpt><trkpt lat="43.0745928" lon="12.3164243"><ele>238.0</ele><time>2026-04-06T10:07:36.661Z</time></trkpt><trkpt lat="43.0745129" lon="12.3164294"><ele>237.99999999999997</ele><time>2026-04-06T10:07:38.646Z</time></trkpt><trkpt lat="43.0744303" lon="12.3164257"><ele>238.0</ele><time>2026-04-06T10:07:40.658Z</time></trkpt><trkpt lat="43.0743482" lon="12.3164311"><ele>238.0</ele><time>2026-04-06T10:07:42.643Z</time></trkpt><trkpt lat="43.0742644" lon="12.3164437"><ele>238.0</ele><time>2026-04-06T10:07:44.65Z</time></trkpt><trkpt lat="43.0741853" lon="12.316446"><ele>237.99999999999997</ele><time>2026-04-06T10:07:46.643Z</time></trkpt><trkpt lat="43.0740992" lon="12.3164484"><ele>238.0</ele><time>2026-04-06T10:07:48.657Z</time></trkpt><trkpt lat="43.0740114" lon="12.3164393"><ele>238.0</ele><time>2026-04-06T10:07:50.642Z</time></trkpt><trkpt lat="43.073922" lon="12.3164175"><ele>238.0</ele><time>2026-04-06T10:07:52.658Z</time></trkpt><trkpt lat="43.0738319" lon="12.3164023"><ele>238.0</ele><time>2026-04-06T10:07:54.651Z</time></trkpt><trkpt lat="43.0737338" lon="12.3163905"><ele>238.0</ele><time>2026-04-06T10:07:56.66Z</time></trkpt><trkpt lat="43.0736424" lon="12.3163905"><ele>238.0</ele><time>2026-04-06T10:07:58.643Z</time></trkpt><trkpt lat="43.0735457" lon="12.3163943"><ele>238.0</ele><time>2026-04-06T10:08:00.64Z</time></trkpt><trkpt lat="43.0734431" lon="12.3163974"><ele>238.0</ele><time>2026-04-06T10:08:02.651Z</time></trkpt><trkpt lat="43.0733522" lon="12.3163982"><ele>238.0</ele><time>2026-04-06T10:08:04.656Z</time></trkpt><trkpt lat="43.0732546" lon="12.3164045"><ele>238.0</ele><time>2026-04-06T10:08:06.646Z</time></trkpt><trkpt lat="43.0731602" lon="12.316418"><ele>238.0</ele><time>2026-04-06T10:08:08.649Z</time></trkpt><trkpt lat="43.0730696" lon="12.3164304"><ele>238.4</ele><time>2026-04-06T10:08:10.649Z</time></trkpt><trkpt lat="43.0729731" lon="12.3164423"><ele>238.8</ele><time>2026-04-06T10:08:12.648Z</time></trkpt><trkpt lat="43.07287" lon="12.3164542"><ele>239.2</ele><time>2026-04-06T10:08:14.649Z</time></trkpt><trkpt lat="43.072769" lon="12.3164588"><ele>239.6</ele><time>2026-04-06T10:08:16.653Z</time></trkpt><trkpt lat="43.0726699" lon="12.3164619"><ele>240.0</ele><time>2026-04-06T10:08:18.643Z</time></trkpt><trkpt lat="43.0726061" lon="12.3164624"><ele>240.0</ele><time>2026-04-06T10:08:19.657Z</time></trkpt><trkpt lat="43.0725041" lon="12.3164628"><ele>240.0</ele><time>2026-04-06T10:08:21.66Z</time></trkpt><trkpt lat="43.0724114" lon="12.3164538"><ele>240.0</ele><time>2026-04-06T10:08:23.65Z</time></trkpt><trkpt lat="43.0723086" lon="12.316464"><ele>240.0</ele><time>2026-04-06T10:08:25.648Z</time></trkpt><trkpt lat="43.0722246" lon="12.3164782"><ele>240.0</ele><time>2026-04-06T10:08:27.65Z</time></trkpt><trkpt lat="43.0721256" lon="12.3164891"><ele>240.0</ele><time>2026-04-06T10:08:29.749Z</time></trkpt><trkpt lat="43.0720337" lon="12.3164962"><ele>240.0</ele><time>2026-04-06T10:08:31.666Z</time></trkpt><trkpt lat="43.0719467" lon="12.3165139"><ele>240.0</ele><time>2026-04-06T10:08:33.65Z</time></trkpt><trkpt lat="43.0718511" lon="12.3165254"><ele>240.0</ele><time>2026-04-06T10:08:35.648Z</time></trkpt><trkpt lat="43.0717707" lon="12.3165795"><ele>240.0</ele><time>2026-04-06T10:08:37.648Z</time></trkpt><trkpt lat="43.0716939" lon="12.3166382"><ele>240.0</ele><time>2026-04-06T10:08:39.645Z</time></trkpt><trkpt lat="43.0716246" lon="12.3167265"><ele>240.0</ele><time>2026-04-06T10:08:41.655Z</time></trkpt><trkpt lat="43.0715701" lon="12.3168138"><ele>240.0</ele><time>2026-04-06T10:08:44.65Z</time></trkpt><trkpt lat="43.0714822" lon="12.3169185"><ele>240.0</ele><time>2026-04-06T10:08:46.65Z</time></trkpt><trkpt lat="43.0714208" lon="12.3169806"><ele>240.0</ele><time>2026-04-06T10:08:47.655Z</time></trkpt><trkpt lat="43.0713226" lon="12.3170278"><ele>239.8</ele><time>2026-04-06T10:08:49.653Z</time></trkpt><trkpt lat="43.0712293" lon="12.3171034"><ele>239.6</ele><time>2026-04-06T10:08:51.648Z</time></trkpt><trkpt lat="43.0711434" lon="12.3172003"><ele>239.39999999999998</ele><time>2026-04-06T10:08:53.656Z</time></trkpt><trkpt lat="43.0710417" lon="12.3172337"><ele>239.2</ele><time>2026-04-06T10:08:55.652Z</time></trkpt><trkpt lat="43.0709451" lon="12.3172016"><ele>239.0</ele><time>2026-04-06T10:08:57.643Z</time></trkpt><trkpt lat="43.0708489" lon="12.3171845"><ele>239.6</ele><time>2026-04-06T10:08:59.641Z</time></trkpt><trkpt lat="43.070751" lon="12.3171619"><ele>240.2</ele><time>2026-04-06T10:09:01.661Z</time></trkpt><trkpt lat="43.0706598" lon="12.3171506"><ele>240.79999999999998</ele><time>2026-04-06T10:09:03.651Z</time></trkpt><trkpt lat="43.0705581" lon="12.3171682"><ele>241.39999999999998</ele><time>2026-04-06T10:09:05.647Z</time></trkpt><trkpt lat="43.0704694" lon="12.3172291"><ele>242.0</ele><time>2026-04-06T10:09:07.646Z</time></trkpt><trkpt lat="43.0703981" lon="12.3173154"><ele>242.6</ele><time>2026-04-06T10:09:09.657Z</time></trkpt><trkpt lat="43.0703212" lon="12.3173952"><ele>243.2</ele><time>2026-04-06T10:09:11.646Z</time></trkpt><trkpt lat="43.0702531" lon="12.3174702"><ele>243.8</ele><time>2026-04-06T10:09:13.65Z</time></trkpt><trkpt lat="43.0701753" lon="12.3175371"><ele>244.4</ele><time>2026-04-06T10:09:15.656Z</time></trkpt><trkpt lat="43.0700956" lon="12.3176063"><ele>245.0</ele><time>2026-04-06T10:09:17.644Z</time></trkpt><trkpt lat="43.0700188" lon="12.317668"><ele>244.2</ele><time>2026-04-06T10:09:19.644Z</time></trkpt><trkpt lat="43.0699415" lon="12.3177449"><ele>243.4</ele><time>2026-04-06T10:09:21.657Z</time></trkpt><trkpt lat="43.0698634" lon="12.3178134"><ele>242.60000000000002</ele><time>2026-04-06T10:09:23.645Z</time></trkpt><trkpt lat="43.0697995" lon="12.3178845"><ele>241.8</ele><time>2026-04-06T10:09:25.658Z</time></trkpt><trkpt lat="43.0697208" lon="12.3179572"><ele>241.0</ele><time>2026-04-06T10:09:27.657Z</time></trkpt><trkpt lat="43.0696366" lon="12.318037"><ele>241.0</ele><time>2026-04-06T10:09:29.652Z</time></trkpt><trkpt lat="43.0695533" lon="12.3181092"><ele>241.00000000000003</ele><time>2026-04-06T10:09:31.672Z</time></trkpt><trkpt lat="43.0694677" lon="12.318184"><ele>241.00000000000003</ele><time>2026-04-06T10:09:33.649Z</time></trkpt><trkpt lat="43.0693875" lon="12.318252"><ele>241.0</ele><time>2026-04-06T10:09:35.649Z</time></trkpt><trkpt lat="43.0693136" lon="12.3183263"><ele>241.0</ele><time>2026-04-06T10:09:37.655Z</time></trkpt><trkpt lat="43.0692248" lon="12.3184024"><ele>241.0</ele><time>2026-04-06T10:09:39.648Z</time></trkpt><trkpt lat="43.0691382" lon="12.3184915"><ele>241.00000000000003</ele><time>2026-04-06T10:09:41.656Z</time></trkpt><trkpt lat="43.0690517" lon="12.3185687"><ele>241.00000000000003</ele><time>2026-04-06T10:09:43.659Z</time></trkpt><trkpt lat="43.0689722" lon="12.3186557"><ele>241.0</ele><time>2026-04-06T10:09:45.646Z</time></trkpt><trkpt lat="43.0688862" lon="12.3187548"><ele>241.0</ele><time>2026-04-06T10:09:47.645Z</time></trkpt><trkpt lat="43.0688144" lon="12.3188724"><ele>240.8</ele><time>2026-04-06T10:09:49.643Z</time></trkpt><trkpt lat="43.0687274" lon="12.3189395"><ele>240.60000000000002</ele><time>2026-04-06T10:09:51.653Z</time></trkpt><trkpt lat="43.0686504" lon="12.3190232"><ele>240.4</ele><time>2026-04-06T10:09:53.646Z</time></trkpt><trkpt lat="43.068566" lon="12.3191037"><ele>240.2</ele><time>2026-04-06T10:09:55.646Z</time></trkpt><trkpt lat="43.0684767" lon="12.3191826"><ele>240.0</ele><time>2026-04-06T10:09:57.652Z</time></trkpt><trkpt lat="43.0683841" lon="12.3192617"><ele>240.0</ele><time>2026-04-06T10:09:59.648Z</time></trkpt><trkpt lat="43.0682929" lon="12.319336"><ele>240.0</ele><time>2026-04-06T10:10:01.649Z</time></trkpt><trkpt lat="43.06823" lon="12.3193957"><ele>240.0</ele><time>2026-04-06T10:10:03.662Z</time></trkpt><trkpt lat="43.0681507" lon="12.3194609"><ele>240.0</ele><time>2026-04-06T10:10:05.648Z</time></trkpt><trkpt lat="43.0680645" lon="12.3195238"><ele>240.0</ele><time>2026-04-06T10:10:07.646Z</time></trkpt><trkpt lat="43.0680004" lon="12.3195929"><ele>240.0</ele><time>2026-04-06T10:10:09.647Z</time></trkpt><trkpt lat="43.0679358" lon="12.319671"><ele>240.0</ele><time>2026-04-06T10:10:11.651Z</time></trkpt><trkpt lat="43.067862" lon="12.31974"><ele>240.0</ele><time>2026-04-06T10:10:13.647Z</time></trkpt><trkpt lat="43.0677903" lon="12.3198232"><ele>240.0</ele><time>2026-04-06T10:10:15.65Z</time></trkpt><trkpt lat="43.0677113" lon="12.3198965"><ele>240.0</ele><time>2026-04-06T10:10:17.665Z</time></trkpt><trkpt lat="43.0676373" lon="12.3199598"><ele>240.0</ele><time>2026-04-06T10:10:19.653Z</time></trkpt><trkpt lat="43.0675667" lon="12.3200257"><ele>240.0</ele><time>2026-04-06T10:10:21.65Z</time></trkpt><trkpt lat="43.0674965" lon="12.3200961"><ele>240.0</ele><time>2026-04-06T10:10:23.658Z</time></trkpt><trkpt lat="43.0674277" lon="12.3201681"><ele>240.0</ele><time>2026-04-06T10:10:25.649Z</time></trkpt><trkpt lat="43.0673585" lon="12.3202423"><ele>240.0</ele><time>2026-04-06T10:10:27.655Z</time></trkpt><trkpt lat="43.0672895" lon="12.3203169"><ele>240.0</ele><time>2026-04-06T10:10:29.643Z</time></trkpt><trkpt lat="43.0672186" lon="12.3203877"><ele>239.83333333333334</ele><time>2026-04-06T10:10:31.646Z</time></trkpt><trkpt lat="43.067148" lon="12.3204589"><ele>239.66666666666669</ele><time>2026-04-06T10:10:33.648Z</time></trkpt><trkpt lat="43.0670806" lon="12.3205299"><ele>239.5</ele><time>2026-04-06T10:10:35.648Z</time></trkpt><trkpt lat="43.0670098" lon="12.3206005"><ele>239.33333333333334</ele><time>2026-04-06T10:10:37.738Z</time></trkpt><trkpt lat="43.0669344" lon="12.3206719"><ele>239.16666666666669</ele><time>2026-04-06T10:10:39.647Z</time></trkpt><trkpt lat="43.0668572" lon="12.3207437"><ele>239.0</ele><time>2026-04-06T10:10:41.656Z</time></trkpt><trkpt lat="43.0667744" lon="12.3208148"><ele>239.6</ele><time>2026-04-06T10:10:43.648Z</time></trkpt><trkpt lat="43.0666924" lon="12.3208812"><ele>240.2</ele><time>2026-04-06T10:10:45.657Z</time></trkpt><trkpt lat="43.0666019" lon="12.3209376"><ele>240.79999999999998</ele><time>2026-04-06T10:10:47.65Z</time></trkpt><trkpt lat="43.0665102" lon="12.3209876"><ele>241.39999999999998</ele><time>2026-04-06T10:10:49.643Z</time></trkpt><trkpt lat="43.0664199" lon="12.3210291"><ele>242.0</ele><time>2026-04-06T10:10:51.646Z</time></trkpt><trkpt lat="43.06633" lon="12.3210685"><ele>242.0</ele><time>2026-04-06T10:10:53.652Z</time></trkpt><trkpt lat="43.0662457" lon="12.3211167"><ele>242.0</ele><time>2026-04-06T10:10:55.651Z</time></trkpt><trkpt lat="43.0661663" lon="12.3211739"><ele>242.0</ele><time>2026-04-06T10:10:57.646Z</time></trkpt><trkpt lat="43.066091" lon="12.3212463"><ele>242.0</ele><time>2026-04-06T10:10:59.652Z</time></trkpt><trkpt lat="43.0660231" lon="12.3213232"><ele>242.0</ele><time>2026-04-06T10:11:01.658Z</time></trkpt><trkpt lat="43.0659514" lon="12.3213988"><ele>243.2</ele><time>2026-04-06T10:11:03.635Z</time></trkpt><trkpt lat="43.0658768" lon="12.3214738"><ele>244.39999999999998</ele><time>2026-04-06T10:11:05.753Z</time></trkpt><trkpt lat="43.0658078" lon="12.3215471"><ele>245.60000000000002</ele><time>2026-04-06T10:11:07.658Z</time></trkpt><trkpt lat="43.0657368" lon="12.3216236"><ele>246.8</ele><time>2026-04-06T10:11:09.66Z</time></trkpt><trkpt lat="43.0656641" lon="12.3216957"><ele>248.0</ele><time>2026-04-06T10:11:11.753Z</time></trkpt><trkpt lat="43.0655919" lon="12.3217702"><ele>248.00000000000003</ele><time>2026-04-06T10:11:13.637Z</time></trkpt><trkpt lat="43.0655198" lon="12.3218456"><ele>248.0</ele><time>2026-04-06T10:11:15.649Z</time></trkpt><trkpt lat="43.0654487" lon="12.3219198"><ele>248.0</ele><time>2026-04-06T10:11:17.753Z</time></trkpt><trkpt lat="43.0653778" lon="12.321994"><ele>248.0</ele><time>2026-04-06T10:11:19.652Z</time></trkpt><trkpt lat="43.0653047" lon="12.3220689"><ele>248.00000000000003</ele><time>2026-04-06T10:11:21.637Z</time></trkpt><trkpt lat="43.0652334" lon="12.322141"><ele>248.0</ele><time>2026-04-06T10:11:23.633Z</time></trkpt><trkpt lat="43.0651615" lon="12.3222122"><ele>248.00000000000003</ele><time>2026-04-06T10:11:25.65Z</time></trkpt><trkpt lat="43.0650885" lon="12.3222816"><ele>248.0</ele><time>2026-04-06T10:11:27.64Z</time></trkpt><trkpt lat="43.065017" lon="12.3223519"><ele>248.0</ele><time>2026-04-06T10:11:29.645Z</time></trkpt><trkpt lat="43.0649457" lon="12.3224287"><ele>248.0</ele><time>2026-04-06T10:11:31.657Z</time></trkpt><trkpt lat="43.0648809" lon="12.3225137"><ele>248.00000000000003</ele><time>2026-04-06T10:11:33.634Z</time></trkpt><trkpt lat="43.0648342" lon="12.3226204"><ele>248.0</ele><time>2026-04-06T10:11:35.651Z</time></trkpt><trkpt lat="43.0647997" lon="12.3227366"><ele>248.0</ele><time>2026-04-06T10:11:37.628Z</time></trkpt><trkpt lat="43.0647749" lon="12.3228606"><ele>248.0</ele><time>2026-04-06T10:11:39.645Z</time></trkpt><trkpt lat="43.0647526" lon="12.322985"><ele>248.0</ele><time>2026-04-06T10:11:41.658Z</time></trkpt><trkpt lat="43.0647295" lon="12.3231072"><ele>248.0</ele><time>2026-04-06T10:11:43.641Z</time></trkpt><trkpt lat="43.0647029" lon="12.3232315"><ele>248.0</ele><time>2026-04-06T10:11:45.66Z</time></trkpt><trkpt lat="43.0646708" lon="12.3233519"><ele>248.2</ele><time>2026-04-06T10:11:47.653Z</time></trkpt><trkpt lat="43.0646355" lon="12.3234681"><ele>248.4</ele><time>2026-04-06T10:11:49.651Z</time></trkpt><trkpt lat="43.0646001" lon="12.3235882"><ele>248.59999999999997</ele><time>2026-04-06T10:11:51.648Z</time></trkpt><trkpt lat="43.0645654" lon="12.3237087"><ele>248.79999999999998</ele><time>2026-04-06T10:11:53.658Z</time></trkpt><trkpt lat="43.0645295" lon="12.3238259"><ele>249.0</ele><time>2026-04-06T10:11:55.648Z</time></trkpt><trkpt lat="43.064494" lon="12.3239423"><ele>249.39999999999998</ele><time>2026-04-06T10:11:57.632Z</time></trkpt><trkpt lat="43.0644619" lon="12.3240611"><ele>249.79999999999998</ele><time>2026-04-06T10:11:59.646Z</time></trkpt><trkpt lat="43.0644278" lon="12.3241783"><ele>250.20000000000002</ele><time>2026-04-06T10:12:01.631Z</time></trkpt><trkpt lat="43.0643836" lon="12.3242921"><ele>250.60000000000002</ele><time>2026-04-06T10:12:03.629Z</time></trkpt><trkpt lat="43.0643492" lon="12.3244095"><ele>251.0</ele><time>2026-04-06T10:12:05.635Z</time></trkpt><trkpt lat="43.064319" lon="12.3245332"><ele>251.0</ele><time>2026-04-06T10:12:07.639Z</time></trkpt><trkpt lat="43.0642931" lon="12.3246579"><ele>251.00000000000003</ele><time>2026-04-06T10:12:09.633Z</time></trkpt><trkpt lat="43.0642593" lon="12.324776"><ele>251.00000000000003</ele><time>2026-04-06T10:12:11.634Z</time></trkpt><trkpt lat="43.064231" lon="12.3248926"><ele>251.0</ele><time>2026-04-06T10:12:13.633Z</time></trkpt><trkpt lat="43.0641814" lon="12.3249949"><ele>251.0</ele><time>2026-04-06T10:12:15.641Z</time></trkpt><trkpt lat="43.0641138" lon="12.3250781"><ele>251.4</ele><time>2026-04-06T10:12:17.645Z</time></trkpt><trkpt lat="43.0640219" lon="12.3252223"><ele>251.8</ele><time>2026-04-06T10:12:20.651Z</time></trkpt><trkpt lat="43.0639622" lon="12.325322"><ele>252.20000000000002</ele><time>2026-04-06T10:12:22.656Z</time></trkpt><trkpt lat="43.0639116" lon="12.3254289"><ele>252.60000000000002</ele><time>2026-04-06T10:12:24.65Z</time></trkpt><trkpt lat="43.0638487" lon="12.3255288"><ele>253.0</ele><time>2026-04-06T10:12:26.663Z</time></trkpt><trkpt lat="43.063793" lon="12.3256316"><ele>253.0</ele><time>2026-04-06T10:12:28.652Z</time></trkpt><trkpt lat="43.0637341" lon="12.3257339"><ele>253.0</ele><time>2026-04-06T10:12:30.653Z</time></trkpt><trkpt lat="43.0636792" lon="12.3258371"><ele>253.0</ele><time>2026-04-06T10:12:32.655Z</time></trkpt><trkpt lat="43.0636237" lon="12.3259372"><ele>253.0</ele><time>2026-04-06T10:12:34.651Z</time></trkpt><trkpt lat="43.0635698" lon="12.3260385"><ele>253.0</ele><time>2026-04-06T10:12:36.648Z</time></trkpt><trkpt lat="43.0635178" lon="12.3261446"><ele>252.99999999999997</ele><time>2026-04-06T10:12:38.646Z</time></trkpt><trkpt lat="43.0634611" lon="12.3262517"><ele>253.0</ele><time>2026-04-06T10:12:40.653Z</time></trkpt><trkpt lat="43.0634133" lon="12.3263511"><ele>253.0</ele><time>2026-04-06T10:12:42.657Z</time></trkpt><trkpt lat="43.0633603" lon="12.3264296"><ele>253.0</ele><time>2026-04-06T10:12:44.647Z</time></trkpt><trkpt lat="43.0632951" lon="12.3264821"><ele>252.99999999999997</ele><time>2026-04-06T10:12:46.643Z</time></trkpt><trkpt lat="43.063225" lon="12.3264887"><ele>253.0</ele><time>2026-04-06T10:12:48.651Z</time></trkpt><trkpt lat="43.0631588" lon="12.3264365"><ele>252.8</ele><time>2026-04-06T10:12:50.648Z</time></trkpt><trkpt lat="43.0630849" lon="12.3263834"><ele>252.60000000000002</ele><time>2026-04-06T10:12:52.655Z</time></trkpt><trkpt lat="43.0629987" lon="12.3263557"><ele>252.39999999999998</ele><time>2026-04-06T10:12:54.649Z</time></trkpt><trkpt lat="43.0629097" lon="12.3263238"><ele>252.2</ele><time>2026-04-06T10:12:56.644Z</time></trkpt><trkpt lat="43.062819" lon="12.3262965"><ele>252.0</ele><time>2026-04-06T10:12:58.651Z</time></trkpt><trkpt lat="43.0627244" lon="12.3262704"><ele>252.0</ele><time>2026-04-06T10:13:00.647Z</time></trkpt><trkpt lat="43.0626275" lon="12.3262502"><ele>252.0</ele><time>2026-04-06T10:13:02.649Z</time></trkpt><trkpt lat="43.0625253" lon="12.3262194"><ele>252.0</ele><time>2026-04-06T10:13:04.644Z</time></trkpt><trkpt lat="43.0624259" lon="12.3261969"><ele>252.0</ele><time>2026-04-06T10:13:06.652Z</time></trkpt><trkpt lat="43.0623227" lon="12.3261749"><ele>252.0</ele><time>2026-04-06T10:13:08.658Z</time></trkpt><trkpt lat="43.0622107" lon="12.3262053"><ele>250.8</ele><time>2026-04-06T10:13:10.648Z</time></trkpt><trkpt lat="43.0621214" lon="12.3262846"><ele>249.6</ele><time>2026-04-06T10:13:12.644Z</time></trkpt><trkpt lat="43.0620205" lon="12.3263667"><ele>248.40000000000003</ele><time>2026-04-06T10:13:14.649Z</time></trkpt><trkpt lat="43.0619147" lon="12.3264524"><ele>247.20000000000002</ele><time>2026-04-06T10:13:16.649Z</time></trkpt><trkpt lat="43.0618549" lon="12.3265024"><ele>246.0</ele><time>2026-04-06T10:13:17.656Z</time></trkpt><trkpt lat="43.0617868" lon="12.3265651"><ele>245.83333333333334</ele><time>2026-04-06T10:13:18.641Z</time></trkpt><trkpt lat="43.0617154" lon="12.3266356"><ele>245.66666666666669</ele><time>2026-04-06T10:13:19.648Z</time></trkpt><trkpt lat="43.0616387" lon="12.326701"><ele>245.5</ele><time>2026-04-06T10:13:20.647Z</time></trkpt><trkpt lat="43.0615636" lon="12.3267569"><ele>245.33333333333334</ele><time>2026-04-06T10:13:21.644Z</time></trkpt><trkpt lat="43.0614938" lon="12.3268108"><ele>245.16666666666669</ele><time>2026-04-06T10:13:22.643Z</time></trkpt><trkpt lat="43.0614329" lon="12.3268605"><ele>245.0</ele><time>2026-04-06T10:13:23.656Z</time></trkpt><trkpt lat="43.0613722" lon="12.3268968"><ele>244.2</ele><time>2026-04-06T10:13:24.647Z</time></trkpt><trkpt lat="43.0612622" lon="12.3268811"><ele>243.4</ele><time>2026-04-06T10:13:26.639Z</time></trkpt><trkpt lat="43.0611966" lon="12.3267628"><ele>242.60000000000002</ele><time>2026-04-06T10:13:28.66Z</time></trkpt><trkpt lat="43.0611409" lon="12.3266378"><ele>241.8</ele><time>2026-04-06T10:13:30.645Z</time></trkpt><trkpt lat="43.0610829" lon="12.3265094"><ele>241.0</ele><time>2026-04-06T10:13:32.64Z</time></trkpt><trkpt lat="43.0610315" lon="12.3263996"><ele>241.16666666666666</ele><time>2026-04-06T10:13:34.645Z</time></trkpt><trkpt lat="43.0609521" lon="12.3263424"><ele>241.33333333333331</ele><time>2026-04-06T10:13:36.647Z</time></trkpt><trkpt lat="43.0608621" lon="12.3263208"><ele>241.5</ele><time>2026-04-06T10:13:38.661Z</time></trkpt><trkpt lat="43.0607827" lon="12.3262893"><ele>241.66666666666669</ele><time>2026-04-06T10:13:40.643Z</time></trkpt><trkpt lat="43.0607078" lon="12.326259"><ele>241.83333333333334</ele><time>2026-04-06T10:13:42.648Z</time></trkpt><trkpt lat="43.0606396" lon="12.3262233"><ele>242.0</ele><time>2026-04-06T10:13:44.648Z</time></trkpt><trkpt lat="43.0605491" lon="12.3261763"><ele>242.00000000000003</ele><time>2026-04-06T10:13:47.648Z</time></trkpt><trkpt lat="43.0604749" lon="12.3261378"><ele>242.0</ele><time>2026-04-06T10:13:49.639Z</time></trkpt><trkpt lat="43.0604" lon="12.3261058"><ele>242.0</ele><time>2026-04-06T10:13:51.647Z</time></trkpt><trkpt lat="43.0603214" lon="12.326069"><ele>242.0</ele><time>2026-04-06T10:13:53.657Z</time></trkpt><trkpt lat="43.0602464" lon="12.3260296"><ele>242.00000000000003</ele><time>2026-04-06T10:13:55.643Z</time></trkpt><trkpt lat="43.0601695" lon="12.3260067"><ele>242.0</ele><time>2026-04-06T10:13:57.653Z</time></trkpt><trkpt lat="43.0600915" lon="12.3259791"><ele>242.00000000000003</ele><time>2026-04-06T10:13:59.649Z</time></trkpt><trkpt lat="43.0600136" lon="12.3259522"><ele>242.0</ele><time>2026-04-06T10:14:01.656Z</time></trkpt><trkpt lat="43.0599401" lon="12.3259192"><ele>242.0</ele><time>2026-04-06T10:14:03.65Z</time></trkpt><trkpt lat="43.0598687" lon="12.3258931"><ele>242.0</ele><time>2026-04-06T10:14:05.649Z</time></trkpt><trkpt lat="43.0597987" lon="12.325867"><ele>242.00000000000003</ele><time>2026-04-06T10:14:07.649Z</time></trkpt><trkpt lat="43.0597153" lon="12.3258048"><ele>242.0</ele><time>2026-04-06T10:14:10.652Z</time></trkpt><trkpt lat="43.05966" lon="12.3257529"><ele>242.42857142857142</ele><time>2026-04-06T10:14:12.65Z</time></trkpt><trkpt lat="43.0596122" lon="12.3256931"><ele>242.85714285714283</ele><time>2026-04-06T10:14:14.646Z</time></trkpt><trkpt lat="43.0595622" lon="12.3256247"><ele>243.28571428571428</ele><time>2026-04-06T10:14:16.644Z</time></trkpt><trkpt lat="43.0595097" lon="12.3255632"><ele>243.71428571428572</ele><time>2026-04-06T10:14:18.638Z</time></trkpt><trkpt lat="43.0594497" lon="12.3255155"><ele>244.14285714285714</ele><time>2026-04-06T10:14:20.646Z</time></trkpt><trkpt lat="43.0593848" lon="12.3254805"><ele>244.57142857142856</ele><time>2026-04-06T10:14:22.649Z</time></trkpt><trkpt lat="43.0593192" lon="12.3254797"><ele>245.0</ele><time>2026-04-06T10:14:24.65Z</time></trkpt><trkpt lat="43.059256" lon="12.3255133"><ele>245.33333333333334</ele><time>2026-04-06T10:14:26.644Z</time></trkpt><trkpt lat="43.059164" lon="12.3255832"><ele>245.66666666666669</ele><time>2026-04-06T10:14:29.658Z</time></trkpt><trkpt lat="43.0591015" lon="12.3256351"><ele>246.0</ele><time>2026-04-06T10:14:31.652Z</time></trkpt><trkpt lat="43.0590421" lon="12.3256926"><ele>246.33333333333331</ele><time>2026-04-06T10:14:33.754Z</time></trkpt><trkpt lat="43.0589861" lon="12.3257488"><ele>246.66666666666666</ele><time>2026-04-06T10:14:35.654Z</time></trkpt><trkpt lat="43.0589289" lon="12.3258009"><ele>247.0</ele><time>2026-04-06T10:14:37.644Z</time></trkpt><trkpt lat="43.0588682" lon="12.3258556"><ele>247.85714285714286</ele><time>2026-04-06T10:14:39.648Z</time></trkpt><trkpt lat="43.0588095" lon="12.325905"><ele>248.71428571428572</ele><time>2026-04-06T10:14:41.644Z</time></trkpt><trkpt lat="43.0587486" lon="12.3259551"><ele>249.57142857142858</ele><time>2026-04-06T10:14:43.62Z</time></trkpt><trkpt lat="43.0586902" lon="12.3260004"><ele>250.42857142857144</ele><time>2026-04-06T10:14:45.649Z</time></trkpt><trkpt lat="43.058631" lon="12.3260528"><ele>251.28571428571428</ele><time>2026-04-06T10:14:47.644Z</time></trkpt><trkpt lat="43.0585695" lon="12.3261029"><ele>252.14285714285717</ele><time>2026-04-06T10:14:49.661Z</time></trkpt><trkpt lat="43.058507" lon="12.3261569"><ele>253.00000000000003</ele><time>2026-04-06T10:14:51.639Z</time></trkpt><trkpt lat="43.0584439" lon="12.326205"><ele>252.99999999999997</ele><time>2026-04-06T10:14:53.632Z</time></trkpt><trkpt lat="43.0583846" lon="12.3262559"><ele>253.0</ele><time>2026-04-06T10:14:55.63Z</time></trkpt><trkpt lat="43.0582987" lon="12.32633"><ele>253.0</ele><time>2026-04-06T10:14:58.649Z</time></trkpt><trkpt lat="43.0582445" lon="12.3263789"><ele>253.0</ele><time>2026-04-06T10:15:00.648Z</time></trkpt><trkpt lat="43.0581658" lon="12.3264463"><ele>252.99999999999997</ele><time>2026-04-06T10:15:03.641Z</time></trkpt><trkpt lat="43.0580841" lon="12.3265013"><ele>253.0</ele><time>2026-04-06T10:15:06.657Z</time></trkpt><trkpt lat="43.0580075" lon="12.3265488"><ele>254.99999999999997</ele><time>2026-04-06T10:15:09.649Z</time></trkpt><trkpt lat="43.0579186" lon="12.3265893"><ele>257.0</ele><time>2026-04-06T10:15:12.641Z</time></trkpt><trkpt lat="43.0578245" lon="12.3265944"><ele>259.0</ele><time>2026-04-06T10:15:15.651Z</time></trkpt><trkpt lat="43.0577552" lon="12.3266115"><ele>261.0</ele><time>2026-04-06T10:15:17.64Z</time></trkpt><trkpt lat="43.0576665" lon="12.3266435"><ele>263.0</ele><time>2026-04-06T10:15:20.653Z</time></trkpt><trkpt lat="43.0576009" lon="12.3266703"><ele>265.0</ele><time>2026-04-06T10:15:22.648Z</time></trkpt><trkpt lat="43.0575358" lon="12.3266925"><ele>265.0</ele><time>2026-04-06T10:15:24.645Z</time></trkpt><trkpt lat="43.0574621" lon="12.3267286"><ele>265.0</ele><time>2026-04-06T10:15:27.644Z</time></trkpt><trkpt lat="43.0573742" lon="12.3267685"><ele>265.0</ele><time>2026-04-06T10:15:30.648Z</time></trkpt><trkpt lat="43.0573128" lon="12.3268044"><ele>265.0</ele><time>2026-04-06T10:15:32.641Z</time></trkpt><trkpt lat="43.0572509" lon="12.3268449"><ele>265.0</ele><time>2026-04-06T10:15:34.655Z</time></trkpt><trkpt lat="43.0571889" lon="12.3268934"><ele>265.0</ele><time>2026-04-06T10:15:36.65Z</time></trkpt><trkpt lat="43.0571018" lon="12.3269653"><ele>266.4</ele><time>2026-04-06T10:15:39.646Z</time></trkpt><trkpt lat="43.0570435" lon="12.3270026"><ele>267.8</ele><time>2026-04-06T10:15:41.668Z</time></trkpt><trkpt lat="43.0569372" lon="12.3270806"><ele>269.2</ele><time>2026-04-06T10:15:45.653Z</time></trkpt><trkpt lat="43.0568569" lon="12.3271259"><ele>270.6</ele><time>2026-04-06T10:15:48.654Z</time></trkpt><trkpt lat="43.0567746" lon="12.3271861"><ele>272.0</ele><time>2026-04-06T10:15:51.65Z</time></trkpt><trkpt lat="43.0566919" lon="12.3272472"><ele>272.99999999999994</ele><time>2026-04-06T10:15:54.649Z</time></trkpt><trkpt lat="43.0566147" lon="12.3273224"><ele>274.0</ele><time>2026-04-06T10:15:57.644Z</time></trkpt><trkpt lat="43.0565577" lon="12.3273689"><ele>275.0</ele><time>2026-04-06T10:15:59.655Z</time></trkpt><trkpt lat="43.056502" lon="12.3274161"><ele>276.0</ele><time>2026-04-06T10:16:01.657Z</time></trkpt><trkpt lat="43.0564422" lon="12.3274605"><ele>277.0</ele><time>2026-04-06T10:16:03.642Z</time></trkpt><trkpt lat="43.0563816" lon="12.3275071"><ele>277.99999999999994</ele><time>2026-04-06T10:16:05.649Z</time></trkpt><trkpt lat="43.0563245" lon="12.3275517"><ele>279.0</ele><time>2026-04-06T10:16:07.656Z</time></trkpt><trkpt lat="43.056267" lon="12.327593"><ele>278.99999999999994</ele><time>2026-04-06T10:16:09.65Z</time></trkpt><trkpt lat="43.0562098" lon="12.3276324"><ele>279.0</ele><time>2026-04-06T10:16:11.653Z</time></trkpt><trkpt lat="43.0561564" lon="12.3276839"><ele>279.0</ele><time>2026-04-06T10:16:13.646Z</time></trkpt><trkpt lat="43.0561031" lon="12.3277357"><ele>279.0</ele><time>2026-04-06T10:16:15.645Z</time></trkpt><trkpt lat="43.056048" lon="12.3277885"><ele>279.0</ele><time>2026-04-06T10:16:17.646Z</time></trkpt><trkpt lat="43.0559935" lon="12.3278419"><ele>278.99999999999994</ele><time>2026-04-06T10:16:19.65Z</time></trkpt><trkpt lat="43.0559375" lon="12.3278957"><ele>279.0</ele><time>2026-04-06T10:16:21.646Z</time></trkpt><trkpt lat="43.055883" lon="12.327949"><ele>278.99999999999994</ele><time>2026-04-06T10:16:23.654Z</time></trkpt><trkpt lat="43.0558242" lon="12.3279947"><ele>279.0</ele><time>2026-04-06T10:16:25.647Z</time></trkpt><trkpt lat="43.0557679" lon="12.3280428"><ele>279.0</ele><time>2026-04-06T10:16:27.65Z</time></trkpt><trkpt lat="43.0557133" lon="12.3280969"><ele>279.0</ele><time>2026-04-06T10:16:29.653Z</time></trkpt><trkpt lat="43.0556581" lon="12.3281469"><ele>279.0</ele><time>2026-04-06T10:16:31.63Z</time></trkpt><trkpt lat="43.0556045" lon="12.3282023"><ele>278.99999999999994</ele><time>2026-04-06T10:16:33.647Z</time></trkpt><trkpt lat="43.055548" lon="12.3282527"><ele>279.0</ele><time>2026-04-06T10:16:35.631Z</time></trkpt><trkpt lat="43.0554886" lon="12.3283052"><ele>279.57142857142856</ele><time>2026-04-06T10:16:37.654Z</time></trkpt><trkpt lat="43.0554275" lon="12.3283566"><ele>280.1428571428571</ele><time>2026-04-06T10:16:39.629Z</time></trkpt><trkpt lat="43.0553675" lon="12.3284077"><ele>280.7142857142857</ele><time>2026-04-06T10:16:41.667Z</time></trkpt><trkpt lat="43.0553097" lon="12.3284615"><ele>281.2857142857143</ele><time>2026-04-06T10:16:43.657Z</time></trkpt><trkpt lat="43.0552506" lon="12.3285172"><ele>281.8571428571429</ele><time>2026-04-06T10:16:45.738Z</time></trkpt><trkpt lat="43.0551892" lon="12.3285683"><ele>282.42857142857144</ele><time>2026-04-06T10:16:47.632Z</time></trkpt><trkpt lat="43.0551247" lon="12.3285971"><ele>283.0</ele><time>2026-04-06T10:16:49.633Z</time></trkpt><trkpt lat="43.0550531" lon="12.3286002"><ele>283.0</ele><time>2026-04-06T10:16:51.633Z</time></trkpt><trkpt lat="43.0549817" lon="12.3285852"><ele>283.0</ele><time>2026-04-06T10:16:53.633Z</time></trkpt><trkpt lat="43.0549135" lon="12.3285481"><ele>283.0</ele><time>2026-04-06T10:16:55.628Z</time></trkpt><trkpt lat="43.0548472" lon="12.3285142"><ele>283.0</ele><time>2026-04-06T10:16:57.64Z</time></trkpt><trkpt lat="43.0547809" lon="12.3285135"><ele>283.0</ele><time>2026-04-06T10:16:59.63Z</time></trkpt><trkpt lat="43.0547008" lon="12.3285094"><ele>283.0</ele><time>2026-04-06T10:17:02.64Z</time></trkpt><trkpt lat="43.0546343" lon="12.328482"><ele>283.0</ele><time>2026-04-06T10:17:04.647Z</time></trkpt><trkpt lat="43.054537" lon="12.328455"><ele>283.57142857142856</ele><time>2026-04-06T10:17:07.73Z</time></trkpt><trkpt lat="43.0544661" lon="12.3284222"><ele>284.14285714285717</ele><time>2026-04-06T10:17:09.658Z</time></trkpt><trkpt lat="43.0543994" lon="12.3283994"><ele>284.7142857142857</ele><time>2026-04-06T10:17:11.651Z</time></trkpt><trkpt lat="43.0543395" lon="12.3283703"><ele>285.2857142857143</ele><time>2026-04-06T10:17:13.648Z</time></trkpt><trkpt lat="43.0542757" lon="12.3283482"><ele>285.8571428571429</ele><time>2026-04-06T10:17:15.63Z</time></trkpt><trkpt lat="43.0542124" lon="12.3283247"><ele>286.42857142857144</ele><time>2026-04-06T10:17:17.651Z</time></trkpt><trkpt lat="43.054139" lon="12.3283527"><ele>287.0</ele><time>2026-04-06T10:17:20.649Z</time></trkpt><trkpt lat="43.054126" lon="12.3284573"><ele>287.42857142857144</ele><time>2026-04-06T10:17:22.653Z</time></trkpt><trkpt lat="43.0541099" lon="12.3285447"><ele>287.8571428571429</ele><time>2026-04-06T10:17:24.654Z</time></trkpt><trkpt lat="43.0540537" lon="12.3286135"><ele>288.2857142857143</ele><time>2026-04-06T10:17:27.648Z</time></trkpt><trkpt lat="43.0539919" lon="12.3285933"><ele>288.7142857142857</ele><time>2026-04-06T10:17:29.646Z</time></trkpt><trkpt lat="43.0539281" lon="12.3285601"><ele>289.14285714285717</ele><time>2026-04-06T10:17:31.652Z</time></trkpt><trkpt lat="43.0538608" lon="12.3285312"><ele>289.57142857142856</ele><time>2026-04-06T10:17:33.656Z</time></trkpt><trkpt lat="43.0537926" lon="12.3285076"><ele>290.0</ele><time>2026-04-06T10:17:35.648Z</time></trkpt><trkpt lat="43.0537271" lon="12.3284756"><ele>290.0</ele><time>2026-04-06T10:17:37.648Z</time></trkpt></trkseg></trk></gpx>